<?xml version="1.0" encoding="UTF-8" standalone="no" ?>
<gpx xmlns="http://www.topografix.com/GPX/1/1" xmlns:xsi="http://www.w3.org/2001/XMLSchema-instance" xsi:schemaLocation="http://www.topografix.com/GPX/1/1 http://www.topografix.com/GPX/1/1/gpx.xsd" version="1.1" creator="VisuGPX - https://www.visugpx.com">
  <metadata>
    <name>2018-07-27 Bike ride-Val d-Azergues 31km</name>
    <desc><![CDATA[2018-07-27 Bike ride-Val d-Azergues 31km]]></desc>
  </metadata>
  <wpt lat="45.92455" lon="4.73721">
    <ele>174</ele>
    <name><![CDATA[2018-07-27 10:39 (Start)]]></name>
  </wpt>
  <wpt lat="45.92458" lon="4.73711">
    <ele>174</ele>
    <name><![CDATA[2018-07-27 10:39 (End)]]></name>
  </wpt>
  <trk>
    <name><![CDATA[2018-07-27 10:39]]></name>
    <trkseg>
      <trkpt lat="45.92455" lon="4.73721">
        <ele>174</ele>
        <time>2018-07-27T08:39:31.996Z</time>
      </trkpt>
      <trkpt lat="45.92455" lon="4.73709">
        <ele>174</ele>
        <time>2018-07-27T08:39:56Z</time>
      </trkpt>
      <trkpt lat="45.92456" lon="4.73708">
        <ele>174</ele>
        <time>2018-07-27T08:39:57Z</time>
      </trkpt>
      <trkpt lat="45.92457" lon="4.73696">
        <ele>174</ele>
        <time>2018-07-27T08:40:01Z</time>
      </trkpt>
      <trkpt lat="45.92459" lon="4.73693">
        <ele>174</ele>
        <time>2018-07-27T08:40:02Z</time>
      </trkpt>
      <trkpt lat="45.92463" lon="4.73683">
        <ele>174</ele>
        <time>2018-07-27T08:40:06Z</time>
      </trkpt>
      <trkpt lat="45.92464" lon="4.7368">
        <ele>174</ele>
        <time>2018-07-27T08:40:07Z</time>
      </trkpt>
      <trkpt lat="45.92466" lon="4.7367">
        <ele>174</ele>
        <time>2018-07-27T08:40:10Z</time>
      </trkpt>
      <trkpt lat="45.92467" lon="4.73665">
        <ele>174</ele>
        <time>2018-07-27T08:40:11Z</time>
      </trkpt>
      <trkpt lat="45.92468" lon="4.73655">
        <ele>174</ele>
        <time>2018-07-27T08:40:13Z</time>
      </trkpt>
      <trkpt lat="45.92469" lon="4.73651">
        <ele>174</ele>
        <time>2018-07-27T08:40:14Z</time>
      </trkpt>
      <trkpt lat="45.92471" lon="4.73641">
        <ele>174</ele>
        <time>2018-07-27T08:40:17Z</time>
      </trkpt>
      <trkpt lat="45.92473" lon="4.73639">
        <ele>174</ele>
        <time>2018-07-27T08:40:18Z</time>
      </trkpt>
      <trkpt lat="45.9248" lon="4.73636">
        <ele>174</ele>
        <time>2018-07-27T08:40:21Z</time>
      </trkpt>
      <trkpt lat="45.92488" lon="4.73636">
        <ele>174</ele>
        <time>2018-07-27T08:40:22Z</time>
      </trkpt>
      <trkpt lat="45.92496" lon="4.73637">
        <ele>174</ele>
        <time>2018-07-27T08:40:24Z</time>
      </trkpt>
      <trkpt lat="45.925" lon="4.73637">
        <ele>174</ele>
        <time>2018-07-27T08:40:25Z</time>
      </trkpt>
      <trkpt lat="45.92508" lon="4.73637">
        <ele>174</ele>
        <time>2018-07-27T08:40:27Z</time>
      </trkpt>
      <trkpt lat="45.92512" lon="4.73636">
        <ele>173</ele>
        <time>2018-07-27T08:40:28Z</time>
      </trkpt>
      <trkpt lat="45.92517" lon="4.73635">
        <ele>173</ele>
        <time>2018-07-27T08:40:29Z</time>
      </trkpt>
      <trkpt lat="45.92522" lon="4.73634">
        <ele>173</ele>
        <time>2018-07-27T08:40:30Z</time>
      </trkpt>
      <trkpt lat="45.92528" lon="4.73632">
        <ele>173</ele>
        <time>2018-07-27T08:40:31Z</time>
      </trkpt>
      <trkpt lat="45.92533" lon="4.73629">
        <ele>173</ele>
        <time>2018-07-27T08:40:32Z</time>
      </trkpt>
      <trkpt lat="45.92539" lon="4.73627">
        <ele>173</ele>
        <time>2018-07-27T08:40:33Z</time>
      </trkpt>
      <trkpt lat="45.92544" lon="4.73627">
        <ele>173</ele>
        <time>2018-07-27T08:40:34Z</time>
      </trkpt>
      <trkpt lat="45.9255" lon="4.73626">
        <ele>173</ele>
        <time>2018-07-27T08:40:35Z</time>
      </trkpt>
      <trkpt lat="45.92555" lon="4.73624">
        <ele>173</ele>
        <time>2018-07-27T08:40:36Z</time>
      </trkpt>
      <trkpt lat="45.92561" lon="4.73624">
        <ele>173</ele>
        <time>2018-07-27T08:40:37Z</time>
      </trkpt>
      <trkpt lat="45.92567" lon="4.7362">
        <ele>173</ele>
        <time>2018-07-27T08:40:38Z</time>
      </trkpt>
      <trkpt lat="45.92572" lon="4.73613">
        <ele>173</ele>
        <time>2018-07-27T08:40:39Z</time>
      </trkpt>
      <trkpt lat="45.92578" lon="4.73617">
        <ele>173</ele>
        <time>2018-07-27T08:40:40Z</time>
      </trkpt>
      <trkpt lat="45.9258" lon="4.73614">
        <ele>173</ele>
        <time>2018-07-27T08:40:41Z</time>
      </trkpt>
      <trkpt lat="45.92587" lon="4.73615">
        <ele>173</ele>
        <time>2018-07-27T08:40:42Z</time>
      </trkpt>
      <trkpt lat="45.92593" lon="4.73616">
        <ele>173</ele>
        <time>2018-07-27T08:40:43Z</time>
      </trkpt>
      <trkpt lat="45.92599" lon="4.73617">
        <ele>173</ele>
        <time>2018-07-27T08:40:44Z</time>
      </trkpt>
      <trkpt lat="45.92604" lon="4.73618">
        <ele>173</ele>
        <time>2018-07-27T08:40:45Z</time>
      </trkpt>
      <trkpt lat="45.92608" lon="4.73624">
        <ele>173</ele>
        <time>2018-07-27T08:40:46Z</time>
      </trkpt>
      <trkpt lat="45.92611" lon="4.7363">
        <ele>173</ele>
        <time>2018-07-27T08:40:47Z</time>
      </trkpt>
      <trkpt lat="45.92614" lon="4.73635">
        <ele>173</ele>
        <time>2018-07-27T08:40:48Z</time>
      </trkpt>
      <trkpt lat="45.92619" lon="4.73639">
        <ele>173</ele>
        <time>2018-07-27T08:40:49Z</time>
      </trkpt>
      <trkpt lat="45.92623" lon="4.73647">
        <ele>173</ele>
        <time>2018-07-27T08:40:50Z</time>
      </trkpt>
      <trkpt lat="45.92625" lon="4.73654">
        <ele>173</ele>
        <time>2018-07-27T08:40:51Z</time>
      </trkpt>
      <trkpt lat="45.92627" lon="4.73661">
        <ele>173</ele>
        <time>2018-07-27T08:40:52Z</time>
      </trkpt>
      <trkpt lat="45.9263" lon="4.73667">
        <ele>173</ele>
        <time>2018-07-27T08:40:53Z</time>
      </trkpt>
      <trkpt lat="45.92634" lon="4.73674">
        <ele>173</ele>
        <time>2018-07-27T08:40:54Z</time>
      </trkpt>
      <trkpt lat="45.92638" lon="4.7368">
        <ele>173</ele>
        <time>2018-07-27T08:40:55Z</time>
      </trkpt>
      <trkpt lat="45.92642" lon="4.73684">
        <ele>173</ele>
        <time>2018-07-27T08:40:56Z</time>
      </trkpt>
      <trkpt lat="45.92647" lon="4.7369">
        <ele>173</ele>
        <time>2018-07-27T08:40:57Z</time>
      </trkpt>
      <trkpt lat="45.92653" lon="4.73694">
        <ele>173</ele>
        <time>2018-07-27T08:40:58Z</time>
      </trkpt>
      <trkpt lat="45.92658" lon="4.73697">
        <ele>173</ele>
        <time>2018-07-27T08:40:59Z</time>
      </trkpt>
      <trkpt lat="45.92663" lon="4.737">
        <ele>173</ele>
        <time>2018-07-27T08:41:00Z</time>
      </trkpt>
      <trkpt lat="45.9267" lon="4.73703">
        <ele>174</ele>
        <time>2018-07-27T08:41:01Z</time>
      </trkpt>
      <trkpt lat="45.92675" lon="4.73705">
        <ele>174</ele>
        <time>2018-07-27T08:41:02Z</time>
      </trkpt>
      <trkpt lat="45.92681" lon="4.73705">
        <ele>173</ele>
        <time>2018-07-27T08:41:03Z</time>
      </trkpt>
      <trkpt lat="45.92687" lon="4.73707">
        <ele>173</ele>
        <time>2018-07-27T08:41:04Z</time>
      </trkpt>
      <trkpt lat="45.92693" lon="4.73709">
        <ele>173</ele>
        <time>2018-07-27T08:41:05Z</time>
      </trkpt>
      <trkpt lat="45.927" lon="4.7371">
        <ele>173</ele>
        <time>2018-07-27T08:41:06Z</time>
      </trkpt>
      <trkpt lat="45.92706" lon="4.73712">
        <ele>173</ele>
        <time>2018-07-27T08:41:07Z</time>
      </trkpt>
      <trkpt lat="45.92712" lon="4.73713">
        <ele>173</ele>
        <time>2018-07-27T08:41:08Z</time>
      </trkpt>
      <trkpt lat="45.92718" lon="4.73715">
        <ele>173</ele>
        <time>2018-07-27T08:41:09Z</time>
      </trkpt>
      <trkpt lat="45.92724" lon="4.73716">
        <ele>173</ele>
        <time>2018-07-27T08:41:10Z</time>
      </trkpt>
      <trkpt lat="45.9273" lon="4.73717">
        <ele>173</ele>
        <time>2018-07-27T08:41:11Z</time>
      </trkpt>
      <trkpt lat="45.92735" lon="4.73718">
        <ele>173</ele>
        <time>2018-07-27T08:41:12Z</time>
      </trkpt>
      <trkpt lat="45.92743" lon="4.73721">
        <ele>173</ele>
        <time>2018-07-27T08:41:14Z</time>
      </trkpt>
      <trkpt lat="45.92749" lon="4.73723">
        <ele>173</ele>
        <time>2018-07-27T08:41:15Z</time>
      </trkpt>
      <trkpt lat="45.92754" lon="4.73727">
        <ele>172</ele>
        <time>2018-07-27T08:41:16Z</time>
      </trkpt>
      <trkpt lat="45.92758" lon="4.73727">
        <ele>172</ele>
        <time>2018-07-27T08:41:17Z</time>
      </trkpt>
      <trkpt lat="45.92762" lon="4.7373">
        <ele>172</ele>
        <time>2018-07-27T08:41:18Z</time>
      </trkpt>
      <trkpt lat="45.92765" lon="4.73734">
        <ele>172</ele>
        <time>2018-07-27T08:41:19Z</time>
      </trkpt>
      <trkpt lat="45.92774" lon="4.73734">
        <ele>172</ele>
        <time>2018-07-27T08:41:21Z</time>
      </trkpt>
      <trkpt lat="45.9278" lon="4.73738">
        <ele>172</ele>
        <time>2018-07-27T08:41:22Z</time>
      </trkpt>
      <trkpt lat="45.92783" lon="4.73748">
        <ele>172</ele>
        <time>2018-07-27T08:41:27Z</time>
      </trkpt>
      <trkpt lat="45.92789" lon="4.73755">
        <ele>173</ele>
        <time>2018-07-27T08:41:28Z</time>
      </trkpt>
      <trkpt lat="45.92796" lon="4.7376">
        <ele>173</ele>
        <time>2018-07-27T08:41:30Z</time>
      </trkpt>
      <trkpt lat="45.928" lon="4.73765">
        <ele>173</ele>
        <time>2018-07-27T08:41:31Z</time>
      </trkpt>
      <trkpt lat="45.92804" lon="4.73767">
        <ele>173</ele>
        <time>2018-07-27T08:41:32Z</time>
      </trkpt>
      <trkpt lat="45.92811" lon="4.7377">
        <ele>173</ele>
        <time>2018-07-27T08:41:33Z</time>
      </trkpt>
      <trkpt lat="45.92818" lon="4.73773">
        <ele>173</ele>
        <time>2018-07-27T08:41:34Z</time>
      </trkpt>
      <trkpt lat="45.92824" lon="4.73778">
        <ele>173</ele>
        <time>2018-07-27T08:41:35Z</time>
      </trkpt>
      <trkpt lat="45.92828" lon="4.73782">
        <ele>173</ele>
        <time>2018-07-27T08:41:36Z</time>
      </trkpt>
      <trkpt lat="45.92833" lon="4.73786">
        <ele>173</ele>
        <time>2018-07-27T08:41:37Z</time>
      </trkpt>
      <trkpt lat="45.92839" lon="4.73789">
        <ele>173</ele>
        <time>2018-07-27T08:41:38Z</time>
      </trkpt>
      <trkpt lat="45.92844" lon="4.73794">
        <ele>173</ele>
        <time>2018-07-27T08:41:39Z</time>
      </trkpt>
      <trkpt lat="45.9285" lon="4.73799">
        <ele>173</ele>
        <time>2018-07-27T08:41:40Z</time>
      </trkpt>
      <trkpt lat="45.92852" lon="4.73808">
        <ele>173</ele>
        <time>2018-07-27T08:41:41Z</time>
      </trkpt>
      <trkpt lat="45.92855" lon="4.73815">
        <ele>173</ele>
        <time>2018-07-27T08:41:42Z</time>
      </trkpt>
      <trkpt lat="45.92856" lon="4.73821">
        <ele>173</ele>
        <time>2018-07-27T08:41:43Z</time>
      </trkpt>
      <trkpt lat="45.92858" lon="4.73829">
        <ele>173</ele>
        <time>2018-07-27T08:41:44Z</time>
      </trkpt>
      <trkpt lat="45.9286" lon="4.73836">
        <ele>173</ele>
        <time>2018-07-27T08:41:45Z</time>
      </trkpt>
      <trkpt lat="45.92861" lon="4.73847">
        <ele>173</ele>
        <time>2018-07-27T08:41:47Z</time>
      </trkpt>
      <trkpt lat="45.92859" lon="4.73859">
        <ele>173</ele>
        <time>2018-07-27T08:41:48Z</time>
      </trkpt>
      <trkpt lat="45.92864" lon="4.73869">
        <ele>173</ele>
        <time>2018-07-27T08:41:50Z</time>
      </trkpt>
      <trkpt lat="45.92867" lon="4.73877">
        <ele>173</ele>
        <time>2018-07-27T08:41:51Z</time>
      </trkpt>
      <trkpt lat="45.92867" lon="4.73884">
        <ele>173</ele>
        <time>2018-07-27T08:41:52Z</time>
      </trkpt>
      <trkpt lat="45.92869" lon="4.73891">
        <ele>173</ele>
        <time>2018-07-27T08:41:53Z</time>
      </trkpt>
      <trkpt lat="45.92871" lon="4.73898">
        <ele>173</ele>
        <time>2018-07-27T08:41:54Z</time>
      </trkpt>
      <trkpt lat="45.92874" lon="4.73906">
        <ele>173</ele>
        <time>2018-07-27T08:41:55Z</time>
      </trkpt>
      <trkpt lat="45.92875" lon="4.73918">
        <ele>172</ele>
        <time>2018-07-27T08:41:56Z</time>
      </trkpt>
      <trkpt lat="45.92875" lon="4.73925">
        <ele>173</ele>
        <time>2018-07-27T08:41:57Z</time>
      </trkpt>
      <trkpt lat="45.92879" lon="4.73933">
        <ele>172</ele>
        <time>2018-07-27T08:41:58Z</time>
      </trkpt>
      <trkpt lat="45.92878" lon="4.73942">
        <ele>172</ele>
        <time>2018-07-27T08:41:59Z</time>
      </trkpt>
      <trkpt lat="45.92881" lon="4.73951">
        <ele>172</ele>
        <time>2018-07-27T08:42:00Z</time>
      </trkpt>
      <trkpt lat="45.92879" lon="4.7396">
        <ele>172</ele>
        <time>2018-07-27T08:42:01Z</time>
      </trkpt>
      <trkpt lat="45.92879" lon="4.73967">
        <ele>172</ele>
        <time>2018-07-27T08:42:02Z</time>
      </trkpt>
      <trkpt lat="45.92879" lon="4.73976">
        <ele>172</ele>
        <time>2018-07-27T08:42:03Z</time>
      </trkpt>
      <trkpt lat="45.92876" lon="4.73987">
        <ele>172</ele>
        <time>2018-07-27T08:42:05Z</time>
      </trkpt>
      <trkpt lat="45.92875" lon="4.73994">
        <ele>172</ele>
        <time>2018-07-27T08:42:06Z</time>
      </trkpt>
      <trkpt lat="45.92873" lon="4.74002">
        <ele>172</ele>
        <time>2018-07-27T08:42:07Z</time>
      </trkpt>
      <trkpt lat="45.92874" lon="4.74007">
        <ele>172</ele>
        <time>2018-07-27T08:42:08Z</time>
      </trkpt>
      <trkpt lat="45.92872" lon="4.74014">
        <ele>172</ele>
        <time>2018-07-27T08:42:09Z</time>
      </trkpt>
      <trkpt lat="45.92871" lon="4.74021">
        <ele>172</ele>
        <time>2018-07-27T08:42:10Z</time>
      </trkpt>
      <trkpt lat="45.92871" lon="4.74028">
        <ele>172</ele>
        <time>2018-07-27T08:42:11Z</time>
      </trkpt>
      <trkpt lat="45.92868" lon="4.74035">
        <ele>172</ele>
        <time>2018-07-27T08:42:12Z</time>
      </trkpt>
      <trkpt lat="45.92866" lon="4.74042">
        <ele>172</ele>
        <time>2018-07-27T08:42:13Z</time>
      </trkpt>
      <trkpt lat="45.92865" lon="4.74049">
        <ele>172</ele>
        <time>2018-07-27T08:42:14Z</time>
      </trkpt>
      <trkpt lat="45.9286" lon="4.74052">
        <ele>172</ele>
        <time>2018-07-27T08:42:15Z</time>
      </trkpt>
      <trkpt lat="45.92856" lon="4.74057">
        <ele>172</ele>
        <time>2018-07-27T08:42:16Z</time>
      </trkpt>
      <trkpt lat="45.9285" lon="4.74062">
        <ele>172</ele>
        <time>2018-07-27T08:42:17Z</time>
      </trkpt>
      <trkpt lat="45.92846" lon="4.74066">
        <ele>172</ele>
        <time>2018-07-27T08:42:18Z</time>
      </trkpt>
      <trkpt lat="45.92841" lon="4.74071">
        <ele>172</ele>
        <time>2018-07-27T08:42:19Z</time>
      </trkpt>
      <trkpt lat="45.92836" lon="4.74074">
        <ele>171</ele>
        <time>2018-07-27T08:42:20Z</time>
      </trkpt>
      <trkpt lat="45.92832" lon="4.74079">
        <ele>171</ele>
        <time>2018-07-27T08:42:21Z</time>
      </trkpt>
      <trkpt lat="45.92827" lon="4.74083">
        <ele>171</ele>
        <time>2018-07-27T08:42:22Z</time>
      </trkpt>
      <trkpt lat="45.92824" lon="4.74088">
        <ele>171</ele>
        <time>2018-07-27T08:42:23Z</time>
      </trkpt>
      <trkpt lat="45.9282" lon="4.74093">
        <ele>171</ele>
        <time>2018-07-27T08:42:24Z</time>
      </trkpt>
      <trkpt lat="45.92816" lon="4.74098">
        <ele>171</ele>
        <time>2018-07-27T08:42:25Z</time>
      </trkpt>
      <trkpt lat="45.92813" lon="4.74103">
        <ele>172</ele>
        <time>2018-07-27T08:42:26Z</time>
      </trkpt>
      <trkpt lat="45.92809" lon="4.74105">
        <ele>172</ele>
        <time>2018-07-27T08:42:27Z</time>
      </trkpt>
      <trkpt lat="45.92805" lon="4.74111">
        <ele>172</ele>
        <time>2018-07-27T08:42:28Z</time>
      </trkpt>
      <trkpt lat="45.92803" lon="4.74117">
        <ele>172</ele>
        <time>2018-07-27T08:42:29Z</time>
      </trkpt>
      <trkpt lat="45.928" lon="4.74123">
        <ele>172</ele>
        <time>2018-07-27T08:42:30Z</time>
      </trkpt>
      <trkpt lat="45.92796" lon="4.74127">
        <ele>172</ele>
        <time>2018-07-27T08:42:31Z</time>
      </trkpt>
      <trkpt lat="45.92793" lon="4.74132">
        <ele>172</ele>
        <time>2018-07-27T08:42:32Z</time>
      </trkpt>
      <trkpt lat="45.9279" lon="4.74136">
        <ele>172</ele>
        <time>2018-07-27T08:42:33Z</time>
      </trkpt>
      <trkpt lat="45.92785" lon="4.7414">
        <ele>172</ele>
        <time>2018-07-27T08:42:34Z</time>
      </trkpt>
      <trkpt lat="45.92781" lon="4.74145">
        <ele>172</ele>
        <time>2018-07-27T08:42:35Z</time>
      </trkpt>
      <trkpt lat="45.92777" lon="4.74148">
        <ele>172</ele>
        <time>2018-07-27T08:42:36Z</time>
      </trkpt>
      <trkpt lat="45.92772" lon="4.74152">
        <ele>172</ele>
        <time>2018-07-27T08:42:37Z</time>
      </trkpt>
      <trkpt lat="45.92769" lon="4.74157">
        <ele>172</ele>
        <time>2018-07-27T08:42:38Z</time>
      </trkpt>
      <trkpt lat="45.92764" lon="4.74161">
        <ele>172</ele>
        <time>2018-07-27T08:42:39Z</time>
      </trkpt>
      <trkpt lat="45.92761" lon="4.74166">
        <ele>172</ele>
        <time>2018-07-27T08:42:40Z</time>
      </trkpt>
      <trkpt lat="45.92756" lon="4.74171">
        <ele>172</ele>
        <time>2018-07-27T08:42:41Z</time>
      </trkpt>
      <trkpt lat="45.92752" lon="4.74176">
        <ele>172</ele>
        <time>2018-07-27T08:42:42Z</time>
      </trkpt>
      <trkpt lat="45.92749" lon="4.74183">
        <ele>172</ele>
        <time>2018-07-27T08:42:43Z</time>
      </trkpt>
      <trkpt lat="45.92744" lon="4.74188">
        <ele>172</ele>
        <time>2018-07-27T08:42:44Z</time>
      </trkpt>
      <trkpt lat="45.92741" lon="4.74193">
        <ele>171</ele>
        <time>2018-07-27T08:42:45Z</time>
      </trkpt>
      <trkpt lat="45.92737" lon="4.74198">
        <ele>171</ele>
        <time>2018-07-27T08:42:46Z</time>
      </trkpt>
      <trkpt lat="45.92734" lon="4.74204">
        <ele>171</ele>
        <time>2018-07-27T08:42:47Z</time>
      </trkpt>
      <trkpt lat="45.92729" lon="4.74208">
        <ele>171</ele>
        <time>2018-07-27T08:42:48Z</time>
      </trkpt>
      <trkpt lat="45.92725" lon="4.74214">
        <ele>171</ele>
        <time>2018-07-27T08:42:49Z</time>
      </trkpt>
      <trkpt lat="45.92722" lon="4.74219">
        <ele>171</ele>
        <time>2018-07-27T08:42:50Z</time>
      </trkpt>
      <trkpt lat="45.92718" lon="4.74223">
        <ele>171</ele>
        <time>2018-07-27T08:42:51Z</time>
      </trkpt>
      <trkpt lat="45.92714" lon="4.74229">
        <ele>171</ele>
        <time>2018-07-27T08:42:52Z</time>
      </trkpt>
      <trkpt lat="45.92711" lon="4.74236">
        <ele>171</ele>
        <time>2018-07-27T08:42:53Z</time>
      </trkpt>
      <trkpt lat="45.92707" lon="4.74242">
        <ele>171</ele>
        <time>2018-07-27T08:42:54Z</time>
      </trkpt>
      <trkpt lat="45.92703" lon="4.74246">
        <ele>171</ele>
        <time>2018-07-27T08:42:55Z</time>
      </trkpt>
      <trkpt lat="45.92699" lon="4.74251">
        <ele>171</ele>
        <time>2018-07-27T08:42:56Z</time>
      </trkpt>
      <trkpt lat="45.92696" lon="4.74257">
        <ele>171</ele>
        <time>2018-07-27T08:42:57Z</time>
      </trkpt>
      <trkpt lat="45.92692" lon="4.74264">
        <ele>171</ele>
        <time>2018-07-27T08:42:58Z</time>
      </trkpt>
      <trkpt lat="45.92688" lon="4.7427">
        <ele>171</ele>
        <time>2018-07-27T08:42:59Z</time>
      </trkpt>
      <trkpt lat="45.92685" lon="4.74277">
        <ele>171</ele>
        <time>2018-07-27T08:43:00Z</time>
      </trkpt>
      <trkpt lat="45.92681" lon="4.74284">
        <ele>171</ele>
        <time>2018-07-27T08:43:01Z</time>
      </trkpt>
      <trkpt lat="45.92677" lon="4.7429">
        <ele>171</ele>
        <time>2018-07-27T08:43:02Z</time>
      </trkpt>
      <trkpt lat="45.92674" lon="4.74298">
        <ele>171</ele>
        <time>2018-07-27T08:43:03Z</time>
      </trkpt>
      <trkpt lat="45.9267" lon="4.74304">
        <ele>171</ele>
        <time>2018-07-27T08:43:04Z</time>
      </trkpt>
      <trkpt lat="45.92666" lon="4.7431">
        <ele>171</ele>
        <time>2018-07-27T08:43:05Z</time>
      </trkpt>
      <trkpt lat="45.92662" lon="4.74317">
        <ele>171</ele>
        <time>2018-07-27T08:43:06Z</time>
      </trkpt>
      <trkpt lat="45.92658" lon="4.74323">
        <ele>171</ele>
        <time>2018-07-27T08:43:07Z</time>
      </trkpt>
      <trkpt lat="45.92654" lon="4.7433">
        <ele>171</ele>
        <time>2018-07-27T08:43:08Z</time>
      </trkpt>
      <trkpt lat="45.92651" lon="4.74337">
        <ele>171</ele>
        <time>2018-07-27T08:43:09Z</time>
      </trkpt>
      <trkpt lat="45.92648" lon="4.74345">
        <ele>171</ele>
        <time>2018-07-27T08:43:10Z</time>
      </trkpt>
      <trkpt lat="45.92644" lon="4.74352">
        <ele>171</ele>
        <time>2018-07-27T08:43:11Z</time>
      </trkpt>
      <trkpt lat="45.9264" lon="4.74356">
        <ele>171</ele>
        <time>2018-07-27T08:43:12Z</time>
      </trkpt>
      <trkpt lat="45.92636" lon="4.74364">
        <ele>171</ele>
        <time>2018-07-27T08:43:13Z</time>
      </trkpt>
      <trkpt lat="45.92634" lon="4.74374">
        <ele>171</ele>
        <time>2018-07-27T08:43:14Z</time>
      </trkpt>
      <trkpt lat="45.92629" lon="4.7438">
        <ele>170</ele>
        <time>2018-07-27T08:43:15Z</time>
      </trkpt>
      <trkpt lat="45.92626" lon="4.74387">
        <ele>170</ele>
        <time>2018-07-27T08:43:16Z</time>
      </trkpt>
      <trkpt lat="45.92622" lon="4.74395">
        <ele>170</ele>
        <time>2018-07-27T08:43:17Z</time>
      </trkpt>
      <trkpt lat="45.92618" lon="4.74401">
        <ele>170</ele>
        <time>2018-07-27T08:43:18Z</time>
      </trkpt>
      <trkpt lat="45.92614" lon="4.74409">
        <ele>170</ele>
        <time>2018-07-27T08:43:19Z</time>
      </trkpt>
      <trkpt lat="45.92609" lon="4.74415">
        <ele>170</ele>
        <time>2018-07-27T08:43:20Z</time>
      </trkpt>
      <trkpt lat="45.92606" lon="4.74422">
        <ele>170</ele>
        <time>2018-07-27T08:43:21Z</time>
      </trkpt>
      <trkpt lat="45.92602" lon="4.74429">
        <ele>170</ele>
        <time>2018-07-27T08:43:22Z</time>
      </trkpt>
      <trkpt lat="45.92598" lon="4.74437">
        <ele>170</ele>
        <time>2018-07-27T08:43:23Z</time>
      </trkpt>
      <trkpt lat="45.92594" lon="4.74445">
        <ele>170</ele>
        <time>2018-07-27T08:43:24Z</time>
      </trkpt>
      <trkpt lat="45.92589" lon="4.74452">
        <ele>170</ele>
        <time>2018-07-27T08:43:25Z</time>
      </trkpt>
      <trkpt lat="45.92585" lon="4.74459">
        <ele>170</ele>
        <time>2018-07-27T08:43:26Z</time>
      </trkpt>
      <trkpt lat="45.92581" lon="4.74466">
        <ele>170</ele>
        <time>2018-07-27T08:43:27Z</time>
      </trkpt>
      <trkpt lat="45.92577" lon="4.74474">
        <ele>170</ele>
        <time>2018-07-27T08:43:28Z</time>
      </trkpt>
      <trkpt lat="45.92572" lon="4.74479">
        <ele>170</ele>
        <time>2018-07-27T08:43:29Z</time>
      </trkpt>
      <trkpt lat="45.92568" lon="4.74485">
        <ele>170</ele>
        <time>2018-07-27T08:43:30Z</time>
      </trkpt>
      <trkpt lat="45.92563" lon="4.7449">
        <ele>170</ele>
        <time>2018-07-27T08:43:31Z</time>
      </trkpt>
      <trkpt lat="45.92559" lon="4.74496">
        <ele>170</ele>
        <time>2018-07-27T08:43:32Z</time>
      </trkpt>
      <trkpt lat="45.92557" lon="4.74505">
        <ele>170</ele>
        <time>2018-07-27T08:43:33Z</time>
      </trkpt>
      <trkpt lat="45.92554" lon="4.74512">
        <ele>170</ele>
        <time>2018-07-27T08:43:34Z</time>
      </trkpt>
      <trkpt lat="45.92552" lon="4.7452">
        <ele>170</ele>
        <time>2018-07-27T08:43:35Z</time>
      </trkpt>
      <trkpt lat="45.92548" lon="4.74526">
        <ele>170</ele>
        <time>2018-07-27T08:43:36Z</time>
      </trkpt>
      <trkpt lat="45.92544" lon="4.74534">
        <ele>170</ele>
        <time>2018-07-27T08:43:37Z</time>
      </trkpt>
      <trkpt lat="45.92541" lon="4.7454">
        <ele>171</ele>
        <time>2018-07-27T08:43:38Z</time>
      </trkpt>
      <trkpt lat="45.92535" lon="4.74546">
        <ele>171</ele>
        <time>2018-07-27T08:43:39Z</time>
      </trkpt>
      <trkpt lat="45.92531" lon="4.74554">
        <ele>171</ele>
        <time>2018-07-27T08:43:40Z</time>
      </trkpt>
      <trkpt lat="45.92526" lon="4.74558">
        <ele>171</ele>
        <time>2018-07-27T08:43:41Z</time>
      </trkpt>
      <trkpt lat="45.92521" lon="4.74564">
        <ele>171</ele>
        <time>2018-07-27T08:43:42Z</time>
      </trkpt>
      <trkpt lat="45.92516" lon="4.7457">
        <ele>171</ele>
        <time>2018-07-27T08:43:43Z</time>
      </trkpt>
      <trkpt lat="45.92511" lon="4.74575">
        <ele>171</ele>
        <time>2018-07-27T08:43:44Z</time>
      </trkpt>
      <trkpt lat="45.92507" lon="4.74583">
        <ele>171</ele>
        <time>2018-07-27T08:43:45Z</time>
      </trkpt>
      <trkpt lat="45.92502" lon="4.74589">
        <ele>171</ele>
        <time>2018-07-27T08:43:46Z</time>
      </trkpt>
      <trkpt lat="45.92499" lon="4.74594">
        <ele>171</ele>
        <time>2018-07-27T08:43:47Z</time>
      </trkpt>
      <trkpt lat="45.92493" lon="4.746">
        <ele>171</ele>
        <time>2018-07-27T08:43:48Z</time>
      </trkpt>
      <trkpt lat="45.92488" lon="4.74606">
        <ele>171</ele>
        <time>2018-07-27T08:43:49Z</time>
      </trkpt>
      <trkpt lat="45.92484" lon="4.74611">
        <ele>171</ele>
        <time>2018-07-27T08:43:50Z</time>
      </trkpt>
      <trkpt lat="45.9248" lon="4.74617">
        <ele>171</ele>
        <time>2018-07-27T08:43:51Z</time>
      </trkpt>
      <trkpt lat="45.92475" lon="4.74624">
        <ele>171</ele>
        <time>2018-07-27T08:43:52Z</time>
      </trkpt>
      <trkpt lat="45.92471" lon="4.7463">
        <ele>171</ele>
        <time>2018-07-27T08:43:53Z</time>
      </trkpt>
      <trkpt lat="45.92467" lon="4.74635">
        <ele>171</ele>
        <time>2018-07-27T08:43:54Z</time>
      </trkpt>
      <trkpt lat="45.92463" lon="4.74641">
        <ele>171</ele>
        <time>2018-07-27T08:43:55Z</time>
      </trkpt>
      <trkpt lat="45.92459" lon="4.74647">
        <ele>171</ele>
        <time>2018-07-27T08:43:56Z</time>
      </trkpt>
      <trkpt lat="45.92456" lon="4.74654">
        <ele>171</ele>
        <time>2018-07-27T08:43:57Z</time>
      </trkpt>
      <trkpt lat="45.92452" lon="4.74661">
        <ele>171</ele>
        <time>2018-07-27T08:43:58Z</time>
      </trkpt>
      <trkpt lat="45.92449" lon="4.74668">
        <ele>171</ele>
        <time>2018-07-27T08:43:59Z</time>
      </trkpt>
      <trkpt lat="45.92445" lon="4.74673">
        <ele>171</ele>
        <time>2018-07-27T08:44:00Z</time>
      </trkpt>
      <trkpt lat="45.92443" lon="4.74681">
        <ele>171</ele>
        <time>2018-07-27T08:44:01Z</time>
      </trkpt>
      <trkpt lat="45.9244" lon="4.74688">
        <ele>171</ele>
        <time>2018-07-27T08:44:02Z</time>
      </trkpt>
      <trkpt lat="45.92438" lon="4.74695">
        <ele>171</ele>
        <time>2018-07-27T08:44:03Z</time>
      </trkpt>
      <trkpt lat="45.92434" lon="4.74704">
        <ele>171</ele>
        <time>2018-07-27T08:44:04Z</time>
      </trkpt>
      <trkpt lat="45.92432" lon="4.74713">
        <ele>171</ele>
        <time>2018-07-27T08:44:05Z</time>
      </trkpt>
      <trkpt lat="45.92428" lon="4.74721">
        <ele>171</ele>
        <time>2018-07-27T08:44:06Z</time>
      </trkpt>
      <trkpt lat="45.92425" lon="4.74728">
        <ele>171</ele>
        <time>2018-07-27T08:44:07Z</time>
      </trkpt>
      <trkpt lat="45.92422" lon="4.74735">
        <ele>171</ele>
        <time>2018-07-27T08:44:08Z</time>
      </trkpt>
      <trkpt lat="45.9242" lon="4.74743">
        <ele>172</ele>
        <time>2018-07-27T08:44:09Z</time>
      </trkpt>
      <trkpt lat="45.92417" lon="4.74751">
        <ele>172</ele>
        <time>2018-07-27T08:44:10Z</time>
      </trkpt>
      <trkpt lat="45.92415" lon="4.74758">
        <ele>172</ele>
        <time>2018-07-27T08:44:11Z</time>
      </trkpt>
      <trkpt lat="45.92412" lon="4.74766">
        <ele>172</ele>
        <time>2018-07-27T08:44:12Z</time>
      </trkpt>
      <trkpt lat="45.9241" lon="4.74773">
        <ele>171</ele>
        <time>2018-07-27T08:44:13Z</time>
      </trkpt>
      <trkpt lat="45.92409" lon="4.74782">
        <ele>171</ele>
        <time>2018-07-27T08:44:14Z</time>
      </trkpt>
      <trkpt lat="45.92407" lon="4.74791">
        <ele>171</ele>
        <time>2018-07-27T08:44:15Z</time>
      </trkpt>
      <trkpt lat="45.92405" lon="4.74799">
        <ele>171</ele>
        <time>2018-07-27T08:44:16Z</time>
      </trkpt>
      <trkpt lat="45.92404" lon="4.74807">
        <ele>171</ele>
        <time>2018-07-27T08:44:17Z</time>
      </trkpt>
      <trkpt lat="45.92402" lon="4.74816">
        <ele>171</ele>
        <time>2018-07-27T08:44:18Z</time>
      </trkpt>
      <trkpt lat="45.92399" lon="4.74824">
        <ele>171</ele>
        <time>2018-07-27T08:44:19Z</time>
      </trkpt>
      <trkpt lat="45.92398" lon="4.74834">
        <ele>171</ele>
        <time>2018-07-27T08:44:20Z</time>
      </trkpt>
      <trkpt lat="45.92396" lon="4.74844">
        <ele>171</ele>
        <time>2018-07-27T08:44:21Z</time>
      </trkpt>
      <trkpt lat="45.92394" lon="4.74853">
        <ele>171</ele>
        <time>2018-07-27T08:44:22Z</time>
      </trkpt>
      <trkpt lat="45.92391" lon="4.74861">
        <ele>171</ele>
        <time>2018-07-27T08:44:23Z</time>
      </trkpt>
      <trkpt lat="45.92389" lon="4.7487">
        <ele>171</ele>
        <time>2018-07-27T08:44:24Z</time>
      </trkpt>
      <trkpt lat="45.92386" lon="4.74879">
        <ele>171</ele>
        <time>2018-07-27T08:44:25Z</time>
      </trkpt>
      <trkpt lat="45.92383" lon="4.74888">
        <ele>171</ele>
        <time>2018-07-27T08:44:26Z</time>
      </trkpt>
      <trkpt lat="45.9238" lon="4.74896">
        <ele>171</ele>
        <time>2018-07-27T08:44:27Z</time>
      </trkpt>
      <trkpt lat="45.92377" lon="4.74904">
        <ele>171</ele>
        <time>2018-07-27T08:44:28Z</time>
      </trkpt>
      <trkpt lat="45.92374" lon="4.74912">
        <ele>171</ele>
        <time>2018-07-27T08:44:29Z</time>
      </trkpt>
      <trkpt lat="45.92371" lon="4.7492">
        <ele>170</ele>
        <time>2018-07-27T08:44:30Z</time>
      </trkpt>
      <trkpt lat="45.92368" lon="4.74927">
        <ele>170</ele>
        <time>2018-07-27T08:44:31Z</time>
      </trkpt>
      <trkpt lat="45.92365" lon="4.74935">
        <ele>170</ele>
        <time>2018-07-27T08:44:32Z</time>
      </trkpt>
      <trkpt lat="45.92362" lon="4.74942">
        <ele>170</ele>
        <time>2018-07-27T08:44:33Z</time>
      </trkpt>
      <trkpt lat="45.92359" lon="4.74951">
        <ele>170</ele>
        <time>2018-07-27T08:44:34Z</time>
      </trkpt>
      <trkpt lat="45.92356" lon="4.74958">
        <ele>170</ele>
        <time>2018-07-27T08:44:35Z</time>
      </trkpt>
      <trkpt lat="45.92353" lon="4.74965">
        <ele>170</ele>
        <time>2018-07-27T08:44:36Z</time>
      </trkpt>
      <trkpt lat="45.9235" lon="4.74973">
        <ele>170</ele>
        <time>2018-07-27T08:44:37Z</time>
      </trkpt>
      <trkpt lat="45.92346" lon="4.74979">
        <ele>170</ele>
        <time>2018-07-27T08:44:38Z</time>
      </trkpt>
      <trkpt lat="45.92343" lon="4.74986">
        <ele>170</ele>
        <time>2018-07-27T08:44:39Z</time>
      </trkpt>
      <trkpt lat="45.92339" lon="4.74994">
        <ele>170</ele>
        <time>2018-07-27T08:44:40Z</time>
      </trkpt>
      <trkpt lat="45.92337" lon="4.75001">
        <ele>170</ele>
        <time>2018-07-27T08:44:41Z</time>
      </trkpt>
      <trkpt lat="45.92334" lon="4.75009">
        <ele>170</ele>
        <time>2018-07-27T08:44:42Z</time>
      </trkpt>
      <trkpt lat="45.92331" lon="4.75017">
        <ele>171</ele>
        <time>2018-07-27T08:44:43Z</time>
      </trkpt>
      <trkpt lat="45.92328" lon="4.75025">
        <ele>171</ele>
        <time>2018-07-27T08:44:44Z</time>
      </trkpt>
      <trkpt lat="45.92324" lon="4.75032">
        <ele>171</ele>
        <time>2018-07-27T08:44:45Z</time>
      </trkpt>
      <trkpt lat="45.92321" lon="4.75039">
        <ele>171</ele>
        <time>2018-07-27T08:44:46Z</time>
      </trkpt>
      <trkpt lat="45.92318" lon="4.75044">
        <ele>172</ele>
        <time>2018-07-27T08:44:47Z</time>
      </trkpt>
      <trkpt lat="45.92314" lon="4.7505">
        <ele>172</ele>
        <time>2018-07-27T08:44:48Z</time>
      </trkpt>
      <trkpt lat="45.92309" lon="4.75055">
        <ele>172</ele>
        <time>2018-07-27T08:44:49Z</time>
      </trkpt>
      <trkpt lat="45.92306" lon="4.75061">
        <ele>172</ele>
        <time>2018-07-27T08:44:50Z</time>
      </trkpt>
      <trkpt lat="45.92301" lon="4.75069">
        <ele>172</ele>
        <time>2018-07-27T08:44:51Z</time>
      </trkpt>
      <trkpt lat="45.92296" lon="4.75075">
        <ele>172</ele>
        <time>2018-07-27T08:44:52Z</time>
      </trkpt>
      <trkpt lat="45.92289" lon="4.75077">
        <ele>172</ele>
        <time>2018-07-27T08:44:53Z</time>
      </trkpt>
      <trkpt lat="45.92285" lon="4.75082">
        <ele>172</ele>
        <time>2018-07-27T08:44:54Z</time>
      </trkpt>
      <trkpt lat="45.92279" lon="4.75087">
        <ele>173</ele>
        <time>2018-07-27T08:44:55Z</time>
      </trkpt>
      <trkpt lat="45.92275" lon="4.75092">
        <ele>173</ele>
        <time>2018-07-27T08:44:56Z</time>
      </trkpt>
      <trkpt lat="45.92272" lon="4.75101">
        <ele>173</ele>
        <time>2018-07-27T08:44:57Z</time>
      </trkpt>
      <trkpt lat="45.92268" lon="4.75108">
        <ele>174</ele>
        <time>2018-07-27T08:44:58Z</time>
      </trkpt>
      <trkpt lat="45.92263" lon="4.75115">
        <ele>174</ele>
        <time>2018-07-27T08:44:59Z</time>
      </trkpt>
      <trkpt lat="45.92259" lon="4.75122">
        <ele>174</ele>
        <time>2018-07-27T08:45:00Z</time>
      </trkpt>
      <trkpt lat="45.92254" lon="4.75127">
        <ele>174</ele>
        <time>2018-07-27T08:45:01Z</time>
      </trkpt>
      <trkpt lat="45.92248" lon="4.75132">
        <ele>174</ele>
        <time>2018-07-27T08:45:02Z</time>
      </trkpt>
      <trkpt lat="45.92245" lon="4.75137">
        <ele>174</ele>
        <time>2018-07-27T08:45:03Z</time>
      </trkpt>
      <trkpt lat="45.92239" lon="4.75141">
        <ele>174</ele>
        <time>2018-07-27T08:45:04Z</time>
      </trkpt>
      <trkpt lat="45.92234" lon="4.75148">
        <ele>174</ele>
        <time>2018-07-27T08:45:05Z</time>
      </trkpt>
      <trkpt lat="45.92231" lon="4.75154">
        <ele>174</ele>
        <time>2018-07-27T08:45:06Z</time>
      </trkpt>
      <trkpt lat="45.92227" lon="4.75159">
        <ele>174</ele>
        <time>2018-07-27T08:45:07Z</time>
      </trkpt>
      <trkpt lat="45.92224" lon="4.75167">
        <ele>175</ele>
        <time>2018-07-27T08:45:08Z</time>
      </trkpt>
      <trkpt lat="45.92222" lon="4.75175">
        <ele>175</ele>
        <time>2018-07-27T08:45:09Z</time>
      </trkpt>
      <trkpt lat="45.9222" lon="4.75182">
        <ele>175</ele>
        <time>2018-07-27T08:45:10Z</time>
      </trkpt>
      <trkpt lat="45.92218" lon="4.75191">
        <ele>175</ele>
        <time>2018-07-27T08:45:11Z</time>
      </trkpt>
      <trkpt lat="45.92215" lon="4.75198">
        <ele>175</ele>
        <time>2018-07-27T08:45:12Z</time>
      </trkpt>
      <trkpt lat="45.92213" lon="4.75204">
        <ele>175</ele>
        <time>2018-07-27T08:45:13Z</time>
      </trkpt>
      <trkpt lat="45.92212" lon="4.75212">
        <ele>175</ele>
        <time>2018-07-27T08:45:14Z</time>
      </trkpt>
      <trkpt lat="45.92211" lon="4.75219">
        <ele>175</ele>
        <time>2018-07-27T08:45:15Z</time>
      </trkpt>
      <trkpt lat="45.9221" lon="4.75227">
        <ele>175</ele>
        <time>2018-07-27T08:45:16Z</time>
      </trkpt>
      <trkpt lat="45.92209" lon="4.75234">
        <ele>175</ele>
        <time>2018-07-27T08:45:17Z</time>
      </trkpt>
      <trkpt lat="45.92206" lon="4.75239">
        <ele>175</ele>
        <time>2018-07-27T08:45:18Z</time>
      </trkpt>
      <trkpt lat="45.92206" lon="4.7525">
        <ele>175</ele>
        <time>2018-07-27T08:45:19Z</time>
      </trkpt>
      <trkpt lat="45.92205" lon="4.75254">
        <ele>175</ele>
        <time>2018-07-27T08:45:20Z</time>
      </trkpt>
      <trkpt lat="45.92206" lon="4.7526">
        <ele>176</ele>
        <time>2018-07-27T08:45:21Z</time>
      </trkpt>
      <trkpt lat="45.92207" lon="4.75267">
        <ele>176</ele>
        <time>2018-07-27T08:45:22Z</time>
      </trkpt>
      <trkpt lat="45.92207" lon="4.75275">
        <ele>176</ele>
        <time>2018-07-27T08:45:23Z</time>
      </trkpt>
      <trkpt lat="45.92207" lon="4.75283">
        <ele>176</ele>
        <time>2018-07-27T08:45:24Z</time>
      </trkpt>
      <trkpt lat="45.92207" lon="4.75296">
        <ele>176</ele>
        <time>2018-07-27T08:45:26Z</time>
      </trkpt>
      <trkpt lat="45.92206" lon="4.75304">
        <ele>176</ele>
        <time>2018-07-27T08:45:27Z</time>
      </trkpt>
      <trkpt lat="45.92206" lon="4.75311">
        <ele>176</ele>
        <time>2018-07-27T08:45:28Z</time>
      </trkpt>
      <trkpt lat="45.92206" lon="4.75317">
        <ele>176</ele>
        <time>2018-07-27T08:45:29Z</time>
      </trkpt>
      <trkpt lat="45.92205" lon="4.75324">
        <ele>176</ele>
        <time>2018-07-27T08:45:30Z</time>
      </trkpt>
      <trkpt lat="45.92203" lon="4.75332">
        <ele>176</ele>
        <time>2018-07-27T08:45:31Z</time>
      </trkpt>
      <trkpt lat="45.92203" lon="4.75338">
        <ele>177</ele>
        <time>2018-07-27T08:45:32Z</time>
      </trkpt>
      <trkpt lat="45.92204" lon="4.75347">
        <ele>177</ele>
        <time>2018-07-27T08:45:33Z</time>
      </trkpt>
      <trkpt lat="45.92201" lon="4.75354">
        <ele>177</ele>
        <time>2018-07-27T08:45:34Z</time>
      </trkpt>
      <trkpt lat="45.92201" lon="4.75362">
        <ele>177</ele>
        <time>2018-07-27T08:45:35Z</time>
      </trkpt>
      <trkpt lat="45.922" lon="4.75372">
        <ele>177</ele>
        <time>2018-07-27T08:45:36Z</time>
      </trkpt>
      <trkpt lat="45.92196" lon="4.75377">
        <ele>177</ele>
        <time>2018-07-27T08:45:37Z</time>
      </trkpt>
      <trkpt lat="45.92193" lon="4.75385">
        <ele>177</ele>
        <time>2018-07-27T08:45:38Z</time>
      </trkpt>
      <trkpt lat="45.9219" lon="4.75395">
        <ele>177</ele>
        <time>2018-07-27T08:45:39Z</time>
      </trkpt>
      <trkpt lat="45.92188" lon="4.75402">
        <ele>177</ele>
        <time>2018-07-27T08:45:40Z</time>
      </trkpt>
      <trkpt lat="45.92185" lon="4.75408">
        <ele>177</ele>
        <time>2018-07-27T08:45:41Z</time>
      </trkpt>
      <trkpt lat="45.92183" lon="4.75417">
        <ele>177</ele>
        <time>2018-07-27T08:45:42Z</time>
      </trkpt>
      <trkpt lat="45.9218" lon="4.75424">
        <ele>177</ele>
        <time>2018-07-27T08:45:43Z</time>
      </trkpt>
      <trkpt lat="45.92177" lon="4.75429">
        <ele>177</ele>
        <time>2018-07-27T08:45:44Z</time>
      </trkpt>
      <trkpt lat="45.92175" lon="4.75437">
        <ele>177</ele>
        <time>2018-07-27T08:45:45Z</time>
      </trkpt>
      <trkpt lat="45.92171" lon="4.75444">
        <ele>176</ele>
        <time>2018-07-27T08:45:46Z</time>
      </trkpt>
      <trkpt lat="45.92168" lon="4.75452">
        <ele>176</ele>
        <time>2018-07-27T08:45:47Z</time>
      </trkpt>
      <trkpt lat="45.92164" lon="4.75457">
        <ele>176</ele>
        <time>2018-07-27T08:45:48Z</time>
      </trkpt>
      <trkpt lat="45.92161" lon="4.75463">
        <ele>176</ele>
        <time>2018-07-27T08:45:49Z</time>
      </trkpt>
      <trkpt lat="45.92157" lon="4.75471">
        <ele>176</ele>
        <time>2018-07-27T08:45:50Z</time>
      </trkpt>
      <trkpt lat="45.92153" lon="4.75478">
        <ele>176</ele>
        <time>2018-07-27T08:45:51Z</time>
      </trkpt>
      <trkpt lat="45.92149" lon="4.75485">
        <ele>176</ele>
        <time>2018-07-27T08:45:52Z</time>
      </trkpt>
      <trkpt lat="45.92145" lon="4.75495">
        <ele>175</ele>
        <time>2018-07-27T08:45:53Z</time>
      </trkpt>
      <trkpt lat="45.9214" lon="4.75502">
        <ele>174</ele>
        <time>2018-07-27T08:45:54Z</time>
      </trkpt>
      <trkpt lat="45.92136" lon="4.7551">
        <ele>174</ele>
        <time>2018-07-27T08:45:55Z</time>
      </trkpt>
      <trkpt lat="45.92132" lon="4.7552">
        <ele>174</ele>
        <time>2018-07-27T08:45:56Z</time>
      </trkpt>
      <trkpt lat="45.92128" lon="4.75528">
        <ele>174</ele>
        <time>2018-07-27T08:45:57Z</time>
      </trkpt>
      <trkpt lat="45.92123" lon="4.75534">
        <ele>174</ele>
        <time>2018-07-27T08:45:58Z</time>
      </trkpt>
      <trkpt lat="45.9212" lon="4.75541">
        <ele>174</ele>
        <time>2018-07-27T08:45:59Z</time>
      </trkpt>
      <trkpt lat="45.92115" lon="4.75549">
        <ele>174</ele>
        <time>2018-07-27T08:46:00Z</time>
      </trkpt>
      <trkpt lat="45.92111" lon="4.75553">
        <ele>174</ele>
        <time>2018-07-27T08:46:01Z</time>
      </trkpt>
      <trkpt lat="45.92106" lon="4.75556">
        <ele>174</ele>
        <time>2018-07-27T08:46:02Z</time>
      </trkpt>
      <trkpt lat="45.92101" lon="4.75561">
        <ele>174</ele>
        <time>2018-07-27T08:46:03Z</time>
      </trkpt>
      <trkpt lat="45.92098" lon="4.7557">
        <ele>174</ele>
        <time>2018-07-27T08:46:04Z</time>
      </trkpt>
      <trkpt lat="45.92094" lon="4.75577">
        <ele>174</ele>
        <time>2018-07-27T08:46:05Z</time>
      </trkpt>
      <trkpt lat="45.9209" lon="4.75585">
        <ele>174</ele>
        <time>2018-07-27T08:46:06Z</time>
      </trkpt>
      <trkpt lat="45.92087" lon="4.75593">
        <ele>174</ele>
        <time>2018-07-27T08:46:07Z</time>
      </trkpt>
      <trkpt lat="45.92083" lon="4.75602">
        <ele>175</ele>
        <time>2018-07-27T08:46:08Z</time>
      </trkpt>
      <trkpt lat="45.92079" lon="4.75608">
        <ele>175</ele>
        <time>2018-07-27T08:46:09Z</time>
      </trkpt>
      <trkpt lat="45.92076" lon="4.75617">
        <ele>175</ele>
        <time>2018-07-27T08:46:10Z</time>
      </trkpt>
      <trkpt lat="45.92072" lon="4.75624">
        <ele>175</ele>
        <time>2018-07-27T08:46:11Z</time>
      </trkpt>
      <trkpt lat="45.92068" lon="4.75633">
        <ele>175</ele>
        <time>2018-07-27T08:46:12Z</time>
      </trkpt>
      <trkpt lat="45.92064" lon="4.7564">
        <ele>175</ele>
        <time>2018-07-27T08:46:13Z</time>
      </trkpt>
      <trkpt lat="45.9206" lon="4.75646">
        <ele>175</ele>
        <time>2018-07-27T08:46:14Z</time>
      </trkpt>
      <trkpt lat="45.92056" lon="4.75653">
        <ele>175</ele>
        <time>2018-07-27T08:46:15Z</time>
      </trkpt>
      <trkpt lat="45.92052" lon="4.7566">
        <ele>175</ele>
        <time>2018-07-27T08:46:16Z</time>
      </trkpt>
      <trkpt lat="45.92048" lon="4.75669">
        <ele>175</ele>
        <time>2018-07-27T08:46:17Z</time>
      </trkpt>
      <trkpt lat="45.92044" lon="4.75675">
        <ele>175</ele>
        <time>2018-07-27T08:46:18Z</time>
      </trkpt>
      <trkpt lat="45.9204" lon="4.75683">
        <ele>175</ele>
        <time>2018-07-27T08:46:19Z</time>
      </trkpt>
      <trkpt lat="45.92035" lon="4.7569">
        <ele>175</ele>
        <time>2018-07-27T08:46:20Z</time>
      </trkpt>
      <trkpt lat="45.92031" lon="4.75696">
        <ele>175</ele>
        <time>2018-07-27T08:46:21Z</time>
      </trkpt>
      <trkpt lat="45.92027" lon="4.75703">
        <ele>175</ele>
        <time>2018-07-27T08:46:22Z</time>
      </trkpt>
      <trkpt lat="45.92024" lon="4.75713">
        <ele>175</ele>
        <time>2018-07-27T08:46:23Z</time>
      </trkpt>
      <trkpt lat="45.9202" lon="4.75719">
        <ele>175</ele>
        <time>2018-07-27T08:46:24Z</time>
      </trkpt>
      <trkpt lat="45.92016" lon="4.75726">
        <ele>175</ele>
        <time>2018-07-27T08:46:25Z</time>
      </trkpt>
      <trkpt lat="45.92012" lon="4.75734">
        <ele>174</ele>
        <time>2018-07-27T08:46:26Z</time>
      </trkpt>
      <trkpt lat="45.92009" lon="4.7574">
        <ele>174</ele>
        <time>2018-07-27T08:46:27Z</time>
      </trkpt>
      <trkpt lat="45.92005" lon="4.75747">
        <ele>174</ele>
        <time>2018-07-27T08:46:28Z</time>
      </trkpt>
      <trkpt lat="45.92001" lon="4.75753">
        <ele>174</ele>
        <time>2018-07-27T08:46:29Z</time>
      </trkpt>
      <trkpt lat="45.91996" lon="4.75759">
        <ele>174</ele>
        <time>2018-07-27T08:46:30Z</time>
      </trkpt>
      <trkpt lat="45.91992" lon="4.75765">
        <ele>174</ele>
        <time>2018-07-27T08:46:31Z</time>
      </trkpt>
      <trkpt lat="45.91989" lon="4.75774">
        <ele>174</ele>
        <time>2018-07-27T08:46:32Z</time>
      </trkpt>
      <trkpt lat="45.91984" lon="4.75779">
        <ele>174</ele>
        <time>2018-07-27T08:46:33Z</time>
      </trkpt>
      <trkpt lat="45.91981" lon="4.75786">
        <ele>173</ele>
        <time>2018-07-27T08:46:34Z</time>
      </trkpt>
      <trkpt lat="45.91977" lon="4.75792">
        <ele>173</ele>
        <time>2018-07-27T08:46:35Z</time>
      </trkpt>
      <trkpt lat="45.91973" lon="4.75798">
        <ele>173</ele>
        <time>2018-07-27T08:46:36Z</time>
      </trkpt>
      <trkpt lat="45.9197" lon="4.75805">
        <ele>173</ele>
        <time>2018-07-27T08:46:37Z</time>
      </trkpt>
      <trkpt lat="45.91967" lon="4.75812">
        <ele>173</ele>
        <time>2018-07-27T08:46:38Z</time>
      </trkpt>
      <trkpt lat="45.91963" lon="4.7582">
        <ele>173</ele>
        <time>2018-07-27T08:46:39Z</time>
      </trkpt>
      <trkpt lat="45.91959" lon="4.75827">
        <ele>173</ele>
        <time>2018-07-27T08:46:40Z</time>
      </trkpt>
      <trkpt lat="45.91956" lon="4.75834">
        <ele>172</ele>
        <time>2018-07-27T08:46:41Z</time>
      </trkpt>
      <trkpt lat="45.91952" lon="4.7584">
        <ele>172</ele>
        <time>2018-07-27T08:46:42Z</time>
      </trkpt>
      <trkpt lat="45.91948" lon="4.75849">
        <ele>172</ele>
        <time>2018-07-27T08:46:43Z</time>
      </trkpt>
      <trkpt lat="45.91944" lon="4.75856">
        <ele>172</ele>
        <time>2018-07-27T08:46:44Z</time>
      </trkpt>
      <trkpt lat="45.9194" lon="4.75864">
        <ele>172</ele>
        <time>2018-07-27T08:46:45Z</time>
      </trkpt>
      <trkpt lat="45.91936" lon="4.75871">
        <ele>172</ele>
        <time>2018-07-27T08:46:46Z</time>
      </trkpt>
      <trkpt lat="45.91933" lon="4.75879">
        <ele>172</ele>
        <time>2018-07-27T08:46:47Z</time>
      </trkpt>
      <trkpt lat="45.9193" lon="4.75885">
        <ele>172</ele>
        <time>2018-07-27T08:46:48Z</time>
      </trkpt>
      <trkpt lat="45.91927" lon="4.75894">
        <ele>172</ele>
        <time>2018-07-27T08:46:49Z</time>
      </trkpt>
      <trkpt lat="45.91924" lon="4.759">
        <ele>172</ele>
        <time>2018-07-27T08:46:50Z</time>
      </trkpt>
      <trkpt lat="45.91922" lon="4.75909">
        <ele>172</ele>
        <time>2018-07-27T08:46:51Z</time>
      </trkpt>
      <trkpt lat="45.91919" lon="4.75917">
        <ele>172</ele>
        <time>2018-07-27T08:46:52Z</time>
      </trkpt>
      <trkpt lat="45.91918" lon="4.75925">
        <ele>172</ele>
        <time>2018-07-27T08:46:53Z</time>
      </trkpt>
      <trkpt lat="45.91916" lon="4.75935">
        <ele>173</ele>
        <time>2018-07-27T08:46:54Z</time>
      </trkpt>
      <trkpt lat="45.91914" lon="4.75944">
        <ele>173</ele>
        <time>2018-07-27T08:46:55Z</time>
      </trkpt>
      <trkpt lat="45.91912" lon="4.75952">
        <ele>173</ele>
        <time>2018-07-27T08:46:56Z</time>
      </trkpt>
      <trkpt lat="45.9191" lon="4.75961">
        <ele>173</ele>
        <time>2018-07-27T08:46:57Z</time>
      </trkpt>
      <trkpt lat="45.91908" lon="4.75971">
        <ele>173</ele>
        <time>2018-07-27T08:46:58Z</time>
      </trkpt>
      <trkpt lat="45.91905" lon="4.75979">
        <ele>173</ele>
        <time>2018-07-27T08:46:59Z</time>
      </trkpt>
      <trkpt lat="45.91902" lon="4.75989">
        <ele>173</ele>
        <time>2018-07-27T08:47:00Z</time>
      </trkpt>
      <trkpt lat="45.919" lon="4.75998">
        <ele>173</ele>
        <time>2018-07-27T08:47:01Z</time>
      </trkpt>
      <trkpt lat="45.91898" lon="4.76007">
        <ele>173</ele>
        <time>2018-07-27T08:47:02Z</time>
      </trkpt>
      <trkpt lat="45.91896" lon="4.76017">
        <ele>173</ele>
        <time>2018-07-27T08:47:03Z</time>
      </trkpt>
      <trkpt lat="45.91893" lon="4.76026">
        <ele>173</ele>
        <time>2018-07-27T08:47:04Z</time>
      </trkpt>
      <trkpt lat="45.91891" lon="4.76034">
        <ele>173</ele>
        <time>2018-07-27T08:47:05Z</time>
      </trkpt>
      <trkpt lat="45.91889" lon="4.76044">
        <ele>173</ele>
        <time>2018-07-27T08:47:06Z</time>
      </trkpt>
      <trkpt lat="45.91887" lon="4.76053">
        <ele>173</ele>
        <time>2018-07-27T08:47:07Z</time>
      </trkpt>
      <trkpt lat="45.91885" lon="4.76061">
        <ele>173</ele>
        <time>2018-07-27T08:47:08Z</time>
      </trkpt>
      <trkpt lat="45.91883" lon="4.76069">
        <ele>173</ele>
        <time>2018-07-27T08:47:09Z</time>
      </trkpt>
      <trkpt lat="45.91881" lon="4.76076">
        <ele>173</ele>
        <time>2018-07-27T08:47:10Z</time>
      </trkpt>
      <trkpt lat="45.91879" lon="4.76084">
        <ele>173</ele>
        <time>2018-07-27T08:47:11Z</time>
      </trkpt>
      <trkpt lat="45.91876" lon="4.76091">
        <ele>173</ele>
        <time>2018-07-27T08:47:12Z</time>
      </trkpt>
      <trkpt lat="45.91874" lon="4.76099">
        <ele>173</ele>
        <time>2018-07-27T08:47:13Z</time>
      </trkpt>
      <trkpt lat="45.91872" lon="4.76107">
        <ele>173</ele>
        <time>2018-07-27T08:47:14Z</time>
      </trkpt>
      <trkpt lat="45.9187" lon="4.76114">
        <ele>173</ele>
        <time>2018-07-27T08:47:15Z</time>
      </trkpt>
      <trkpt lat="45.91868" lon="4.76122">
        <ele>173</ele>
        <time>2018-07-27T08:47:16Z</time>
      </trkpt>
      <trkpt lat="45.91866" lon="4.7613">
        <ele>173</ele>
        <time>2018-07-27T08:47:17Z</time>
      </trkpt>
      <trkpt lat="45.91864" lon="4.76139">
        <ele>173</ele>
        <time>2018-07-27T08:47:18Z</time>
      </trkpt>
      <trkpt lat="45.91863" lon="4.76147">
        <ele>173</ele>
        <time>2018-07-27T08:47:19Z</time>
      </trkpt>
      <trkpt lat="45.91861" lon="4.76155">
        <ele>173</ele>
        <time>2018-07-27T08:47:20Z</time>
      </trkpt>
      <trkpt lat="45.91859" lon="4.76164">
        <ele>173</ele>
        <time>2018-07-27T08:47:21Z</time>
      </trkpt>
      <trkpt lat="45.91857" lon="4.76172">
        <ele>172</ele>
        <time>2018-07-27T08:47:22Z</time>
      </trkpt>
      <trkpt lat="45.91855" lon="4.76179">
        <ele>172</ele>
        <time>2018-07-27T08:47:23Z</time>
      </trkpt>
      <trkpt lat="45.91853" lon="4.76187">
        <ele>172</ele>
        <time>2018-07-27T08:47:24Z</time>
      </trkpt>
      <trkpt lat="45.91851" lon="4.76195">
        <ele>172</ele>
        <time>2018-07-27T08:47:25Z</time>
      </trkpt>
      <trkpt lat="45.91849" lon="4.76203">
        <ele>172</ele>
        <time>2018-07-27T08:47:26Z</time>
      </trkpt>
      <trkpt lat="45.91847" lon="4.7621">
        <ele>172</ele>
        <time>2018-07-27T08:47:27Z</time>
      </trkpt>
      <trkpt lat="45.91844" lon="4.76219">
        <ele>172</ele>
        <time>2018-07-27T08:47:28Z</time>
      </trkpt>
      <trkpt lat="45.91842" lon="4.76228">
        <ele>172</ele>
        <time>2018-07-27T08:47:29Z</time>
      </trkpt>
      <trkpt lat="45.9184" lon="4.76236">
        <ele>173</ele>
        <time>2018-07-27T08:47:30Z</time>
      </trkpt>
      <trkpt lat="45.91838" lon="4.76246">
        <ele>173</ele>
        <time>2018-07-27T08:47:31Z</time>
      </trkpt>
      <trkpt lat="45.91835" lon="4.76254">
        <ele>173</ele>
        <time>2018-07-27T08:47:32Z</time>
      </trkpt>
      <trkpt lat="45.91833" lon="4.76264">
        <ele>174</ele>
        <time>2018-07-27T08:47:33Z</time>
      </trkpt>
      <trkpt lat="45.9183" lon="4.76272">
        <ele>174</ele>
        <time>2018-07-27T08:47:34Z</time>
      </trkpt>
      <trkpt lat="45.91828" lon="4.76281">
        <ele>174</ele>
        <time>2018-07-27T08:47:35Z</time>
      </trkpt>
      <trkpt lat="45.91826" lon="4.76289">
        <ele>174</ele>
        <time>2018-07-27T08:47:36Z</time>
      </trkpt>
      <trkpt lat="45.91823" lon="4.76297">
        <ele>174</ele>
        <time>2018-07-27T08:47:37Z</time>
      </trkpt>
      <trkpt lat="45.91822" lon="4.76305">
        <ele>174</ele>
        <time>2018-07-27T08:47:38Z</time>
      </trkpt>
      <trkpt lat="45.91821" lon="4.76313">
        <ele>174</ele>
        <time>2018-07-27T08:47:39Z</time>
      </trkpt>
      <trkpt lat="45.91819" lon="4.76321">
        <ele>174</ele>
        <time>2018-07-27T08:47:40Z</time>
      </trkpt>
      <trkpt lat="45.91817" lon="4.76329">
        <ele>174</ele>
        <time>2018-07-27T08:47:41Z</time>
      </trkpt>
      <trkpt lat="45.91816" lon="4.76337">
        <ele>174</ele>
        <time>2018-07-27T08:47:42Z</time>
      </trkpt>
      <trkpt lat="45.91815" lon="4.76345">
        <ele>174</ele>
        <time>2018-07-27T08:47:43Z</time>
      </trkpt>
      <trkpt lat="45.91815" lon="4.76354">
        <ele>174</ele>
        <time>2018-07-27T08:47:44Z</time>
      </trkpt>
      <trkpt lat="45.91813" lon="4.76362">
        <ele>174</ele>
        <time>2018-07-27T08:47:45Z</time>
      </trkpt>
      <trkpt lat="45.91812" lon="4.76372">
        <ele>174</ele>
        <time>2018-07-27T08:47:46Z</time>
      </trkpt>
      <trkpt lat="45.91812" lon="4.7638">
        <ele>174</ele>
        <time>2018-07-27T08:47:47Z</time>
      </trkpt>
      <trkpt lat="45.91812" lon="4.76389">
        <ele>174</ele>
        <time>2018-07-27T08:47:48Z</time>
      </trkpt>
      <trkpt lat="45.91811" lon="4.76397">
        <ele>173</ele>
        <time>2018-07-27T08:47:49Z</time>
      </trkpt>
      <trkpt lat="45.9181" lon="4.76406">
        <ele>173</ele>
        <time>2018-07-27T08:47:50Z</time>
      </trkpt>
      <trkpt lat="45.91809" lon="4.76414">
        <ele>173</ele>
        <time>2018-07-27T08:47:51Z</time>
      </trkpt>
      <trkpt lat="45.91807" lon="4.76422">
        <ele>173</ele>
        <time>2018-07-27T08:47:52Z</time>
      </trkpt>
      <trkpt lat="45.91805" lon="4.76429">
        <ele>173</ele>
        <time>2018-07-27T08:47:53Z</time>
      </trkpt>
      <trkpt lat="45.91803" lon="4.76433">
        <ele>173</ele>
        <time>2018-07-27T08:47:54Z</time>
      </trkpt>
      <trkpt lat="45.91804" lon="4.76441">
        <ele>173</ele>
        <time>2018-07-27T08:47:55Z</time>
      </trkpt>
      <trkpt lat="45.91805" lon="4.7645">
        <ele>173</ele>
        <time>2018-07-27T08:47:56Z</time>
      </trkpt>
      <trkpt lat="45.91805" lon="4.76458">
        <ele>173</ele>
        <time>2018-07-27T08:47:57Z</time>
      </trkpt>
      <trkpt lat="45.91804" lon="4.76466">
        <ele>173</ele>
        <time>2018-07-27T08:47:58Z</time>
      </trkpt>
      <trkpt lat="45.91804" lon="4.76475">
        <ele>173</ele>
        <time>2018-07-27T08:47:59Z</time>
      </trkpt>
      <trkpt lat="45.91802" lon="4.76483">
        <ele>173</ele>
        <time>2018-07-27T08:48:00Z</time>
      </trkpt>
      <trkpt lat="45.91803" lon="4.76492">
        <ele>173</ele>
        <time>2018-07-27T08:48:01Z</time>
      </trkpt>
      <trkpt lat="45.91803" lon="4.76502">
        <ele>173</ele>
        <time>2018-07-27T08:48:02Z</time>
      </trkpt>
      <trkpt lat="45.91802" lon="4.7651">
        <ele>173</ele>
        <time>2018-07-27T08:48:03Z</time>
      </trkpt>
      <trkpt lat="45.91801" lon="4.7652">
        <ele>173</ele>
        <time>2018-07-27T08:48:04Z</time>
      </trkpt>
      <trkpt lat="45.91802" lon="4.76529">
        <ele>173</ele>
        <time>2018-07-27T08:48:05Z</time>
      </trkpt>
      <trkpt lat="45.91801" lon="4.76538">
        <ele>173</ele>
        <time>2018-07-27T08:48:06Z</time>
      </trkpt>
      <trkpt lat="45.918" lon="4.76547">
        <ele>173</ele>
        <time>2018-07-27T08:48:07Z</time>
      </trkpt>
      <trkpt lat="45.91799" lon="4.76557">
        <ele>173</ele>
        <time>2018-07-27T08:48:08Z</time>
      </trkpt>
      <trkpt lat="45.91798" lon="4.76565">
        <ele>173</ele>
        <time>2018-07-27T08:48:09Z</time>
      </trkpt>
      <trkpt lat="45.91797" lon="4.76575">
        <ele>173</ele>
        <time>2018-07-27T08:48:10Z</time>
      </trkpt>
      <trkpt lat="45.91796" lon="4.76583">
        <ele>173</ele>
        <time>2018-07-27T08:48:11Z</time>
      </trkpt>
      <trkpt lat="45.91795" lon="4.76592">
        <ele>173</ele>
        <time>2018-07-27T08:48:12Z</time>
      </trkpt>
      <trkpt lat="45.91794" lon="4.76602">
        <ele>173</ele>
        <time>2018-07-27T08:48:13Z</time>
      </trkpt>
      <trkpt lat="45.91793" lon="4.7661">
        <ele>173</ele>
        <time>2018-07-27T08:48:14Z</time>
      </trkpt>
      <trkpt lat="45.91792" lon="4.76618">
        <ele>173</ele>
        <time>2018-07-27T08:48:15Z</time>
      </trkpt>
      <trkpt lat="45.9179" lon="4.76626">
        <ele>173</ele>
        <time>2018-07-27T08:48:16Z</time>
      </trkpt>
      <trkpt lat="45.91789" lon="4.76631">
        <ele>173</ele>
        <time>2018-07-27T08:48:17Z</time>
      </trkpt>
      <trkpt lat="45.91787" lon="4.7664">
        <ele>173</ele>
        <time>2018-07-27T08:48:18Z</time>
      </trkpt>
      <trkpt lat="45.91786" lon="4.76647">
        <ele>173</ele>
        <time>2018-07-27T08:48:19Z</time>
      </trkpt>
      <trkpt lat="45.91786" lon="4.76656">
        <ele>173</ele>
        <time>2018-07-27T08:48:20Z</time>
      </trkpt>
      <trkpt lat="45.91785" lon="4.76666">
        <ele>173</ele>
        <time>2018-07-27T08:48:21Z</time>
      </trkpt>
      <trkpt lat="45.91783" lon="4.76675">
        <ele>172</ele>
        <time>2018-07-27T08:48:22Z</time>
      </trkpt>
      <trkpt lat="45.91782" lon="4.76684">
        <ele>172</ele>
        <time>2018-07-27T08:48:23Z</time>
      </trkpt>
      <trkpt lat="45.91781" lon="4.76694">
        <ele>172</ele>
        <time>2018-07-27T08:48:24Z</time>
      </trkpt>
      <trkpt lat="45.9178" lon="4.76703">
        <ele>172</ele>
        <time>2018-07-27T08:48:25Z</time>
      </trkpt>
      <trkpt lat="45.91779" lon="4.76713">
        <ele>172</ele>
        <time>2018-07-27T08:48:26Z</time>
      </trkpt>
      <trkpt lat="45.91778" lon="4.76722">
        <ele>172</ele>
        <time>2018-07-27T08:48:27Z</time>
      </trkpt>
      <trkpt lat="45.91777" lon="4.7673">
        <ele>172</ele>
        <time>2018-07-27T08:48:28Z</time>
      </trkpt>
      <trkpt lat="45.91776" lon="4.76738">
        <ele>172</ele>
        <time>2018-07-27T08:48:29Z</time>
      </trkpt>
      <trkpt lat="45.91776" lon="4.76748">
        <ele>172</ele>
        <time>2018-07-27T08:48:30Z</time>
      </trkpt>
      <trkpt lat="45.91776" lon="4.76757">
        <ele>171</ele>
        <time>2018-07-27T08:48:31Z</time>
      </trkpt>
      <trkpt lat="45.91776" lon="4.76764">
        <ele>171</ele>
        <time>2018-07-27T08:48:32Z</time>
      </trkpt>
      <trkpt lat="45.91776" lon="4.76774">
        <ele>171</ele>
        <time>2018-07-27T08:48:33Z</time>
      </trkpt>
      <trkpt lat="45.91775" lon="4.76782">
        <ele>171</ele>
        <time>2018-07-27T08:48:34Z</time>
      </trkpt>
      <trkpt lat="45.91775" lon="4.76791">
        <ele>171</ele>
        <time>2018-07-27T08:48:35Z</time>
      </trkpt>
      <trkpt lat="45.91774" lon="4.76799">
        <ele>171</ele>
        <time>2018-07-27T08:48:36Z</time>
      </trkpt>
      <trkpt lat="45.91774" lon="4.7681">
        <ele>171</ele>
        <time>2018-07-27T08:48:37Z</time>
      </trkpt>
      <trkpt lat="45.91774" lon="4.76819">
        <ele>171</ele>
        <time>2018-07-27T08:48:38Z</time>
      </trkpt>
      <trkpt lat="45.91774" lon="4.76827">
        <ele>171</ele>
        <time>2018-07-27T08:48:39Z</time>
      </trkpt>
      <trkpt lat="45.91772" lon="4.76836">
        <ele>171</ele>
        <time>2018-07-27T08:48:40Z</time>
      </trkpt>
      <trkpt lat="45.91771" lon="4.76845">
        <ele>171</ele>
        <time>2018-07-27T08:48:41Z</time>
      </trkpt>
      <trkpt lat="45.91772" lon="4.76856">
        <ele>170</ele>
        <time>2018-07-27T08:48:42Z</time>
      </trkpt>
      <trkpt lat="45.91774" lon="4.76869">
        <ele>170</ele>
        <time>2018-07-27T08:48:43Z</time>
      </trkpt>
      <trkpt lat="45.91773" lon="4.76877">
        <ele>170</ele>
        <time>2018-07-27T08:48:44Z</time>
      </trkpt>
      <trkpt lat="45.91773" lon="4.76888">
        <ele>170</ele>
        <time>2018-07-27T08:48:45Z</time>
      </trkpt>
      <trkpt lat="45.91774" lon="4.76899">
        <ele>170</ele>
        <time>2018-07-27T08:48:46Z</time>
      </trkpt>
      <trkpt lat="45.91772" lon="4.76905">
        <ele>170</ele>
        <time>2018-07-27T08:48:47Z</time>
      </trkpt>
      <trkpt lat="45.91772" lon="4.76914">
        <ele>170</ele>
        <time>2018-07-27T08:48:48Z</time>
      </trkpt>
      <trkpt lat="45.91771" lon="4.76925">
        <ele>170</ele>
        <time>2018-07-27T08:48:49Z</time>
      </trkpt>
      <trkpt lat="45.9177" lon="4.76936">
        <ele>170</ele>
        <time>2018-07-27T08:48:50Z</time>
      </trkpt>
      <trkpt lat="45.9177" lon="4.76945">
        <ele>169</ele>
        <time>2018-07-27T08:48:51Z</time>
      </trkpt>
      <trkpt lat="45.91768" lon="4.76953">
        <ele>169</ele>
        <time>2018-07-27T08:48:52Z</time>
      </trkpt>
      <trkpt lat="45.91767" lon="4.76962">
        <ele>169</ele>
        <time>2018-07-27T08:48:53Z</time>
      </trkpt>
      <trkpt lat="45.91766" lon="4.7697">
        <ele>169</ele>
        <time>2018-07-27T08:48:54Z</time>
      </trkpt>
      <trkpt lat="45.91765" lon="4.7698">
        <ele>169</ele>
        <time>2018-07-27T08:48:55Z</time>
      </trkpt>
      <trkpt lat="45.91765" lon="4.7699">
        <ele>169</ele>
        <time>2018-07-27T08:48:56Z</time>
      </trkpt>
      <trkpt lat="45.91764" lon="4.76998">
        <ele>169</ele>
        <time>2018-07-27T08:48:57Z</time>
      </trkpt>
      <trkpt lat="45.91762" lon="4.77008">
        <ele>169</ele>
        <time>2018-07-27T08:48:58Z</time>
      </trkpt>
      <trkpt lat="45.9176" lon="4.77016">
        <ele>169</ele>
        <time>2018-07-27T08:48:59Z</time>
      </trkpt>
      <trkpt lat="45.91759" lon="4.77025">
        <ele>169</ele>
        <time>2018-07-27T08:49:00Z</time>
      </trkpt>
      <trkpt lat="45.91758" lon="4.77034">
        <ele>169</ele>
        <time>2018-07-27T08:49:01Z</time>
      </trkpt>
      <trkpt lat="45.91757" lon="4.77044">
        <ele>169</ele>
        <time>2018-07-27T08:49:02Z</time>
      </trkpt>
      <trkpt lat="45.91755" lon="4.77054">
        <ele>169</ele>
        <time>2018-07-27T08:49:03Z</time>
      </trkpt>
      <trkpt lat="45.91755" lon="4.77064">
        <ele>169</ele>
        <time>2018-07-27T08:49:04Z</time>
      </trkpt>
      <trkpt lat="45.91753" lon="4.77073">
        <ele>169</ele>
        <time>2018-07-27T08:49:05Z</time>
      </trkpt>
      <trkpt lat="45.91751" lon="4.77082">
        <ele>169</ele>
        <time>2018-07-27T08:49:06Z</time>
      </trkpt>
      <trkpt lat="45.91751" lon="4.77091">
        <ele>169</ele>
        <time>2018-07-27T08:49:07Z</time>
      </trkpt>
      <trkpt lat="45.9175" lon="4.771">
        <ele>170</ele>
        <time>2018-07-27T08:49:08Z</time>
      </trkpt>
      <trkpt lat="45.91749" lon="4.77108">
        <ele>170</ele>
        <time>2018-07-27T08:49:09Z</time>
      </trkpt>
      <trkpt lat="45.91747" lon="4.77117">
        <ele>170</ele>
        <time>2018-07-27T08:49:10Z</time>
      </trkpt>
      <trkpt lat="45.91745" lon="4.77124">
        <ele>170</ele>
        <time>2018-07-27T08:49:11Z</time>
      </trkpt>
      <trkpt lat="45.91744" lon="4.77133">
        <ele>170</ele>
        <time>2018-07-27T08:49:12Z</time>
      </trkpt>
      <trkpt lat="45.91742" lon="4.77139">
        <ele>170</ele>
        <time>2018-07-27T08:49:13Z</time>
      </trkpt>
      <trkpt lat="45.91742" lon="4.77149">
        <ele>170</ele>
        <time>2018-07-27T08:49:14Z</time>
      </trkpt>
      <trkpt lat="45.91741" lon="4.77158">
        <ele>170</ele>
        <time>2018-07-27T08:49:15Z</time>
      </trkpt>
      <trkpt lat="45.91739" lon="4.77167">
        <ele>170</ele>
        <time>2018-07-27T08:49:16Z</time>
      </trkpt>
      <trkpt lat="45.91737" lon="4.77176">
        <ele>170</ele>
        <time>2018-07-27T08:49:17Z</time>
      </trkpt>
      <trkpt lat="45.91736" lon="4.77186">
        <ele>170</ele>
        <time>2018-07-27T08:49:18Z</time>
      </trkpt>
      <trkpt lat="45.91735" lon="4.77195">
        <ele>170</ele>
        <time>2018-07-27T08:49:19Z</time>
      </trkpt>
      <trkpt lat="45.91734" lon="4.77205">
        <ele>170</ele>
        <time>2018-07-27T08:49:20Z</time>
      </trkpt>
      <trkpt lat="45.91733" lon="4.77215">
        <ele>170</ele>
        <time>2018-07-27T08:49:21Z</time>
      </trkpt>
      <trkpt lat="45.91732" lon="4.77225">
        <ele>170</ele>
        <time>2018-07-27T08:49:22Z</time>
      </trkpt>
      <trkpt lat="45.91731" lon="4.77234">
        <ele>170</ele>
        <time>2018-07-27T08:49:23Z</time>
      </trkpt>
      <trkpt lat="45.91729" lon="4.77243">
        <ele>169</ele>
        <time>2018-07-27T08:49:24Z</time>
      </trkpt>
      <trkpt lat="45.91728" lon="4.77252">
        <ele>170</ele>
        <time>2018-07-27T08:49:25Z</time>
      </trkpt>
      <trkpt lat="45.91726" lon="4.77259">
        <ele>170</ele>
        <time>2018-07-27T08:49:26Z</time>
      </trkpt>
      <trkpt lat="45.91724" lon="4.77266">
        <ele>170</ele>
        <time>2018-07-27T08:49:27Z</time>
      </trkpt>
      <trkpt lat="45.91722" lon="4.77275">
        <ele>170</ele>
        <time>2018-07-27T08:49:28Z</time>
      </trkpt>
      <trkpt lat="45.91721" lon="4.77282">
        <ele>170</ele>
        <time>2018-07-27T08:49:29Z</time>
      </trkpt>
      <trkpt lat="45.91719" lon="4.7729">
        <ele>170</ele>
        <time>2018-07-27T08:49:30Z</time>
      </trkpt>
      <trkpt lat="45.91717" lon="4.77298">
        <ele>170</ele>
        <time>2018-07-27T08:49:31Z</time>
      </trkpt>
      <trkpt lat="45.91716" lon="4.77307">
        <ele>170</ele>
        <time>2018-07-27T08:49:32Z</time>
      </trkpt>
      <trkpt lat="45.91715" lon="4.77316">
        <ele>170</ele>
        <time>2018-07-27T08:49:33Z</time>
      </trkpt>
      <trkpt lat="45.91715" lon="4.77326">
        <ele>170</ele>
        <time>2018-07-27T08:49:34Z</time>
      </trkpt>
      <trkpt lat="45.91713" lon="4.77334">
        <ele>171</ele>
        <time>2018-07-27T08:49:35Z</time>
      </trkpt>
      <trkpt lat="45.91712" lon="4.77341">
        <ele>171</ele>
        <time>2018-07-27T08:49:36Z</time>
      </trkpt>
      <trkpt lat="45.9171" lon="4.7735">
        <ele>171</ele>
        <time>2018-07-27T08:49:37Z</time>
      </trkpt>
      <trkpt lat="45.91709" lon="4.77359">
        <ele>171</ele>
        <time>2018-07-27T08:49:38Z</time>
      </trkpt>
      <trkpt lat="45.91707" lon="4.77368">
        <ele>171</ele>
        <time>2018-07-27T08:49:39Z</time>
      </trkpt>
      <trkpt lat="45.91706" lon="4.77376">
        <ele>171</ele>
        <time>2018-07-27T08:49:40Z</time>
      </trkpt>
      <trkpt lat="45.91704" lon="4.77384">
        <ele>171</ele>
        <time>2018-07-27T08:49:41Z</time>
      </trkpt>
      <trkpt lat="45.91702" lon="4.77391">
        <ele>171</ele>
        <time>2018-07-27T08:49:42Z</time>
      </trkpt>
      <trkpt lat="45.917" lon="4.774">
        <ele>171</ele>
        <time>2018-07-27T08:49:43Z</time>
      </trkpt>
      <trkpt lat="45.91698" lon="4.77407">
        <ele>171</ele>
        <time>2018-07-27T08:49:44Z</time>
      </trkpt>
      <trkpt lat="45.91697" lon="4.77414">
        <ele>171</ele>
        <time>2018-07-27T08:49:45Z</time>
      </trkpt>
      <trkpt lat="45.91694" lon="4.77418">
        <ele>171</ele>
        <time>2018-07-27T08:49:46Z</time>
      </trkpt>
      <trkpt lat="45.91694" lon="4.77428">
        <ele>171</ele>
        <time>2018-07-27T08:49:47Z</time>
      </trkpt>
      <trkpt lat="45.91692" lon="4.77433">
        <ele>171</ele>
        <time>2018-07-27T08:49:48Z</time>
      </trkpt>
      <trkpt lat="45.91691" lon="4.77442">
        <ele>171</ele>
        <time>2018-07-27T08:49:49Z</time>
      </trkpt>
      <trkpt lat="45.91691" lon="4.77451">
        <ele>171</ele>
        <time>2018-07-27T08:49:50Z</time>
      </trkpt>
      <trkpt lat="45.91692" lon="4.7746">
        <ele>171</ele>
        <time>2018-07-27T08:49:51Z</time>
      </trkpt>
      <trkpt lat="45.91688" lon="4.77467">
        <ele>171</ele>
        <time>2018-07-27T08:49:52Z</time>
      </trkpt>
      <trkpt lat="45.91685" lon="4.7747">
        <ele>170</ele>
        <time>2018-07-27T08:49:53Z</time>
      </trkpt>
      <trkpt lat="45.91682" lon="4.77476">
        <ele>170</ele>
        <time>2018-07-27T08:49:54Z</time>
      </trkpt>
      <trkpt lat="45.91678" lon="4.77484">
        <ele>170</ele>
        <time>2018-07-27T08:49:55Z</time>
      </trkpt>
      <trkpt lat="45.91672" lon="4.77487">
        <ele>170</ele>
        <time>2018-07-27T08:49:56Z</time>
      </trkpt>
      <trkpt lat="45.91666" lon="4.7749">
        <ele>171</ele>
        <time>2018-07-27T08:49:57Z</time>
      </trkpt>
      <trkpt lat="45.9166" lon="4.77495">
        <ele>170</ele>
        <time>2018-07-27T08:49:58Z</time>
      </trkpt>
      <trkpt lat="45.91654" lon="4.77498">
        <ele>171</ele>
        <time>2018-07-27T08:49:59Z</time>
      </trkpt>
      <trkpt lat="45.91646" lon="4.775">
        <ele>171</ele>
        <time>2018-07-27T08:50:00Z</time>
      </trkpt>
      <trkpt lat="45.9164" lon="4.77503">
        <ele>171</ele>
        <time>2018-07-27T08:50:01Z</time>
      </trkpt>
      <trkpt lat="45.91635" lon="4.77506">
        <ele>171</ele>
        <time>2018-07-27T08:50:02Z</time>
      </trkpt>
      <trkpt lat="45.9163" lon="4.77509">
        <ele>171</ele>
        <time>2018-07-27T08:50:03Z</time>
      </trkpt>
      <trkpt lat="45.91624" lon="4.77514">
        <ele>171</ele>
        <time>2018-07-27T08:50:04Z</time>
      </trkpt>
      <trkpt lat="45.9162" lon="4.7752">
        <ele>171</ele>
        <time>2018-07-27T08:50:05Z</time>
      </trkpt>
      <trkpt lat="45.91615" lon="4.77526">
        <ele>171</ele>
        <time>2018-07-27T08:50:06Z</time>
      </trkpt>
      <trkpt lat="45.91611" lon="4.77532">
        <ele>171</ele>
        <time>2018-07-27T08:50:07Z</time>
      </trkpt>
      <trkpt lat="45.91607" lon="4.77538">
        <ele>171</ele>
        <time>2018-07-27T08:50:08Z</time>
      </trkpt>
      <trkpt lat="45.91604" lon="4.77546">
        <ele>171</ele>
        <time>2018-07-27T08:50:09Z</time>
      </trkpt>
      <trkpt lat="45.91601" lon="4.77552">
        <ele>171</ele>
        <time>2018-07-27T08:50:10Z</time>
      </trkpt>
      <trkpt lat="45.91597" lon="4.77559">
        <ele>172</ele>
        <time>2018-07-27T08:50:11Z</time>
      </trkpt>
      <trkpt lat="45.91592" lon="4.77566">
        <ele>172</ele>
        <time>2018-07-27T08:50:12Z</time>
      </trkpt>
      <trkpt lat="45.91588" lon="4.77573">
        <ele>172</ele>
        <time>2018-07-27T08:50:13Z</time>
      </trkpt>
      <trkpt lat="45.91584" lon="4.7758">
        <ele>173</ele>
        <time>2018-07-27T08:50:14Z</time>
      </trkpt>
      <trkpt lat="45.9158" lon="4.77587">
        <ele>173</ele>
        <time>2018-07-27T08:50:15Z</time>
      </trkpt>
      <trkpt lat="45.91576" lon="4.77593">
        <ele>173</ele>
        <time>2018-07-27T08:50:16Z</time>
      </trkpt>
      <trkpt lat="45.91573" lon="4.77599">
        <ele>173</ele>
        <time>2018-07-27T08:50:17Z</time>
      </trkpt>
      <trkpt lat="45.91569" lon="4.77607">
        <ele>174</ele>
        <time>2018-07-27T08:50:18Z</time>
      </trkpt>
      <trkpt lat="45.91566" lon="4.77613">
        <ele>174</ele>
        <time>2018-07-27T08:50:19Z</time>
      </trkpt>
      <trkpt lat="45.91562" lon="4.7762">
        <ele>174</ele>
        <time>2018-07-27T08:50:20Z</time>
      </trkpt>
      <trkpt lat="45.91559" lon="4.77628">
        <ele>174</ele>
        <time>2018-07-27T08:50:21Z</time>
      </trkpt>
      <trkpt lat="45.91556" lon="4.77634">
        <ele>174</ele>
        <time>2018-07-27T08:50:22Z</time>
      </trkpt>
      <trkpt lat="45.91552" lon="4.77638">
        <ele>174</ele>
        <time>2018-07-27T08:50:23Z</time>
      </trkpt>
      <trkpt lat="45.91548" lon="4.77643">
        <ele>174</ele>
        <time>2018-07-27T08:50:24Z</time>
      </trkpt>
      <trkpt lat="45.91544" lon="4.77649">
        <ele>174</ele>
        <time>2018-07-27T08:50:25Z</time>
      </trkpt>
      <trkpt lat="45.91539" lon="4.77655">
        <ele>174</ele>
        <time>2018-07-27T08:50:26Z</time>
      </trkpt>
      <trkpt lat="45.91537" lon="4.77659">
        <ele>174</ele>
        <time>2018-07-27T08:50:27Z</time>
      </trkpt>
      <trkpt lat="45.91531" lon="4.77665">
        <ele>174</ele>
        <time>2018-07-27T08:50:29Z</time>
      </trkpt>
      <trkpt lat="45.9153" lon="4.77672">
        <ele>175</ele>
        <time>2018-07-27T08:50:30Z</time>
      </trkpt>
      <trkpt lat="45.91526" lon="4.77675">
        <ele>175</ele>
        <time>2018-07-27T08:50:31Z</time>
      </trkpt>
      <trkpt lat="45.91524" lon="4.77682">
        <ele>175</ele>
        <time>2018-07-27T08:50:32Z</time>
      </trkpt>
      <trkpt lat="45.91521" lon="4.77687">
        <ele>175</ele>
        <time>2018-07-27T08:50:33Z</time>
      </trkpt>
      <trkpt lat="45.91518" lon="4.77693">
        <ele>176</ele>
        <time>2018-07-27T08:50:34Z</time>
      </trkpt>
      <trkpt lat="45.91511" lon="4.77697">
        <ele>176</ele>
        <time>2018-07-27T08:50:36Z</time>
      </trkpt>
      <trkpt lat="45.91506" lon="4.77697">
        <ele>176</ele>
        <time>2018-07-27T08:50:37Z</time>
      </trkpt>
      <trkpt lat="45.91498" lon="4.77698">
        <ele>177</ele>
        <time>2018-07-27T08:50:39Z</time>
      </trkpt>
      <trkpt lat="45.91493" lon="4.77698">
        <ele>177</ele>
        <time>2018-07-27T08:50:40Z</time>
      </trkpt>
      <trkpt lat="45.91485" lon="4.77699">
        <ele>177</ele>
        <time>2018-07-27T08:50:42Z</time>
      </trkpt>
      <trkpt lat="45.91481" lon="4.77699">
        <ele>177</ele>
        <time>2018-07-27T08:50:43Z</time>
      </trkpt>
      <trkpt lat="45.91478" lon="4.77699">
        <ele>177</ele>
        <time>2018-07-27T08:50:44Z</time>
      </trkpt>
      <trkpt lat="45.91472" lon="4.777">
        <ele>177</ele>
        <time>2018-07-27T08:50:45Z</time>
      </trkpt>
      <trkpt lat="45.91465" lon="4.77702">
        <ele>177</ele>
        <time>2018-07-27T08:50:46Z</time>
      </trkpt>
      <trkpt lat="45.91459" lon="4.77703">
        <ele>177</ele>
        <time>2018-07-27T08:50:47Z</time>
      </trkpt>
      <trkpt lat="45.91452" lon="4.77707">
        <ele>177</ele>
        <time>2018-07-27T08:50:48Z</time>
      </trkpt>
      <trkpt lat="45.91445" lon="4.77709">
        <ele>177</ele>
        <time>2018-07-27T08:50:49Z</time>
      </trkpt>
      <trkpt lat="45.9144" lon="4.77712">
        <ele>177</ele>
        <time>2018-07-27T08:50:50Z</time>
      </trkpt>
      <trkpt lat="45.91435" lon="4.77712">
        <ele>177</ele>
        <time>2018-07-27T08:50:51Z</time>
      </trkpt>
      <trkpt lat="45.91429" lon="4.77714">
        <ele>177</ele>
        <time>2018-07-27T08:50:52Z</time>
      </trkpt>
      <trkpt lat="45.91423" lon="4.77716">
        <ele>177</ele>
        <time>2018-07-27T08:50:53Z</time>
      </trkpt>
      <trkpt lat="45.91417" lon="4.77717">
        <ele>177</ele>
        <time>2018-07-27T08:50:54Z</time>
      </trkpt>
      <trkpt lat="45.91412" lon="4.77718">
        <ele>177</ele>
        <time>2018-07-27T08:50:55Z</time>
      </trkpt>
      <trkpt lat="45.91407" lon="4.7772">
        <ele>177</ele>
        <time>2018-07-27T08:50:56Z</time>
      </trkpt>
      <trkpt lat="45.91401" lon="4.77719">
        <ele>177</ele>
        <time>2018-07-27T08:50:57Z</time>
      </trkpt>
      <trkpt lat="45.91396" lon="4.7772">
        <ele>177</ele>
        <time>2018-07-27T08:50:58Z</time>
      </trkpt>
      <trkpt lat="45.91391" lon="4.77719">
        <ele>177</ele>
        <time>2018-07-27T08:50:59Z</time>
      </trkpt>
      <trkpt lat="45.91384" lon="4.7772">
        <ele>177</ele>
        <time>2018-07-27T08:51:00Z</time>
      </trkpt>
      <trkpt lat="45.91378" lon="4.7772">
        <ele>176</ele>
        <time>2018-07-27T08:51:01Z</time>
      </trkpt>
      <trkpt lat="45.91371" lon="4.77721">
        <ele>176</ele>
        <time>2018-07-27T08:51:02Z</time>
      </trkpt>
      <trkpt lat="45.91365" lon="4.7772">
        <ele>176</ele>
        <time>2018-07-27T08:51:03Z</time>
      </trkpt>
      <trkpt lat="45.91358" lon="4.7772">
        <ele>176</ele>
        <time>2018-07-27T08:51:04Z</time>
      </trkpt>
      <trkpt lat="45.91352" lon="4.77719">
        <ele>176</ele>
        <time>2018-07-27T08:51:05Z</time>
      </trkpt>
      <trkpt lat="45.91348" lon="4.77719">
        <ele>176</ele>
        <time>2018-07-27T08:51:06Z</time>
      </trkpt>
      <trkpt lat="45.91342" lon="4.77717">
        <ele>176</ele>
        <time>2018-07-27T08:51:07Z</time>
      </trkpt>
      <trkpt lat="45.91335" lon="4.77716">
        <ele>176</ele>
        <time>2018-07-27T08:51:08Z</time>
      </trkpt>
      <trkpt lat="45.9133" lon="4.77715">
        <ele>176</ele>
        <time>2018-07-27T08:51:09Z</time>
      </trkpt>
      <trkpt lat="45.91323" lon="4.77714">
        <ele>176</ele>
        <time>2018-07-27T08:51:10Z</time>
      </trkpt>
      <trkpt lat="45.91317" lon="4.77712">
        <ele>176</ele>
        <time>2018-07-27T08:51:11Z</time>
      </trkpt>
      <trkpt lat="45.91313" lon="4.77709">
        <ele>176</ele>
        <time>2018-07-27T08:51:12Z</time>
      </trkpt>
      <trkpt lat="45.91308" lon="4.77706">
        <ele>176</ele>
        <time>2018-07-27T08:51:13Z</time>
      </trkpt>
      <trkpt lat="45.91302" lon="4.77703">
        <ele>176</ele>
        <time>2018-07-27T08:51:14Z</time>
      </trkpt>
      <trkpt lat="45.91296" lon="4.77702">
        <ele>176</ele>
        <time>2018-07-27T08:51:15Z</time>
      </trkpt>
      <trkpt lat="45.91291" lon="4.77698">
        <ele>176</ele>
        <time>2018-07-27T08:51:16Z</time>
      </trkpt>
      <trkpt lat="45.91284" lon="4.77694">
        <ele>176</ele>
        <time>2018-07-27T08:51:17Z</time>
      </trkpt>
      <trkpt lat="45.91279" lon="4.77691">
        <ele>176</ele>
        <time>2018-07-27T08:51:18Z</time>
      </trkpt>
      <trkpt lat="45.9127" lon="4.77687">
        <ele>176</ele>
        <time>2018-07-27T08:51:19Z</time>
      </trkpt>
      <trkpt lat="45.91265" lon="4.77684">
        <ele>176</ele>
        <time>2018-07-27T08:51:20Z</time>
      </trkpt>
      <trkpt lat="45.9126" lon="4.7768">
        <ele>176</ele>
        <time>2018-07-27T08:51:21Z</time>
      </trkpt>
      <trkpt lat="45.91254" lon="4.77678">
        <ele>175</ele>
        <time>2018-07-27T08:51:22Z</time>
      </trkpt>
      <trkpt lat="45.91248" lon="4.77677">
        <ele>176</ele>
        <time>2018-07-27T08:51:23Z</time>
      </trkpt>
      <trkpt lat="45.9124" lon="4.77676">
        <ele>176</ele>
        <time>2018-07-27T08:51:25Z</time>
      </trkpt>
      <trkpt lat="45.91239" lon="4.77676">
        <ele>176</ele>
        <time>2018-07-27T08:51:26Z</time>
      </trkpt>
      <trkpt lat="45.91232" lon="4.77683">
        <ele>176</ele>
        <time>2018-07-27T08:52:25Z</time>
      </trkpt>
      <trkpt lat="45.91231" lon="4.77684">
        <ele>176</ele>
        <time>2018-07-27T08:52:26Z</time>
      </trkpt>
      <trkpt lat="45.91223" lon="4.77686">
        <ele>176</ele>
        <time>2018-07-27T08:52:30Z</time>
      </trkpt>
      <trkpt lat="45.91221" lon="4.77687">
        <ele>176</ele>
        <time>2018-07-27T08:52:31Z</time>
      </trkpt>
      <trkpt lat="45.91215" lon="4.77691">
        <ele>176</ele>
        <time>2018-07-27T08:52:34Z</time>
      </trkpt>
      <trkpt lat="45.91213" lon="4.77692">
        <ele>176</ele>
        <time>2018-07-27T08:52:35Z</time>
      </trkpt>
      <trkpt lat="45.9121" lon="4.77693">
        <ele>176</ele>
        <time>2018-07-27T08:52:36Z</time>
      </trkpt>
      <trkpt lat="45.91203" lon="4.77694">
        <ele>176</ele>
        <time>2018-07-27T08:52:37Z</time>
      </trkpt>
      <trkpt lat="45.91197" lon="4.77696">
        <ele>176</ele>
        <time>2018-07-27T08:52:39Z</time>
      </trkpt>
      <trkpt lat="45.91193" lon="4.77697">
        <ele>176</ele>
        <time>2018-07-27T08:52:40Z</time>
      </trkpt>
      <trkpt lat="45.91185" lon="4.77701">
        <ele>176</ele>
        <time>2018-07-27T08:52:42Z</time>
      </trkpt>
      <trkpt lat="45.91181" lon="4.77702">
        <ele>176</ele>
        <time>2018-07-27T08:52:43Z</time>
      </trkpt>
      <trkpt lat="45.91173" lon="4.77705">
        <ele>176</ele>
        <time>2018-07-27T08:52:45Z</time>
      </trkpt>
      <trkpt lat="45.91169" lon="4.77709">
        <ele>177</ele>
        <time>2018-07-27T08:52:46Z</time>
      </trkpt>
      <trkpt lat="45.91164" lon="4.7771">
        <ele>177</ele>
        <time>2018-07-27T08:52:47Z</time>
      </trkpt>
      <trkpt lat="45.91159" lon="4.77711">
        <ele>177</ele>
        <time>2018-07-27T08:52:48Z</time>
      </trkpt>
      <trkpt lat="45.91154" lon="4.77714">
        <ele>177</ele>
        <time>2018-07-27T08:52:49Z</time>
      </trkpt>
      <trkpt lat="45.9115" lon="4.77716">
        <ele>177</ele>
        <time>2018-07-27T08:52:50Z</time>
      </trkpt>
      <trkpt lat="45.91143" lon="4.77717">
        <ele>177</ele>
        <time>2018-07-27T08:52:51Z</time>
      </trkpt>
      <trkpt lat="45.91138" lon="4.77718">
        <ele>177</ele>
        <time>2018-07-27T08:52:52Z</time>
      </trkpt>
      <trkpt lat="45.91133" lon="4.7772">
        <ele>177</ele>
        <time>2018-07-27T08:52:53Z</time>
      </trkpt>
      <trkpt lat="45.91128" lon="4.77724">
        <ele>177</ele>
        <time>2018-07-27T08:52:54Z</time>
      </trkpt>
      <trkpt lat="45.91124" lon="4.77724">
        <ele>177</ele>
        <time>2018-07-27T08:52:55Z</time>
      </trkpt>
      <trkpt lat="45.91119" lon="4.77726">
        <ele>178</ele>
        <time>2018-07-27T08:52:56Z</time>
      </trkpt>
      <trkpt lat="45.91111" lon="4.7773">
        <ele>178</ele>
        <time>2018-07-27T08:52:58Z</time>
      </trkpt>
      <trkpt lat="45.91107" lon="4.77733">
        <ele>178</ele>
        <time>2018-07-27T08:52:59Z</time>
      </trkpt>
      <trkpt lat="45.91106" lon="4.77734">
        <ele>178</ele>
        <time>2018-07-27T08:53:00Z</time>
      </trkpt>
      <trkpt lat="45.91097" lon="4.77739">
        <ele>178</ele>
        <time>2018-07-27T08:53:01Z</time>
      </trkpt>
      <trkpt lat="45.91091" lon="4.77742">
        <ele>178</ele>
        <time>2018-07-27T08:53:02Z</time>
      </trkpt>
      <trkpt lat="45.91089" lon="4.77749">
        <ele>179</ele>
        <time>2018-07-27T08:53:03Z</time>
      </trkpt>
      <trkpt lat="45.91084" lon="4.77752">
        <ele>179</ele>
        <time>2018-07-27T08:53:04Z</time>
      </trkpt>
      <trkpt lat="45.91078" lon="4.77755">
        <ele>179</ele>
        <time>2018-07-27T08:53:05Z</time>
      </trkpt>
      <trkpt lat="45.9107" lon="4.77759">
        <ele>179</ele>
        <time>2018-07-27T08:53:07Z</time>
      </trkpt>
      <trkpt lat="45.91066" lon="4.77762">
        <ele>178</ele>
        <time>2018-07-27T08:53:08Z</time>
      </trkpt>
      <trkpt lat="45.9106" lon="4.77762">
        <ele>178</ele>
        <time>2018-07-27T08:53:09Z</time>
      </trkpt>
      <trkpt lat="45.91056" lon="4.77765">
        <ele>178</ele>
        <time>2018-07-27T08:53:10Z</time>
      </trkpt>
      <trkpt lat="45.9105" lon="4.7777">
        <ele>178</ele>
        <time>2018-07-27T08:53:11Z</time>
      </trkpt>
      <trkpt lat="45.91045" lon="4.77772">
        <ele>178</ele>
        <time>2018-07-27T08:53:12Z</time>
      </trkpt>
      <trkpt lat="45.91039" lon="4.77772">
        <ele>178</ele>
        <time>2018-07-27T08:53:13Z</time>
      </trkpt>
      <trkpt lat="45.91033" lon="4.77774">
        <ele>178</ele>
        <time>2018-07-27T08:53:14Z</time>
      </trkpt>
      <trkpt lat="45.91026" lon="4.77774">
        <ele>178</ele>
        <time>2018-07-27T08:53:15Z</time>
      </trkpt>
      <trkpt lat="45.91021" lon="4.77777">
        <ele>178</ele>
        <time>2018-07-27T08:53:16Z</time>
      </trkpt>
      <trkpt lat="45.91016" lon="4.77778">
        <ele>178</ele>
        <time>2018-07-27T08:53:17Z</time>
      </trkpt>
      <trkpt lat="45.9101" lon="4.7778">
        <ele>178</ele>
        <time>2018-07-27T08:53:18Z</time>
      </trkpt>
      <trkpt lat="45.91005" lon="4.77781">
        <ele>178</ele>
        <time>2018-07-27T08:53:19Z</time>
      </trkpt>
      <trkpt lat="45.91" lon="4.77782">
        <ele>177</ele>
        <time>2018-07-27T08:53:20Z</time>
      </trkpt>
      <trkpt lat="45.90991" lon="4.77783">
        <ele>177</ele>
        <time>2018-07-27T08:53:22Z</time>
      </trkpt>
      <trkpt lat="45.90985" lon="4.77783">
        <ele>177</ele>
        <time>2018-07-27T08:53:23Z</time>
      </trkpt>
      <trkpt lat="45.90979" lon="4.77785">
        <ele>177</ele>
        <time>2018-07-27T08:53:24Z</time>
      </trkpt>
      <trkpt lat="45.90975" lon="4.77785">
        <ele>177</ele>
        <time>2018-07-27T08:53:25Z</time>
      </trkpt>
      <trkpt lat="45.9097" lon="4.77785">
        <ele>177</ele>
        <time>2018-07-27T08:53:26Z</time>
      </trkpt>
      <trkpt lat="45.90966" lon="4.77781">
        <ele>177</ele>
        <time>2018-07-27T08:53:27Z</time>
      </trkpt>
      <trkpt lat="45.90958" lon="4.77777">
        <ele>177</ele>
        <time>2018-07-27T08:53:29Z</time>
      </trkpt>
      <trkpt lat="45.90956" lon="4.77775">
        <ele>177</ele>
        <time>2018-07-27T08:53:30Z</time>
      </trkpt>
      <trkpt lat="45.9095" lon="4.77771">
        <ele>177</ele>
        <time>2018-07-27T08:53:31Z</time>
      </trkpt>
      <trkpt lat="45.90945" lon="4.7777">
        <ele>177</ele>
        <time>2018-07-27T08:53:32Z</time>
      </trkpt>
      <trkpt lat="45.9094" lon="4.77769">
        <ele>177</ele>
        <time>2018-07-27T08:53:33Z</time>
      </trkpt>
      <trkpt lat="45.90936" lon="4.77769">
        <ele>177</ele>
        <time>2018-07-27T08:53:34Z</time>
      </trkpt>
      <trkpt lat="45.90929" lon="4.77763">
        <ele>177</ele>
        <time>2018-07-27T08:53:36Z</time>
      </trkpt>
      <trkpt lat="45.90925" lon="4.77759">
        <ele>176</ele>
        <time>2018-07-27T08:53:37Z</time>
      </trkpt>
      <trkpt lat="45.90922" lon="4.77755">
        <ele>176</ele>
        <time>2018-07-27T08:53:38Z</time>
      </trkpt>
      <trkpt lat="45.90917" lon="4.77752">
        <ele>176</ele>
        <time>2018-07-27T08:53:39Z</time>
      </trkpt>
      <trkpt lat="45.9091" lon="4.77744">
        <ele>176</ele>
        <time>2018-07-27T08:53:41Z</time>
      </trkpt>
      <trkpt lat="45.90907" lon="4.77739">
        <ele>177</ele>
        <time>2018-07-27T08:53:42Z</time>
      </trkpt>
      <trkpt lat="45.90904" lon="4.77735">
        <ele>177</ele>
        <time>2018-07-27T08:53:43Z</time>
      </trkpt>
      <trkpt lat="45.909" lon="4.7773">
        <ele>177</ele>
        <time>2018-07-27T08:53:44Z</time>
      </trkpt>
      <trkpt lat="45.90894" lon="4.77721">
        <ele>177</ele>
        <time>2018-07-27T08:53:46Z</time>
      </trkpt>
      <trkpt lat="45.90891" lon="4.77717">
        <ele>177</ele>
        <time>2018-07-27T08:53:47Z</time>
      </trkpt>
      <trkpt lat="45.90887" lon="4.7771">
        <ele>177</ele>
        <time>2018-07-27T08:53:49Z</time>
      </trkpt>
      <trkpt lat="45.90882" lon="4.77706">
        <ele>177</ele>
        <time>2018-07-27T08:53:50Z</time>
      </trkpt>
      <trkpt lat="45.90874" lon="4.777">
        <ele>178</ele>
        <time>2018-07-27T08:53:52Z</time>
      </trkpt>
      <trkpt lat="45.9087" lon="4.77699">
        <ele>178</ele>
        <time>2018-07-27T08:53:53Z</time>
      </trkpt>
      <trkpt lat="45.90864" lon="4.77692">
        <ele>178</ele>
        <time>2018-07-27T08:53:55Z</time>
      </trkpt>
      <trkpt lat="45.90862" lon="4.7769">
        <ele>178</ele>
        <time>2018-07-27T08:53:56Z</time>
      </trkpt>
      <trkpt lat="45.90858" lon="4.77686">
        <ele>178</ele>
        <time>2018-07-27T08:53:57Z</time>
      </trkpt>
      <trkpt lat="45.90854" lon="4.77684">
        <ele>178</ele>
        <time>2018-07-27T08:53:58Z</time>
      </trkpt>
      <trkpt lat="45.90846" lon="4.77678">
        <ele>178</ele>
        <time>2018-07-27T08:54:01Z</time>
      </trkpt>
      <trkpt lat="45.9084" lon="4.77674">
        <ele>179</ele>
        <time>2018-07-27T08:54:02Z</time>
      </trkpt>
      <trkpt lat="45.90831" lon="4.77671">
        <ele>179</ele>
        <time>2018-07-27T08:54:04Z</time>
      </trkpt>
      <trkpt lat="45.90827" lon="4.77669">
        <ele>179</ele>
        <time>2018-07-27T08:54:05Z</time>
      </trkpt>
      <trkpt lat="45.90822" lon="4.77668">
        <ele>179</ele>
        <time>2018-07-27T08:54:06Z</time>
      </trkpt>
      <trkpt lat="45.90818" lon="4.77667">
        <ele>179</ele>
        <time>2018-07-27T08:54:07Z</time>
      </trkpt>
      <trkpt lat="45.90809" lon="4.77666">
        <ele>179</ele>
        <time>2018-07-27T08:54:09Z</time>
      </trkpt>
      <trkpt lat="45.90805" lon="4.77665">
        <ele>179</ele>
        <time>2018-07-27T08:54:10Z</time>
      </trkpt>
      <trkpt lat="45.90797" lon="4.77662">
        <ele>179</ele>
        <time>2018-07-27T08:54:12Z</time>
      </trkpt>
      <trkpt lat="45.90791" lon="4.77661">
        <ele>179</ele>
        <time>2018-07-27T08:54:13Z</time>
      </trkpt>
      <trkpt lat="45.90786" lon="4.77658">
        <ele>179</ele>
        <time>2018-07-27T08:54:14Z</time>
      </trkpt>
      <trkpt lat="45.90781" lon="4.77658">
        <ele>180</ele>
        <time>2018-07-27T08:54:15Z</time>
      </trkpt>
      <trkpt lat="45.90775" lon="4.77657">
        <ele>180</ele>
        <time>2018-07-27T08:54:16Z</time>
      </trkpt>
      <trkpt lat="45.9077" lon="4.77656">
        <ele>180</ele>
        <time>2018-07-27T08:54:17Z</time>
      </trkpt>
      <trkpt lat="45.90764" lon="4.77652">
        <ele>180</ele>
        <time>2018-07-27T08:54:19Z</time>
      </trkpt>
      <trkpt lat="45.9076" lon="4.77648">
        <ele>180</ele>
        <time>2018-07-27T08:54:20Z</time>
      </trkpt>
      <trkpt lat="45.90751" lon="4.77644">
        <ele>180</ele>
        <time>2018-07-27T08:54:22Z</time>
      </trkpt>
      <trkpt lat="45.90746" lon="4.77644">
        <ele>180</ele>
        <time>2018-07-27T08:54:23Z</time>
      </trkpt>
      <trkpt lat="45.9074" lon="4.77644">
        <ele>180</ele>
        <time>2018-07-27T08:54:24Z</time>
      </trkpt>
      <trkpt lat="45.90734" lon="4.77644">
        <ele>180</ele>
        <time>2018-07-27T08:54:25Z</time>
      </trkpt>
      <trkpt lat="45.90728" lon="4.77642">
        <ele>180</ele>
        <time>2018-07-27T08:54:26Z</time>
      </trkpt>
      <trkpt lat="45.90722" lon="4.7764">
        <ele>180</ele>
        <time>2018-07-27T08:54:27Z</time>
      </trkpt>
      <trkpt lat="45.90717" lon="4.7764">
        <ele>180</ele>
        <time>2018-07-27T08:54:28Z</time>
      </trkpt>
      <trkpt lat="45.90711" lon="4.77639">
        <ele>179</ele>
        <time>2018-07-27T08:54:29Z</time>
      </trkpt>
      <trkpt lat="45.90704" lon="4.77639">
        <ele>179</ele>
        <time>2018-07-27T08:54:30Z</time>
      </trkpt>
      <trkpt lat="45.90698" lon="4.77636">
        <ele>179</ele>
        <time>2018-07-27T08:54:31Z</time>
      </trkpt>
      <trkpt lat="45.90693" lon="4.77634">
        <ele>179</ele>
        <time>2018-07-27T08:54:32Z</time>
      </trkpt>
      <trkpt lat="45.90687" lon="4.77632">
        <ele>179</ele>
        <time>2018-07-27T08:54:33Z</time>
      </trkpt>
      <trkpt lat="45.90681" lon="4.77631">
        <ele>179</ele>
        <time>2018-07-27T08:54:34Z</time>
      </trkpt>
      <trkpt lat="45.90675" lon="4.77632">
        <ele>179</ele>
        <time>2018-07-27T08:54:35Z</time>
      </trkpt>
      <trkpt lat="45.90667" lon="4.77629">
        <ele>179</ele>
        <time>2018-07-27T08:54:36Z</time>
      </trkpt>
      <trkpt lat="45.90661" lon="4.77628">
        <ele>179</ele>
        <time>2018-07-27T08:54:37Z</time>
      </trkpt>
      <trkpt lat="45.90654" lon="4.77626">
        <ele>179</ele>
        <time>2018-07-27T08:54:38Z</time>
      </trkpt>
      <trkpt lat="45.90647" lon="4.77625">
        <ele>179</ele>
        <time>2018-07-27T08:54:39Z</time>
      </trkpt>
      <trkpt lat="45.9064" lon="4.77624">
        <ele>179</ele>
        <time>2018-07-27T08:54:40Z</time>
      </trkpt>
      <trkpt lat="45.90634" lon="4.77625">
        <ele>179</ele>
        <time>2018-07-27T08:54:41Z</time>
      </trkpt>
      <trkpt lat="45.90626" lon="4.77625">
        <ele>179</ele>
        <time>2018-07-27T08:54:42Z</time>
      </trkpt>
      <trkpt lat="45.9062" lon="4.77626">
        <ele>179</ele>
        <time>2018-07-27T08:54:43Z</time>
      </trkpt>
      <trkpt lat="45.90613" lon="4.77626">
        <ele>179</ele>
        <time>2018-07-27T08:54:44Z</time>
      </trkpt>
      <trkpt lat="45.90607" lon="4.77629">
        <ele>179</ele>
        <time>2018-07-27T08:54:45Z</time>
      </trkpt>
      <trkpt lat="45.906" lon="4.77631">
        <ele>179</ele>
        <time>2018-07-27T08:54:46Z</time>
      </trkpt>
      <trkpt lat="45.90594" lon="4.77631">
        <ele>179</ele>
        <time>2018-07-27T08:54:47Z</time>
      </trkpt>
      <trkpt lat="45.90589" lon="4.77631">
        <ele>179</ele>
        <time>2018-07-27T08:54:48Z</time>
      </trkpt>
      <trkpt lat="45.90583" lon="4.77632">
        <ele>178</ele>
        <time>2018-07-27T08:54:49Z</time>
      </trkpt>
      <trkpt lat="45.90577" lon="4.77631">
        <ele>178</ele>
        <time>2018-07-27T08:54:50Z</time>
      </trkpt>
      <trkpt lat="45.9057" lon="4.77632">
        <ele>178</ele>
        <time>2018-07-27T08:54:51Z</time>
      </trkpt>
      <trkpt lat="45.90563" lon="4.77632">
        <ele>178</ele>
        <time>2018-07-27T08:54:52Z</time>
      </trkpt>
      <trkpt lat="45.90558" lon="4.77632">
        <ele>178</ele>
        <time>2018-07-27T08:54:53Z</time>
      </trkpt>
      <trkpt lat="45.90552" lon="4.77634">
        <ele>178</ele>
        <time>2018-07-27T08:54:54Z</time>
      </trkpt>
      <trkpt lat="45.90546" lon="4.77636">
        <ele>178</ele>
        <time>2018-07-27T08:54:55Z</time>
      </trkpt>
      <trkpt lat="45.9054" lon="4.77637">
        <ele>178</ele>
        <time>2018-07-27T08:54:56Z</time>
      </trkpt>
      <trkpt lat="45.90534" lon="4.77638">
        <ele>178</ele>
        <time>2018-07-27T08:54:57Z</time>
      </trkpt>
      <trkpt lat="45.90528" lon="4.7764">
        <ele>178</ele>
        <time>2018-07-27T08:54:58Z</time>
      </trkpt>
      <trkpt lat="45.90522" lon="4.77641">
        <ele>178</ele>
        <time>2018-07-27T08:54:59Z</time>
      </trkpt>
      <trkpt lat="45.90516" lon="4.77641">
        <ele>178</ele>
        <time>2018-07-27T08:55:00Z</time>
      </trkpt>
      <trkpt lat="45.90509" lon="4.77641">
        <ele>178</ele>
        <time>2018-07-27T08:55:01Z</time>
      </trkpt>
      <trkpt lat="45.90503" lon="4.77642">
        <ele>178</ele>
        <time>2018-07-27T08:55:02Z</time>
      </trkpt>
      <trkpt lat="45.90497" lon="4.77642">
        <ele>179</ele>
        <time>2018-07-27T08:55:03Z</time>
      </trkpt>
      <trkpt lat="45.9049" lon="4.77643">
        <ele>179</ele>
        <time>2018-07-27T08:55:04Z</time>
      </trkpt>
      <trkpt lat="45.90484" lon="4.77644">
        <ele>179</ele>
        <time>2018-07-27T08:55:05Z</time>
      </trkpt>
      <trkpt lat="45.90477" lon="4.77644">
        <ele>179</ele>
        <time>2018-07-27T08:55:06Z</time>
      </trkpt>
      <trkpt lat="45.90471" lon="4.77646">
        <ele>179</ele>
        <time>2018-07-27T08:55:07Z</time>
      </trkpt>
      <trkpt lat="45.90465" lon="4.77647">
        <ele>179</ele>
        <time>2018-07-27T08:55:08Z</time>
      </trkpt>
      <trkpt lat="45.90458" lon="4.77648">
        <ele>179</ele>
        <time>2018-07-27T08:55:09Z</time>
      </trkpt>
      <trkpt lat="45.90452" lon="4.77649">
        <ele>179</ele>
        <time>2018-07-27T08:55:10Z</time>
      </trkpt>
      <trkpt lat="45.90445" lon="4.7765">
        <ele>179</ele>
        <time>2018-07-27T08:55:11Z</time>
      </trkpt>
      <trkpt lat="45.90439" lon="4.7765">
        <ele>180</ele>
        <time>2018-07-27T08:55:12Z</time>
      </trkpt>
      <trkpt lat="45.90433" lon="4.77651">
        <ele>180</ele>
        <time>2018-07-27T08:55:13Z</time>
      </trkpt>
      <trkpt lat="45.90427" lon="4.77652">
        <ele>180</ele>
        <time>2018-07-27T08:55:14Z</time>
      </trkpt>
      <trkpt lat="45.90421" lon="4.77653">
        <ele>180</ele>
        <time>2018-07-27T08:55:15Z</time>
      </trkpt>
      <trkpt lat="45.90416" lon="4.77654">
        <ele>181</ele>
        <time>2018-07-27T08:55:16Z</time>
      </trkpt>
      <trkpt lat="45.90411" lon="4.77655">
        <ele>181</ele>
        <time>2018-07-27T08:55:17Z</time>
      </trkpt>
      <trkpt lat="45.90405" lon="4.77655">
        <ele>181</ele>
        <time>2018-07-27T08:55:18Z</time>
      </trkpt>
      <trkpt lat="45.90399" lon="4.77655">
        <ele>181</ele>
        <time>2018-07-27T08:55:19Z</time>
      </trkpt>
      <trkpt lat="45.90394" lon="4.77656">
        <ele>181</ele>
        <time>2018-07-27T08:55:20Z</time>
      </trkpt>
      <trkpt lat="45.90388" lon="4.77657">
        <ele>181</ele>
        <time>2018-07-27T08:55:21Z</time>
      </trkpt>
      <trkpt lat="45.90384" lon="4.77658">
        <ele>181</ele>
        <time>2018-07-27T08:55:22Z</time>
      </trkpt>
      <trkpt lat="45.90378" lon="4.7766">
        <ele>181</ele>
        <time>2018-07-27T08:55:23Z</time>
      </trkpt>
      <trkpt lat="45.9037" lon="4.77661">
        <ele>181</ele>
        <time>2018-07-27T08:55:25Z</time>
      </trkpt>
      <trkpt lat="45.90365" lon="4.77661">
        <ele>181</ele>
        <time>2018-07-27T08:55:26Z</time>
      </trkpt>
      <trkpt lat="45.9036" lon="4.77663">
        <ele>181</ele>
        <time>2018-07-27T08:55:27Z</time>
      </trkpt>
      <trkpt lat="45.90354" lon="4.77662">
        <ele>181</ele>
        <time>2018-07-27T08:55:28Z</time>
      </trkpt>
      <trkpt lat="45.90349" lon="4.77664">
        <ele>181</ele>
        <time>2018-07-27T08:55:29Z</time>
      </trkpt>
      <trkpt lat="45.90343" lon="4.77666">
        <ele>182</ele>
        <time>2018-07-27T08:55:30Z</time>
      </trkpt>
      <trkpt lat="45.90338" lon="4.77666">
        <ele>182</ele>
        <time>2018-07-27T08:55:31Z</time>
      </trkpt>
      <trkpt lat="45.90331" lon="4.77668">
        <ele>182</ele>
        <time>2018-07-27T08:55:32Z</time>
      </trkpt>
      <trkpt lat="45.90326" lon="4.77668">
        <ele>182</ele>
        <time>2018-07-27T08:55:33Z</time>
      </trkpt>
      <trkpt lat="45.90321" lon="4.77669">
        <ele>182</ele>
        <time>2018-07-27T08:55:34Z</time>
      </trkpt>
      <trkpt lat="45.90316" lon="4.77669">
        <ele>182</ele>
        <time>2018-07-27T08:55:35Z</time>
      </trkpt>
      <trkpt lat="45.9031" lon="4.77669">
        <ele>182</ele>
        <time>2018-07-27T08:55:36Z</time>
      </trkpt>
      <trkpt lat="45.90304" lon="4.77669">
        <ele>182</ele>
        <time>2018-07-27T08:55:37Z</time>
      </trkpt>
      <trkpt lat="45.90298" lon="4.7767">
        <ele>182</ele>
        <time>2018-07-27T08:55:38Z</time>
      </trkpt>
      <trkpt lat="45.90292" lon="4.77668">
        <ele>182</ele>
        <time>2018-07-27T08:55:39Z</time>
      </trkpt>
      <trkpt lat="45.90286" lon="4.7767">
        <ele>182</ele>
        <time>2018-07-27T08:55:40Z</time>
      </trkpt>
      <trkpt lat="45.90281" lon="4.7767">
        <ele>182</ele>
        <time>2018-07-27T08:55:41Z</time>
      </trkpt>
      <trkpt lat="45.90276" lon="4.77669">
        <ele>182</ele>
        <time>2018-07-27T08:55:42Z</time>
      </trkpt>
      <trkpt lat="45.9027" lon="4.77669">
        <ele>182</ele>
        <time>2018-07-27T08:55:43Z</time>
      </trkpt>
      <trkpt lat="45.90266" lon="4.77668">
        <ele>182</ele>
        <time>2018-07-27T08:55:44Z</time>
      </trkpt>
      <trkpt lat="45.90261" lon="4.77672">
        <ele>182</ele>
        <time>2018-07-27T08:55:45Z</time>
      </trkpt>
      <trkpt lat="45.90255" lon="4.77671">
        <ele>182</ele>
        <time>2018-07-27T08:55:46Z</time>
      </trkpt>
      <trkpt lat="45.90249" lon="4.77671">
        <ele>182</ele>
        <time>2018-07-27T08:55:47Z</time>
      </trkpt>
      <trkpt lat="45.90244" lon="4.77671">
        <ele>183</ele>
        <time>2018-07-27T08:55:48Z</time>
      </trkpt>
      <trkpt lat="45.90238" lon="4.7767">
        <ele>183</ele>
        <time>2018-07-27T08:55:49Z</time>
      </trkpt>
      <trkpt lat="45.90233" lon="4.77669">
        <ele>183</ele>
        <time>2018-07-27T08:55:50Z</time>
      </trkpt>
      <trkpt lat="45.90228" lon="4.7767">
        <ele>183</ele>
        <time>2018-07-27T08:55:51Z</time>
      </trkpt>
      <trkpt lat="45.90223" lon="4.7767">
        <ele>184</ele>
        <time>2018-07-27T08:55:52Z</time>
      </trkpt>
      <trkpt lat="45.90219" lon="4.77671">
        <ele>184</ele>
        <time>2018-07-27T08:55:53Z</time>
      </trkpt>
      <trkpt lat="45.90214" lon="4.77671">
        <ele>184</ele>
        <time>2018-07-27T08:55:54Z</time>
      </trkpt>
      <trkpt lat="45.90209" lon="4.7767">
        <ele>184</ele>
        <time>2018-07-27T08:55:55Z</time>
      </trkpt>
      <trkpt lat="45.90204" lon="4.7767">
        <ele>184</ele>
        <time>2018-07-27T08:55:56Z</time>
      </trkpt>
      <trkpt lat="45.90199" lon="4.77669">
        <ele>184</ele>
        <time>2018-07-27T08:55:57Z</time>
      </trkpt>
      <trkpt lat="45.90194" lon="4.77668">
        <ele>184</ele>
        <time>2018-07-27T08:55:58Z</time>
      </trkpt>
      <trkpt lat="45.90189" lon="4.77668">
        <ele>185</ele>
        <time>2018-07-27T08:55:59Z</time>
      </trkpt>
      <trkpt lat="45.90184" lon="4.77669">
        <ele>185</ele>
        <time>2018-07-27T08:56:00Z</time>
      </trkpt>
      <trkpt lat="45.90179" lon="4.77671">
        <ele>185</ele>
        <time>2018-07-27T08:56:01Z</time>
      </trkpt>
      <trkpt lat="45.90174" lon="4.77672">
        <ele>185</ele>
        <time>2018-07-27T08:56:02Z</time>
      </trkpt>
      <trkpt lat="45.90168" lon="4.77671">
        <ele>185</ele>
        <time>2018-07-27T08:56:03Z</time>
      </trkpt>
      <trkpt lat="45.90164" lon="4.77671">
        <ele>185</ele>
        <time>2018-07-27T08:56:04Z</time>
      </trkpt>
      <trkpt lat="45.90159" lon="4.77671">
        <ele>185</ele>
        <time>2018-07-27T08:56:05Z</time>
      </trkpt>
      <trkpt lat="45.90153" lon="4.77671">
        <ele>185</ele>
        <time>2018-07-27T08:56:06Z</time>
      </trkpt>
      <trkpt lat="45.90145" lon="4.77671">
        <ele>185</ele>
        <time>2018-07-27T08:56:08Z</time>
      </trkpt>
      <trkpt lat="45.9014" lon="4.77671">
        <ele>185</ele>
        <time>2018-07-27T08:56:09Z</time>
      </trkpt>
      <trkpt lat="45.90135" lon="4.77671">
        <ele>185</ele>
        <time>2018-07-27T08:56:10Z</time>
      </trkpt>
      <trkpt lat="45.90129" lon="4.7767">
        <ele>185</ele>
        <time>2018-07-27T08:56:11Z</time>
      </trkpt>
      <trkpt lat="45.90124" lon="4.7767">
        <ele>184</ele>
        <time>2018-07-27T08:56:12Z</time>
      </trkpt>
      <trkpt lat="45.9012" lon="4.7767">
        <ele>184</ele>
        <time>2018-07-27T08:56:13Z</time>
      </trkpt>
      <trkpt lat="45.90114" lon="4.77671">
        <ele>184</ele>
        <time>2018-07-27T08:56:14Z</time>
      </trkpt>
      <trkpt lat="45.90109" lon="4.7767">
        <ele>184</ele>
        <time>2018-07-27T08:56:15Z</time>
      </trkpt>
      <trkpt lat="45.90105" lon="4.7767">
        <ele>184</ele>
        <time>2018-07-27T08:56:16Z</time>
      </trkpt>
      <trkpt lat="45.901" lon="4.7767">
        <ele>184</ele>
        <time>2018-07-27T08:56:17Z</time>
      </trkpt>
      <trkpt lat="45.90091" lon="4.7767">
        <ele>183</ele>
        <time>2018-07-27T08:56:19Z</time>
      </trkpt>
      <trkpt lat="45.90086" lon="4.77671">
        <ele>183</ele>
        <time>2018-07-27T08:56:20Z</time>
      </trkpt>
      <trkpt lat="45.90081" lon="4.77671">
        <ele>183</ele>
        <time>2018-07-27T08:56:21Z</time>
      </trkpt>
      <trkpt lat="45.90076" lon="4.77671">
        <ele>184</ele>
        <time>2018-07-27T08:56:22Z</time>
      </trkpt>
      <trkpt lat="45.9007" lon="4.7767">
        <ele>184</ele>
        <time>2018-07-27T08:56:23Z</time>
      </trkpt>
      <trkpt lat="45.90065" lon="4.77669">
        <ele>184</ele>
        <time>2018-07-27T08:56:24Z</time>
      </trkpt>
      <trkpt lat="45.9006" lon="4.77667">
        <ele>184</ele>
        <time>2018-07-27T08:56:25Z</time>
      </trkpt>
      <trkpt lat="45.90055" lon="4.77665">
        <ele>183</ele>
        <time>2018-07-27T08:56:26Z</time>
      </trkpt>
      <trkpt lat="45.90051" lon="4.77663">
        <ele>183</ele>
        <time>2018-07-27T08:56:27Z</time>
      </trkpt>
      <trkpt lat="45.90046" lon="4.77663">
        <ele>184</ele>
        <time>2018-07-27T08:56:28Z</time>
      </trkpt>
      <trkpt lat="45.9004" lon="4.77662">
        <ele>184</ele>
        <time>2018-07-27T08:56:29Z</time>
      </trkpt>
      <trkpt lat="45.90034" lon="4.77662">
        <ele>184</ele>
        <time>2018-07-27T08:56:30Z</time>
      </trkpt>
      <trkpt lat="45.90027" lon="4.77662">
        <ele>184</ele>
        <time>2018-07-27T08:56:31Z</time>
      </trkpt>
      <trkpt lat="45.90022" lon="4.77663">
        <ele>184</ele>
        <time>2018-07-27T08:56:32Z</time>
      </trkpt>
      <trkpt lat="45.90017" lon="4.77663">
        <ele>185</ele>
        <time>2018-07-27T08:56:33Z</time>
      </trkpt>
      <trkpt lat="45.90013" lon="4.77663">
        <ele>185</ele>
        <time>2018-07-27T08:56:34Z</time>
      </trkpt>
      <trkpt lat="45.90007" lon="4.77663">
        <ele>185</ele>
        <time>2018-07-27T08:56:35Z</time>
      </trkpt>
      <trkpt lat="45.90003" lon="4.77662">
        <ele>185</ele>
        <time>2018-07-27T08:56:36Z</time>
      </trkpt>
      <trkpt lat="45.89998" lon="4.77663">
        <ele>186</ele>
        <time>2018-07-27T08:56:37Z</time>
      </trkpt>
      <trkpt lat="45.89994" lon="4.77662">
        <ele>186</ele>
        <time>2018-07-27T08:56:38Z</time>
      </trkpt>
      <trkpt lat="45.89985" lon="4.77664">
        <ele>185</ele>
        <time>2018-07-27T08:56:40Z</time>
      </trkpt>
      <trkpt lat="45.8998" lon="4.77664">
        <ele>185</ele>
        <time>2018-07-27T08:56:41Z</time>
      </trkpt>
      <trkpt lat="45.89971" lon="4.77663">
        <ele>185</ele>
        <time>2018-07-27T08:56:43Z</time>
      </trkpt>
      <trkpt lat="45.89967" lon="4.77663">
        <ele>185</ele>
        <time>2018-07-27T08:56:44Z</time>
      </trkpt>
      <trkpt lat="45.89962" lon="4.77662">
        <ele>185</ele>
        <time>2018-07-27T08:56:45Z</time>
      </trkpt>
      <trkpt lat="45.89956" lon="4.77662">
        <ele>185</ele>
        <time>2018-07-27T08:56:46Z</time>
      </trkpt>
      <trkpt lat="45.89948" lon="4.77664">
        <ele>185</ele>
        <time>2018-07-27T08:56:48Z</time>
      </trkpt>
      <trkpt lat="45.89943" lon="4.77663">
        <ele>186</ele>
        <time>2018-07-27T08:56:49Z</time>
      </trkpt>
      <trkpt lat="45.89936" lon="4.77664">
        <ele>186</ele>
        <time>2018-07-27T08:56:50Z</time>
      </trkpt>
      <trkpt lat="45.89932" lon="4.77664">
        <ele>186</ele>
        <time>2018-07-27T08:56:51Z</time>
      </trkpt>
      <trkpt lat="45.89927" lon="4.77665">
        <ele>186</ele>
        <time>2018-07-27T08:56:52Z</time>
      </trkpt>
      <trkpt lat="45.89922" lon="4.77665">
        <ele>186</ele>
        <time>2018-07-27T08:56:53Z</time>
      </trkpt>
      <trkpt lat="45.89918" lon="4.77666">
        <ele>187</ele>
        <time>2018-07-27T08:56:54Z</time>
      </trkpt>
      <trkpt lat="45.89913" lon="4.77667">
        <ele>187</ele>
        <time>2018-07-27T08:56:55Z</time>
      </trkpt>
      <trkpt lat="45.89904" lon="4.77668">
        <ele>188</ele>
        <time>2018-07-27T08:56:57Z</time>
      </trkpt>
      <trkpt lat="45.899" lon="4.77668">
        <ele>188</ele>
        <time>2018-07-27T08:56:58Z</time>
      </trkpt>
      <trkpt lat="45.89895" lon="4.77667">
        <ele>188</ele>
        <time>2018-07-27T08:56:59Z</time>
      </trkpt>
      <trkpt lat="45.8989" lon="4.77667">
        <ele>188</ele>
        <time>2018-07-27T08:57:00Z</time>
      </trkpt>
      <trkpt lat="45.89884" lon="4.77667">
        <ele>186</ele>
        <time>2018-07-27T08:57:01Z</time>
      </trkpt>
      <trkpt lat="45.89879" lon="4.77666">
        <ele>186</ele>
        <time>2018-07-27T08:57:02Z</time>
      </trkpt>
      <trkpt lat="45.8987" lon="4.77665">
        <ele>186</ele>
        <time>2018-07-27T08:57:04Z</time>
      </trkpt>
      <trkpt lat="45.89866" lon="4.77666">
        <ele>186</ele>
        <time>2018-07-27T08:57:05Z</time>
      </trkpt>
      <trkpt lat="45.89857" lon="4.77668">
        <ele>189</ele>
        <time>2018-07-27T08:57:07Z</time>
      </trkpt>
      <trkpt lat="45.89852" lon="4.77668">
        <ele>189</ele>
        <time>2018-07-27T08:57:08Z</time>
      </trkpt>
      <trkpt lat="45.89846" lon="4.77666">
        <ele>188</ele>
        <time>2018-07-27T08:57:10Z</time>
      </trkpt>
      <trkpt lat="45.89839" lon="4.77667">
        <ele>189</ele>
        <time>2018-07-27T08:57:11Z</time>
      </trkpt>
      <trkpt lat="45.89832" lon="4.77665">
        <ele>189</ele>
        <time>2018-07-27T08:57:13Z</time>
      </trkpt>
      <trkpt lat="45.89829" lon="4.77664">
        <ele>189</ele>
        <time>2018-07-27T08:57:14Z</time>
      </trkpt>
      <trkpt lat="45.89821" lon="4.77663">
        <ele>189</ele>
        <time>2018-07-27T08:57:16Z</time>
      </trkpt>
      <trkpt lat="45.89818" lon="4.77664">
        <ele>188</ele>
        <time>2018-07-27T08:57:17Z</time>
      </trkpt>
      <trkpt lat="45.8981" lon="4.77664">
        <ele>188</ele>
        <time>2018-07-27T08:57:19Z</time>
      </trkpt>
      <trkpt lat="45.89807" lon="4.77663">
        <ele>188</ele>
        <time>2018-07-27T08:57:20Z</time>
      </trkpt>
      <trkpt lat="45.89798" lon="4.77663">
        <ele>189</ele>
        <time>2018-07-27T08:57:23Z</time>
      </trkpt>
      <trkpt lat="45.89796" lon="4.77662">
        <ele>189</ele>
        <time>2018-07-27T08:57:24Z</time>
      </trkpt>
      <trkpt lat="45.89787" lon="4.77661">
        <ele>189</ele>
        <time>2018-07-27T08:57:27Z</time>
      </trkpt>
      <trkpt lat="45.89784" lon="4.77661">
        <ele>189</ele>
        <time>2018-07-27T08:57:28Z</time>
      </trkpt>
      <trkpt lat="45.89778" lon="4.77661">
        <ele>189</ele>
        <time>2018-07-27T08:57:30Z</time>
      </trkpt>
      <trkpt lat="45.89775" lon="4.77661">
        <ele>189</ele>
        <time>2018-07-27T08:57:31Z</time>
      </trkpt>
      <trkpt lat="45.89772" lon="4.77661">
        <ele>190</ele>
        <time>2018-07-27T08:57:32Z</time>
      </trkpt>
      <trkpt lat="45.89762" lon="4.77659">
        <ele>190</ele>
        <time>2018-07-27T08:57:33Z</time>
      </trkpt>
      <trkpt lat="45.89754" lon="4.77658">
        <ele>191</ele>
        <time>2018-07-27T08:57:35Z</time>
      </trkpt>
      <trkpt lat="45.8975" lon="4.77657">
        <ele>191</ele>
        <time>2018-07-27T08:57:36Z</time>
      </trkpt>
      <trkpt lat="45.89741" lon="4.77654">
        <ele>191</ele>
        <time>2018-07-27T08:57:38Z</time>
      </trkpt>
      <trkpt lat="45.89737" lon="4.77653">
        <ele>191</ele>
        <time>2018-07-27T08:57:39Z</time>
      </trkpt>
      <trkpt lat="45.89728" lon="4.77651">
        <ele>190</ele>
        <time>2018-07-27T08:57:41Z</time>
      </trkpt>
      <trkpt lat="45.89724" lon="4.7765">
        <ele>190</ele>
        <time>2018-07-27T08:57:42Z</time>
      </trkpt>
      <trkpt lat="45.89719" lon="4.77651">
        <ele>190</ele>
        <time>2018-07-27T08:57:43Z</time>
      </trkpt>
      <trkpt lat="45.89714" lon="4.77651">
        <ele>190</ele>
        <time>2018-07-27T08:57:44Z</time>
      </trkpt>
      <trkpt lat="45.89709" lon="4.7765">
        <ele>190</ele>
        <time>2018-07-27T08:57:45Z</time>
      </trkpt>
      <trkpt lat="45.89705" lon="4.7765">
        <ele>190</ele>
        <time>2018-07-27T08:57:46Z</time>
      </trkpt>
      <trkpt lat="45.897" lon="4.77648">
        <ele>190</ele>
        <time>2018-07-27T08:57:47Z</time>
      </trkpt>
      <trkpt lat="45.89695" lon="4.77648">
        <ele>190</ele>
        <time>2018-07-27T08:57:48Z</time>
      </trkpt>
      <trkpt lat="45.89691" lon="4.77648">
        <ele>190</ele>
        <time>2018-07-27T08:57:49Z</time>
      </trkpt>
      <trkpt lat="45.89686" lon="4.77647">
        <ele>190</ele>
        <time>2018-07-27T08:57:50Z</time>
      </trkpt>
      <trkpt lat="45.8968" lon="4.77645">
        <ele>190</ele>
        <time>2018-07-27T08:57:51Z</time>
      </trkpt>
      <trkpt lat="45.89675" lon="4.77644">
        <ele>190</ele>
        <time>2018-07-27T08:57:52Z</time>
      </trkpt>
      <trkpt lat="45.8967" lon="4.77643">
        <ele>190</ele>
        <time>2018-07-27T08:57:53Z</time>
      </trkpt>
      <trkpt lat="45.89664" lon="4.77641">
        <ele>190</ele>
        <time>2018-07-27T08:57:54Z</time>
      </trkpt>
      <trkpt lat="45.89655" lon="4.77639">
        <ele>190</ele>
        <time>2018-07-27T08:57:56Z</time>
      </trkpt>
      <trkpt lat="45.8965" lon="4.77638">
        <ele>190</ele>
        <time>2018-07-27T08:57:57Z</time>
      </trkpt>
      <trkpt lat="45.89644" lon="4.77637">
        <ele>190</ele>
        <time>2018-07-27T08:57:58Z</time>
      </trkpt>
      <trkpt lat="45.89639" lon="4.77636">
        <ele>190</ele>
        <time>2018-07-27T08:57:59Z</time>
      </trkpt>
      <trkpt lat="45.89633" lon="4.77637">
        <ele>190</ele>
        <time>2018-07-27T08:58:00Z</time>
      </trkpt>
      <trkpt lat="45.89627" lon="4.77636">
        <ele>191</ele>
        <time>2018-07-27T08:58:01Z</time>
      </trkpt>
      <trkpt lat="45.89619" lon="4.77634">
        <ele>191</ele>
        <time>2018-07-27T08:58:03Z</time>
      </trkpt>
      <trkpt lat="45.89615" lon="4.77633">
        <ele>191</ele>
        <time>2018-07-27T08:58:04Z</time>
      </trkpt>
      <trkpt lat="45.89609" lon="4.77633">
        <ele>191</ele>
        <time>2018-07-27T08:58:05Z</time>
      </trkpt>
      <trkpt lat="45.89605" lon="4.77633">
        <ele>191</ele>
        <time>2018-07-27T08:58:06Z</time>
      </trkpt>
      <trkpt lat="45.89599" lon="4.77631">
        <ele>191</ele>
        <time>2018-07-27T08:58:07Z</time>
      </trkpt>
      <trkpt lat="45.89594" lon="4.7763">
        <ele>191</ele>
        <time>2018-07-27T08:58:08Z</time>
      </trkpt>
      <trkpt lat="45.89589" lon="4.7763">
        <ele>191</ele>
        <time>2018-07-27T08:58:09Z</time>
      </trkpt>
      <trkpt lat="45.89584" lon="4.77631">
        <ele>191</ele>
        <time>2018-07-27T08:58:10Z</time>
      </trkpt>
      <trkpt lat="45.89579" lon="4.7763">
        <ele>192</ele>
        <time>2018-07-27T08:58:11Z</time>
      </trkpt>
      <trkpt lat="45.89575" lon="4.77629">
        <ele>192</ele>
        <time>2018-07-27T08:58:12Z</time>
      </trkpt>
      <trkpt lat="45.8957" lon="4.77628">
        <ele>192</ele>
        <time>2018-07-27T08:58:13Z</time>
      </trkpt>
      <trkpt lat="45.89565" lon="4.77628">
        <ele>192</ele>
        <time>2018-07-27T08:58:14Z</time>
      </trkpt>
      <trkpt lat="45.89559" lon="4.77627">
        <ele>192</ele>
        <time>2018-07-27T08:58:15Z</time>
      </trkpt>
      <trkpt lat="45.89554" lon="4.77627">
        <ele>192</ele>
        <time>2018-07-27T08:58:16Z</time>
      </trkpt>
      <trkpt lat="45.89548" lon="4.77625">
        <ele>192</ele>
        <time>2018-07-27T08:58:17Z</time>
      </trkpt>
      <trkpt lat="45.89543" lon="4.77625">
        <ele>192</ele>
        <time>2018-07-27T08:58:18Z</time>
      </trkpt>
      <trkpt lat="45.89537" lon="4.77623">
        <ele>192</ele>
        <time>2018-07-27T08:58:19Z</time>
      </trkpt>
      <trkpt lat="45.89531" lon="4.77622">
        <ele>192</ele>
        <time>2018-07-27T08:58:20Z</time>
      </trkpt>
      <trkpt lat="45.89526" lon="4.77621">
        <ele>192</ele>
        <time>2018-07-27T08:58:21Z</time>
      </trkpt>
      <trkpt lat="45.8952" lon="4.77619">
        <ele>192</ele>
        <time>2018-07-27T08:58:22Z</time>
      </trkpt>
      <trkpt lat="45.89514" lon="4.77617">
        <ele>192</ele>
        <time>2018-07-27T08:58:23Z</time>
      </trkpt>
      <trkpt lat="45.89509" lon="4.77615">
        <ele>192</ele>
        <time>2018-07-27T08:58:24Z</time>
      </trkpt>
      <trkpt lat="45.89503" lon="4.77614">
        <ele>192</ele>
        <time>2018-07-27T08:58:25Z</time>
      </trkpt>
      <trkpt lat="45.89497" lon="4.77612">
        <ele>193</ele>
        <time>2018-07-27T08:58:26Z</time>
      </trkpt>
      <trkpt lat="45.89492" lon="4.77612">
        <ele>193</ele>
        <time>2018-07-27T08:58:27Z</time>
      </trkpt>
      <trkpt lat="45.89487" lon="4.77609">
        <ele>193</ele>
        <time>2018-07-27T08:58:28Z</time>
      </trkpt>
      <trkpt lat="45.89481" lon="4.77608">
        <ele>193</ele>
        <time>2018-07-27T08:58:29Z</time>
      </trkpt>
      <trkpt lat="45.89476" lon="4.77606">
        <ele>193</ele>
        <time>2018-07-27T08:58:30Z</time>
      </trkpt>
      <trkpt lat="45.89471" lon="4.77605">
        <ele>193</ele>
        <time>2018-07-27T08:58:31Z</time>
      </trkpt>
      <trkpt lat="45.89466" lon="4.77602">
        <ele>193</ele>
        <time>2018-07-27T08:58:32Z</time>
      </trkpt>
      <trkpt lat="45.89461" lon="4.776">
        <ele>193</ele>
        <time>2018-07-27T08:58:33Z</time>
      </trkpt>
      <trkpt lat="45.89456" lon="4.77597">
        <ele>193</ele>
        <time>2018-07-27T08:58:34Z</time>
      </trkpt>
      <trkpt lat="45.8945" lon="4.77596">
        <ele>193</ele>
        <time>2018-07-27T08:58:35Z</time>
      </trkpt>
      <trkpt lat="45.89447" lon="4.77594">
        <ele>193</ele>
        <time>2018-07-27T08:58:36Z</time>
      </trkpt>
      <trkpt lat="45.89442" lon="4.77592">
        <ele>193</ele>
        <time>2018-07-27T08:58:37Z</time>
      </trkpt>
      <trkpt lat="45.89438" lon="4.77591">
        <ele>193</ele>
        <time>2018-07-27T08:58:38Z</time>
      </trkpt>
      <trkpt lat="45.89432" lon="4.77589">
        <ele>194</ele>
        <time>2018-07-27T08:58:39Z</time>
      </trkpt>
      <trkpt lat="45.89426" lon="4.77587">
        <ele>194</ele>
        <time>2018-07-27T08:58:40Z</time>
      </trkpt>
      <trkpt lat="45.89421" lon="4.77585">
        <ele>194</ele>
        <time>2018-07-27T08:58:41Z</time>
      </trkpt>
      <trkpt lat="45.89416" lon="4.77584">
        <ele>194</ele>
        <time>2018-07-27T08:58:42Z</time>
      </trkpt>
      <trkpt lat="45.8941" lon="4.77582">
        <ele>194</ele>
        <time>2018-07-27T08:58:43Z</time>
      </trkpt>
      <trkpt lat="45.89405" lon="4.7758">
        <ele>194</ele>
        <time>2018-07-27T08:58:44Z</time>
      </trkpt>
      <trkpt lat="45.894" lon="4.77579">
        <ele>194</ele>
        <time>2018-07-27T08:58:45Z</time>
      </trkpt>
      <trkpt lat="45.89395" lon="4.77577">
        <ele>194</ele>
        <time>2018-07-27T08:58:46Z</time>
      </trkpt>
      <trkpt lat="45.8939" lon="4.77575">
        <ele>194</ele>
        <time>2018-07-27T08:58:47Z</time>
      </trkpt>
      <trkpt lat="45.89385" lon="4.77572">
        <ele>194</ele>
        <time>2018-07-27T08:58:48Z</time>
      </trkpt>
      <trkpt lat="45.89379" lon="4.77569">
        <ele>194</ele>
        <time>2018-07-27T08:58:49Z</time>
      </trkpt>
      <trkpt lat="45.89374" lon="4.77568">
        <ele>194</ele>
        <time>2018-07-27T08:58:50Z</time>
      </trkpt>
      <trkpt lat="45.89368" lon="4.77565">
        <ele>194</ele>
        <time>2018-07-27T08:58:51Z</time>
      </trkpt>
      <trkpt lat="45.89363" lon="4.77562">
        <ele>194</ele>
        <time>2018-07-27T08:58:52Z</time>
      </trkpt>
      <trkpt lat="45.89357" lon="4.77561">
        <ele>194</ele>
        <time>2018-07-27T08:58:53Z</time>
      </trkpt>
      <trkpt lat="45.89352" lon="4.77558">
        <ele>194</ele>
        <time>2018-07-27T08:58:54Z</time>
      </trkpt>
      <trkpt lat="45.89346" lon="4.77557">
        <ele>194</ele>
        <time>2018-07-27T08:58:55Z</time>
      </trkpt>
      <trkpt lat="45.8934" lon="4.77555">
        <ele>194</ele>
        <time>2018-07-27T08:58:56Z</time>
      </trkpt>
      <trkpt lat="45.89334" lon="4.77552">
        <ele>194</ele>
        <time>2018-07-27T08:58:57Z</time>
      </trkpt>
      <trkpt lat="45.89329" lon="4.7755">
        <ele>194</ele>
        <time>2018-07-27T08:58:58Z</time>
      </trkpt>
      <trkpt lat="45.89324" lon="4.77548">
        <ele>194</ele>
        <time>2018-07-27T08:58:59Z</time>
      </trkpt>
      <trkpt lat="45.89319" lon="4.77544">
        <ele>194</ele>
        <time>2018-07-27T08:59:00Z</time>
      </trkpt>
      <trkpt lat="45.89314" lon="4.77542">
        <ele>194</ele>
        <time>2018-07-27T08:59:01Z</time>
      </trkpt>
      <trkpt lat="45.89307" lon="4.7754">
        <ele>194</ele>
        <time>2018-07-27T08:59:02Z</time>
      </trkpt>
      <trkpt lat="45.89302" lon="4.77538">
        <ele>194</ele>
        <time>2018-07-27T08:59:03Z</time>
      </trkpt>
      <trkpt lat="45.89297" lon="4.77535">
        <ele>194</ele>
        <time>2018-07-27T08:59:04Z</time>
      </trkpt>
      <trkpt lat="45.89292" lon="4.77533">
        <ele>194</ele>
        <time>2018-07-27T08:59:05Z</time>
      </trkpt>
      <trkpt lat="45.89288" lon="4.77532">
        <ele>193</ele>
        <time>2018-07-27T08:59:06Z</time>
      </trkpt>
      <trkpt lat="45.89284" lon="4.77529">
        <ele>193</ele>
        <time>2018-07-27T08:59:07Z</time>
      </trkpt>
      <trkpt lat="45.89277" lon="4.77529">
        <ele>193</ele>
        <time>2018-07-27T08:59:08Z</time>
      </trkpt>
      <trkpt lat="45.89272" lon="4.77529">
        <ele>193</ele>
        <time>2018-07-27T08:59:09Z</time>
      </trkpt>
      <trkpt lat="45.89266" lon="4.77528">
        <ele>193</ele>
        <time>2018-07-27T08:59:10Z</time>
      </trkpt>
      <trkpt lat="45.8926" lon="4.77527">
        <ele>193</ele>
        <time>2018-07-27T08:59:11Z</time>
      </trkpt>
      <trkpt lat="45.89254" lon="4.77526">
        <ele>193</ele>
        <time>2018-07-27T08:59:12Z</time>
      </trkpt>
      <trkpt lat="45.89248" lon="4.77527">
        <ele>193</ele>
        <time>2018-07-27T08:59:13Z</time>
      </trkpt>
      <trkpt lat="45.89242" lon="4.77526">
        <ele>193</ele>
        <time>2018-07-27T08:59:14Z</time>
      </trkpt>
      <trkpt lat="45.89237" lon="4.77528">
        <ele>193</ele>
        <time>2018-07-27T08:59:15Z</time>
      </trkpt>
      <trkpt lat="45.89231" lon="4.77528">
        <ele>194</ele>
        <time>2018-07-27T08:59:16Z</time>
      </trkpt>
      <trkpt lat="45.89226" lon="4.7753">
        <ele>194</ele>
        <time>2018-07-27T08:59:17Z</time>
      </trkpt>
      <trkpt lat="45.89221" lon="4.77531">
        <ele>194</ele>
        <time>2018-07-27T08:59:18Z</time>
      </trkpt>
      <trkpt lat="45.89217" lon="4.77533">
        <ele>194</ele>
        <time>2018-07-27T08:59:19Z</time>
      </trkpt>
      <trkpt lat="45.89212" lon="4.77534">
        <ele>194</ele>
        <time>2018-07-27T08:59:20Z</time>
      </trkpt>
      <trkpt lat="45.89207" lon="4.77532">
        <ele>194</ele>
        <time>2018-07-27T08:59:21Z</time>
      </trkpt>
      <trkpt lat="45.89203" lon="4.77533">
        <ele>194</ele>
        <time>2018-07-27T08:59:22Z</time>
      </trkpt>
      <trkpt lat="45.89199" lon="4.77534">
        <ele>194</ele>
        <time>2018-07-27T08:59:23Z</time>
      </trkpt>
      <trkpt lat="45.89194" lon="4.77535">
        <ele>194</ele>
        <time>2018-07-27T08:59:24Z</time>
      </trkpt>
      <trkpt lat="45.89188" lon="4.77537">
        <ele>194</ele>
        <time>2018-07-27T08:59:25Z</time>
      </trkpt>
      <trkpt lat="45.89182" lon="4.77539">
        <ele>194</ele>
        <time>2018-07-27T08:59:26Z</time>
      </trkpt>
      <trkpt lat="45.89177" lon="4.77538">
        <ele>194</ele>
        <time>2018-07-27T08:59:27Z</time>
      </trkpt>
      <trkpt lat="45.89168" lon="4.77542">
        <ele>194</ele>
        <time>2018-07-27T08:59:29Z</time>
      </trkpt>
      <trkpt lat="45.8916" lon="4.77542">
        <ele>195</ele>
        <time>2018-07-27T08:59:30Z</time>
      </trkpt>
      <trkpt lat="45.89155" lon="4.77542">
        <ele>195</ele>
        <time>2018-07-27T08:59:31Z</time>
      </trkpt>
      <trkpt lat="45.89148" lon="4.77544">
        <ele>195</ele>
        <time>2018-07-27T08:59:33Z</time>
      </trkpt>
      <trkpt lat="45.89143" lon="4.77544">
        <ele>195</ele>
        <time>2018-07-27T08:59:34Z</time>
      </trkpt>
      <trkpt lat="45.89138" lon="4.77546">
        <ele>195</ele>
        <time>2018-07-27T08:59:35Z</time>
      </trkpt>
      <trkpt lat="45.89133" lon="4.77548">
        <ele>195</ele>
        <time>2018-07-27T08:59:36Z</time>
      </trkpt>
      <trkpt lat="45.89128" lon="4.77549">
        <ele>195</ele>
        <time>2018-07-27T08:59:37Z</time>
      </trkpt>
      <trkpt lat="45.89124" lon="4.77551">
        <ele>195</ele>
        <time>2018-07-27T08:59:38Z</time>
      </trkpt>
      <trkpt lat="45.89119" lon="4.77555">
        <ele>195</ele>
        <time>2018-07-27T08:59:39Z</time>
      </trkpt>
      <trkpt lat="45.89116" lon="4.77558">
        <ele>195</ele>
        <time>2018-07-27T08:59:40Z</time>
      </trkpt>
      <trkpt lat="45.89111" lon="4.7756">
        <ele>195</ele>
        <time>2018-07-27T08:59:41Z</time>
      </trkpt>
      <trkpt lat="45.89106" lon="4.77563">
        <ele>195</ele>
        <time>2018-07-27T08:59:42Z</time>
      </trkpt>
      <trkpt lat="45.89101" lon="4.77565">
        <ele>196</ele>
        <time>2018-07-27T08:59:43Z</time>
      </trkpt>
      <trkpt lat="45.89096" lon="4.77567">
        <ele>196</ele>
        <time>2018-07-27T08:59:44Z</time>
      </trkpt>
      <trkpt lat="45.89091" lon="4.7757">
        <ele>196</ele>
        <time>2018-07-27T08:59:45Z</time>
      </trkpt>
      <trkpt lat="45.89087" lon="4.77574">
        <ele>196</ele>
        <time>2018-07-27T08:59:46Z</time>
      </trkpt>
      <trkpt lat="45.89083" lon="4.77579">
        <ele>196</ele>
        <time>2018-07-27T08:59:47Z</time>
      </trkpt>
      <trkpt lat="45.89078" lon="4.77584">
        <ele>196</ele>
        <time>2018-07-27T08:59:48Z</time>
      </trkpt>
      <trkpt lat="45.89074" lon="4.77588">
        <ele>196</ele>
        <time>2018-07-27T08:59:49Z</time>
      </trkpt>
      <trkpt lat="45.89069" lon="4.77591">
        <ele>196</ele>
        <time>2018-07-27T08:59:50Z</time>
      </trkpt>
      <trkpt lat="45.89065" lon="4.77595">
        <ele>196</ele>
        <time>2018-07-27T08:59:51Z</time>
      </trkpt>
      <trkpt lat="45.89061" lon="4.77599">
        <ele>197</ele>
        <time>2018-07-27T08:59:52Z</time>
      </trkpt>
      <trkpt lat="45.89056" lon="4.77603">
        <ele>197</ele>
        <time>2018-07-27T08:59:53Z</time>
      </trkpt>
      <trkpt lat="45.89052" lon="4.77606">
        <ele>197</ele>
        <time>2018-07-27T08:59:54Z</time>
      </trkpt>
      <trkpt lat="45.89048" lon="4.77611">
        <ele>197</ele>
        <time>2018-07-27T08:59:55Z</time>
      </trkpt>
      <trkpt lat="45.89044" lon="4.77615">
        <ele>197</ele>
        <time>2018-07-27T08:59:56Z</time>
      </trkpt>
      <trkpt lat="45.89039" lon="4.77618">
        <ele>197</ele>
        <time>2018-07-27T08:59:57Z</time>
      </trkpt>
      <trkpt lat="45.89035" lon="4.77621">
        <ele>197</ele>
        <time>2018-07-27T08:59:58Z</time>
      </trkpt>
      <trkpt lat="45.89032" lon="4.77627">
        <ele>197</ele>
        <time>2018-07-27T08:59:59Z</time>
      </trkpt>
      <trkpt lat="45.89028" lon="4.7763">
        <ele>197</ele>
        <time>2018-07-27T09:00:00Z</time>
      </trkpt>
      <trkpt lat="45.89023" lon="4.77633">
        <ele>197</ele>
        <time>2018-07-27T09:00:01Z</time>
      </trkpt>
      <trkpt lat="45.89018" lon="4.77637">
        <ele>197</ele>
        <time>2018-07-27T09:00:02Z</time>
      </trkpt>
      <trkpt lat="45.89014" lon="4.77642">
        <ele>197</ele>
        <time>2018-07-27T09:00:03Z</time>
      </trkpt>
      <trkpt lat="45.8901" lon="4.77645">
        <ele>197</ele>
        <time>2018-07-27T09:00:04Z</time>
      </trkpt>
      <trkpt lat="45.89006" lon="4.77649">
        <ele>197</ele>
        <time>2018-07-27T09:00:05Z</time>
      </trkpt>
      <trkpt lat="45.89003" lon="4.77654">
        <ele>197</ele>
        <time>2018-07-27T09:00:06Z</time>
      </trkpt>
      <trkpt lat="45.88999" lon="4.77657">
        <ele>197</ele>
        <time>2018-07-27T09:00:07Z</time>
      </trkpt>
      <trkpt lat="45.88995" lon="4.77663">
        <ele>197</ele>
        <time>2018-07-27T09:00:08Z</time>
      </trkpt>
      <trkpt lat="45.88991" lon="4.77667">
        <ele>197</ele>
        <time>2018-07-27T09:00:09Z</time>
      </trkpt>
      <trkpt lat="45.88986" lon="4.77671">
        <ele>198</ele>
        <time>2018-07-27T09:00:10Z</time>
      </trkpt>
      <trkpt lat="45.88978" lon="4.77676">
        <ele>198</ele>
        <time>2018-07-27T09:00:12Z</time>
      </trkpt>
      <trkpt lat="45.88973" lon="4.77677">
        <ele>198</ele>
        <time>2018-07-27T09:00:13Z</time>
      </trkpt>
      <trkpt lat="45.88968" lon="4.7768">
        <ele>198</ele>
        <time>2018-07-27T09:00:14Z</time>
      </trkpt>
      <trkpt lat="45.88964" lon="4.77684">
        <ele>198</ele>
        <time>2018-07-27T09:00:15Z</time>
      </trkpt>
      <trkpt lat="45.88959" lon="4.77687">
        <ele>198</ele>
        <time>2018-07-27T09:00:16Z</time>
      </trkpt>
      <trkpt lat="45.88955" lon="4.77689">
        <ele>199</ele>
        <time>2018-07-27T09:00:17Z</time>
      </trkpt>
      <trkpt lat="45.8895" lon="4.7769">
        <ele>199</ele>
        <time>2018-07-27T09:00:18Z</time>
      </trkpt>
      <trkpt lat="45.88945" lon="4.77692">
        <ele>199</ele>
        <time>2018-07-27T09:00:19Z</time>
      </trkpt>
      <trkpt lat="45.8894" lon="4.77695">
        <ele>199</ele>
        <time>2018-07-27T09:00:20Z</time>
      </trkpt>
      <trkpt lat="45.88935" lon="4.77697">
        <ele>199</ele>
        <time>2018-07-27T09:00:21Z</time>
      </trkpt>
      <trkpt lat="45.8893" lon="4.77699">
        <ele>199</ele>
        <time>2018-07-27T09:00:22Z</time>
      </trkpt>
      <trkpt lat="45.88925" lon="4.77699">
        <ele>199</ele>
        <time>2018-07-27T09:00:23Z</time>
      </trkpt>
      <trkpt lat="45.88921" lon="4.77701">
        <ele>199</ele>
        <time>2018-07-27T09:00:24Z</time>
      </trkpt>
      <trkpt lat="45.88916" lon="4.77703">
        <ele>200</ele>
        <time>2018-07-27T09:00:25Z</time>
      </trkpt>
      <trkpt lat="45.8891" lon="4.77703">
        <ele>200</ele>
        <time>2018-07-27T09:00:26Z</time>
      </trkpt>
      <trkpt lat="45.88905" lon="4.77705">
        <ele>200</ele>
        <time>2018-07-27T09:00:27Z</time>
      </trkpt>
      <trkpt lat="45.889" lon="4.77705">
        <ele>200</ele>
        <time>2018-07-27T09:00:28Z</time>
      </trkpt>
      <trkpt lat="45.88896" lon="4.77706">
        <ele>200</ele>
        <time>2018-07-27T09:00:29Z</time>
      </trkpt>
      <trkpt lat="45.88891" lon="4.77707">
        <ele>200</ele>
        <time>2018-07-27T09:00:30Z</time>
      </trkpt>
      <trkpt lat="45.88886" lon="4.77706">
        <ele>200</ele>
        <time>2018-07-27T09:00:31Z</time>
      </trkpt>
      <trkpt lat="45.88878" lon="4.77707">
        <ele>200</ele>
        <time>2018-07-27T09:00:33Z</time>
      </trkpt>
      <trkpt lat="45.88872" lon="4.77707">
        <ele>201</ele>
        <time>2018-07-27T09:00:34Z</time>
      </trkpt>
      <trkpt lat="45.88867" lon="4.77707">
        <ele>201</ele>
        <time>2018-07-27T09:00:35Z</time>
      </trkpt>
      <trkpt lat="45.88862" lon="4.77708">
        <ele>201</ele>
        <time>2018-07-27T09:00:36Z</time>
      </trkpt>
      <trkpt lat="45.88857" lon="4.77709">
        <ele>201</ele>
        <time>2018-07-27T09:00:37Z</time>
      </trkpt>
      <trkpt lat="45.88853" lon="4.77709">
        <ele>201</ele>
        <time>2018-07-27T09:00:38Z</time>
      </trkpt>
      <trkpt lat="45.88848" lon="4.7771">
        <ele>201</ele>
        <time>2018-07-27T09:00:39Z</time>
      </trkpt>
      <trkpt lat="45.88843" lon="4.7771">
        <ele>201</ele>
        <time>2018-07-27T09:00:40Z</time>
      </trkpt>
      <trkpt lat="45.88838" lon="4.77709">
        <ele>201</ele>
        <time>2018-07-27T09:00:41Z</time>
      </trkpt>
      <trkpt lat="45.88833" lon="4.7771">
        <ele>201</ele>
        <time>2018-07-27T09:00:42Z</time>
      </trkpt>
      <trkpt lat="45.88828" lon="4.7771">
        <ele>201</ele>
        <time>2018-07-27T09:00:43Z</time>
      </trkpt>
      <trkpt lat="45.88823" lon="4.77711">
        <ele>202</ele>
        <time>2018-07-27T09:00:44Z</time>
      </trkpt>
      <trkpt lat="45.88815" lon="4.77711">
        <ele>202</ele>
        <time>2018-07-27T09:00:46Z</time>
      </trkpt>
      <trkpt lat="45.8881" lon="4.77713">
        <ele>202</ele>
        <time>2018-07-27T09:00:47Z</time>
      </trkpt>
      <trkpt lat="45.88805" lon="4.77713">
        <ele>202</ele>
        <time>2018-07-27T09:00:48Z</time>
      </trkpt>
      <trkpt lat="45.88799" lon="4.77712">
        <ele>202</ele>
        <time>2018-07-27T09:00:49Z</time>
      </trkpt>
      <trkpt lat="45.88794" lon="4.77713">
        <ele>202</ele>
        <time>2018-07-27T09:00:50Z</time>
      </trkpt>
      <trkpt lat="45.8879" lon="4.77712">
        <ele>202</ele>
        <time>2018-07-27T09:00:51Z</time>
      </trkpt>
      <trkpt lat="45.88785" lon="4.77712">
        <ele>202</ele>
        <time>2018-07-27T09:00:52Z</time>
      </trkpt>
      <trkpt lat="45.8878" lon="4.77713">
        <ele>202</ele>
        <time>2018-07-27T09:00:53Z</time>
      </trkpt>
      <trkpt lat="45.88775" lon="4.77713">
        <ele>202</ele>
        <time>2018-07-27T09:00:54Z</time>
      </trkpt>
      <trkpt lat="45.88771" lon="4.77714">
        <ele>202</ele>
        <time>2018-07-27T09:00:55Z</time>
      </trkpt>
      <trkpt lat="45.88765" lon="4.77714">
        <ele>202</ele>
        <time>2018-07-27T09:00:56Z</time>
      </trkpt>
      <trkpt lat="45.8876" lon="4.77714">
        <ele>202</ele>
        <time>2018-07-27T09:00:57Z</time>
      </trkpt>
      <trkpt lat="45.88755" lon="4.77715">
        <ele>202</ele>
        <time>2018-07-27T09:00:58Z</time>
      </trkpt>
      <trkpt lat="45.88751" lon="4.77715">
        <ele>202</ele>
        <time>2018-07-27T09:00:59Z</time>
      </trkpt>
      <trkpt lat="45.88746" lon="4.77714">
        <ele>203</ele>
        <time>2018-07-27T09:01:00Z</time>
      </trkpt>
      <trkpt lat="45.88741" lon="4.77717">
        <ele>203</ele>
        <time>2018-07-27T09:01:01Z</time>
      </trkpt>
      <trkpt lat="45.88737" lon="4.77717">
        <ele>203</ele>
        <time>2018-07-27T09:01:02Z</time>
      </trkpt>
      <trkpt lat="45.88732" lon="4.77717">
        <ele>203</ele>
        <time>2018-07-27T09:01:03Z</time>
      </trkpt>
      <trkpt lat="45.88724" lon="4.77718">
        <ele>203</ele>
        <time>2018-07-27T09:01:05Z</time>
      </trkpt>
      <trkpt lat="45.88719" lon="4.77716">
        <ele>203</ele>
        <time>2018-07-27T09:01:06Z</time>
      </trkpt>
      <trkpt lat="45.88714" lon="4.77716">
        <ele>203</ele>
        <time>2018-07-27T09:01:07Z</time>
      </trkpt>
      <trkpt lat="45.88709" lon="4.77716">
        <ele>203</ele>
        <time>2018-07-27T09:01:08Z</time>
      </trkpt>
      <trkpt lat="45.88704" lon="4.77717">
        <ele>203</ele>
        <time>2018-07-27T09:01:09Z</time>
      </trkpt>
      <trkpt lat="45.88698" lon="4.77716">
        <ele>203</ele>
        <time>2018-07-27T09:01:10Z</time>
      </trkpt>
      <trkpt lat="45.88693" lon="4.77717">
        <ele>203</ele>
        <time>2018-07-27T09:01:11Z</time>
      </trkpt>
      <trkpt lat="45.88688" lon="4.77717">
        <ele>203</ele>
        <time>2018-07-27T09:01:12Z</time>
      </trkpt>
      <trkpt lat="45.88683" lon="4.77716">
        <ele>203</ele>
        <time>2018-07-27T09:01:13Z</time>
      </trkpt>
      <trkpt lat="45.88679" lon="4.77716">
        <ele>203</ele>
        <time>2018-07-27T09:01:14Z</time>
      </trkpt>
      <trkpt lat="45.88674" lon="4.77716">
        <ele>203</ele>
        <time>2018-07-27T09:01:15Z</time>
      </trkpt>
      <trkpt lat="45.88669" lon="4.77715">
        <ele>203</ele>
        <time>2018-07-27T09:01:16Z</time>
      </trkpt>
      <trkpt lat="45.88664" lon="4.77715">
        <ele>203</ele>
        <time>2018-07-27T09:01:17Z</time>
      </trkpt>
      <trkpt lat="45.88659" lon="4.77715">
        <ele>203</ele>
        <time>2018-07-27T09:01:18Z</time>
      </trkpt>
      <trkpt lat="45.88654" lon="4.77715">
        <ele>203</ele>
        <time>2018-07-27T09:01:19Z</time>
      </trkpt>
      <trkpt lat="45.88649" lon="4.77714">
        <ele>203</ele>
        <time>2018-07-27T09:01:20Z</time>
      </trkpt>
      <trkpt lat="45.8864" lon="4.77714">
        <ele>203</ele>
        <time>2018-07-27T09:01:22Z</time>
      </trkpt>
      <trkpt lat="45.88637" lon="4.77713">
        <ele>203</ele>
        <time>2018-07-27T09:01:23Z</time>
      </trkpt>
      <trkpt lat="45.88631" lon="4.77711">
        <ele>203</ele>
        <time>2018-07-27T09:01:24Z</time>
      </trkpt>
      <trkpt lat="45.88627" lon="4.7771">
        <ele>203</ele>
        <time>2018-07-27T09:01:25Z</time>
      </trkpt>
      <trkpt lat="45.88619" lon="4.77709">
        <ele>203</ele>
        <time>2018-07-27T09:01:27Z</time>
      </trkpt>
      <trkpt lat="45.88614" lon="4.77708">
        <ele>203</ele>
        <time>2018-07-27T09:01:28Z</time>
      </trkpt>
      <trkpt lat="45.88608" lon="4.77708">
        <ele>203</ele>
        <time>2018-07-27T09:01:29Z</time>
      </trkpt>
      <trkpt lat="45.88604" lon="4.77707">
        <ele>203</ele>
        <time>2018-07-27T09:01:30Z</time>
      </trkpt>
      <trkpt lat="45.88599" lon="4.77705">
        <ele>203</ele>
        <time>2018-07-27T09:01:31Z</time>
      </trkpt>
      <trkpt lat="45.88594" lon="4.77704">
        <ele>203</ele>
        <time>2018-07-27T09:01:32Z</time>
      </trkpt>
      <trkpt lat="45.8859" lon="4.77703">
        <ele>203</ele>
        <time>2018-07-27T09:01:33Z</time>
      </trkpt>
      <trkpt lat="45.88585" lon="4.77703">
        <ele>203</ele>
        <time>2018-07-27T09:01:34Z</time>
      </trkpt>
      <trkpt lat="45.8858" lon="4.77704">
        <ele>204</ele>
        <time>2018-07-27T09:01:35Z</time>
      </trkpt>
      <trkpt lat="45.88575" lon="4.77703">
        <ele>204</ele>
        <time>2018-07-27T09:01:36Z</time>
      </trkpt>
      <trkpt lat="45.88571" lon="4.77702">
        <ele>204</ele>
        <time>2018-07-27T09:01:37Z</time>
      </trkpt>
      <trkpt lat="45.88566" lon="4.77701">
        <ele>204</ele>
        <time>2018-07-27T09:01:38Z</time>
      </trkpt>
      <trkpt lat="45.88558" lon="4.777">
        <ele>204</ele>
        <time>2018-07-27T09:01:40Z</time>
      </trkpt>
      <trkpt lat="45.88554" lon="4.77699">
        <ele>204</ele>
        <time>2018-07-27T09:01:41Z</time>
      </trkpt>
      <trkpt lat="45.88549" lon="4.77698">
        <ele>204</ele>
        <time>2018-07-27T09:01:42Z</time>
      </trkpt>
      <trkpt lat="45.88544" lon="4.77696">
        <ele>204</ele>
        <time>2018-07-27T09:01:43Z</time>
      </trkpt>
      <trkpt lat="45.88539" lon="4.77694">
        <ele>204</ele>
        <time>2018-07-27T09:01:44Z</time>
      </trkpt>
      <trkpt lat="45.88534" lon="4.77692">
        <ele>204</ele>
        <time>2018-07-27T09:01:45Z</time>
      </trkpt>
      <trkpt lat="45.88528" lon="4.77692">
        <ele>204</ele>
        <time>2018-07-27T09:01:46Z</time>
      </trkpt>
      <trkpt lat="45.88524" lon="4.7769">
        <ele>204</ele>
        <time>2018-07-27T09:01:47Z</time>
      </trkpt>
      <trkpt lat="45.88516" lon="4.77689">
        <ele>205</ele>
        <time>2018-07-27T09:01:49Z</time>
      </trkpt>
      <trkpt lat="45.88512" lon="4.77687">
        <ele>205</ele>
        <time>2018-07-27T09:01:50Z</time>
      </trkpt>
      <trkpt lat="45.88504" lon="4.77684">
        <ele>205</ele>
        <time>2018-07-27T09:01:52Z</time>
      </trkpt>
      <trkpt lat="45.885" lon="4.77683">
        <ele>205</ele>
        <time>2018-07-27T09:01:53Z</time>
      </trkpt>
      <trkpt lat="45.88491" lon="4.7768">
        <ele>205</ele>
        <time>2018-07-27T09:01:55Z</time>
      </trkpt>
      <trkpt lat="45.88486" lon="4.7768">
        <ele>206</ele>
        <time>2018-07-27T09:01:56Z</time>
      </trkpt>
      <trkpt lat="45.88477" lon="4.77678">
        <ele>206</ele>
        <time>2018-07-27T09:01:58Z</time>
      </trkpt>
      <trkpt lat="45.88473" lon="4.77675">
        <ele>206</ele>
        <time>2018-07-27T09:01:59Z</time>
      </trkpt>
      <trkpt lat="45.88467" lon="4.77675">
        <ele>206</ele>
        <time>2018-07-27T09:02:00Z</time>
      </trkpt>
      <trkpt lat="45.88462" lon="4.77674">
        <ele>206</ele>
        <time>2018-07-27T09:02:01Z</time>
      </trkpt>
      <trkpt lat="45.88457" lon="4.77674">
        <ele>206</ele>
        <time>2018-07-27T09:02:02Z</time>
      </trkpt>
      <trkpt lat="45.88451" lon="4.77674">
        <ele>206</ele>
        <time>2018-07-27T09:02:03Z</time>
      </trkpt>
      <trkpt lat="45.88447" lon="4.77672">
        <ele>206</ele>
        <time>2018-07-27T09:02:04Z</time>
      </trkpt>
      <trkpt lat="45.88441" lon="4.77671">
        <ele>206</ele>
        <time>2018-07-27T09:02:05Z</time>
      </trkpt>
      <trkpt lat="45.88433" lon="4.77668">
        <ele>206</ele>
        <time>2018-07-27T09:02:07Z</time>
      </trkpt>
      <trkpt lat="45.88429" lon="4.77667">
        <ele>206</ele>
        <time>2018-07-27T09:02:08Z</time>
      </trkpt>
      <trkpt lat="45.88425" lon="4.77666">
        <ele>206</ele>
        <time>2018-07-27T09:02:09Z</time>
      </trkpt>
      <trkpt lat="45.88419" lon="4.77666">
        <ele>206</ele>
        <time>2018-07-27T09:02:10Z</time>
      </trkpt>
      <trkpt lat="45.88415" lon="4.77664">
        <ele>206</ele>
        <time>2018-07-27T09:02:11Z</time>
      </trkpt>
      <trkpt lat="45.8841" lon="4.77663">
        <ele>206</ele>
        <time>2018-07-27T09:02:12Z</time>
      </trkpt>
      <trkpt lat="45.88405" lon="4.77662">
        <ele>207</ele>
        <time>2018-07-27T09:02:13Z</time>
      </trkpt>
      <trkpt lat="45.884" lon="4.77661">
        <ele>207</ele>
        <time>2018-07-27T09:02:14Z</time>
      </trkpt>
      <trkpt lat="45.88395" lon="4.77661">
        <ele>207</ele>
        <time>2018-07-27T09:02:15Z</time>
      </trkpt>
      <trkpt lat="45.88391" lon="4.77661">
        <ele>207</ele>
        <time>2018-07-27T09:02:16Z</time>
      </trkpt>
      <trkpt lat="45.88386" lon="4.77661">
        <ele>207</ele>
        <time>2018-07-27T09:02:17Z</time>
      </trkpt>
      <trkpt lat="45.88381" lon="4.7766">
        <ele>207</ele>
        <time>2018-07-27T09:02:18Z</time>
      </trkpt>
      <trkpt lat="45.88373" lon="4.7766">
        <ele>207</ele>
        <time>2018-07-27T09:02:20Z</time>
      </trkpt>
      <trkpt lat="45.88368" lon="4.77659">
        <ele>207</ele>
        <time>2018-07-27T09:02:21Z</time>
      </trkpt>
      <trkpt lat="45.88359" lon="4.77659">
        <ele>208</ele>
        <time>2018-07-27T09:02:23Z</time>
      </trkpt>
      <trkpt lat="45.88355" lon="4.77658">
        <ele>208</ele>
        <time>2018-07-27T09:02:24Z</time>
      </trkpt>
      <trkpt lat="45.88349" lon="4.77657">
        <ele>208</ele>
        <time>2018-07-27T09:02:25Z</time>
      </trkpt>
      <trkpt lat="45.88345" lon="4.77657">
        <ele>208</ele>
        <time>2018-07-27T09:02:26Z</time>
      </trkpt>
      <trkpt lat="45.88336" lon="4.77658">
        <ele>208</ele>
        <time>2018-07-27T09:02:28Z</time>
      </trkpt>
      <trkpt lat="45.88332" lon="4.77659">
        <ele>208</ele>
        <time>2018-07-27T09:02:29Z</time>
      </trkpt>
      <trkpt lat="45.88323" lon="4.77658">
        <ele>209</ele>
        <time>2018-07-27T09:02:31Z</time>
      </trkpt>
      <trkpt lat="45.88319" lon="4.77658">
        <ele>209</ele>
        <time>2018-07-27T09:02:32Z</time>
      </trkpt>
      <trkpt lat="45.8831" lon="4.77658">
        <ele>209</ele>
        <time>2018-07-27T09:02:34Z</time>
      </trkpt>
      <trkpt lat="45.88305" lon="4.77659">
        <ele>209</ele>
        <time>2018-07-27T09:02:35Z</time>
      </trkpt>
      <trkpt lat="45.883" lon="4.77659">
        <ele>209</ele>
        <time>2018-07-27T09:02:36Z</time>
      </trkpt>
      <trkpt lat="45.88296" lon="4.77657">
        <ele>209</ele>
        <time>2018-07-27T09:02:37Z</time>
      </trkpt>
      <trkpt lat="45.88287" lon="4.77657">
        <ele>209</ele>
        <time>2018-07-27T09:02:39Z</time>
      </trkpt>
      <trkpt lat="45.88283" lon="4.77658">
        <ele>210</ele>
        <time>2018-07-27T09:02:40Z</time>
      </trkpt>
      <trkpt lat="45.88277" lon="4.77658">
        <ele>210</ele>
        <time>2018-07-27T09:02:41Z</time>
      </trkpt>
      <trkpt lat="45.88273" lon="4.77658">
        <ele>210</ele>
        <time>2018-07-27T09:02:42Z</time>
      </trkpt>
      <trkpt lat="45.88265" lon="4.77658">
        <ele>210</ele>
        <time>2018-07-27T09:02:44Z</time>
      </trkpt>
      <trkpt lat="45.88259" lon="4.77661">
        <ele>210</ele>
        <time>2018-07-27T09:02:45Z</time>
      </trkpt>
      <trkpt lat="45.88255" lon="4.77661">
        <ele>211</ele>
        <time>2018-07-27T09:02:46Z</time>
      </trkpt>
      <trkpt lat="45.8825" lon="4.77661">
        <ele>211</ele>
        <time>2018-07-27T09:02:47Z</time>
      </trkpt>
      <trkpt lat="45.88245" lon="4.77662">
        <ele>211</ele>
        <time>2018-07-27T09:02:48Z</time>
      </trkpt>
      <trkpt lat="45.8824" lon="4.77662">
        <ele>211</ele>
        <time>2018-07-27T09:02:49Z</time>
      </trkpt>
      <trkpt lat="45.88231" lon="4.77663">
        <ele>211</ele>
        <time>2018-07-27T09:02:51Z</time>
      </trkpt>
      <trkpt lat="45.88227" lon="4.77663">
        <ele>211</ele>
        <time>2018-07-27T09:02:52Z</time>
      </trkpt>
      <trkpt lat="45.88223" lon="4.77663">
        <ele>211</ele>
        <time>2018-07-27T09:02:53Z</time>
      </trkpt>
      <trkpt lat="45.88218" lon="4.77664">
        <ele>211</ele>
        <time>2018-07-27T09:02:54Z</time>
      </trkpt>
      <trkpt lat="45.8821" lon="4.77665">
        <ele>211</ele>
        <time>2018-07-27T09:02:56Z</time>
      </trkpt>
      <trkpt lat="45.88204" lon="4.77664">
        <ele>211</ele>
        <time>2018-07-27T09:02:57Z</time>
      </trkpt>
      <trkpt lat="45.88196" lon="4.77666">
        <ele>211</ele>
        <time>2018-07-27T09:02:59Z</time>
      </trkpt>
      <trkpt lat="45.88192" lon="4.77666">
        <ele>212</ele>
        <time>2018-07-27T09:03:00Z</time>
      </trkpt>
      <trkpt lat="45.88187" lon="4.77665">
        <ele>212</ele>
        <time>2018-07-27T09:03:01Z</time>
      </trkpt>
      <trkpt lat="45.88182" lon="4.77666">
        <ele>212</ele>
        <time>2018-07-27T09:03:02Z</time>
      </trkpt>
      <trkpt lat="45.88174" lon="4.77667">
        <ele>212</ele>
        <time>2018-07-27T09:03:04Z</time>
      </trkpt>
      <trkpt lat="45.88169" lon="4.77668">
        <ele>212</ele>
        <time>2018-07-27T09:03:05Z</time>
      </trkpt>
      <trkpt lat="45.8816" lon="4.77669">
        <ele>212</ele>
        <time>2018-07-27T09:03:07Z</time>
      </trkpt>
      <trkpt lat="45.88155" lon="4.7767">
        <ele>213</ele>
        <time>2018-07-27T09:03:08Z</time>
      </trkpt>
      <trkpt lat="45.88147" lon="4.77672">
        <ele>213</ele>
        <time>2018-07-27T09:03:10Z</time>
      </trkpt>
      <trkpt lat="45.88142" lon="4.77673">
        <ele>213</ele>
        <time>2018-07-27T09:03:11Z</time>
      </trkpt>
      <trkpt lat="45.88139" lon="4.77674">
        <ele>213</ele>
        <time>2018-07-27T09:03:12Z</time>
      </trkpt>
      <trkpt lat="45.88133" lon="4.77674">
        <ele>213</ele>
        <time>2018-07-27T09:03:13Z</time>
      </trkpt>
      <trkpt lat="45.88126" lon="4.77675">
        <ele>214</ele>
        <time>2018-07-27T09:03:15Z</time>
      </trkpt>
      <trkpt lat="45.88121" lon="4.77676">
        <ele>214</ele>
        <time>2018-07-27T09:03:16Z</time>
      </trkpt>
      <trkpt lat="45.88112" lon="4.77678">
        <ele>214</ele>
        <time>2018-07-27T09:03:18Z</time>
      </trkpt>
      <trkpt lat="45.88108" lon="4.77677">
        <ele>214</ele>
        <time>2018-07-27T09:03:19Z</time>
      </trkpt>
      <trkpt lat="45.881" lon="4.77679">
        <ele>214</ele>
        <time>2018-07-27T09:03:21Z</time>
      </trkpt>
      <trkpt lat="45.88096" lon="4.7768">
        <ele>214</ele>
        <time>2018-07-27T09:03:22Z</time>
      </trkpt>
      <trkpt lat="45.88088" lon="4.77681">
        <ele>214</ele>
        <time>2018-07-27T09:03:24Z</time>
      </trkpt>
      <trkpt lat="45.88084" lon="4.77682">
        <ele>215</ele>
        <time>2018-07-27T09:03:25Z</time>
      </trkpt>
      <trkpt lat="45.88075" lon="4.77682">
        <ele>215</ele>
        <time>2018-07-27T09:03:27Z</time>
      </trkpt>
      <trkpt lat="45.88072" lon="4.77684">
        <ele>215</ele>
        <time>2018-07-27T09:03:28Z</time>
      </trkpt>
      <trkpt lat="45.88063" lon="4.77685">
        <ele>216</ele>
        <time>2018-07-27T09:03:30Z</time>
      </trkpt>
      <trkpt lat="45.88058" lon="4.77687">
        <ele>216</ele>
        <time>2018-07-27T09:03:31Z</time>
      </trkpt>
      <trkpt lat="45.88054" lon="4.77688">
        <ele>216</ele>
        <time>2018-07-27T09:03:32Z</time>
      </trkpt>
      <trkpt lat="45.88049" lon="4.77688">
        <ele>216</ele>
        <time>2018-07-27T09:03:33Z</time>
      </trkpt>
      <trkpt lat="45.88041" lon="4.77689">
        <ele>216</ele>
        <time>2018-07-27T09:03:35Z</time>
      </trkpt>
      <trkpt lat="45.88037" lon="4.7769">
        <ele>216</ele>
        <time>2018-07-27T09:03:36Z</time>
      </trkpt>
      <trkpt lat="45.88033" lon="4.7769">
        <ele>216</ele>
        <time>2018-07-27T09:03:37Z</time>
      </trkpt>
      <trkpt lat="45.88028" lon="4.77691">
        <ele>216</ele>
        <time>2018-07-27T09:03:38Z</time>
      </trkpt>
      <trkpt lat="45.88021" lon="4.77692">
        <ele>216</ele>
        <time>2018-07-27T09:03:40Z</time>
      </trkpt>
      <trkpt lat="45.88015" lon="4.77695">
        <ele>216</ele>
        <time>2018-07-27T09:03:41Z</time>
      </trkpt>
      <trkpt lat="45.8801" lon="4.77694">
        <ele>216</ele>
        <time>2018-07-27T09:03:42Z</time>
      </trkpt>
      <trkpt lat="45.88005" lon="4.77695">
        <ele>216</ele>
        <time>2018-07-27T09:03:43Z</time>
      </trkpt>
      <trkpt lat="45.88001" lon="4.77694">
        <ele>216</ele>
        <time>2018-07-27T09:03:44Z</time>
      </trkpt>
      <trkpt lat="45.87995" lon="4.77693">
        <ele>217</ele>
        <time>2018-07-27T09:03:45Z</time>
      </trkpt>
      <trkpt lat="45.87991" lon="4.77691">
        <ele>217</ele>
        <time>2018-07-27T09:03:46Z</time>
      </trkpt>
      <trkpt lat="45.87986" lon="4.7769">
        <ele>217</ele>
        <time>2018-07-27T09:03:47Z</time>
      </trkpt>
      <trkpt lat="45.87982" lon="4.77688">
        <ele>217</ele>
        <time>2018-07-27T09:03:48Z</time>
      </trkpt>
      <trkpt lat="45.87977" lon="4.77687">
        <ele>218</ele>
        <time>2018-07-27T09:03:49Z</time>
      </trkpt>
      <trkpt lat="45.87973" lon="4.77683">
        <ele>218</ele>
        <time>2018-07-27T09:03:50Z</time>
      </trkpt>
      <trkpt lat="45.87969" lon="4.77679">
        <ele>218</ele>
        <time>2018-07-27T09:03:51Z</time>
      </trkpt>
      <trkpt lat="45.87963" lon="4.77672">
        <ele>218</ele>
        <time>2018-07-27T09:03:53Z</time>
      </trkpt>
      <trkpt lat="45.87958" lon="4.77669">
        <ele>218</ele>
        <time>2018-07-27T09:03:54Z</time>
      </trkpt>
      <trkpt lat="45.87954" lon="4.77667">
        <ele>218</ele>
        <time>2018-07-27T09:03:55Z</time>
      </trkpt>
      <trkpt lat="45.87949" lon="4.77665">
        <ele>218</ele>
        <time>2018-07-27T09:03:56Z</time>
      </trkpt>
      <trkpt lat="45.87944" lon="4.77664">
        <ele>219</ele>
        <time>2018-07-27T09:03:57Z</time>
      </trkpt>
      <trkpt lat="45.87939" lon="4.77663">
        <ele>219</ele>
        <time>2018-07-27T09:03:58Z</time>
      </trkpt>
      <trkpt lat="45.87934" lon="4.77659">
        <ele>219</ele>
        <time>2018-07-27T09:03:59Z</time>
      </trkpt>
      <trkpt lat="45.87929" lon="4.77655">
        <ele>219</ele>
        <time>2018-07-27T09:04:00Z</time>
      </trkpt>
      <trkpt lat="45.87925" lon="4.77651">
        <ele>219</ele>
        <time>2018-07-27T09:04:01Z</time>
      </trkpt>
      <trkpt lat="45.87921" lon="4.77647">
        <ele>219</ele>
        <time>2018-07-27T09:04:02Z</time>
      </trkpt>
      <trkpt lat="45.87917" lon="4.77644">
        <ele>220</ele>
        <time>2018-07-27T09:04:03Z</time>
      </trkpt>
      <trkpt lat="45.87913" lon="4.7764">
        <ele>221</ele>
        <time>2018-07-27T09:04:04Z</time>
      </trkpt>
      <trkpt lat="45.87906" lon="4.77637">
        <ele>221</ele>
        <time>2018-07-27T09:04:05Z</time>
      </trkpt>
      <trkpt lat="45.87904" lon="4.77634">
        <ele>221</ele>
        <time>2018-07-27T09:04:06Z</time>
      </trkpt>
      <trkpt lat="45.87897" lon="4.77627">
        <ele>221</ele>
        <time>2018-07-27T09:04:08Z</time>
      </trkpt>
      <trkpt lat="45.87893" lon="4.77622">
        <ele>221</ele>
        <time>2018-07-27T09:04:09Z</time>
      </trkpt>
      <trkpt lat="45.87889" lon="4.77619">
        <ele>221</ele>
        <time>2018-07-27T09:04:10Z</time>
      </trkpt>
      <trkpt lat="45.87885" lon="4.77613">
        <ele>221</ele>
        <time>2018-07-27T09:04:11Z</time>
      </trkpt>
      <trkpt lat="45.87881" lon="4.7761">
        <ele>221</ele>
        <time>2018-07-27T09:04:12Z</time>
      </trkpt>
      <trkpt lat="45.87876" lon="4.77607">
        <ele>221</ele>
        <time>2018-07-27T09:04:13Z</time>
      </trkpt>
      <trkpt lat="45.87872" lon="4.77603">
        <ele>221</ele>
        <time>2018-07-27T09:04:14Z</time>
      </trkpt>
      <trkpt lat="45.87868" lon="4.77599">
        <ele>221</ele>
        <time>2018-07-27T09:04:15Z</time>
      </trkpt>
      <trkpt lat="45.87865" lon="4.77595">
        <ele>221</ele>
        <time>2018-07-27T09:04:16Z</time>
      </trkpt>
      <trkpt lat="45.87861" lon="4.7759">
        <ele>221</ele>
        <time>2018-07-27T09:04:17Z</time>
      </trkpt>
      <trkpt lat="45.87855" lon="4.77584">
        <ele>221</ele>
        <time>2018-07-27T09:04:19Z</time>
      </trkpt>
      <trkpt lat="45.87851" lon="4.77581">
        <ele>221</ele>
        <time>2018-07-27T09:04:20Z</time>
      </trkpt>
      <trkpt lat="45.87848" lon="4.77578">
        <ele>221</ele>
        <time>2018-07-27T09:04:21Z</time>
      </trkpt>
      <trkpt lat="45.87842" lon="4.77576">
        <ele>221</ele>
        <time>2018-07-27T09:04:22Z</time>
      </trkpt>
      <trkpt lat="45.87837" lon="4.77573">
        <ele>221</ele>
        <time>2018-07-27T09:04:23Z</time>
      </trkpt>
      <trkpt lat="45.87833" lon="4.77569">
        <ele>222</ele>
        <time>2018-07-27T09:04:24Z</time>
      </trkpt>
      <trkpt lat="45.87829" lon="4.77567">
        <ele>222</ele>
        <time>2018-07-27T09:04:25Z</time>
      </trkpt>
      <trkpt lat="45.87823" lon="4.77563">
        <ele>223</ele>
        <time>2018-07-27T09:04:26Z</time>
      </trkpt>
      <trkpt lat="45.87816" lon="4.77557">
        <ele>223</ele>
        <time>2018-07-27T09:04:28Z</time>
      </trkpt>
      <trkpt lat="45.87811" lon="4.77554">
        <ele>223</ele>
        <time>2018-07-27T09:04:29Z</time>
      </trkpt>
      <trkpt lat="45.87805" lon="4.77547">
        <ele>223</ele>
        <time>2018-07-27T09:04:31Z</time>
      </trkpt>
      <trkpt lat="45.878" lon="4.77544">
        <ele>223</ele>
        <time>2018-07-27T09:04:32Z</time>
      </trkpt>
      <trkpt lat="45.87794" lon="4.77539">
        <ele>223</ele>
        <time>2018-07-27T09:04:34Z</time>
      </trkpt>
      <trkpt lat="45.8779" lon="4.77536">
        <ele>223</ele>
        <time>2018-07-27T09:04:35Z</time>
      </trkpt>
      <trkpt lat="45.87784" lon="4.7753">
        <ele>223</ele>
        <time>2018-07-27T09:04:37Z</time>
      </trkpt>
      <trkpt lat="45.8778" lon="4.77527">
        <ele>223</ele>
        <time>2018-07-27T09:04:38Z</time>
      </trkpt>
      <trkpt lat="45.87772" lon="4.77522">
        <ele>223</ele>
        <time>2018-07-27T09:04:40Z</time>
      </trkpt>
      <trkpt lat="45.87767" lon="4.7752">
        <ele>223</ele>
        <time>2018-07-27T09:04:41Z</time>
      </trkpt>
      <trkpt lat="45.87761" lon="4.77517">
        <ele>223</ele>
        <time>2018-07-27T09:04:42Z</time>
      </trkpt>
      <trkpt lat="45.87758" lon="4.77514">
        <ele>224</ele>
        <time>2018-07-27T09:04:43Z</time>
      </trkpt>
      <trkpt lat="45.87754" lon="4.77509">
        <ele>224</ele>
        <time>2018-07-27T09:04:46Z</time>
      </trkpt>
      <trkpt lat="45.87746" lon="4.77504">
        <ele>225</ele>
        <time>2018-07-27T09:04:47Z</time>
      </trkpt>
      <trkpt lat="45.87738" lon="4.77499">
        <ele>225</ele>
        <time>2018-07-27T09:04:49Z</time>
      </trkpt>
      <trkpt lat="45.87737" lon="4.77498">
        <ele>225</ele>
        <time>2018-07-27T09:04:50Z</time>
      </trkpt>
      <trkpt lat="45.87731" lon="4.77495">
        <ele>225</ele>
        <time>2018-07-27T09:04:51Z</time>
      </trkpt>
      <trkpt lat="45.87728" lon="4.77492">
        <ele>226</ele>
        <time>2018-07-27T09:04:52Z</time>
      </trkpt>
      <trkpt lat="45.87721" lon="4.77488">
        <ele>226</ele>
        <time>2018-07-27T09:04:54Z</time>
      </trkpt>
      <trkpt lat="45.87717" lon="4.77488">
        <ele>226</ele>
        <time>2018-07-27T09:04:55Z</time>
      </trkpt>
      <trkpt lat="45.87709" lon="4.77487">
        <ele>226</ele>
        <time>2018-07-27T09:04:57Z</time>
      </trkpt>
      <trkpt lat="45.87705" lon="4.77487">
        <ele>226</ele>
        <time>2018-07-27T09:04:58Z</time>
      </trkpt>
      <trkpt lat="45.87696" lon="4.77486">
        <ele>227</ele>
        <time>2018-07-27T09:05:00Z</time>
      </trkpt>
      <trkpt lat="45.8769" lon="4.77485">
        <ele>227</ele>
        <time>2018-07-27T09:05:01Z</time>
      </trkpt>
      <trkpt lat="45.87682" lon="4.77487">
        <ele>227</ele>
        <time>2018-07-27T09:05:03Z</time>
      </trkpt>
      <trkpt lat="45.87677" lon="4.77487">
        <ele>228</ele>
        <time>2018-07-27T09:05:04Z</time>
      </trkpt>
      <trkpt lat="45.87672" lon="4.77488">
        <ele>228</ele>
        <time>2018-07-27T09:05:05Z</time>
      </trkpt>
      <trkpt lat="45.87667" lon="4.7749">
        <ele>228</ele>
        <time>2018-07-27T09:05:06Z</time>
      </trkpt>
      <trkpt lat="45.87663" lon="4.7749">
        <ele>230</ele>
        <time>2018-07-27T09:05:07Z</time>
      </trkpt>
      <trkpt lat="45.87657" lon="4.77491">
        <ele>230</ele>
        <time>2018-07-27T09:05:08Z</time>
      </trkpt>
      <trkpt lat="45.8765" lon="4.7749">
        <ele>230</ele>
        <time>2018-07-27T09:05:10Z</time>
      </trkpt>
      <trkpt lat="45.87645" lon="4.77492">
        <ele>230</ele>
        <time>2018-07-27T09:05:11Z</time>
      </trkpt>
      <trkpt lat="45.87638" lon="4.77492">
        <ele>230</ele>
        <time>2018-07-27T09:05:15Z</time>
      </trkpt>
      <trkpt lat="45.87636" lon="4.77493">
        <ele>230</ele>
        <time>2018-07-27T09:05:16Z</time>
      </trkpt>
      <trkpt lat="45.87627" lon="4.77495">
        <ele>231</ele>
        <time>2018-07-27T09:05:17Z</time>
      </trkpt>
      <trkpt lat="45.87625" lon="4.77495">
        <ele>231</ele>
        <time>2018-07-27T09:05:18Z</time>
      </trkpt>
      <trkpt lat="45.87617" lon="4.77496">
        <ele>231</ele>
        <time>2018-07-27T09:05:22Z</time>
      </trkpt>
      <trkpt lat="45.87614" lon="4.77496">
        <ele>231</ele>
        <time>2018-07-27T09:05:23Z</time>
      </trkpt>
      <trkpt lat="45.87608" lon="4.77497">
        <ele>231</ele>
        <time>2018-07-27T09:05:26Z</time>
      </trkpt>
      <trkpt lat="45.87605" lon="4.77498">
        <ele>231</ele>
        <time>2018-07-27T09:05:27Z</time>
      </trkpt>
      <trkpt lat="45.87597" lon="4.77499">
        <ele>232</ele>
        <time>2018-07-27T09:05:31Z</time>
      </trkpt>
      <trkpt lat="45.87595" lon="4.77499">
        <ele>232</ele>
        <time>2018-07-27T09:05:32Z</time>
      </trkpt>
      <trkpt lat="45.87589" lon="4.775">
        <ele>232</ele>
        <time>2018-07-27T09:05:34Z</time>
      </trkpt>
      <trkpt lat="45.87585" lon="4.775">
        <ele>232</ele>
        <time>2018-07-27T09:05:35Z</time>
      </trkpt>
      <trkpt lat="45.87578" lon="4.775">
        <ele>232</ele>
        <time>2018-07-27T09:05:37Z</time>
      </trkpt>
      <trkpt lat="45.87574" lon="4.77499">
        <ele>233</ele>
        <time>2018-07-27T09:05:38Z</time>
      </trkpt>
      <trkpt lat="45.87562" lon="4.77495">
        <ele>233</ele>
        <time>2018-07-27T09:05:39Z</time>
      </trkpt>
      <trkpt lat="45.87558" lon="4.77492">
        <ele>233</ele>
        <time>2018-07-27T09:05:41Z</time>
      </trkpt>
      <trkpt lat="45.87553" lon="4.77485">
        <ele>233</ele>
        <time>2018-07-27T09:05:42Z</time>
      </trkpt>
      <trkpt lat="45.87548" lon="4.77477">
        <ele>233</ele>
        <time>2018-07-27T09:05:44Z</time>
      </trkpt>
      <trkpt lat="45.87546" lon="4.77473">
        <ele>233</ele>
        <time>2018-07-27T09:05:45Z</time>
      </trkpt>
      <trkpt lat="45.8754" lon="4.77464">
        <ele>233</ele>
        <time>2018-07-27T09:05:47Z</time>
      </trkpt>
      <trkpt lat="45.87538" lon="4.7746">
        <ele>233</ele>
        <time>2018-07-27T09:05:48Z</time>
      </trkpt>
      <trkpt lat="45.87532" lon="4.77452">
        <ele>234</ele>
        <time>2018-07-27T09:05:50Z</time>
      </trkpt>
      <trkpt lat="45.87529" lon="4.77448">
        <ele>234</ele>
        <time>2018-07-27T09:05:51Z</time>
      </trkpt>
      <trkpt lat="45.87523" lon="4.7744">
        <ele>233</ele>
        <time>2018-07-27T09:05:53Z</time>
      </trkpt>
      <trkpt lat="45.87519" lon="4.77435">
        <ele>233</ele>
        <time>2018-07-27T09:05:54Z</time>
      </trkpt>
      <trkpt lat="45.87514" lon="4.77428">
        <ele>233</ele>
        <time>2018-07-27T09:05:56Z</time>
      </trkpt>
      <trkpt lat="45.87513" lon="4.77426">
        <ele>233</ele>
        <time>2018-07-27T09:05:57Z</time>
      </trkpt>
      <trkpt lat="45.8751" lon="4.7742">
        <ele>233</ele>
        <time>2018-07-27T09:05:58Z</time>
      </trkpt>
      <trkpt lat="45.87507" lon="4.77416">
        <ele>233</ele>
        <time>2018-07-27T09:05:59Z</time>
      </trkpt>
      <trkpt lat="45.87503" lon="4.77411">
        <ele>233</ele>
        <time>2018-07-27T09:06:00Z</time>
      </trkpt>
      <trkpt lat="45.87501" lon="4.77406">
        <ele>233</ele>
        <time>2018-07-27T09:06:01Z</time>
      </trkpt>
      <trkpt lat="45.87496" lon="4.77395">
        <ele>234</ele>
        <time>2018-07-27T09:06:03Z</time>
      </trkpt>
      <trkpt lat="45.87493" lon="4.7739">
        <ele>235</ele>
        <time>2018-07-27T09:06:04Z</time>
      </trkpt>
      <trkpt lat="45.87491" lon="4.77384">
        <ele>235</ele>
        <time>2018-07-27T09:06:05Z</time>
      </trkpt>
      <trkpt lat="45.87489" lon="4.77378">
        <ele>235</ele>
        <time>2018-07-27T09:06:06Z</time>
      </trkpt>
      <trkpt lat="45.87487" lon="4.77372">
        <ele>235</ele>
        <time>2018-07-27T09:06:07Z</time>
      </trkpt>
      <trkpt lat="45.87486" lon="4.77365">
        <ele>235</ele>
        <time>2018-07-27T09:06:08Z</time>
      </trkpt>
      <trkpt lat="45.87484" lon="4.77359">
        <ele>235</ele>
        <time>2018-07-27T09:06:09Z</time>
      </trkpt>
      <trkpt lat="45.87481" lon="4.77353">
        <ele>235</ele>
        <time>2018-07-27T09:06:10Z</time>
      </trkpt>
      <trkpt lat="45.87479" lon="4.77342">
        <ele>235</ele>
        <time>2018-07-27T09:06:12Z</time>
      </trkpt>
      <trkpt lat="45.87478" lon="4.77336">
        <ele>235</ele>
        <time>2018-07-27T09:06:13Z</time>
      </trkpt>
      <trkpt lat="45.87476" lon="4.77327">
        <ele>235</ele>
        <time>2018-07-27T09:06:15Z</time>
      </trkpt>
      <trkpt lat="45.87474" lon="4.77321">
        <ele>235</ele>
        <time>2018-07-27T09:06:16Z</time>
      </trkpt>
      <trkpt lat="45.87473" lon="4.77314">
        <ele>235</ele>
        <time>2018-07-27T09:06:17Z</time>
      </trkpt>
      <trkpt lat="45.87472" lon="4.77308">
        <ele>235</ele>
        <time>2018-07-27T09:06:18Z</time>
      </trkpt>
      <trkpt lat="45.8747" lon="4.77295">
        <ele>235</ele>
        <time>2018-07-27T09:06:20Z</time>
      </trkpt>
      <trkpt lat="45.87469" lon="4.77288">
        <ele>235</ele>
        <time>2018-07-27T09:06:21Z</time>
      </trkpt>
      <trkpt lat="45.87466" lon="4.77281">
        <ele>235</ele>
        <time>2018-07-27T09:06:22Z</time>
      </trkpt>
      <trkpt lat="45.87463" lon="4.77275">
        <ele>235</ele>
        <time>2018-07-27T09:06:23Z</time>
      </trkpt>
      <trkpt lat="45.87459" lon="4.77264">
        <ele>235</ele>
        <time>2018-07-27T09:06:25Z</time>
      </trkpt>
      <trkpt lat="45.87455" lon="4.77257">
        <ele>235</ele>
        <time>2018-07-27T09:06:26Z</time>
      </trkpt>
      <trkpt lat="45.87451" lon="4.77252">
        <ele>235</ele>
        <time>2018-07-27T09:06:27Z</time>
      </trkpt>
      <trkpt lat="45.87449" lon="4.77248">
        <ele>235</ele>
        <time>2018-07-27T09:06:28Z</time>
      </trkpt>
      <trkpt lat="45.87442" lon="4.7724">
        <ele>235</ele>
        <time>2018-07-27T09:06:30Z</time>
      </trkpt>
      <trkpt lat="45.87438" lon="4.77236">
        <ele>235</ele>
        <time>2018-07-27T09:06:31Z</time>
      </trkpt>
      <trkpt lat="45.87434" lon="4.77231">
        <ele>235</ele>
        <time>2018-07-27T09:06:33Z</time>
      </trkpt>
      <trkpt lat="45.87429" lon="4.77227">
        <ele>235</ele>
        <time>2018-07-27T09:06:34Z</time>
      </trkpt>
      <trkpt lat="45.87424" lon="4.77224">
        <ele>235</ele>
        <time>2018-07-27T09:06:35Z</time>
      </trkpt>
      <trkpt lat="45.87419" lon="4.77223">
        <ele>235</ele>
        <time>2018-07-27T09:06:36Z</time>
      </trkpt>
      <trkpt lat="45.87415" lon="4.77222">
        <ele>238</ele>
        <time>2018-07-27T09:06:37Z</time>
      </trkpt>
      <trkpt lat="45.8741" lon="4.7722">
        <ele>238</ele>
        <time>2018-07-27T09:06:38Z</time>
      </trkpt>
      <trkpt lat="45.87403" lon="4.77217">
        <ele>238</ele>
        <time>2018-07-27T09:06:40Z</time>
      </trkpt>
      <trkpt lat="45.87398" lon="4.77217">
        <ele>238</ele>
        <time>2018-07-27T09:06:41Z</time>
      </trkpt>
      <trkpt lat="45.87393" lon="4.77217">
        <ele>239</ele>
        <time>2018-07-27T09:06:42Z</time>
      </trkpt>
      <trkpt lat="45.87389" lon="4.77215">
        <ele>239</ele>
        <time>2018-07-27T09:06:43Z</time>
      </trkpt>
      <trkpt lat="45.87381" lon="4.77215">
        <ele>239</ele>
        <time>2018-07-27T09:06:45Z</time>
      </trkpt>
      <trkpt lat="45.87379" lon="4.77214">
        <ele>239</ele>
        <time>2018-07-27T09:06:46Z</time>
      </trkpt>
      <trkpt lat="45.87372" lon="4.77214">
        <ele>239</ele>
        <time>2018-07-27T09:06:47Z</time>
      </trkpt>
      <trkpt lat="45.87367" lon="4.77214">
        <ele>240</ele>
        <time>2018-07-27T09:06:48Z</time>
      </trkpt>
      <trkpt lat="45.87364" lon="4.77214">
        <ele>240</ele>
        <time>2018-07-27T09:06:49Z</time>
      </trkpt>
      <trkpt lat="45.87357" lon="4.77215">
        <ele>240</ele>
        <time>2018-07-27T09:06:50Z</time>
      </trkpt>
      <trkpt lat="45.87351" lon="4.77216">
        <ele>240</ele>
        <time>2018-07-27T09:06:51Z</time>
      </trkpt>
      <trkpt lat="45.87347" lon="4.77217">
        <ele>240</ele>
        <time>2018-07-27T09:06:52Z</time>
      </trkpt>
      <trkpt lat="45.87341" lon="4.77218">
        <ele>240</ele>
        <time>2018-07-27T09:06:53Z</time>
      </trkpt>
      <trkpt lat="45.87335" lon="4.77219">
        <ele>241</ele>
        <time>2018-07-27T09:06:54Z</time>
      </trkpt>
      <trkpt lat="45.87326" lon="4.77221">
        <ele>243</ele>
        <time>2018-07-27T09:06:56Z</time>
      </trkpt>
      <trkpt lat="45.87321" lon="4.77221">
        <ele>244</ele>
        <time>2018-07-27T09:06:57Z</time>
      </trkpt>
      <trkpt lat="45.87318" lon="4.77217">
        <ele>244</ele>
        <time>2018-07-27T09:06:59Z</time>
      </trkpt>
      <trkpt lat="45.87312" lon="4.77215">
        <ele>244</ele>
        <time>2018-07-27T09:07:00Z</time>
      </trkpt>
      <trkpt lat="45.87303" lon="4.77214">
        <ele>244</ele>
        <time>2018-07-27T09:07:02Z</time>
      </trkpt>
      <trkpt lat="45.87298" lon="4.77212">
        <ele>244</ele>
        <time>2018-07-27T09:07:03Z</time>
      </trkpt>
      <trkpt lat="45.87294" lon="4.77211">
        <ele>244</ele>
        <time>2018-07-27T09:07:04Z</time>
      </trkpt>
      <trkpt lat="45.87289" lon="4.77207">
        <ele>244</ele>
        <time>2018-07-27T09:07:05Z</time>
      </trkpt>
      <trkpt lat="45.87286" lon="4.77201">
        <ele>244</ele>
        <time>2018-07-27T09:07:06Z</time>
      </trkpt>
      <trkpt lat="45.87282" lon="4.77196">
        <ele>244</ele>
        <time>2018-07-27T09:07:07Z</time>
      </trkpt>
      <trkpt lat="45.87279" lon="4.77188">
        <ele>244</ele>
        <time>2018-07-27T09:07:09Z</time>
      </trkpt>
      <trkpt lat="45.87277" lon="4.77179">
        <ele>244</ele>
        <time>2018-07-27T09:07:10Z</time>
      </trkpt>
      <trkpt lat="45.87277" lon="4.77167">
        <ele>244</ele>
        <time>2018-07-27T09:07:12Z</time>
      </trkpt>
      <trkpt lat="45.87276" lon="4.77159">
        <ele>242</ele>
        <time>2018-07-27T09:07:13Z</time>
      </trkpt>
      <trkpt lat="45.87276" lon="4.77152">
        <ele>241</ele>
        <time>2018-07-27T09:07:14Z</time>
      </trkpt>
      <trkpt lat="45.87275" lon="4.77145">
        <ele>241</ele>
        <time>2018-07-27T09:07:15Z</time>
      </trkpt>
      <trkpt lat="45.87274" lon="4.77137">
        <ele>241</ele>
        <time>2018-07-27T09:07:16Z</time>
      </trkpt>
      <trkpt lat="45.87276" lon="4.77131">
        <ele>241</ele>
        <time>2018-07-27T09:07:17Z</time>
      </trkpt>
      <trkpt lat="45.87275" lon="4.77125">
        <ele>241</ele>
        <time>2018-07-27T09:07:18Z</time>
      </trkpt>
      <trkpt lat="45.87274" lon="4.77117">
        <ele>240</ele>
        <time>2018-07-27T09:07:19Z</time>
      </trkpt>
      <trkpt lat="45.87273" lon="4.77106">
        <ele>240</ele>
        <time>2018-07-27T09:07:20Z</time>
      </trkpt>
      <trkpt lat="45.87269" lon="4.771">
        <ele>240</ele>
        <time>2018-07-27T09:07:21Z</time>
      </trkpt>
      <trkpt lat="45.87271" lon="4.77091">
        <ele>240</ele>
        <time>2018-07-27T09:07:22Z</time>
      </trkpt>
      <trkpt lat="45.87267" lon="4.77087">
        <ele>240</ele>
        <time>2018-07-27T09:07:23Z</time>
      </trkpt>
      <trkpt lat="45.87269" lon="4.77075">
        <ele>239</ele>
        <time>2018-07-27T09:07:25Z</time>
      </trkpt>
      <trkpt lat="45.87269" lon="4.77068">
        <ele>239</ele>
        <time>2018-07-27T09:07:26Z</time>
      </trkpt>
      <trkpt lat="45.87269" lon="4.77061">
        <ele>239</ele>
        <time>2018-07-27T09:07:27Z</time>
      </trkpt>
      <trkpt lat="45.8727" lon="4.77055">
        <ele>239</ele>
        <time>2018-07-27T09:07:28Z</time>
      </trkpt>
      <trkpt lat="45.87271" lon="4.77048">
        <ele>239</ele>
        <time>2018-07-27T09:07:29Z</time>
      </trkpt>
      <trkpt lat="45.87271" lon="4.77041">
        <ele>239</ele>
        <time>2018-07-27T09:07:30Z</time>
      </trkpt>
      <trkpt lat="45.87271" lon="4.77035">
        <ele>239</ele>
        <time>2018-07-27T09:07:31Z</time>
      </trkpt>
      <trkpt lat="45.87271" lon="4.77026">
        <ele>239</ele>
        <time>2018-07-27T09:07:32Z</time>
      </trkpt>
      <trkpt lat="45.87272" lon="4.77017">
        <ele>239</ele>
        <time>2018-07-27T09:07:33Z</time>
      </trkpt>
      <trkpt lat="45.87272" lon="4.77009">
        <ele>239</ele>
        <time>2018-07-27T09:07:34Z</time>
      </trkpt>
      <trkpt lat="45.87273" lon="4.77">
        <ele>239</ele>
        <time>2018-07-27T09:07:35Z</time>
      </trkpt>
      <trkpt lat="45.87271" lon="4.76992">
        <ele>240</ele>
        <time>2018-07-27T09:07:36Z</time>
      </trkpt>
      <trkpt lat="45.8727" lon="4.76984">
        <ele>240</ele>
        <time>2018-07-27T09:07:37Z</time>
      </trkpt>
      <trkpt lat="45.8727" lon="4.76976">
        <ele>240</ele>
        <time>2018-07-27T09:07:38Z</time>
      </trkpt>
      <trkpt lat="45.8727" lon="4.7697">
        <ele>240</ele>
        <time>2018-07-27T09:07:39Z</time>
      </trkpt>
      <trkpt lat="45.87271" lon="4.76961">
        <ele>240</ele>
        <time>2018-07-27T09:07:40Z</time>
      </trkpt>
      <trkpt lat="45.87271" lon="4.76954">
        <ele>240</ele>
        <time>2018-07-27T09:07:41Z</time>
      </trkpt>
      <trkpt lat="45.87269" lon="4.76946">
        <ele>240</ele>
        <time>2018-07-27T09:07:42Z</time>
      </trkpt>
      <trkpt lat="45.8727" lon="4.7694">
        <ele>241</ele>
        <time>2018-07-27T09:07:43Z</time>
      </trkpt>
      <trkpt lat="45.8727" lon="4.76933">
        <ele>241</ele>
        <time>2018-07-27T09:07:44Z</time>
      </trkpt>
      <trkpt lat="45.8727" lon="4.76927">
        <ele>241</ele>
        <time>2018-07-27T09:07:45Z</time>
      </trkpt>
      <trkpt lat="45.8727" lon="4.76918">
        <ele>241</ele>
        <time>2018-07-27T09:07:46Z</time>
      </trkpt>
      <trkpt lat="45.8727" lon="4.76912">
        <ele>241</ele>
        <time>2018-07-27T09:07:47Z</time>
      </trkpt>
      <trkpt lat="45.8727" lon="4.76904">
        <ele>240</ele>
        <time>2018-07-27T09:07:48Z</time>
      </trkpt>
      <trkpt lat="45.87268" lon="4.76896">
        <ele>240</ele>
        <time>2018-07-27T09:07:49Z</time>
      </trkpt>
      <trkpt lat="45.87267" lon="4.76889">
        <ele>240</ele>
        <time>2018-07-27T09:07:50Z</time>
      </trkpt>
      <trkpt lat="45.87266" lon="4.7688">
        <ele>240</ele>
        <time>2018-07-27T09:07:51Z</time>
      </trkpt>
      <trkpt lat="45.87267" lon="4.76872">
        <ele>240</ele>
        <time>2018-07-27T09:07:52Z</time>
      </trkpt>
      <trkpt lat="45.87267" lon="4.76862">
        <ele>239</ele>
        <time>2018-07-27T09:07:53Z</time>
      </trkpt>
      <trkpt lat="45.87266" lon="4.76853">
        <ele>239</ele>
        <time>2018-07-27T09:07:54Z</time>
      </trkpt>
      <trkpt lat="45.87267" lon="4.76844">
        <ele>239</ele>
        <time>2018-07-27T09:07:55Z</time>
      </trkpt>
      <trkpt lat="45.87267" lon="4.76836">
        <ele>239</ele>
        <time>2018-07-27T09:07:56Z</time>
      </trkpt>
      <trkpt lat="45.87267" lon="4.76827">
        <ele>237</ele>
        <time>2018-07-27T09:07:57Z</time>
      </trkpt>
      <trkpt lat="45.87268" lon="4.76817">
        <ele>237</ele>
        <time>2018-07-27T09:07:58Z</time>
      </trkpt>
      <trkpt lat="45.87267" lon="4.76809">
        <ele>237</ele>
        <time>2018-07-27T09:07:59Z</time>
      </trkpt>
      <trkpt lat="45.87268" lon="4.768">
        <ele>236</ele>
        <time>2018-07-27T09:08:00Z</time>
      </trkpt>
      <trkpt lat="45.87268" lon="4.76792">
        <ele>236</ele>
        <time>2018-07-27T09:08:01Z</time>
      </trkpt>
      <trkpt lat="45.87267" lon="4.76782">
        <ele>236</ele>
        <time>2018-07-27T09:08:02Z</time>
      </trkpt>
      <trkpt lat="45.87266" lon="4.76774">
        <ele>236</ele>
        <time>2018-07-27T09:08:03Z</time>
      </trkpt>
      <trkpt lat="45.87266" lon="4.76765">
        <ele>236</ele>
        <time>2018-07-27T09:08:04Z</time>
      </trkpt>
      <trkpt lat="45.87265" lon="4.76755">
        <ele>236</ele>
        <time>2018-07-27T09:08:05Z</time>
      </trkpt>
      <trkpt lat="45.87266" lon="4.76748">
        <ele>235</ele>
        <time>2018-07-27T09:08:06Z</time>
      </trkpt>
      <trkpt lat="45.87264" lon="4.76737">
        <ele>235</ele>
        <time>2018-07-27T09:08:07Z</time>
      </trkpt>
      <trkpt lat="45.87264" lon="4.76728">
        <ele>234</ele>
        <time>2018-07-27T09:08:08Z</time>
      </trkpt>
      <trkpt lat="45.87262" lon="4.76719">
        <ele>234</ele>
        <time>2018-07-27T09:08:09Z</time>
      </trkpt>
      <trkpt lat="45.87262" lon="4.7671">
        <ele>234</ele>
        <time>2018-07-27T09:08:10Z</time>
      </trkpt>
      <trkpt lat="45.87263" lon="4.76703">
        <ele>234</ele>
        <time>2018-07-27T09:08:11Z</time>
      </trkpt>
      <trkpt lat="45.87263" lon="4.76695">
        <ele>234</ele>
        <time>2018-07-27T09:08:12Z</time>
      </trkpt>
      <trkpt lat="45.87263" lon="4.76687">
        <ele>234</ele>
        <time>2018-07-27T09:08:13Z</time>
      </trkpt>
      <trkpt lat="45.87264" lon="4.76678">
        <ele>234</ele>
        <time>2018-07-27T09:08:14Z</time>
      </trkpt>
      <trkpt lat="45.87264" lon="4.7667">
        <ele>234</ele>
        <time>2018-07-27T09:08:15Z</time>
      </trkpt>
      <trkpt lat="45.87264" lon="4.76662">
        <ele>234</ele>
        <time>2018-07-27T09:08:16Z</time>
      </trkpt>
      <trkpt lat="45.87264" lon="4.76654">
        <ele>234</ele>
        <time>2018-07-27T09:08:17Z</time>
      </trkpt>
      <trkpt lat="45.87264" lon="4.76646">
        <ele>234</ele>
        <time>2018-07-27T09:08:18Z</time>
      </trkpt>
      <trkpt lat="45.87263" lon="4.76638">
        <ele>234</ele>
        <time>2018-07-27T09:08:19Z</time>
      </trkpt>
      <trkpt lat="45.87263" lon="4.7663">
        <ele>234</ele>
        <time>2018-07-27T09:08:20Z</time>
      </trkpt>
      <trkpt lat="45.87263" lon="4.76621">
        <ele>234</ele>
        <time>2018-07-27T09:08:21Z</time>
      </trkpt>
      <trkpt lat="45.87262" lon="4.76614">
        <ele>234</ele>
        <time>2018-07-27T09:08:22Z</time>
      </trkpt>
      <trkpt lat="45.87262" lon="4.76606">
        <ele>235</ele>
        <time>2018-07-27T09:08:23Z</time>
      </trkpt>
      <trkpt lat="45.87263" lon="4.76598">
        <ele>235</ele>
        <time>2018-07-27T09:08:24Z</time>
      </trkpt>
      <trkpt lat="45.87262" lon="4.76591">
        <ele>235</ele>
        <time>2018-07-27T09:08:25Z</time>
      </trkpt>
      <trkpt lat="45.87262" lon="4.76582">
        <ele>236</ele>
        <time>2018-07-27T09:08:26Z</time>
      </trkpt>
      <trkpt lat="45.87261" lon="4.76575">
        <ele>236</ele>
        <time>2018-07-27T09:08:27Z</time>
      </trkpt>
      <trkpt lat="45.8726" lon="4.76567">
        <ele>235</ele>
        <time>2018-07-27T09:08:28Z</time>
      </trkpt>
      <trkpt lat="45.8726" lon="4.76559">
        <ele>235</ele>
        <time>2018-07-27T09:08:29Z</time>
      </trkpt>
      <trkpt lat="45.8726" lon="4.76551">
        <ele>235</ele>
        <time>2018-07-27T09:08:30Z</time>
      </trkpt>
      <trkpt lat="45.87258" lon="4.76544">
        <ele>235</ele>
        <time>2018-07-27T09:08:31Z</time>
      </trkpt>
      <trkpt lat="45.87259" lon="4.76537">
        <ele>236</ele>
        <time>2018-07-27T09:08:32Z</time>
      </trkpt>
      <trkpt lat="45.87259" lon="4.76529">
        <ele>236</ele>
        <time>2018-07-27T09:08:33Z</time>
      </trkpt>
      <trkpt lat="45.87258" lon="4.76521">
        <ele>236</ele>
        <time>2018-07-27T09:08:34Z</time>
      </trkpt>
      <trkpt lat="45.8726" lon="4.76514">
        <ele>236</ele>
        <time>2018-07-27T09:08:35Z</time>
      </trkpt>
      <trkpt lat="45.87259" lon="4.76507">
        <ele>236</ele>
        <time>2018-07-27T09:08:36Z</time>
      </trkpt>
      <trkpt lat="45.87259" lon="4.76499">
        <ele>236</ele>
        <time>2018-07-27T09:08:37Z</time>
      </trkpt>
      <trkpt lat="45.87259" lon="4.76491">
        <ele>236</ele>
        <time>2018-07-27T09:08:38Z</time>
      </trkpt>
      <trkpt lat="45.8726" lon="4.76483">
        <ele>236</ele>
        <time>2018-07-27T09:08:39Z</time>
      </trkpt>
      <trkpt lat="45.8726" lon="4.76477">
        <ele>236</ele>
        <time>2018-07-27T09:08:40Z</time>
      </trkpt>
      <trkpt lat="45.8726" lon="4.76468">
        <ele>235</ele>
        <time>2018-07-27T09:08:41Z</time>
      </trkpt>
      <trkpt lat="45.87258" lon="4.7646">
        <ele>235</ele>
        <time>2018-07-27T09:08:42Z</time>
      </trkpt>
      <trkpt lat="45.87258" lon="4.76451">
        <ele>235</ele>
        <time>2018-07-27T09:08:43Z</time>
      </trkpt>
      <trkpt lat="45.87258" lon="4.76443">
        <ele>235</ele>
        <time>2018-07-27T09:08:44Z</time>
      </trkpt>
      <trkpt lat="45.87258" lon="4.76434">
        <ele>235</ele>
        <time>2018-07-27T09:08:45Z</time>
      </trkpt>
      <trkpt lat="45.87259" lon="4.76425">
        <ele>236</ele>
        <time>2018-07-27T09:08:46Z</time>
      </trkpt>
      <trkpt lat="45.87257" lon="4.76415">
        <ele>235</ele>
        <time>2018-07-27T09:08:47Z</time>
      </trkpt>
      <trkpt lat="45.87256" lon="4.76406">
        <ele>235</ele>
        <time>2018-07-27T09:08:48Z</time>
      </trkpt>
      <trkpt lat="45.87257" lon="4.76397">
        <ele>234</ele>
        <time>2018-07-27T09:08:49Z</time>
      </trkpt>
      <trkpt lat="45.87257" lon="4.76389">
        <ele>234</ele>
        <time>2018-07-27T09:08:50Z</time>
      </trkpt>
      <trkpt lat="45.87256" lon="4.7638">
        <ele>234</ele>
        <time>2018-07-27T09:08:51Z</time>
      </trkpt>
      <trkpt lat="45.87256" lon="4.76372">
        <ele>234</ele>
        <time>2018-07-27T09:08:52Z</time>
      </trkpt>
      <trkpt lat="45.87255" lon="4.76363">
        <ele>234</ele>
        <time>2018-07-27T09:08:53Z</time>
      </trkpt>
      <trkpt lat="45.87257" lon="4.76357">
        <ele>234</ele>
        <time>2018-07-27T09:08:54Z</time>
      </trkpt>
      <trkpt lat="45.87259" lon="4.76351">
        <ele>234</ele>
        <time>2018-07-27T09:08:55Z</time>
      </trkpt>
      <trkpt lat="45.87258" lon="4.76342">
        <ele>234</ele>
        <time>2018-07-27T09:08:56Z</time>
      </trkpt>
      <trkpt lat="45.87257" lon="4.76334">
        <ele>234</ele>
        <time>2018-07-27T09:08:57Z</time>
      </trkpt>
      <trkpt lat="45.87257" lon="4.76325">
        <ele>233</ele>
        <time>2018-07-27T09:08:58Z</time>
      </trkpt>
      <trkpt lat="45.87258" lon="4.76317">
        <ele>233</ele>
        <time>2018-07-27T09:08:59Z</time>
      </trkpt>
      <trkpt lat="45.87257" lon="4.76308">
        <ele>233</ele>
        <time>2018-07-27T09:09:00Z</time>
      </trkpt>
      <trkpt lat="45.87255" lon="4.76299">
        <ele>233</ele>
        <time>2018-07-27T09:09:01Z</time>
      </trkpt>
      <trkpt lat="45.87253" lon="4.76289">
        <ele>233</ele>
        <time>2018-07-27T09:09:02Z</time>
      </trkpt>
      <trkpt lat="45.87254" lon="4.7628">
        <ele>233</ele>
        <time>2018-07-27T09:09:03Z</time>
      </trkpt>
      <trkpt lat="45.87253" lon="4.76271">
        <ele>234</ele>
        <time>2018-07-27T09:09:04Z</time>
      </trkpt>
      <trkpt lat="45.87252" lon="4.76261">
        <ele>234</ele>
        <time>2018-07-27T09:09:05Z</time>
      </trkpt>
      <trkpt lat="45.8725" lon="4.76253">
        <ele>235</ele>
        <time>2018-07-27T09:09:06Z</time>
      </trkpt>
      <trkpt lat="45.87251" lon="4.76243">
        <ele>234</ele>
        <time>2018-07-27T09:09:07Z</time>
      </trkpt>
      <trkpt lat="45.87249" lon="4.76232">
        <ele>235</ele>
        <time>2018-07-27T09:09:08Z</time>
      </trkpt>
      <trkpt lat="45.87249" lon="4.76221">
        <ele>235</ele>
        <time>2018-07-27T09:09:09Z</time>
      </trkpt>
      <trkpt lat="45.87247" lon="4.76211">
        <ele>234</ele>
        <time>2018-07-27T09:09:10Z</time>
      </trkpt>
      <trkpt lat="45.87248" lon="4.76203">
        <ele>234</ele>
        <time>2018-07-27T09:09:11Z</time>
      </trkpt>
      <trkpt lat="45.87251" lon="4.76196">
        <ele>232</ele>
        <time>2018-07-27T09:09:12Z</time>
      </trkpt>
      <trkpt lat="45.87247" lon="4.76186">
        <ele>233</ele>
        <time>2018-07-27T09:09:13Z</time>
      </trkpt>
      <trkpt lat="45.87249" lon="4.76179">
        <ele>233</ele>
        <time>2018-07-27T09:09:14Z</time>
      </trkpt>
      <trkpt lat="45.87247" lon="4.76169">
        <ele>232</ele>
        <time>2018-07-27T09:09:15Z</time>
      </trkpt>
      <trkpt lat="45.87248" lon="4.7616">
        <ele>232</ele>
        <time>2018-07-27T09:09:16Z</time>
      </trkpt>
      <trkpt lat="45.87248" lon="4.76151">
        <ele>232</ele>
        <time>2018-07-27T09:09:17Z</time>
      </trkpt>
      <trkpt lat="45.87248" lon="4.76142">
        <ele>232</ele>
        <time>2018-07-27T09:09:18Z</time>
      </trkpt>
      <trkpt lat="45.87245" lon="4.76131">
        <ele>232</ele>
        <time>2018-07-27T09:09:19Z</time>
      </trkpt>
      <trkpt lat="45.87243" lon="4.76121">
        <ele>232</ele>
        <time>2018-07-27T09:09:20Z</time>
      </trkpt>
      <trkpt lat="45.87244" lon="4.76113">
        <ele>232</ele>
        <time>2018-07-27T09:09:21Z</time>
      </trkpt>
      <trkpt lat="45.87243" lon="4.76103">
        <ele>231</ele>
        <time>2018-07-27T09:09:22Z</time>
      </trkpt>
      <trkpt lat="45.87242" lon="4.76093">
        <ele>231</ele>
        <time>2018-07-27T09:09:23Z</time>
      </trkpt>
      <trkpt lat="45.87243" lon="4.76083">
        <ele>230</ele>
        <time>2018-07-27T09:09:24Z</time>
      </trkpt>
      <trkpt lat="45.87241" lon="4.76073">
        <ele>230</ele>
        <time>2018-07-27T09:09:25Z</time>
      </trkpt>
      <trkpt lat="45.87241" lon="4.76064">
        <ele>230</ele>
        <time>2018-07-27T09:09:26Z</time>
      </trkpt>
      <trkpt lat="45.8724" lon="4.76054">
        <ele>230</ele>
        <time>2018-07-27T09:09:27Z</time>
      </trkpt>
      <trkpt lat="45.87239" lon="4.76045">
        <ele>230</ele>
        <time>2018-07-27T09:09:28Z</time>
      </trkpt>
      <trkpt lat="45.87239" lon="4.76036">
        <ele>230</ele>
        <time>2018-07-27T09:09:29Z</time>
      </trkpt>
      <trkpt lat="45.87239" lon="4.76026">
        <ele>230</ele>
        <time>2018-07-27T09:09:30Z</time>
      </trkpt>
      <trkpt lat="45.87239" lon="4.76017">
        <ele>230</ele>
        <time>2018-07-27T09:09:31Z</time>
      </trkpt>
      <trkpt lat="45.87238" lon="4.76008">
        <ele>229</ele>
        <time>2018-07-27T09:09:32Z</time>
      </trkpt>
      <trkpt lat="45.87237" lon="4.75999">
        <ele>228</ele>
        <time>2018-07-27T09:09:33Z</time>
      </trkpt>
      <trkpt lat="45.87237" lon="4.7599">
        <ele>228</ele>
        <time>2018-07-27T09:09:34Z</time>
      </trkpt>
      <trkpt lat="45.87235" lon="4.7598">
        <ele>228</ele>
        <time>2018-07-27T09:09:35Z</time>
      </trkpt>
      <trkpt lat="45.87235" lon="4.75968">
        <ele>228</ele>
        <time>2018-07-27T09:09:36Z</time>
      </trkpt>
      <trkpt lat="45.87235" lon="4.75959">
        <ele>228</ele>
        <time>2018-07-27T09:09:37Z</time>
      </trkpt>
      <trkpt lat="45.87233" lon="4.7595">
        <ele>228</ele>
        <time>2018-07-27T09:09:38Z</time>
      </trkpt>
      <trkpt lat="45.87232" lon="4.75939">
        <ele>228</ele>
        <time>2018-07-27T09:09:39Z</time>
      </trkpt>
      <trkpt lat="45.87232" lon="4.7593">
        <ele>228</ele>
        <time>2018-07-27T09:09:40Z</time>
      </trkpt>
      <trkpt lat="45.87232" lon="4.7592">
        <ele>228</ele>
        <time>2018-07-27T09:09:41Z</time>
      </trkpt>
      <trkpt lat="45.8723" lon="4.7591">
        <ele>227</ele>
        <time>2018-07-27T09:09:42Z</time>
      </trkpt>
      <trkpt lat="45.87229" lon="4.75901">
        <ele>227</ele>
        <time>2018-07-27T09:09:43Z</time>
      </trkpt>
      <trkpt lat="45.87229" lon="4.75891">
        <ele>227</ele>
        <time>2018-07-27T09:09:44Z</time>
      </trkpt>
      <trkpt lat="45.87226" lon="4.75881">
        <ele>226</ele>
        <time>2018-07-27T09:09:45Z</time>
      </trkpt>
      <trkpt lat="45.87224" lon="4.75871">
        <ele>226</ele>
        <time>2018-07-27T09:09:46Z</time>
      </trkpt>
      <trkpt lat="45.87223" lon="4.75861">
        <ele>226</ele>
        <time>2018-07-27T09:09:47Z</time>
      </trkpt>
      <trkpt lat="45.87221" lon="4.75851">
        <ele>226</ele>
        <time>2018-07-27T09:09:48Z</time>
      </trkpt>
      <trkpt lat="45.8722" lon="4.7584">
        <ele>226</ele>
        <time>2018-07-27T09:09:49Z</time>
      </trkpt>
      <trkpt lat="45.87218" lon="4.7583">
        <ele>224</ele>
        <time>2018-07-27T09:09:50Z</time>
      </trkpt>
      <trkpt lat="45.87216" lon="4.75821">
        <ele>224</ele>
        <time>2018-07-27T09:09:51Z</time>
      </trkpt>
      <trkpt lat="45.87214" lon="4.75811">
        <ele>224</ele>
        <time>2018-07-27T09:09:52Z</time>
      </trkpt>
      <trkpt lat="45.87212" lon="4.75801">
        <ele>224</ele>
        <time>2018-07-27T09:09:53Z</time>
      </trkpt>
      <trkpt lat="45.87209" lon="4.75792">
        <ele>224</ele>
        <time>2018-07-27T09:09:54Z</time>
      </trkpt>
      <trkpt lat="45.87205" lon="4.75782">
        <ele>224</ele>
        <time>2018-07-27T09:09:55Z</time>
      </trkpt>
      <trkpt lat="45.87202" lon="4.75773">
        <ele>224</ele>
        <time>2018-07-27T09:09:56Z</time>
      </trkpt>
      <trkpt lat="45.872" lon="4.75765">
        <ele>224</ele>
        <time>2018-07-27T09:09:57Z</time>
      </trkpt>
      <trkpt lat="45.87197" lon="4.75756">
        <ele>224</ele>
        <time>2018-07-27T09:09:58Z</time>
      </trkpt>
      <trkpt lat="45.87194" lon="4.75748">
        <ele>223</ele>
        <time>2018-07-27T09:09:59Z</time>
      </trkpt>
      <trkpt lat="45.8719" lon="4.75738">
        <ele>223</ele>
        <time>2018-07-27T09:10:00Z</time>
      </trkpt>
      <trkpt lat="45.87187" lon="4.75729">
        <ele>223</ele>
        <time>2018-07-27T09:10:01Z</time>
      </trkpt>
      <trkpt lat="45.87185" lon="4.75721">
        <ele>223</ele>
        <time>2018-07-27T09:10:02Z</time>
      </trkpt>
      <trkpt lat="45.87182" lon="4.75712">
        <ele>223</ele>
        <time>2018-07-27T09:10:03Z</time>
      </trkpt>
      <trkpt lat="45.87181" lon="4.75704">
        <ele>223</ele>
        <time>2018-07-27T09:10:04Z</time>
      </trkpt>
      <trkpt lat="45.8718" lon="4.75696">
        <ele>223</ele>
        <time>2018-07-27T09:10:05Z</time>
      </trkpt>
      <trkpt lat="45.87179" lon="4.75688">
        <ele>223</ele>
        <time>2018-07-27T09:10:06Z</time>
      </trkpt>
      <trkpt lat="45.87179" lon="4.75679">
        <ele>223</ele>
        <time>2018-07-27T09:10:07Z</time>
      </trkpt>
      <trkpt lat="45.87178" lon="4.75671">
        <ele>223</ele>
        <time>2018-07-27T09:10:08Z</time>
      </trkpt>
      <trkpt lat="45.87178" lon="4.75662">
        <ele>223</ele>
        <time>2018-07-27T09:10:09Z</time>
      </trkpt>
      <trkpt lat="45.87177" lon="4.75652">
        <ele>222</ele>
        <time>2018-07-27T09:10:10Z</time>
      </trkpt>
      <trkpt lat="45.87178" lon="4.75643">
        <ele>222</ele>
        <time>2018-07-27T09:10:11Z</time>
      </trkpt>
      <trkpt lat="45.87178" lon="4.75634">
        <ele>222</ele>
        <time>2018-07-27T09:10:12Z</time>
      </trkpt>
      <trkpt lat="45.87178" lon="4.75624">
        <ele>222</ele>
        <time>2018-07-27T09:10:13Z</time>
      </trkpt>
      <trkpt lat="45.87178" lon="4.75615">
        <ele>222</ele>
        <time>2018-07-27T09:10:14Z</time>
      </trkpt>
      <trkpt lat="45.87178" lon="4.75604">
        <ele>222</ele>
        <time>2018-07-27T09:10:15Z</time>
      </trkpt>
      <trkpt lat="45.87179" lon="4.75595">
        <ele>222</ele>
        <time>2018-07-27T09:10:16Z</time>
      </trkpt>
      <trkpt lat="45.87179" lon="4.75585">
        <ele>222</ele>
        <time>2018-07-27T09:10:17Z</time>
      </trkpt>
      <trkpt lat="45.87179" lon="4.75575">
        <ele>222</ele>
        <time>2018-07-27T09:10:18Z</time>
      </trkpt>
      <trkpt lat="45.87179" lon="4.75565">
        <ele>222</ele>
        <time>2018-07-27T09:10:19Z</time>
      </trkpt>
      <trkpt lat="45.87179" lon="4.75556">
        <ele>222</ele>
        <time>2018-07-27T09:10:20Z</time>
      </trkpt>
      <trkpt lat="45.87178" lon="4.75546">
        <ele>222</ele>
        <time>2018-07-27T09:10:21Z</time>
      </trkpt>
      <trkpt lat="45.87177" lon="4.75535">
        <ele>222</ele>
        <time>2018-07-27T09:10:22Z</time>
      </trkpt>
      <trkpt lat="45.87178" lon="4.75526">
        <ele>222</ele>
        <time>2018-07-27T09:10:23Z</time>
      </trkpt>
      <trkpt lat="45.87179" lon="4.75516">
        <ele>222</ele>
        <time>2018-07-27T09:10:24Z</time>
      </trkpt>
      <trkpt lat="45.87177" lon="4.75506">
        <ele>223</ele>
        <time>2018-07-27T09:10:25Z</time>
      </trkpt>
      <trkpt lat="45.87178" lon="4.75498">
        <ele>223</ele>
        <time>2018-07-27T09:10:26Z</time>
      </trkpt>
      <trkpt lat="45.87178" lon="4.75489">
        <ele>223</ele>
        <time>2018-07-27T09:10:27Z</time>
      </trkpt>
      <trkpt lat="45.87179" lon="4.7548">
        <ele>222</ele>
        <time>2018-07-27T09:10:28Z</time>
      </trkpt>
      <trkpt lat="45.87179" lon="4.75472">
        <ele>222</ele>
        <time>2018-07-27T09:10:29Z</time>
      </trkpt>
      <trkpt lat="45.87179" lon="4.75463">
        <ele>222</ele>
        <time>2018-07-27T09:10:30Z</time>
      </trkpt>
      <trkpt lat="45.87179" lon="4.75455">
        <ele>222</ele>
        <time>2018-07-27T09:10:31Z</time>
      </trkpt>
      <trkpt lat="45.87178" lon="4.75446">
        <ele>222</ele>
        <time>2018-07-27T09:10:32Z</time>
      </trkpt>
      <trkpt lat="45.87178" lon="4.75439">
        <ele>222</ele>
        <time>2018-07-27T09:10:33Z</time>
      </trkpt>
      <trkpt lat="45.87179" lon="4.75431">
        <ele>222</ele>
        <time>2018-07-27T09:10:34Z</time>
      </trkpt>
      <trkpt lat="45.87178" lon="4.75423">
        <ele>223</ele>
        <time>2018-07-27T09:10:35Z</time>
      </trkpt>
      <trkpt lat="45.87178" lon="4.75416">
        <ele>223</ele>
        <time>2018-07-27T09:10:36Z</time>
      </trkpt>
      <trkpt lat="45.87179" lon="4.75409">
        <ele>223</ele>
        <time>2018-07-27T09:10:37Z</time>
      </trkpt>
      <trkpt lat="45.87179" lon="4.75402">
        <ele>223</ele>
        <time>2018-07-27T09:10:38Z</time>
      </trkpt>
      <trkpt lat="45.87179" lon="4.75394">
        <ele>223</ele>
        <time>2018-07-27T09:10:39Z</time>
      </trkpt>
      <trkpt lat="45.87179" lon="4.75387">
        <ele>223</ele>
        <time>2018-07-27T09:10:40Z</time>
      </trkpt>
      <trkpt lat="45.87178" lon="4.75379">
        <ele>223</ele>
        <time>2018-07-27T09:10:41Z</time>
      </trkpt>
      <trkpt lat="45.87178" lon="4.75371">
        <ele>223</ele>
        <time>2018-07-27T09:10:42Z</time>
      </trkpt>
      <trkpt lat="45.87178" lon="4.75363">
        <ele>223</ele>
        <time>2018-07-27T09:10:43Z</time>
      </trkpt>
      <trkpt lat="45.87178" lon="4.75355">
        <ele>223</ele>
        <time>2018-07-27T09:10:44Z</time>
      </trkpt>
      <trkpt lat="45.87177" lon="4.75346">
        <ele>223</ele>
        <time>2018-07-27T09:10:45Z</time>
      </trkpt>
      <trkpt lat="45.87176" lon="4.75338">
        <ele>223</ele>
        <time>2018-07-27T09:10:46Z</time>
      </trkpt>
      <trkpt lat="45.87176" lon="4.75326">
        <ele>224</ele>
        <time>2018-07-27T09:10:48Z</time>
      </trkpt>
      <trkpt lat="45.87175" lon="4.75319">
        <ele>223</ele>
        <time>2018-07-27T09:10:49Z</time>
      </trkpt>
      <trkpt lat="45.87175" lon="4.75312">
        <ele>223</ele>
        <time>2018-07-27T09:10:50Z</time>
      </trkpt>
      <trkpt lat="45.87173" lon="4.75305">
        <ele>223</ele>
        <time>2018-07-27T09:10:51Z</time>
      </trkpt>
      <trkpt lat="45.87173" lon="4.75297">
        <ele>223</ele>
        <time>2018-07-27T09:10:52Z</time>
      </trkpt>
      <trkpt lat="45.87172" lon="4.7529">
        <ele>223</ele>
        <time>2018-07-27T09:10:53Z</time>
      </trkpt>
      <trkpt lat="45.87172" lon="4.75283">
        <ele>223</ele>
        <time>2018-07-27T09:10:54Z</time>
      </trkpt>
      <trkpt lat="45.8717" lon="4.75275">
        <ele>223</ele>
        <time>2018-07-27T09:10:55Z</time>
      </trkpt>
      <trkpt lat="45.87168" lon="4.75267">
        <ele>223</ele>
        <time>2018-07-27T09:10:56Z</time>
      </trkpt>
      <trkpt lat="45.87167" lon="4.75259">
        <ele>224</ele>
        <time>2018-07-27T09:10:57Z</time>
      </trkpt>
      <trkpt lat="45.87165" lon="4.75251">
        <ele>223</ele>
        <time>2018-07-27T09:10:58Z</time>
      </trkpt>
      <trkpt lat="45.87163" lon="4.75244">
        <ele>224</ele>
        <time>2018-07-27T09:10:59Z</time>
      </trkpt>
      <trkpt lat="45.87162" lon="4.75235">
        <ele>224</ele>
        <time>2018-07-27T09:11:00Z</time>
      </trkpt>
      <trkpt lat="45.87161" lon="4.75228">
        <ele>224</ele>
        <time>2018-07-27T09:11:01Z</time>
      </trkpt>
      <trkpt lat="45.87158" lon="4.7522">
        <ele>225</ele>
        <time>2018-07-27T09:11:02Z</time>
      </trkpt>
      <trkpt lat="45.87157" lon="4.75212">
        <ele>225</ele>
        <time>2018-07-27T09:11:03Z</time>
      </trkpt>
      <trkpt lat="45.87154" lon="4.75204">
        <ele>225</ele>
        <time>2018-07-27T09:11:04Z</time>
      </trkpt>
      <trkpt lat="45.87153" lon="4.75196">
        <ele>225</ele>
        <time>2018-07-27T09:11:05Z</time>
      </trkpt>
      <trkpt lat="45.87152" lon="4.75187">
        <ele>225</ele>
        <time>2018-07-27T09:11:06Z</time>
      </trkpt>
      <trkpt lat="45.87149" lon="4.75178">
        <ele>225</ele>
        <time>2018-07-27T09:11:07Z</time>
      </trkpt>
      <trkpt lat="45.87147" lon="4.75171">
        <ele>225</ele>
        <time>2018-07-27T09:11:08Z</time>
      </trkpt>
      <trkpt lat="45.87145" lon="4.75163">
        <ele>225</ele>
        <time>2018-07-27T09:11:09Z</time>
      </trkpt>
      <trkpt lat="45.87143" lon="4.75157">
        <ele>225</ele>
        <time>2018-07-27T09:11:10Z</time>
      </trkpt>
      <trkpt lat="45.87142" lon="4.75149">
        <ele>225</ele>
        <time>2018-07-27T09:11:11Z</time>
      </trkpt>
      <trkpt lat="45.87141" lon="4.75142">
        <ele>225</ele>
        <time>2018-07-27T09:11:12Z</time>
      </trkpt>
      <trkpt lat="45.87139" lon="4.75135">
        <ele>225</ele>
        <time>2018-07-27T09:11:13Z</time>
      </trkpt>
      <trkpt lat="45.87138" lon="4.75126">
        <ele>225</ele>
        <time>2018-07-27T09:11:14Z</time>
      </trkpt>
      <trkpt lat="45.87137" lon="4.75118">
        <ele>225</ele>
        <time>2018-07-27T09:11:15Z</time>
      </trkpt>
      <trkpt lat="45.87136" lon="4.75111">
        <ele>225</ele>
        <time>2018-07-27T09:11:16Z</time>
      </trkpt>
      <trkpt lat="45.87133" lon="4.75104">
        <ele>225</ele>
        <time>2018-07-27T09:11:17Z</time>
      </trkpt>
      <trkpt lat="45.87132" lon="4.75097">
        <ele>225</ele>
        <time>2018-07-27T09:11:18Z</time>
      </trkpt>
      <trkpt lat="45.87132" lon="4.75091">
        <ele>225</ele>
        <time>2018-07-27T09:11:19Z</time>
      </trkpt>
      <trkpt lat="45.87131" lon="4.75085">
        <ele>225</ele>
        <time>2018-07-27T09:11:20Z</time>
      </trkpt>
      <trkpt lat="45.8713" lon="4.75078">
        <ele>225</ele>
        <time>2018-07-27T09:11:21Z</time>
      </trkpt>
      <trkpt lat="45.87129" lon="4.75071">
        <ele>225</ele>
        <time>2018-07-27T09:11:22Z</time>
      </trkpt>
      <trkpt lat="45.87127" lon="4.75064">
        <ele>225</ele>
        <time>2018-07-27T09:11:23Z</time>
      </trkpt>
      <trkpt lat="45.87125" lon="4.75056">
        <ele>225</ele>
        <time>2018-07-27T09:11:24Z</time>
      </trkpt>
      <trkpt lat="45.87125" lon="4.75048">
        <ele>225</ele>
        <time>2018-07-27T09:11:25Z</time>
      </trkpt>
      <trkpt lat="45.87126" lon="4.75039">
        <ele>226</ele>
        <time>2018-07-27T09:11:26Z</time>
      </trkpt>
      <trkpt lat="45.87127" lon="4.75033">
        <ele>226</ele>
        <time>2018-07-27T09:11:27Z</time>
      </trkpt>
      <trkpt lat="45.87127" lon="4.75026">
        <ele>226</ele>
        <time>2018-07-27T09:11:28Z</time>
      </trkpt>
      <trkpt lat="45.87127" lon="4.75017">
        <ele>226</ele>
        <time>2018-07-27T09:11:29Z</time>
      </trkpt>
      <trkpt lat="45.87127" lon="4.7501">
        <ele>226</ele>
        <time>2018-07-27T09:11:30Z</time>
      </trkpt>
      <trkpt lat="45.87129" lon="4.75002">
        <ele>226</ele>
        <time>2018-07-27T09:11:31Z</time>
      </trkpt>
      <trkpt lat="45.87131" lon="4.74994">
        <ele>226</ele>
        <time>2018-07-27T09:11:32Z</time>
      </trkpt>
      <trkpt lat="45.8713" lon="4.74986">
        <ele>226</ele>
        <time>2018-07-27T09:11:33Z</time>
      </trkpt>
      <trkpt lat="45.87129" lon="4.74979">
        <ele>226</ele>
        <time>2018-07-27T09:11:34Z</time>
      </trkpt>
      <trkpt lat="45.8713" lon="4.74971">
        <ele>226</ele>
        <time>2018-07-27T09:11:35Z</time>
      </trkpt>
      <trkpt lat="45.8713" lon="4.74963">
        <ele>226</ele>
        <time>2018-07-27T09:11:36Z</time>
      </trkpt>
      <trkpt lat="45.8713" lon="4.74955">
        <ele>226</ele>
        <time>2018-07-27T09:11:37Z</time>
      </trkpt>
      <trkpt lat="45.87132" lon="4.74949">
        <ele>226</ele>
        <time>2018-07-27T09:11:38Z</time>
      </trkpt>
      <trkpt lat="45.87135" lon="4.74943">
        <ele>226</ele>
        <time>2018-07-27T09:11:39Z</time>
      </trkpt>
      <trkpt lat="45.87138" lon="4.74937">
        <ele>226</ele>
        <time>2018-07-27T09:11:40Z</time>
      </trkpt>
      <trkpt lat="45.87141" lon="4.74931">
        <ele>226</ele>
        <time>2018-07-27T09:11:41Z</time>
      </trkpt>
      <trkpt lat="45.87141" lon="4.74923">
        <ele>226</ele>
        <time>2018-07-27T09:11:42Z</time>
      </trkpt>
      <trkpt lat="45.87141" lon="4.74915">
        <ele>225</ele>
        <time>2018-07-27T09:11:43Z</time>
      </trkpt>
      <trkpt lat="45.87139" lon="4.74907">
        <ele>225</ele>
        <time>2018-07-27T09:11:44Z</time>
      </trkpt>
      <trkpt lat="45.87136" lon="4.749">
        <ele>225</ele>
        <time>2018-07-27T09:11:45Z</time>
      </trkpt>
      <trkpt lat="45.87133" lon="4.74893">
        <ele>225</ele>
        <time>2018-07-27T09:11:46Z</time>
      </trkpt>
      <trkpt lat="45.87132" lon="4.74883">
        <ele>225</ele>
        <time>2018-07-27T09:11:47Z</time>
      </trkpt>
      <trkpt lat="45.87131" lon="4.74874">
        <ele>225</ele>
        <time>2018-07-27T09:11:48Z</time>
      </trkpt>
      <trkpt lat="45.87131" lon="4.74865">
        <ele>225</ele>
        <time>2018-07-27T09:11:49Z</time>
      </trkpt>
      <trkpt lat="45.87131" lon="4.74856">
        <ele>224</ele>
        <time>2018-07-27T09:11:50Z</time>
      </trkpt>
      <trkpt lat="45.87131" lon="4.74849">
        <ele>224</ele>
        <time>2018-07-27T09:11:51Z</time>
      </trkpt>
      <trkpt lat="45.87131" lon="4.7484">
        <ele>224</ele>
        <time>2018-07-27T09:11:52Z</time>
      </trkpt>
      <trkpt lat="45.87131" lon="4.7483">
        <ele>223</ele>
        <time>2018-07-27T09:11:53Z</time>
      </trkpt>
      <trkpt lat="45.87131" lon="4.74821">
        <ele>223</ele>
        <time>2018-07-27T09:11:54Z</time>
      </trkpt>
      <trkpt lat="45.87131" lon="4.74811">
        <ele>222</ele>
        <time>2018-07-27T09:11:55Z</time>
      </trkpt>
      <trkpt lat="45.87132" lon="4.74802">
        <ele>222</ele>
        <time>2018-07-27T09:11:56Z</time>
      </trkpt>
      <trkpt lat="45.87132" lon="4.74792">
        <ele>222</ele>
        <time>2018-07-27T09:11:57Z</time>
      </trkpt>
      <trkpt lat="45.87131" lon="4.74782">
        <ele>222</ele>
        <time>2018-07-27T09:11:58Z</time>
      </trkpt>
      <trkpt lat="45.87131" lon="4.74773">
        <ele>222</ele>
        <time>2018-07-27T09:11:59Z</time>
      </trkpt>
      <trkpt lat="45.87131" lon="4.74764">
        <ele>222</ele>
        <time>2018-07-27T09:12:00Z</time>
      </trkpt>
      <trkpt lat="45.8713" lon="4.74755">
        <ele>222</ele>
        <time>2018-07-27T09:12:01Z</time>
      </trkpt>
      <trkpt lat="45.87129" lon="4.74745">
        <ele>221</ele>
        <time>2018-07-27T09:12:02Z</time>
      </trkpt>
      <trkpt lat="45.87127" lon="4.74736">
        <ele>221</ele>
        <time>2018-07-27T09:12:03Z</time>
      </trkpt>
      <trkpt lat="45.87128" lon="4.74725">
        <ele>221</ele>
        <time>2018-07-27T09:12:04Z</time>
      </trkpt>
      <trkpt lat="45.87127" lon="4.74715">
        <ele>221</ele>
        <time>2018-07-27T09:12:05Z</time>
      </trkpt>
      <trkpt lat="45.87127" lon="4.74706">
        <ele>221</ele>
        <time>2018-07-27T09:12:06Z</time>
      </trkpt>
      <trkpt lat="45.87127" lon="4.74696">
        <ele>221</ele>
        <time>2018-07-27T09:12:07Z</time>
      </trkpt>
      <trkpt lat="45.87126" lon="4.74686">
        <ele>221</ele>
        <time>2018-07-27T09:12:08Z</time>
      </trkpt>
      <trkpt lat="45.87124" lon="4.74677">
        <ele>221</ele>
        <time>2018-07-27T09:12:09Z</time>
      </trkpt>
      <trkpt lat="45.87124" lon="4.74668">
        <ele>221</ele>
        <time>2018-07-27T09:12:10Z</time>
      </trkpt>
      <trkpt lat="45.87123" lon="4.74658">
        <ele>222</ele>
        <time>2018-07-27T09:12:11Z</time>
      </trkpt>
      <trkpt lat="45.87122" lon="4.74649">
        <ele>222</ele>
        <time>2018-07-27T09:12:12Z</time>
      </trkpt>
      <trkpt lat="45.87121" lon="4.74639">
        <ele>222</ele>
        <time>2018-07-27T09:12:13Z</time>
      </trkpt>
      <trkpt lat="45.87121" lon="4.7463">
        <ele>222</ele>
        <time>2018-07-27T09:12:14Z</time>
      </trkpt>
      <trkpt lat="45.87122" lon="4.74624">
        <ele>222</ele>
        <time>2018-07-27T09:12:15Z</time>
      </trkpt>
      <trkpt lat="45.87121" lon="4.74615">
        <ele>222</ele>
        <time>2018-07-27T09:12:16Z</time>
      </trkpt>
      <trkpt lat="45.8712" lon="4.74606">
        <ele>222</ele>
        <time>2018-07-27T09:12:17Z</time>
      </trkpt>
      <trkpt lat="45.87119" lon="4.74596">
        <ele>222</ele>
        <time>2018-07-27T09:12:18Z</time>
      </trkpt>
      <trkpt lat="45.87117" lon="4.74588">
        <ele>222</ele>
        <time>2018-07-27T09:12:19Z</time>
      </trkpt>
      <trkpt lat="45.87117" lon="4.74579">
        <ele>220</ele>
        <time>2018-07-27T09:12:20Z</time>
      </trkpt>
      <trkpt lat="45.87114" lon="4.7457">
        <ele>220</ele>
        <time>2018-07-27T09:12:21Z</time>
      </trkpt>
      <trkpt lat="45.87112" lon="4.74564">
        <ele>220</ele>
        <time>2018-07-27T09:12:22Z</time>
      </trkpt>
      <trkpt lat="45.8711" lon="4.74557">
        <ele>220</ele>
        <time>2018-07-27T09:12:23Z</time>
      </trkpt>
      <trkpt lat="45.8711" lon="4.74546">
        <ele>220</ele>
        <time>2018-07-27T09:12:27Z</time>
      </trkpt>
      <trkpt lat="45.87111" lon="4.74543">
        <ele>220</ele>
        <time>2018-07-27T09:12:28Z</time>
      </trkpt>
      <trkpt lat="45.87113" lon="4.74532">
        <ele>220</ele>
        <time>2018-07-27T09:12:29Z</time>
      </trkpt>
      <trkpt lat="45.87116" lon="4.74527">
        <ele>220</ele>
        <time>2018-07-27T09:12:30Z</time>
      </trkpt>
      <trkpt lat="45.87119" lon="4.74523">
        <ele>219</ele>
        <time>2018-07-27T09:12:31Z</time>
      </trkpt>
      <trkpt lat="45.87121" lon="4.74516">
        <ele>219</ele>
        <time>2018-07-27T09:12:32Z</time>
      </trkpt>
      <trkpt lat="45.8712" lon="4.74504">
        <ele>219</ele>
        <time>2018-07-27T09:12:34Z</time>
      </trkpt>
      <trkpt lat="45.87118" lon="4.74497">
        <ele>218</ele>
        <time>2018-07-27T09:12:35Z</time>
      </trkpt>
      <trkpt lat="45.87116" lon="4.7449">
        <ele>218</ele>
        <time>2018-07-27T09:12:36Z</time>
      </trkpt>
      <trkpt lat="45.87113" lon="4.74482">
        <ele>218</ele>
        <time>2018-07-27T09:12:37Z</time>
      </trkpt>
      <trkpt lat="45.87111" lon="4.74475">
        <ele>218</ele>
        <time>2018-07-27T09:12:38Z</time>
      </trkpt>
      <trkpt lat="45.8711" lon="4.74466">
        <ele>218</ele>
        <time>2018-07-27T09:12:39Z</time>
      </trkpt>
      <trkpt lat="45.87109" lon="4.74458">
        <ele>218</ele>
        <time>2018-07-27T09:12:40Z</time>
      </trkpt>
      <trkpt lat="45.87108" lon="4.74449">
        <ele>218</ele>
        <time>2018-07-27T09:12:41Z</time>
      </trkpt>
      <trkpt lat="45.87106" lon="4.74441">
        <ele>218</ele>
        <time>2018-07-27T09:12:42Z</time>
      </trkpt>
      <trkpt lat="45.87104" lon="4.74432">
        <ele>218</ele>
        <time>2018-07-27T09:12:43Z</time>
      </trkpt>
      <trkpt lat="45.87102" lon="4.74423">
        <ele>218</ele>
        <time>2018-07-27T09:12:44Z</time>
      </trkpt>
      <trkpt lat="45.87101" lon="4.74416">
        <ele>218</ele>
        <time>2018-07-27T09:12:45Z</time>
      </trkpt>
      <trkpt lat="45.87099" lon="4.74407">
        <ele>218</ele>
        <time>2018-07-27T09:12:46Z</time>
      </trkpt>
      <trkpt lat="45.87097" lon="4.74399">
        <ele>218</ele>
        <time>2018-07-27T09:12:47Z</time>
      </trkpt>
      <trkpt lat="45.87096" lon="4.74392">
        <ele>218</ele>
        <time>2018-07-27T09:12:48Z</time>
      </trkpt>
      <trkpt lat="45.87094" lon="4.74384">
        <ele>218</ele>
        <time>2018-07-27T09:12:49Z</time>
      </trkpt>
      <trkpt lat="45.87094" lon="4.74376">
        <ele>218</ele>
        <time>2018-07-27T09:12:50Z</time>
      </trkpt>
      <trkpt lat="45.87092" lon="4.74368">
        <ele>218</ele>
        <time>2018-07-27T09:12:51Z</time>
      </trkpt>
      <trkpt lat="45.87091" lon="4.7436">
        <ele>218</ele>
        <time>2018-07-27T09:12:52Z</time>
      </trkpt>
      <trkpt lat="45.87089" lon="4.74352">
        <ele>218</ele>
        <time>2018-07-27T09:12:53Z</time>
      </trkpt>
      <trkpt lat="45.87088" lon="4.74343">
        <ele>218</ele>
        <time>2018-07-27T09:12:54Z</time>
      </trkpt>
      <trkpt lat="45.87088" lon="4.74335">
        <ele>219</ele>
        <time>2018-07-27T09:12:55Z</time>
      </trkpt>
      <trkpt lat="45.87087" lon="4.74327">
        <ele>218</ele>
        <time>2018-07-27T09:12:56Z</time>
      </trkpt>
      <trkpt lat="45.87085" lon="4.74318">
        <ele>217</ele>
        <time>2018-07-27T09:12:57Z</time>
      </trkpt>
      <trkpt lat="45.87085" lon="4.7431">
        <ele>217</ele>
        <time>2018-07-27T09:12:58Z</time>
      </trkpt>
      <trkpt lat="45.87084" lon="4.74301">
        <ele>216</ele>
        <time>2018-07-27T09:12:59Z</time>
      </trkpt>
      <trkpt lat="45.87083" lon="4.74292">
        <ele>217</ele>
        <time>2018-07-27T09:13:00Z</time>
      </trkpt>
      <trkpt lat="45.8708" lon="4.74284">
        <ele>217</ele>
        <time>2018-07-27T09:13:01Z</time>
      </trkpt>
      <trkpt lat="45.8708" lon="4.74275">
        <ele>216</ele>
        <time>2018-07-27T09:13:02Z</time>
      </trkpt>
      <trkpt lat="45.8708" lon="4.74265">
        <ele>216</ele>
        <time>2018-07-27T09:13:03Z</time>
      </trkpt>
      <trkpt lat="45.87078" lon="4.74254">
        <ele>215</ele>
        <time>2018-07-27T09:13:04Z</time>
      </trkpt>
      <trkpt lat="45.87078" lon="4.74244">
        <ele>214</ele>
        <time>2018-07-27T09:13:05Z</time>
      </trkpt>
      <trkpt lat="45.87077" lon="4.74233">
        <ele>214</ele>
        <time>2018-07-27T09:13:06Z</time>
      </trkpt>
      <trkpt lat="45.87076" lon="4.74223">
        <ele>214</ele>
        <time>2018-07-27T09:13:07Z</time>
      </trkpt>
      <trkpt lat="45.87076" lon="4.74211">
        <ele>214</ele>
        <time>2018-07-27T09:13:08Z</time>
      </trkpt>
      <trkpt lat="45.87077" lon="4.74201">
        <ele>213</ele>
        <time>2018-07-27T09:13:09Z</time>
      </trkpt>
      <trkpt lat="45.87077" lon="4.7419">
        <ele>213</ele>
        <time>2018-07-27T09:13:10Z</time>
      </trkpt>
      <trkpt lat="45.87077" lon="4.74179">
        <ele>212</ele>
        <time>2018-07-27T09:13:11Z</time>
      </trkpt>
      <trkpt lat="45.87078" lon="4.74169">
        <ele>212</ele>
        <time>2018-07-27T09:13:12Z</time>
      </trkpt>
      <trkpt lat="45.87078" lon="4.74158">
        <ele>211</ele>
        <time>2018-07-27T09:13:13Z</time>
      </trkpt>
      <trkpt lat="45.87078" lon="4.7415">
        <ele>212</ele>
        <time>2018-07-27T09:13:14Z</time>
      </trkpt>
      <trkpt lat="45.87078" lon="4.7414">
        <ele>212</ele>
        <time>2018-07-27T09:13:15Z</time>
      </trkpt>
      <trkpt lat="45.87077" lon="4.7413">
        <ele>212</ele>
        <time>2018-07-27T09:13:16Z</time>
      </trkpt>
      <trkpt lat="45.87075" lon="4.74124">
        <ele>212</ele>
        <time>2018-07-27T09:13:17Z</time>
      </trkpt>
      <trkpt lat="45.87074" lon="4.74115">
        <ele>212</ele>
        <time>2018-07-27T09:13:18Z</time>
      </trkpt>
      <trkpt lat="45.87074" lon="4.74106">
        <ele>212</ele>
        <time>2018-07-27T09:13:19Z</time>
      </trkpt>
      <trkpt lat="45.87075" lon="4.74095">
        <ele>212</ele>
        <time>2018-07-27T09:13:21Z</time>
      </trkpt>
      <trkpt lat="45.87075" lon="4.74087">
        <ele>212</ele>
        <time>2018-07-27T09:13:22Z</time>
      </trkpt>
      <trkpt lat="45.87074" lon="4.74079">
        <ele>213</ele>
        <time>2018-07-27T09:13:23Z</time>
      </trkpt>
      <trkpt lat="45.87074" lon="4.74071">
        <ele>213</ele>
        <time>2018-07-27T09:13:24Z</time>
      </trkpt>
      <trkpt lat="45.87073" lon="4.74062">
        <ele>214</ele>
        <time>2018-07-27T09:13:25Z</time>
      </trkpt>
      <trkpt lat="45.87074" lon="4.74053">
        <ele>214</ele>
        <time>2018-07-27T09:13:26Z</time>
      </trkpt>
      <trkpt lat="45.87074" lon="4.74045">
        <ele>215</ele>
        <time>2018-07-27T09:13:27Z</time>
      </trkpt>
      <trkpt lat="45.87074" lon="4.74037">
        <ele>215</ele>
        <time>2018-07-27T09:13:28Z</time>
      </trkpt>
      <trkpt lat="45.87072" lon="4.74029">
        <ele>215</ele>
        <time>2018-07-27T09:13:29Z</time>
      </trkpt>
      <trkpt lat="45.87072" lon="4.7402">
        <ele>215</ele>
        <time>2018-07-27T09:13:30Z</time>
      </trkpt>
      <trkpt lat="45.87072" lon="4.74011">
        <ele>216</ele>
        <time>2018-07-27T09:13:31Z</time>
      </trkpt>
      <trkpt lat="45.87072" lon="4.74003">
        <ele>216</ele>
        <time>2018-07-27T09:13:32Z</time>
      </trkpt>
      <trkpt lat="45.87073" lon="4.73995">
        <ele>217</ele>
        <time>2018-07-27T09:13:33Z</time>
      </trkpt>
      <trkpt lat="45.87072" lon="4.73987">
        <ele>217</ele>
        <time>2018-07-27T09:13:34Z</time>
      </trkpt>
      <trkpt lat="45.87072" lon="4.73978">
        <ele>217</ele>
        <time>2018-07-27T09:13:35Z</time>
      </trkpt>
      <trkpt lat="45.87072" lon="4.7397">
        <ele>217</ele>
        <time>2018-07-27T09:13:36Z</time>
      </trkpt>
      <trkpt lat="45.87073" lon="4.73963">
        <ele>217</ele>
        <time>2018-07-27T09:13:37Z</time>
      </trkpt>
      <trkpt lat="45.87073" lon="4.73955">
        <ele>218</ele>
        <time>2018-07-27T09:13:38Z</time>
      </trkpt>
      <trkpt lat="45.87073" lon="4.73947">
        <ele>218</ele>
        <time>2018-07-27T09:13:39Z</time>
      </trkpt>
      <trkpt lat="45.87073" lon="4.7394">
        <ele>218</ele>
        <time>2018-07-27T09:13:40Z</time>
      </trkpt>
      <trkpt lat="45.87073" lon="4.73933">
        <ele>218</ele>
        <time>2018-07-27T09:13:41Z</time>
      </trkpt>
      <trkpt lat="45.87073" lon="4.73926">
        <ele>218</ele>
        <time>2018-07-27T09:13:42Z</time>
      </trkpt>
      <trkpt lat="45.87074" lon="4.73918">
        <ele>218</ele>
        <time>2018-07-27T09:13:43Z</time>
      </trkpt>
      <trkpt lat="45.87074" lon="4.73909">
        <ele>218</ele>
        <time>2018-07-27T09:13:44Z</time>
      </trkpt>
      <trkpt lat="45.87074" lon="4.73901">
        <ele>218</ele>
        <time>2018-07-27T09:13:45Z</time>
      </trkpt>
      <trkpt lat="45.87072" lon="4.73891">
        <ele>218</ele>
        <time>2018-07-27T09:13:46Z</time>
      </trkpt>
      <trkpt lat="45.87071" lon="4.73883">
        <ele>218</ele>
        <time>2018-07-27T09:13:47Z</time>
      </trkpt>
      <trkpt lat="45.8707" lon="4.73875">
        <ele>218</ele>
        <time>2018-07-27T09:13:48Z</time>
      </trkpt>
      <trkpt lat="45.8707" lon="4.73866">
        <ele>218</ele>
        <time>2018-07-27T09:13:49Z</time>
      </trkpt>
      <trkpt lat="45.8707" lon="4.73857">
        <ele>218</ele>
        <time>2018-07-27T09:13:50Z</time>
      </trkpt>
      <trkpt lat="45.8707" lon="4.73849">
        <ele>218</ele>
        <time>2018-07-27T09:13:51Z</time>
      </trkpt>
      <trkpt lat="45.8707" lon="4.7384">
        <ele>218</ele>
        <time>2018-07-27T09:13:52Z</time>
      </trkpt>
      <trkpt lat="45.87071" lon="4.73832">
        <ele>217</ele>
        <time>2018-07-27T09:13:53Z</time>
      </trkpt>
      <trkpt lat="45.87071" lon="4.73823">
        <ele>217</ele>
        <time>2018-07-27T09:13:54Z</time>
      </trkpt>
      <trkpt lat="45.87071" lon="4.73814">
        <ele>217</ele>
        <time>2018-07-27T09:13:55Z</time>
      </trkpt>
      <trkpt lat="45.87071" lon="4.73805">
        <ele>217</ele>
        <time>2018-07-27T09:13:56Z</time>
      </trkpt>
      <trkpt lat="45.87072" lon="4.73796">
        <ele>217</ele>
        <time>2018-07-27T09:13:57Z</time>
      </trkpt>
      <trkpt lat="45.87072" lon="4.73786">
        <ele>217</ele>
        <time>2018-07-27T09:13:58Z</time>
      </trkpt>
      <trkpt lat="45.87073" lon="4.73777">
        <ele>217</ele>
        <time>2018-07-27T09:13:59Z</time>
      </trkpt>
      <trkpt lat="45.87073" lon="4.73767">
        <ele>217</ele>
        <time>2018-07-27T09:14:00Z</time>
      </trkpt>
      <trkpt lat="45.87074" lon="4.73757">
        <ele>216</ele>
        <time>2018-07-27T09:14:01Z</time>
      </trkpt>
      <trkpt lat="45.87075" lon="4.73749">
        <ele>216</ele>
        <time>2018-07-27T09:14:02Z</time>
      </trkpt>
      <trkpt lat="45.87076" lon="4.73741">
        <ele>216</ele>
        <time>2018-07-27T09:14:03Z</time>
      </trkpt>
      <trkpt lat="45.87078" lon="4.73732">
        <ele>216</ele>
        <time>2018-07-27T09:14:04Z</time>
      </trkpt>
      <trkpt lat="45.87079" lon="4.73723">
        <ele>217</ele>
        <time>2018-07-27T09:14:05Z</time>
      </trkpt>
      <trkpt lat="45.8708" lon="4.73713">
        <ele>217</ele>
        <time>2018-07-27T09:14:06Z</time>
      </trkpt>
      <trkpt lat="45.87081" lon="4.73704">
        <ele>217</ele>
        <time>2018-07-27T09:14:07Z</time>
      </trkpt>
      <trkpt lat="45.87083" lon="4.73696">
        <ele>217</ele>
        <time>2018-07-27T09:14:08Z</time>
      </trkpt>
      <trkpt lat="45.87086" lon="4.73688">
        <ele>215</ele>
        <time>2018-07-27T09:14:09Z</time>
      </trkpt>
      <trkpt lat="45.87087" lon="4.73678">
        <ele>215</ele>
        <time>2018-07-27T09:14:10Z</time>
      </trkpt>
      <trkpt lat="45.87088" lon="4.73668">
        <ele>216</ele>
        <time>2018-07-27T09:14:11Z</time>
      </trkpt>
      <trkpt lat="45.87089" lon="4.73658">
        <ele>215</ele>
        <time>2018-07-27T09:14:12Z</time>
      </trkpt>
      <trkpt lat="45.87091" lon="4.73648">
        <ele>214</ele>
        <time>2018-07-27T09:14:13Z</time>
      </trkpt>
      <trkpt lat="45.87093" lon="4.73638">
        <ele>214</ele>
        <time>2018-07-27T09:14:14Z</time>
      </trkpt>
      <trkpt lat="45.87094" lon="4.73627">
        <ele>214</ele>
        <time>2018-07-27T09:14:15Z</time>
      </trkpt>
      <trkpt lat="45.87096" lon="4.73617">
        <ele>214</ele>
        <time>2018-07-27T09:14:16Z</time>
      </trkpt>
      <trkpt lat="45.87097" lon="4.73605">
        <ele>214</ele>
        <time>2018-07-27T09:14:17Z</time>
      </trkpt>
      <trkpt lat="45.87098" lon="4.73594">
        <ele>214</ele>
        <time>2018-07-27T09:14:18Z</time>
      </trkpt>
      <trkpt lat="45.87099" lon="4.73582">
        <ele>214</ele>
        <time>2018-07-27T09:14:19Z</time>
      </trkpt>
      <trkpt lat="45.871" lon="4.73571">
        <ele>213</ele>
        <time>2018-07-27T09:14:20Z</time>
      </trkpt>
      <trkpt lat="45.87101" lon="4.73559">
        <ele>213</ele>
        <time>2018-07-27T09:14:21Z</time>
      </trkpt>
      <trkpt lat="45.87103" lon="4.73549">
        <ele>213</ele>
        <time>2018-07-27T09:14:22Z</time>
      </trkpt>
      <trkpt lat="45.87104" lon="4.73538">
        <ele>213</ele>
        <time>2018-07-27T09:14:23Z</time>
      </trkpt>
      <trkpt lat="45.87105" lon="4.73528">
        <ele>213</ele>
        <time>2018-07-27T09:14:24Z</time>
      </trkpt>
      <trkpt lat="45.87105" lon="4.73517">
        <ele>213</ele>
        <time>2018-07-27T09:14:25Z</time>
      </trkpt>
      <trkpt lat="45.87106" lon="4.73506">
        <ele>213</ele>
        <time>2018-07-27T09:14:26Z</time>
      </trkpt>
      <trkpt lat="45.87106" lon="4.73495">
        <ele>212</ele>
        <time>2018-07-27T09:14:27Z</time>
      </trkpt>
      <trkpt lat="45.87106" lon="4.73484">
        <ele>212</ele>
        <time>2018-07-27T09:14:28Z</time>
      </trkpt>
      <trkpt lat="45.87106" lon="4.73472">
        <ele>212</ele>
        <time>2018-07-27T09:14:29Z</time>
      </trkpt>
      <trkpt lat="45.87107" lon="4.73461">
        <ele>212</ele>
        <time>2018-07-27T09:14:30Z</time>
      </trkpt>
      <trkpt lat="45.87107" lon="4.73452">
        <ele>212</ele>
        <time>2018-07-27T09:14:31Z</time>
      </trkpt>
      <trkpt lat="45.87107" lon="4.73441">
        <ele>212</ele>
        <time>2018-07-27T09:14:32Z</time>
      </trkpt>
      <trkpt lat="45.87107" lon="4.7343">
        <ele>212</ele>
        <time>2018-07-27T09:14:33Z</time>
      </trkpt>
      <trkpt lat="45.87107" lon="4.7342">
        <ele>212</ele>
        <time>2018-07-27T09:14:34Z</time>
      </trkpt>
      <trkpt lat="45.87107" lon="4.73409">
        <ele>212</ele>
        <time>2018-07-27T09:14:35Z</time>
      </trkpt>
      <trkpt lat="45.87108" lon="4.73398">
        <ele>211</ele>
        <time>2018-07-27T09:14:36Z</time>
      </trkpt>
      <trkpt lat="45.87107" lon="4.73386">
        <ele>211</ele>
        <time>2018-07-27T09:14:37Z</time>
      </trkpt>
      <trkpt lat="45.87109" lon="4.73376">
        <ele>211</ele>
        <time>2018-07-27T09:14:38Z</time>
      </trkpt>
      <trkpt lat="45.87109" lon="4.73365">
        <ele>211</ele>
        <time>2018-07-27T09:14:39Z</time>
      </trkpt>
      <trkpt lat="45.8711" lon="4.73354">
        <ele>211</ele>
        <time>2018-07-27T09:14:40Z</time>
      </trkpt>
      <trkpt lat="45.87112" lon="4.73344">
        <ele>210</ele>
        <time>2018-07-27T09:14:41Z</time>
      </trkpt>
      <trkpt lat="45.87113" lon="4.73333">
        <ele>209</ele>
        <time>2018-07-27T09:14:42Z</time>
      </trkpt>
      <trkpt lat="45.87114" lon="4.73322">
        <ele>209</ele>
        <time>2018-07-27T09:14:43Z</time>
      </trkpt>
      <trkpt lat="45.87115" lon="4.73312">
        <ele>209</ele>
        <time>2018-07-27T09:14:44Z</time>
      </trkpt>
      <trkpt lat="45.87116" lon="4.733">
        <ele>208</ele>
        <time>2018-07-27T09:14:45Z</time>
      </trkpt>
      <trkpt lat="45.87118" lon="4.73288">
        <ele>208</ele>
        <time>2018-07-27T09:14:46Z</time>
      </trkpt>
      <trkpt lat="45.8712" lon="4.73278">
        <ele>208</ele>
        <time>2018-07-27T09:14:47Z</time>
      </trkpt>
      <trkpt lat="45.87122" lon="4.73268">
        <ele>208</ele>
        <time>2018-07-27T09:14:48Z</time>
      </trkpt>
      <trkpt lat="45.87124" lon="4.73257">
        <ele>208</ele>
        <time>2018-07-27T09:14:49Z</time>
      </trkpt>
      <trkpt lat="45.87128" lon="4.73247">
        <ele>206</ele>
        <time>2018-07-27T09:14:50Z</time>
      </trkpt>
      <trkpt lat="45.87131" lon="4.73236">
        <ele>206</ele>
        <time>2018-07-27T09:14:51Z</time>
      </trkpt>
      <trkpt lat="45.87135" lon="4.73225">
        <ele>206</ele>
        <time>2018-07-27T09:14:52Z</time>
      </trkpt>
      <trkpt lat="45.87138" lon="4.73214">
        <ele>206</ele>
        <time>2018-07-27T09:14:53Z</time>
      </trkpt>
      <trkpt lat="45.87142" lon="4.73204">
        <ele>206</ele>
        <time>2018-07-27T09:14:54Z</time>
      </trkpt>
      <trkpt lat="45.87146" lon="4.73196">
        <ele>205</ele>
        <time>2018-07-27T09:14:55Z</time>
      </trkpt>
      <trkpt lat="45.87149" lon="4.73187">
        <ele>205</ele>
        <time>2018-07-27T09:14:56Z</time>
      </trkpt>
      <trkpt lat="45.87153" lon="4.73177">
        <ele>205</ele>
        <time>2018-07-27T09:14:57Z</time>
      </trkpt>
      <trkpt lat="45.87157" lon="4.73167">
        <ele>204</ele>
        <time>2018-07-27T09:14:58Z</time>
      </trkpt>
      <trkpt lat="45.8716" lon="4.73157">
        <ele>204</ele>
        <time>2018-07-27T09:14:59Z</time>
      </trkpt>
      <trkpt lat="45.87162" lon="4.73148">
        <ele>204</ele>
        <time>2018-07-27T09:15:00Z</time>
      </trkpt>
      <trkpt lat="45.87164" lon="4.73137">
        <ele>204</ele>
        <time>2018-07-27T09:15:01Z</time>
      </trkpt>
      <trkpt lat="45.87166" lon="4.73127">
        <ele>204</ele>
        <time>2018-07-27T09:15:02Z</time>
      </trkpt>
      <trkpt lat="45.87166" lon="4.73117">
        <ele>204</ele>
        <time>2018-07-27T09:15:03Z</time>
      </trkpt>
      <trkpt lat="45.87166" lon="4.73107">
        <ele>204</ele>
        <time>2018-07-27T09:15:04Z</time>
      </trkpt>
      <trkpt lat="45.87167" lon="4.73097">
        <ele>202</ele>
        <time>2018-07-27T09:15:05Z</time>
      </trkpt>
      <trkpt lat="45.87168" lon="4.73086">
        <ele>203</ele>
        <time>2018-07-27T09:15:06Z</time>
      </trkpt>
      <trkpt lat="45.87168" lon="4.73076">
        <ele>202</ele>
        <time>2018-07-27T09:15:07Z</time>
      </trkpt>
      <trkpt lat="45.87168" lon="4.73066">
        <ele>202</ele>
        <time>2018-07-27T09:15:08Z</time>
      </trkpt>
      <trkpt lat="45.87167" lon="4.73056">
        <ele>201</ele>
        <time>2018-07-27T09:15:09Z</time>
      </trkpt>
      <trkpt lat="45.87166" lon="4.73045">
        <ele>205</ele>
        <time>2018-07-27T09:15:10Z</time>
      </trkpt>
      <trkpt lat="45.87167" lon="4.73035">
        <ele>201</ele>
        <time>2018-07-27T09:15:11Z</time>
      </trkpt>
      <trkpt lat="45.87167" lon="4.73024">
        <ele>202</ele>
        <time>2018-07-27T09:15:12Z</time>
      </trkpt>
      <trkpt lat="45.87168" lon="4.73013">
        <ele>202</ele>
        <time>2018-07-27T09:15:13Z</time>
      </trkpt>
      <trkpt lat="45.87168" lon="4.73003">
        <ele>204</ele>
        <time>2018-07-27T09:15:14Z</time>
      </trkpt>
      <trkpt lat="45.87169" lon="4.72993">
        <ele>203</ele>
        <time>2018-07-27T09:15:15Z</time>
      </trkpt>
      <trkpt lat="45.87169" lon="4.72983">
        <ele>202</ele>
        <time>2018-07-27T09:15:16Z</time>
      </trkpt>
      <trkpt lat="45.8717" lon="4.72972">
        <ele>202</ele>
        <time>2018-07-27T09:15:17Z</time>
      </trkpt>
      <trkpt lat="45.8717" lon="4.72962">
        <ele>201</ele>
        <time>2018-07-27T09:15:18Z</time>
      </trkpt>
      <trkpt lat="45.8717" lon="4.72952">
        <ele>202</ele>
        <time>2018-07-27T09:15:19Z</time>
      </trkpt>
      <trkpt lat="45.8717" lon="4.72942">
        <ele>202</ele>
        <time>2018-07-27T09:15:20Z</time>
      </trkpt>
      <trkpt lat="45.8717" lon="4.72933">
        <ele>202</ele>
        <time>2018-07-27T09:15:21Z</time>
      </trkpt>
      <trkpt lat="45.87171" lon="4.72924">
        <ele>203</ele>
        <time>2018-07-27T09:15:22Z</time>
      </trkpt>
      <trkpt lat="45.8717" lon="4.72915">
        <ele>203</ele>
        <time>2018-07-27T09:15:23Z</time>
      </trkpt>
      <trkpt lat="45.87172" lon="4.72905">
        <ele>202</ele>
        <time>2018-07-27T09:15:24Z</time>
      </trkpt>
      <trkpt lat="45.87171" lon="4.72895">
        <ele>201</ele>
        <time>2018-07-27T09:15:25Z</time>
      </trkpt>
      <trkpt lat="45.87171" lon="4.72883">
        <ele>201</ele>
        <time>2018-07-27T09:15:26Z</time>
      </trkpt>
      <trkpt lat="45.87172" lon="4.72874">
        <ele>200</ele>
        <time>2018-07-27T09:15:27Z</time>
      </trkpt>
      <trkpt lat="45.87172" lon="4.72862">
        <ele>200</ele>
        <time>2018-07-27T09:15:28Z</time>
      </trkpt>
      <trkpt lat="45.87171" lon="4.72852">
        <ele>200</ele>
        <time>2018-07-27T09:15:29Z</time>
      </trkpt>
      <trkpt lat="45.87173" lon="4.72841">
        <ele>201</ele>
        <time>2018-07-27T09:15:30Z</time>
      </trkpt>
      <trkpt lat="45.87173" lon="4.72829">
        <ele>201</ele>
        <time>2018-07-27T09:15:31Z</time>
      </trkpt>
      <trkpt lat="45.87173" lon="4.72818">
        <ele>200</ele>
        <time>2018-07-27T09:15:32Z</time>
      </trkpt>
      <trkpt lat="45.87172" lon="4.72806">
        <ele>200</ele>
        <time>2018-07-27T09:15:33Z</time>
      </trkpt>
      <trkpt lat="45.87174" lon="4.72795">
        <ele>199</ele>
        <time>2018-07-27T09:15:34Z</time>
      </trkpt>
      <trkpt lat="45.87175" lon="4.72783">
        <ele>199</ele>
        <time>2018-07-27T09:15:35Z</time>
      </trkpt>
      <trkpt lat="45.87174" lon="4.7277">
        <ele>199</ele>
        <time>2018-07-27T09:15:36Z</time>
      </trkpt>
      <trkpt lat="45.87172" lon="4.72757">
        <ele>200</ele>
        <time>2018-07-27T09:15:37Z</time>
      </trkpt>
      <trkpt lat="45.87174" lon="4.72744">
        <ele>200</ele>
        <time>2018-07-27T09:15:38Z</time>
      </trkpt>
      <trkpt lat="45.87177" lon="4.72733">
        <ele>200</ele>
        <time>2018-07-27T09:15:39.98Z</time>
      </trkpt>
      <trkpt lat="45.87178" lon="4.72721">
        <ele>199</ele>
        <time>2018-07-27T09:15:40Z</time>
      </trkpt>
      <trkpt lat="45.8718" lon="4.72709">
        <ele>199</ele>
        <time>2018-07-27T09:15:41Z</time>
      </trkpt>
      <trkpt lat="45.87181" lon="4.72697">
        <ele>199</ele>
        <time>2018-07-27T09:15:42Z</time>
      </trkpt>
      <trkpt lat="45.87184" lon="4.72684">
        <ele>199</ele>
        <time>2018-07-27T09:15:43Z</time>
      </trkpt>
      <trkpt lat="45.87186" lon="4.72672">
        <ele>199</ele>
        <time>2018-07-27T09:15:44Z</time>
      </trkpt>
      <trkpt lat="45.87189" lon="4.72661">
        <ele>199</ele>
        <time>2018-07-27T09:15:45Z</time>
      </trkpt>
      <trkpt lat="45.87193" lon="4.7265">
        <ele>199</ele>
        <time>2018-07-27T09:15:46Z</time>
      </trkpt>
      <trkpt lat="45.87195" lon="4.72638">
        <ele>199</ele>
        <time>2018-07-27T09:15:47Z</time>
      </trkpt>
      <trkpt lat="45.87199" lon="4.72628">
        <ele>199</ele>
        <time>2018-07-27T09:15:48Z</time>
      </trkpt>
      <trkpt lat="45.87202" lon="4.72617">
        <ele>199</ele>
        <time>2018-07-27T09:15:49Z</time>
      </trkpt>
      <trkpt lat="45.87204" lon="4.72606">
        <ele>199</ele>
        <time>2018-07-27T09:15:50Z</time>
      </trkpt>
      <trkpt lat="45.87206" lon="4.72594">
        <ele>199</ele>
        <time>2018-07-27T09:15:51Z</time>
      </trkpt>
      <trkpt lat="45.87209" lon="4.72584">
        <ele>199</ele>
        <time>2018-07-27T09:15:52Z</time>
      </trkpt>
      <trkpt lat="45.87211" lon="4.72572">
        <ele>199</ele>
        <time>2018-07-27T09:15:53Z</time>
      </trkpt>
      <trkpt lat="45.87212" lon="4.72561">
        <ele>198</ele>
        <time>2018-07-27T09:15:54Z</time>
      </trkpt>
      <trkpt lat="45.87213" lon="4.72549">
        <ele>198</ele>
        <time>2018-07-27T09:15:55Z</time>
      </trkpt>
      <trkpt lat="45.87212" lon="4.72537">
        <ele>198</ele>
        <time>2018-07-27T09:15:56Z</time>
      </trkpt>
      <trkpt lat="45.87211" lon="4.72525">
        <ele>198</ele>
        <time>2018-07-27T09:15:57Z</time>
      </trkpt>
      <trkpt lat="45.87211" lon="4.72514">
        <ele>198</ele>
        <time>2018-07-27T09:15:58Z</time>
      </trkpt>
      <trkpt lat="45.87208" lon="4.72503">
        <ele>198</ele>
        <time>2018-07-27T09:15:59Z</time>
      </trkpt>
      <trkpt lat="45.87206" lon="4.72491">
        <ele>195</ele>
        <time>2018-07-27T09:16:00Z</time>
      </trkpt>
      <trkpt lat="45.87204" lon="4.72482">
        <ele>195</ele>
        <time>2018-07-27T09:16:01Z</time>
      </trkpt>
      <trkpt lat="45.87199" lon="4.72472">
        <ele>195</ele>
        <time>2018-07-27T09:16:02Z</time>
      </trkpt>
      <trkpt lat="45.87195" lon="4.72463">
        <ele>195</ele>
        <time>2018-07-27T09:16:03Z</time>
      </trkpt>
      <trkpt lat="45.87191" lon="4.72453">
        <ele>194</ele>
        <time>2018-07-27T09:16:04Z</time>
      </trkpt>
      <trkpt lat="45.87188" lon="4.72444">
        <ele>194</ele>
        <time>2018-07-27T09:16:05Z</time>
      </trkpt>
      <trkpt lat="45.87184" lon="4.72435">
        <ele>194</ele>
        <time>2018-07-27T09:16:06Z</time>
      </trkpt>
      <trkpt lat="45.87179" lon="4.72425">
        <ele>194</ele>
        <time>2018-07-27T09:16:07Z</time>
      </trkpt>
      <trkpt lat="45.87175" lon="4.72416">
        <ele>193</ele>
        <time>2018-07-27T09:16:08Z</time>
      </trkpt>
      <trkpt lat="45.87171" lon="4.72407">
        <ele>192</ele>
        <time>2018-07-27T09:16:09Z</time>
      </trkpt>
      <trkpt lat="45.87168" lon="4.72399">
        <ele>191</ele>
        <time>2018-07-27T09:16:10Z</time>
      </trkpt>
      <trkpt lat="45.87164" lon="4.7239">
        <ele>197</ele>
        <time>2018-07-27T09:16:11Z</time>
      </trkpt>
      <trkpt lat="45.87159" lon="4.7238">
        <ele>197</ele>
        <time>2018-07-27T09:16:12Z</time>
      </trkpt>
      <trkpt lat="45.87155" lon="4.7237">
        <ele>197</ele>
        <time>2018-07-27T09:16:13Z</time>
      </trkpt>
      <trkpt lat="45.87151" lon="4.72361">
        <ele>196</ele>
        <time>2018-07-27T09:16:14Z</time>
      </trkpt>
      <trkpt lat="45.87147" lon="4.72351">
        <ele>196</ele>
        <time>2018-07-27T09:16:15Z</time>
      </trkpt>
      <trkpt lat="45.87143" lon="4.72342">
        <ele>196</ele>
        <time>2018-07-27T09:16:16Z</time>
      </trkpt>
      <trkpt lat="45.87139" lon="4.72332">
        <ele>195</ele>
        <time>2018-07-27T09:16:17Z</time>
      </trkpt>
      <trkpt lat="45.87135" lon="4.72322">
        <ele>195</ele>
        <time>2018-07-27T09:16:18Z</time>
      </trkpt>
      <trkpt lat="45.8713" lon="4.72314">
        <ele>196</ele>
        <time>2018-07-27T09:16:19Z</time>
      </trkpt>
      <trkpt lat="45.87126" lon="4.72305">
        <ele>196</ele>
        <time>2018-07-27T09:16:20Z</time>
      </trkpt>
      <trkpt lat="45.87122" lon="4.72297">
        <ele>196</ele>
        <time>2018-07-27T09:16:21Z</time>
      </trkpt>
      <trkpt lat="45.87117" lon="4.72289">
        <ele>197</ele>
        <time>2018-07-27T09:16:22Z</time>
      </trkpt>
      <trkpt lat="45.87113" lon="4.72282">
        <ele>197</ele>
        <time>2018-07-27T09:16:23Z</time>
      </trkpt>
      <trkpt lat="45.87107" lon="4.72275">
        <ele>197</ele>
        <time>2018-07-27T09:16:24Z</time>
      </trkpt>
      <trkpt lat="45.87102" lon="4.72268">
        <ele>197</ele>
        <time>2018-07-27T09:16:25Z</time>
      </trkpt>
      <trkpt lat="45.87097" lon="4.72262">
        <ele>198</ele>
        <time>2018-07-27T09:16:26Z</time>
      </trkpt>
      <trkpt lat="45.87091" lon="4.72256">
        <ele>198</ele>
        <time>2018-07-27T09:16:27Z</time>
      </trkpt>
      <trkpt lat="45.87085" lon="4.7225">
        <ele>199</ele>
        <time>2018-07-27T09:16:28Z</time>
      </trkpt>
      <trkpt lat="45.8708" lon="4.72244">
        <ele>199</ele>
        <time>2018-07-27T09:16:29Z</time>
      </trkpt>
      <trkpt lat="45.87074" lon="4.72239">
        <ele>200</ele>
        <time>2018-07-27T09:16:30Z</time>
      </trkpt>
      <trkpt lat="45.87068" lon="4.72234">
        <ele>200</ele>
        <time>2018-07-27T09:16:31Z</time>
      </trkpt>
      <trkpt lat="45.87062" lon="4.72229">
        <ele>200</ele>
        <time>2018-07-27T09:16:32Z</time>
      </trkpt>
      <trkpt lat="45.87056" lon="4.72224">
        <ele>201</ele>
        <time>2018-07-27T09:16:33Z</time>
      </trkpt>
      <trkpt lat="45.8705" lon="4.7222">
        <ele>201</ele>
        <time>2018-07-27T09:16:34Z</time>
      </trkpt>
      <trkpt lat="45.87045" lon="4.72214">
        <ele>201</ele>
        <time>2018-07-27T09:16:35Z</time>
      </trkpt>
      <trkpt lat="45.87037" lon="4.72208">
        <ele>201</ele>
        <time>2018-07-27T09:16:36Z</time>
      </trkpt>
      <trkpt lat="45.87032" lon="4.72204">
        <ele>201</ele>
        <time>2018-07-27T09:16:37Z</time>
      </trkpt>
      <trkpt lat="45.87027" lon="4.722">
        <ele>201</ele>
        <time>2018-07-27T09:16:38Z</time>
      </trkpt>
      <trkpt lat="45.87021" lon="4.72195">
        <ele>201</ele>
        <time>2018-07-27T09:16:39Z</time>
      </trkpt>
      <trkpt lat="45.87014" lon="4.72192">
        <ele>201</ele>
        <time>2018-07-27T09:16:40Z</time>
      </trkpt>
      <trkpt lat="45.87005" lon="4.72187">
        <ele>201</ele>
        <time>2018-07-27T09:16:41Z</time>
      </trkpt>
      <trkpt lat="45.87" lon="4.72182">
        <ele>206</ele>
        <time>2018-07-27T09:16:42.265Z</time>
      </trkpt>
      <trkpt lat="45.86994" lon="4.72178">
        <ele>206</ele>
        <time>2018-07-27T09:16:43Z</time>
      </trkpt>
      <trkpt lat="45.86989" lon="4.72174">
        <ele>206</ele>
        <time>2018-07-27T09:16:44Z</time>
      </trkpt>
      <trkpt lat="45.86983" lon="4.7217">
        <ele>207</ele>
        <time>2018-07-27T09:16:45Z</time>
      </trkpt>
      <trkpt lat="45.86976" lon="4.72166">
        <ele>201</ele>
        <time>2018-07-27T09:16:46Z</time>
      </trkpt>
      <trkpt lat="45.8697" lon="4.72161">
        <ele>201</ele>
        <time>2018-07-27T09:16:47Z</time>
      </trkpt>
      <trkpt lat="45.86963" lon="4.72157">
        <ele>201</ele>
        <time>2018-07-27T09:16:48Z</time>
      </trkpt>
      <trkpt lat="45.86957" lon="4.72154">
        <ele>201</ele>
        <time>2018-07-27T09:16:49Z</time>
      </trkpt>
      <trkpt lat="45.86951" lon="4.7215">
        <ele>202</ele>
        <time>2018-07-27T09:16:50Z</time>
      </trkpt>
      <trkpt lat="45.86945" lon="4.72145">
        <ele>202</ele>
        <time>2018-07-27T09:16:51Z</time>
      </trkpt>
      <trkpt lat="45.86938" lon="4.7214">
        <ele>202</ele>
        <time>2018-07-27T09:16:52Z</time>
      </trkpt>
      <trkpt lat="45.86931" lon="4.72137">
        <ele>202</ele>
        <time>2018-07-27T09:16:53Z</time>
      </trkpt>
      <trkpt lat="45.86924" lon="4.72133">
        <ele>201</ele>
        <time>2018-07-27T09:16:54Z</time>
      </trkpt>
      <trkpt lat="45.86916" lon="4.7213">
        <ele>203</ele>
        <time>2018-07-27T09:16:55Z</time>
      </trkpt>
      <trkpt lat="45.86909" lon="4.72127">
        <ele>203</ele>
        <time>2018-07-27T09:16:56Z</time>
      </trkpt>
      <trkpt lat="45.86903" lon="4.72124">
        <ele>202</ele>
        <time>2018-07-27T09:16:57Z</time>
      </trkpt>
      <trkpt lat="45.86896" lon="4.7212">
        <ele>202</ele>
        <time>2018-07-27T09:16:58Z</time>
      </trkpt>
      <trkpt lat="45.86888" lon="4.72118">
        <ele>202</ele>
        <time>2018-07-27T09:16:59Z</time>
      </trkpt>
      <trkpt lat="45.86881" lon="4.72116">
        <ele>201</ele>
        <time>2018-07-27T09:17:00Z</time>
      </trkpt>
      <trkpt lat="45.86875" lon="4.72114">
        <ele>201</ele>
        <time>2018-07-27T09:17:01Z</time>
      </trkpt>
      <trkpt lat="45.86869" lon="4.72112">
        <ele>201</ele>
        <time>2018-07-27T09:17:02Z</time>
      </trkpt>
      <trkpt lat="45.86862" lon="4.72109">
        <ele>201</ele>
        <time>2018-07-27T09:17:03Z</time>
      </trkpt>
      <trkpt lat="45.86856" lon="4.72106">
        <ele>200</ele>
        <time>2018-07-27T09:17:04Z</time>
      </trkpt>
      <trkpt lat="45.8685" lon="4.72103">
        <ele>199</ele>
        <time>2018-07-27T09:17:05Z</time>
      </trkpt>
      <trkpt lat="45.86844" lon="4.721">
        <ele>198</ele>
        <time>2018-07-27T09:17:06Z</time>
      </trkpt>
      <trkpt lat="45.86837" lon="4.72096">
        <ele>197</ele>
        <time>2018-07-27T09:17:07Z</time>
      </trkpt>
      <trkpt lat="45.86831" lon="4.72093">
        <ele>197</ele>
        <time>2018-07-27T09:17:08Z</time>
      </trkpt>
      <trkpt lat="45.86825" lon="4.72091">
        <ele>197</ele>
        <time>2018-07-27T09:17:09Z</time>
      </trkpt>
      <trkpt lat="45.86818" lon="4.72089">
        <ele>199</ele>
        <time>2018-07-27T09:17:10Z</time>
      </trkpt>
      <trkpt lat="45.86812" lon="4.72085">
        <ele>200</ele>
        <time>2018-07-27T09:17:11Z</time>
      </trkpt>
      <trkpt lat="45.86805" lon="4.72082">
        <ele>194</ele>
        <time>2018-07-27T09:17:12Z</time>
      </trkpt>
      <trkpt lat="45.86798" lon="4.72079">
        <ele>194</ele>
        <time>2018-07-27T09:17:13Z</time>
      </trkpt>
      <trkpt lat="45.8679" lon="4.72075">
        <ele>194</ele>
        <time>2018-07-27T09:17:14Z</time>
      </trkpt>
      <trkpt lat="45.86784" lon="4.72073">
        <ele>194</ele>
        <time>2018-07-27T09:17:15Z</time>
      </trkpt>
      <trkpt lat="45.86777" lon="4.72069">
        <ele>195</ele>
        <time>2018-07-27T09:17:16Z</time>
      </trkpt>
      <trkpt lat="45.8677" lon="4.72067">
        <ele>195</ele>
        <time>2018-07-27T09:17:17Z</time>
      </trkpt>
      <trkpt lat="45.86763" lon="4.72064">
        <ele>195</ele>
        <time>2018-07-27T09:17:18Z</time>
      </trkpt>
      <trkpt lat="45.86756" lon="4.72061">
        <ele>195</ele>
        <time>2018-07-27T09:17:19Z</time>
      </trkpt>
      <trkpt lat="45.8675" lon="4.72059">
        <ele>195</ele>
        <time>2018-07-27T09:17:20Z</time>
      </trkpt>
      <trkpt lat="45.86744" lon="4.72055">
        <ele>197</ele>
        <time>2018-07-27T09:17:21Z</time>
      </trkpt>
      <trkpt lat="45.86737" lon="4.72054">
        <ele>197</ele>
        <time>2018-07-27T09:17:22Z</time>
      </trkpt>
      <trkpt lat="45.8673" lon="4.72051">
        <ele>197</ele>
        <time>2018-07-27T09:17:23Z</time>
      </trkpt>
      <trkpt lat="45.86724" lon="4.72047">
        <ele>197</ele>
        <time>2018-07-27T09:17:24.405Z</time>
      </trkpt>
      <trkpt lat="45.86718" lon="4.72043">
        <ele>197</ele>
        <time>2018-07-27T09:17:25Z</time>
      </trkpt>
      <trkpt lat="45.86712" lon="4.72039">
        <ele>197</ele>
        <time>2018-07-27T09:17:26Z</time>
      </trkpt>
      <trkpt lat="45.86706" lon="4.72034">
        <ele>197</ele>
        <time>2018-07-27T09:17:27Z</time>
      </trkpt>
      <trkpt lat="45.867" lon="4.7203">
        <ele>197</ele>
        <time>2018-07-27T09:17:28Z</time>
      </trkpt>
      <trkpt lat="45.86695" lon="4.72024">
        <ele>197</ele>
        <time>2018-07-27T09:17:29Z</time>
      </trkpt>
      <trkpt lat="45.86689" lon="4.7202">
        <ele>197</ele>
        <time>2018-07-27T09:17:30Z</time>
      </trkpt>
      <trkpt lat="45.86683" lon="4.72016">
        <ele>196</ele>
        <time>2018-07-27T09:17:31Z</time>
      </trkpt>
      <trkpt lat="45.86678" lon="4.72011">
        <ele>196</ele>
        <time>2018-07-27T09:17:32Z</time>
      </trkpt>
      <trkpt lat="45.86673" lon="4.72007">
        <ele>196</ele>
        <time>2018-07-27T09:17:33Z</time>
      </trkpt>
      <trkpt lat="45.86667" lon="4.72002">
        <ele>195</ele>
        <time>2018-07-27T09:17:34Z</time>
      </trkpt>
      <trkpt lat="45.86662" lon="4.71998">
        <ele>195</ele>
        <time>2018-07-27T09:17:35Z</time>
      </trkpt>
      <trkpt lat="45.86656" lon="4.71993">
        <ele>195</ele>
        <time>2018-07-27T09:17:36Z</time>
      </trkpt>
      <trkpt lat="45.8665" lon="4.71988">
        <ele>195</ele>
        <time>2018-07-27T09:17:37Z</time>
      </trkpt>
      <trkpt lat="45.86645" lon="4.71983">
        <ele>195</ele>
        <time>2018-07-27T09:17:38Z</time>
      </trkpt>
      <trkpt lat="45.86642" lon="4.71978">
        <ele>195</ele>
        <time>2018-07-27T09:17:39Z</time>
      </trkpt>
      <trkpt lat="45.86637" lon="4.71975">
        <ele>195</ele>
        <time>2018-07-27T09:17:40Z</time>
      </trkpt>
      <trkpt lat="45.86631" lon="4.71971">
        <ele>195</ele>
        <time>2018-07-27T09:17:41Z</time>
      </trkpt>
      <trkpt lat="45.86626" lon="4.71967">
        <ele>195</ele>
        <time>2018-07-27T09:17:42Z</time>
      </trkpt>
      <trkpt lat="45.86621" lon="4.71963">
        <ele>195</ele>
        <time>2018-07-27T09:17:43Z</time>
      </trkpt>
      <trkpt lat="45.86616" lon="4.71959">
        <ele>195</ele>
        <time>2018-07-27T09:17:44Z</time>
      </trkpt>
      <trkpt lat="45.86611" lon="4.71955">
        <ele>194</ele>
        <time>2018-07-27T09:17:45Z</time>
      </trkpt>
      <trkpt lat="45.86606" lon="4.71951">
        <ele>194</ele>
        <time>2018-07-27T09:17:46Z</time>
      </trkpt>
      <trkpt lat="45.86599" lon="4.71944">
        <ele>194</ele>
        <time>2018-07-27T09:17:47Z</time>
      </trkpt>
      <trkpt lat="45.86594" lon="4.71939">
        <ele>194</ele>
        <time>2018-07-27T09:17:48Z</time>
      </trkpt>
      <trkpt lat="45.86589" lon="4.71934">
        <ele>194</ele>
        <time>2018-07-27T09:17:49Z</time>
      </trkpt>
      <trkpt lat="45.86583" lon="4.7193">
        <ele>195</ele>
        <time>2018-07-27T09:17:50Z</time>
      </trkpt>
      <trkpt lat="45.86578" lon="4.71927">
        <ele>195</ele>
        <time>2018-07-27T09:17:51Z</time>
      </trkpt>
      <trkpt lat="45.86573" lon="4.71924">
        <ele>195</ele>
        <time>2018-07-27T09:17:52Z</time>
      </trkpt>
      <trkpt lat="45.86569" lon="4.71921">
        <ele>195</ele>
        <time>2018-07-27T09:17:53Z</time>
      </trkpt>
      <trkpt lat="45.86561" lon="4.71918">
        <ele>196</ele>
        <time>2018-07-27T09:17:54Z</time>
      </trkpt>
      <trkpt lat="45.86556" lon="4.71913">
        <ele>195</ele>
        <time>2018-07-27T09:17:55Z</time>
      </trkpt>
      <trkpt lat="45.8655" lon="4.71909">
        <ele>195</ele>
        <time>2018-07-27T09:17:56Z</time>
      </trkpt>
      <trkpt lat="45.86544" lon="4.71906">
        <ele>195</ele>
        <time>2018-07-27T09:17:57Z</time>
      </trkpt>
      <trkpt lat="45.86539" lon="4.71902">
        <ele>195</ele>
        <time>2018-07-27T09:17:58Z</time>
      </trkpt>
      <trkpt lat="45.86535" lon="4.71897">
        <ele>195</ele>
        <time>2018-07-27T09:17:59Z</time>
      </trkpt>
      <trkpt lat="45.86529" lon="4.71893">
        <ele>195</ele>
        <time>2018-07-27T09:18:00Z</time>
      </trkpt>
      <trkpt lat="45.86523" lon="4.71889">
        <ele>195</ele>
        <time>2018-07-27T09:18:01Z</time>
      </trkpt>
      <trkpt lat="45.86518" lon="4.71885">
        <ele>195</ele>
        <time>2018-07-27T09:18:02Z</time>
      </trkpt>
      <trkpt lat="45.86513" lon="4.71881">
        <ele>195</ele>
        <time>2018-07-27T09:18:03Z</time>
      </trkpt>
      <trkpt lat="45.86508" lon="4.71878">
        <ele>195</ele>
        <time>2018-07-27T09:18:04Z</time>
      </trkpt>
      <trkpt lat="45.86503" lon="4.71874">
        <ele>195</ele>
        <time>2018-07-27T09:18:05Z</time>
      </trkpt>
      <trkpt lat="45.86496" lon="4.71867">
        <ele>198</ele>
        <time>2018-07-27T09:18:07Z</time>
      </trkpt>
      <trkpt lat="45.86492" lon="4.71863">
        <ele>198</ele>
        <time>2018-07-27T09:18:08Z</time>
      </trkpt>
      <trkpt lat="45.86487" lon="4.7186">
        <ele>198</ele>
        <time>2018-07-27T09:18:09Z</time>
      </trkpt>
      <trkpt lat="45.86482" lon="4.71857">
        <ele>198</ele>
        <time>2018-07-27T09:18:10Z</time>
      </trkpt>
      <trkpt lat="45.86479" lon="4.71851">
        <ele>198</ele>
        <time>2018-07-27T09:18:11Z</time>
      </trkpt>
      <trkpt lat="45.86475" lon="4.71848">
        <ele>198</ele>
        <time>2018-07-27T09:18:12Z</time>
      </trkpt>
      <trkpt lat="45.86471" lon="4.71843">
        <ele>199</ele>
        <time>2018-07-27T09:18:13Z</time>
      </trkpt>
      <trkpt lat="45.86466" lon="4.71839">
        <ele>199</ele>
        <time>2018-07-27T09:18:14Z</time>
      </trkpt>
      <trkpt lat="45.86461" lon="4.71835">
        <ele>199</ele>
        <time>2018-07-27T09:18:15Z</time>
      </trkpt>
      <trkpt lat="45.86456" lon="4.71831">
        <ele>197</ele>
        <time>2018-07-27T09:18:16Z</time>
      </trkpt>
      <trkpt lat="45.86451" lon="4.71826">
        <ele>197</ele>
        <time>2018-07-27T09:18:17Z</time>
      </trkpt>
      <trkpt lat="45.86446" lon="4.71822">
        <ele>197</ele>
        <time>2018-07-27T09:18:18Z</time>
      </trkpt>
      <trkpt lat="45.86441" lon="4.71819">
        <ele>197</ele>
        <time>2018-07-27T09:18:19Z</time>
      </trkpt>
      <trkpt lat="45.86436" lon="4.71815">
        <ele>197</ele>
        <time>2018-07-27T09:18:20Z</time>
      </trkpt>
      <trkpt lat="45.86429" lon="4.71812">
        <ele>198</ele>
        <time>2018-07-27T09:18:21Z</time>
      </trkpt>
      <trkpt lat="45.86424" lon="4.71808">
        <ele>198</ele>
        <time>2018-07-27T09:18:22Z</time>
      </trkpt>
      <trkpt lat="45.86419" lon="4.71804">
        <ele>197</ele>
        <time>2018-07-27T09:18:23Z</time>
      </trkpt>
      <trkpt lat="45.86411" lon="4.71799">
        <ele>199</ele>
        <time>2018-07-27T09:18:24Z</time>
      </trkpt>
      <trkpt lat="45.86406" lon="4.71797">
        <ele>199</ele>
        <time>2018-07-27T09:18:25Z</time>
      </trkpt>
      <trkpt lat="45.864" lon="4.71794">
        <ele>199</ele>
        <time>2018-07-27T09:18:26Z</time>
      </trkpt>
      <trkpt lat="45.86396" lon="4.71791">
        <ele>199</ele>
        <time>2018-07-27T09:18:27Z</time>
      </trkpt>
      <trkpt lat="45.86392" lon="4.71787">
        <ele>198</ele>
        <time>2018-07-27T09:18:28Z</time>
      </trkpt>
      <trkpt lat="45.86387" lon="4.71782">
        <ele>198</ele>
        <time>2018-07-27T09:18:29Z</time>
      </trkpt>
      <trkpt lat="45.86384" lon="4.71778">
        <ele>198</ele>
        <time>2018-07-27T09:18:30Z</time>
      </trkpt>
      <trkpt lat="45.86378" lon="4.71773">
        <ele>198</ele>
        <time>2018-07-27T09:18:31Z</time>
      </trkpt>
      <trkpt lat="45.86372" lon="4.71768">
        <ele>198</ele>
        <time>2018-07-27T09:18:32Z</time>
      </trkpt>
      <trkpt lat="45.86367" lon="4.71765">
        <ele>198</ele>
        <time>2018-07-27T09:18:33Z</time>
      </trkpt>
      <trkpt lat="45.86362" lon="4.71761">
        <ele>198</ele>
        <time>2018-07-27T09:18:34Z</time>
      </trkpt>
      <trkpt lat="45.86357" lon="4.71757">
        <ele>198</ele>
        <time>2018-07-27T09:18:35Z</time>
      </trkpt>
      <trkpt lat="45.86352" lon="4.71752">
        <ele>197</ele>
        <time>2018-07-27T09:18:36Z</time>
      </trkpt>
      <trkpt lat="45.86347" lon="4.71748">
        <ele>195</ele>
        <time>2018-07-27T09:18:37Z</time>
      </trkpt>
      <trkpt lat="45.86342" lon="4.71746">
        <ele>195</ele>
        <time>2018-07-27T09:18:38Z</time>
      </trkpt>
      <trkpt lat="45.86334" lon="4.71742">
        <ele>195</ele>
        <time>2018-07-27T09:18:39Z</time>
      </trkpt>
      <trkpt lat="45.8633" lon="4.71739">
        <ele>196</ele>
        <time>2018-07-27T09:18:40Z</time>
      </trkpt>
      <trkpt lat="45.86325" lon="4.71734">
        <ele>196</ele>
        <time>2018-07-27T09:18:41Z</time>
      </trkpt>
      <trkpt lat="45.86321" lon="4.7173">
        <ele>196</ele>
        <time>2018-07-27T09:18:42Z</time>
      </trkpt>
      <trkpt lat="45.86315" lon="4.71725">
        <ele>196</ele>
        <time>2018-07-27T09:18:43Z</time>
      </trkpt>
      <trkpt lat="45.86311" lon="4.7172">
        <ele>196</ele>
        <time>2018-07-27T09:18:44Z</time>
      </trkpt>
      <trkpt lat="45.86305" lon="4.71716">
        <ele>196</ele>
        <time>2018-07-27T09:18:45Z</time>
      </trkpt>
      <trkpt lat="45.86301" lon="4.71711">
        <ele>195</ele>
        <time>2018-07-27T09:18:46Z</time>
      </trkpt>
      <trkpt lat="45.86296" lon="4.71707">
        <ele>195</ele>
        <time>2018-07-27T09:18:47Z</time>
      </trkpt>
      <trkpt lat="45.8629" lon="4.71703">
        <ele>195</ele>
        <time>2018-07-27T09:18:48Z</time>
      </trkpt>
      <trkpt lat="45.86286" lon="4.71699">
        <ele>195</ele>
        <time>2018-07-27T09:18:49Z</time>
      </trkpt>
      <trkpt lat="45.8628" lon="4.71696">
        <ele>195</ele>
        <time>2018-07-27T09:18:50Z</time>
      </trkpt>
      <trkpt lat="45.86275" lon="4.71692">
        <ele>195</ele>
        <time>2018-07-27T09:18:51Z</time>
      </trkpt>
      <trkpt lat="45.86272" lon="4.71691">
        <ele>195</ele>
        <time>2018-07-27T09:18:52Z</time>
      </trkpt>
      <trkpt lat="45.86267" lon="4.71687">
        <ele>195</ele>
        <time>2018-07-27T09:18:53Z</time>
      </trkpt>
      <trkpt lat="45.86263" lon="4.71681">
        <ele>195</ele>
        <time>2018-07-27T09:18:54Z</time>
      </trkpt>
      <trkpt lat="45.86258" lon="4.71676">
        <ele>195</ele>
        <time>2018-07-27T09:18:55Z</time>
      </trkpt>
      <trkpt lat="45.86252" lon="4.71672">
        <ele>195</ele>
        <time>2018-07-27T09:18:56Z</time>
      </trkpt>
      <trkpt lat="45.86247" lon="4.71668">
        <ele>195</ele>
        <time>2018-07-27T09:18:57Z</time>
      </trkpt>
      <trkpt lat="45.86241" lon="4.71663">
        <ele>195</ele>
        <time>2018-07-27T09:18:58Z</time>
      </trkpt>
      <trkpt lat="45.86236" lon="4.7166">
        <ele>195</ele>
        <time>2018-07-27T09:18:59Z</time>
      </trkpt>
      <trkpt lat="45.86232" lon="4.71656">
        <ele>195</ele>
        <time>2018-07-27T09:19:00Z</time>
      </trkpt>
      <trkpt lat="45.86228" lon="4.71652">
        <ele>195</ele>
        <time>2018-07-27T09:19:01Z</time>
      </trkpt>
      <trkpt lat="45.86223" lon="4.71649">
        <ele>195</ele>
        <time>2018-07-27T09:19:02Z</time>
      </trkpt>
      <trkpt lat="45.8622" lon="4.71647">
        <ele>195</ele>
        <time>2018-07-27T09:19:04Z</time>
      </trkpt>
      <trkpt lat="45.86215" lon="4.7164">
        <ele>195</ele>
        <time>2018-07-27T09:19:05Z</time>
      </trkpt>
      <trkpt lat="45.86212" lon="4.71631">
        <ele>195</ele>
        <time>2018-07-27T09:19:07Z</time>
      </trkpt>
      <trkpt lat="45.86212" lon="4.71625">
        <ele>195</ele>
        <time>2018-07-27T09:19:08Z</time>
      </trkpt>
      <trkpt lat="45.8621" lon="4.71619">
        <ele>195</ele>
        <time>2018-07-27T09:19:09Z</time>
      </trkpt>
      <trkpt lat="45.86208" lon="4.71612">
        <ele>195</ele>
        <time>2018-07-27T09:19:10Z</time>
      </trkpt>
      <trkpt lat="45.86206" lon="4.71607">
        <ele>195</ele>
        <time>2018-07-27T09:19:11Z</time>
      </trkpt>
      <trkpt lat="45.86202" lon="4.716">
        <ele>195</ele>
        <time>2018-07-27T09:19:12Z</time>
      </trkpt>
      <trkpt lat="45.86195" lon="4.71593">
        <ele>195</ele>
        <time>2018-07-27T09:19:14Z</time>
      </trkpt>
      <trkpt lat="45.8619" lon="4.71588">
        <ele>195</ele>
        <time>2018-07-27T09:19:15Z</time>
      </trkpt>
      <trkpt lat="45.86186" lon="4.71582">
        <ele>195</ele>
        <time>2018-07-27T09:19:16Z</time>
      </trkpt>
      <trkpt lat="45.86182" lon="4.71576">
        <ele>195</ele>
        <time>2018-07-27T09:19:17Z</time>
      </trkpt>
      <trkpt lat="45.86179" lon="4.7157">
        <ele>195</ele>
        <time>2018-07-27T09:19:18Z</time>
      </trkpt>
      <trkpt lat="45.86174" lon="4.71564">
        <ele>195</ele>
        <time>2018-07-27T09:19:19Z</time>
      </trkpt>
      <trkpt lat="45.86172" lon="4.71559">
        <ele>195</ele>
        <time>2018-07-27T09:19:20Z</time>
      </trkpt>
      <trkpt lat="45.8617" lon="4.71553">
        <ele>195</ele>
        <time>2018-07-27T09:19:21Z</time>
      </trkpt>
      <trkpt lat="45.86166" lon="4.71547">
        <ele>196</ele>
        <time>2018-07-27T09:19:22Z</time>
      </trkpt>
      <trkpt lat="45.86164" lon="4.71541">
        <ele>195</ele>
        <time>2018-07-27T09:19:23Z</time>
      </trkpt>
      <trkpt lat="45.86161" lon="4.71535">
        <ele>195</ele>
        <time>2018-07-27T09:19:24Z</time>
      </trkpt>
      <trkpt lat="45.86159" lon="4.7153">
        <ele>195</ele>
        <time>2018-07-27T09:19:25Z</time>
      </trkpt>
      <trkpt lat="45.86155" lon="4.71524">
        <ele>195</ele>
        <time>2018-07-27T09:19:26Z</time>
      </trkpt>
      <trkpt lat="45.86153" lon="4.71519">
        <ele>195</ele>
        <time>2018-07-27T09:19:27Z</time>
      </trkpt>
      <trkpt lat="45.8615" lon="4.71513">
        <ele>195</ele>
        <time>2018-07-27T09:19:28Z</time>
      </trkpt>
      <trkpt lat="45.86147" lon="4.71508">
        <ele>195</ele>
        <time>2018-07-27T09:19:29Z</time>
      </trkpt>
      <trkpt lat="45.86144" lon="4.71502">
        <ele>195</ele>
        <time>2018-07-27T09:19:30Z</time>
      </trkpt>
      <trkpt lat="45.86143" lon="4.71496">
        <ele>195</ele>
        <time>2018-07-27T09:19:31Z</time>
      </trkpt>
      <trkpt lat="45.86142" lon="4.71489">
        <ele>195</ele>
        <time>2018-07-27T09:19:32Z</time>
      </trkpt>
      <trkpt lat="45.86139" lon="4.71482">
        <ele>195</ele>
        <time>2018-07-27T09:19:33Z</time>
      </trkpt>
      <trkpt lat="45.86136" lon="4.71475">
        <ele>195</ele>
        <time>2018-07-27T09:19:34Z</time>
      </trkpt>
      <trkpt lat="45.86133" lon="4.71468">
        <ele>195</ele>
        <time>2018-07-27T09:19:35Z</time>
      </trkpt>
      <trkpt lat="45.86129" lon="4.71461">
        <ele>195</ele>
        <time>2018-07-27T09:19:36Z</time>
      </trkpt>
      <trkpt lat="45.86126" lon="4.71455">
        <ele>195</ele>
        <time>2018-07-27T09:19:37Z</time>
      </trkpt>
      <trkpt lat="45.86124" lon="4.71448">
        <ele>195</ele>
        <time>2018-07-27T09:19:38Z</time>
      </trkpt>
      <trkpt lat="45.86124" lon="4.71441">
        <ele>195</ele>
        <time>2018-07-27T09:19:39Z</time>
      </trkpt>
      <trkpt lat="45.86123" lon="4.71433">
        <ele>195</ele>
        <time>2018-07-27T09:19:40Z</time>
      </trkpt>
      <trkpt lat="45.86123" lon="4.71424">
        <ele>195</ele>
        <time>2018-07-27T09:19:41Z</time>
      </trkpt>
      <trkpt lat="45.86123" lon="4.71417">
        <ele>195</ele>
        <time>2018-07-27T09:19:42Z</time>
      </trkpt>
      <trkpt lat="45.8612" lon="4.71409">
        <ele>196</ele>
        <time>2018-07-27T09:19:43Z</time>
      </trkpt>
      <trkpt lat="45.86119" lon="4.714">
        <ele>196</ele>
        <time>2018-07-27T09:19:44Z</time>
      </trkpt>
      <trkpt lat="45.86117" lon="4.71393">
        <ele>196</ele>
        <time>2018-07-27T09:19:45Z</time>
      </trkpt>
      <trkpt lat="45.8612" lon="4.71381">
        <ele>196</ele>
        <time>2018-07-27T09:19:47Z</time>
      </trkpt>
      <trkpt lat="45.86119" lon="4.71375">
        <ele>196</ele>
        <time>2018-07-27T09:19:48Z</time>
      </trkpt>
      <trkpt lat="45.86119" lon="4.71362">
        <ele>196</ele>
        <time>2018-07-27T09:19:50Z</time>
      </trkpt>
      <trkpt lat="45.86116" lon="4.71357">
        <ele>196</ele>
        <time>2018-07-27T09:19:51Z</time>
      </trkpt>
      <trkpt lat="45.86114" lon="4.71346">
        <ele>196</ele>
        <time>2018-07-27T09:19:53Z</time>
      </trkpt>
      <trkpt lat="45.86113" lon="4.71339">
        <ele>196</ele>
        <time>2018-07-27T09:19:54Z</time>
      </trkpt>
      <trkpt lat="45.86113" lon="4.71331">
        <ele>196</ele>
        <time>2018-07-27T09:19:55Z</time>
      </trkpt>
      <trkpt lat="45.8611" lon="4.71323">
        <ele>196</ele>
        <time>2018-07-27T09:19:56Z</time>
      </trkpt>
      <trkpt lat="45.86109" lon="4.71315">
        <ele>196</ele>
        <time>2018-07-27T09:19:57Z</time>
      </trkpt>
      <trkpt lat="45.86107" lon="4.71307">
        <ele>196</ele>
        <time>2018-07-27T09:19:58Z</time>
      </trkpt>
      <trkpt lat="45.86106" lon="4.713">
        <ele>196</ele>
        <time>2018-07-27T09:19:59Z</time>
      </trkpt>
      <trkpt lat="45.86105" lon="4.71293">
        <ele>197</ele>
        <time>2018-07-27T09:20:00Z</time>
      </trkpt>
      <trkpt lat="45.86102" lon="4.71281">
        <ele>197</ele>
        <time>2018-07-27T09:20:02Z</time>
      </trkpt>
      <trkpt lat="45.861" lon="4.71275">
        <ele>197</ele>
        <time>2018-07-27T09:20:03Z</time>
      </trkpt>
      <trkpt lat="45.86098" lon="4.7127">
        <ele>197</ele>
        <time>2018-07-27T09:20:04Z</time>
      </trkpt>
      <trkpt lat="45.86095" lon="4.71265">
        <ele>197</ele>
        <time>2018-07-27T09:20:05Z</time>
      </trkpt>
      <trkpt lat="45.86089" lon="4.71256">
        <ele>198</ele>
        <time>2018-07-27T09:20:07Z</time>
      </trkpt>
      <trkpt lat="45.86087" lon="4.71251">
        <ele>198</ele>
        <time>2018-07-27T09:20:08Z</time>
      </trkpt>
      <trkpt lat="45.86084" lon="4.71242">
        <ele>198</ele>
        <time>2018-07-27T09:20:09Z</time>
      </trkpt>
      <trkpt lat="45.86083" lon="4.71235">
        <ele>198</ele>
        <time>2018-07-27T09:20:10Z</time>
      </trkpt>
      <trkpt lat="45.86082" lon="4.71228">
        <ele>198</ele>
        <time>2018-07-27T09:20:11Z</time>
      </trkpt>
      <trkpt lat="45.86084" lon="4.71221">
        <ele>197</ele>
        <time>2018-07-27T09:20:12Z</time>
      </trkpt>
      <trkpt lat="45.86084" lon="4.71214">
        <ele>197</ele>
        <time>2018-07-27T09:20:13Z</time>
      </trkpt>
      <trkpt lat="45.86086" lon="4.71207">
        <ele>197</ele>
        <time>2018-07-27T09:20:14Z</time>
      </trkpt>
      <trkpt lat="45.86087" lon="4.71201">
        <ele>197</ele>
        <time>2018-07-27T09:20:15Z</time>
      </trkpt>
      <trkpt lat="45.8609" lon="4.71194">
        <ele>197</ele>
        <time>2018-07-27T09:20:16Z</time>
      </trkpt>
      <trkpt lat="45.8609" lon="4.71185">
        <ele>197</ele>
        <time>2018-07-27T09:20:17Z</time>
      </trkpt>
      <trkpt lat="45.86091" lon="4.71175">
        <ele>197</ele>
        <time>2018-07-27T09:20:18Z</time>
      </trkpt>
      <trkpt lat="45.86091" lon="4.71167">
        <ele>198</ele>
        <time>2018-07-27T09:20:19Z</time>
      </trkpt>
      <trkpt lat="45.86092" lon="4.7116">
        <ele>197</ele>
        <time>2018-07-27T09:20:20Z</time>
      </trkpt>
      <trkpt lat="45.86092" lon="4.71147">
        <ele>197</ele>
        <time>2018-07-27T09:20:22Z</time>
      </trkpt>
      <trkpt lat="45.86089" lon="4.71139">
        <ele>197</ele>
        <time>2018-07-27T09:20:23Z</time>
      </trkpt>
      <trkpt lat="45.86083" lon="4.71136">
        <ele>197</ele>
        <time>2018-07-27T09:20:24Z</time>
      </trkpt>
      <trkpt lat="45.8608" lon="4.71133">
        <ele>197</ele>
        <time>2018-07-27T09:20:25Z</time>
      </trkpt>
      <trkpt lat="45.86073" lon="4.71128">
        <ele>197</ele>
        <time>2018-07-27T09:20:26Z</time>
      </trkpt>
      <trkpt lat="45.86067" lon="4.71123">
        <ele>197</ele>
        <time>2018-07-27T09:20:27Z</time>
      </trkpt>
      <trkpt lat="45.86064" lon="4.71119">
        <ele>197</ele>
        <time>2018-07-27T09:20:28Z</time>
      </trkpt>
      <trkpt lat="45.86057" lon="4.71112">
        <ele>197</ele>
        <time>2018-07-27T09:20:29Z</time>
      </trkpt>
      <trkpt lat="45.86052" lon="4.71106">
        <ele>197</ele>
        <time>2018-07-27T09:20:30Z</time>
      </trkpt>
      <trkpt lat="45.86048" lon="4.71099">
        <ele>197</ele>
        <time>2018-07-27T09:20:31Z</time>
      </trkpt>
      <trkpt lat="45.86045" lon="4.71093">
        <ele>197</ele>
        <time>2018-07-27T09:20:32Z</time>
      </trkpt>
      <trkpt lat="45.86043" lon="4.71087">
        <ele>197</ele>
        <time>2018-07-27T09:20:33Z</time>
      </trkpt>
      <trkpt lat="45.86039" lon="4.7108">
        <ele>197</ele>
        <time>2018-07-27T09:20:34Z</time>
      </trkpt>
      <trkpt lat="45.86037" lon="4.71073">
        <ele>197</ele>
        <time>2018-07-27T09:20:35Z</time>
      </trkpt>
      <trkpt lat="45.86035" lon="4.71065">
        <ele>197</ele>
        <time>2018-07-27T09:20:36Z</time>
      </trkpt>
      <trkpt lat="45.86034" lon="4.71056">
        <ele>197</ele>
        <time>2018-07-27T09:20:37Z</time>
      </trkpt>
      <trkpt lat="45.86033" lon="4.71048">
        <ele>197</ele>
        <time>2018-07-27T09:20:38Z</time>
      </trkpt>
      <trkpt lat="45.86032" lon="4.71042">
        <ele>197</ele>
        <time>2018-07-27T09:20:39Z</time>
      </trkpt>
      <trkpt lat="45.8603" lon="4.71035">
        <ele>197</ele>
        <time>2018-07-27T09:20:40Z</time>
      </trkpt>
      <trkpt lat="45.86029" lon="4.71027">
        <ele>197</ele>
        <time>2018-07-27T09:20:41Z</time>
      </trkpt>
      <trkpt lat="45.86028" lon="4.7102">
        <ele>197</ele>
        <time>2018-07-27T09:20:42Z</time>
      </trkpt>
      <trkpt lat="45.86026" lon="4.71015">
        <ele>197</ele>
        <time>2018-07-27T09:20:43Z</time>
      </trkpt>
      <trkpt lat="45.86022" lon="4.7101">
        <ele>197</ele>
        <time>2018-07-27T09:20:44Z</time>
      </trkpt>
      <trkpt lat="45.86016" lon="4.71005">
        <ele>197</ele>
        <time>2018-07-27T09:20:45Z</time>
      </trkpt>
      <trkpt lat="45.86012" lon="4.70999">
        <ele>197</ele>
        <time>2018-07-27T09:20:46Z</time>
      </trkpt>
      <trkpt lat="45.86008" lon="4.70994">
        <ele>197</ele>
        <time>2018-07-27T09:20:47Z</time>
      </trkpt>
      <trkpt lat="45.86002" lon="4.70989">
        <ele>197</ele>
        <time>2018-07-27T09:20:48Z</time>
      </trkpt>
      <trkpt lat="45.85997" lon="4.70984">
        <ele>197</ele>
        <time>2018-07-27T09:20:49Z</time>
      </trkpt>
      <trkpt lat="45.85992" lon="4.7098">
        <ele>197</ele>
        <time>2018-07-27T09:20:50Z</time>
      </trkpt>
      <trkpt lat="45.85985" lon="4.70976">
        <ele>197</ele>
        <time>2018-07-27T09:20:51Z</time>
      </trkpt>
      <trkpt lat="45.8598" lon="4.70973">
        <ele>197</ele>
        <time>2018-07-27T09:20:52Z</time>
      </trkpt>
      <trkpt lat="45.85975" lon="4.70971">
        <ele>197</ele>
        <time>2018-07-27T09:20:53Z</time>
      </trkpt>
      <trkpt lat="45.85969" lon="4.70969">
        <ele>197</ele>
        <time>2018-07-27T09:20:54Z</time>
      </trkpt>
      <trkpt lat="45.85964" lon="4.70967">
        <ele>197</ele>
        <time>2018-07-27T09:20:55Z</time>
      </trkpt>
      <trkpt lat="45.85959" lon="4.70967">
        <ele>197</ele>
        <time>2018-07-27T09:20:56Z</time>
      </trkpt>
      <trkpt lat="45.85954" lon="4.70968">
        <ele>197</ele>
        <time>2018-07-27T09:20:57Z</time>
      </trkpt>
      <trkpt lat="45.85949" lon="4.70968">
        <ele>197</ele>
        <time>2018-07-27T09:20:58Z</time>
      </trkpt>
      <trkpt lat="45.85945" lon="4.70965">
        <ele>197</ele>
        <time>2018-07-27T09:20:59Z</time>
      </trkpt>
      <trkpt lat="45.85941" lon="4.70955">
        <ele>197</ele>
        <time>2018-07-27T09:21:01Z</time>
      </trkpt>
      <trkpt lat="45.85941" lon="4.7095">
        <ele>197</ele>
        <time>2018-07-27T09:21:02Z</time>
      </trkpt>
      <trkpt lat="45.85941" lon="4.70943">
        <ele>197</ele>
        <time>2018-07-27T09:21:03Z</time>
      </trkpt>
      <trkpt lat="45.85945" lon="4.70937">
        <ele>197</ele>
        <time>2018-07-27T09:21:04Z</time>
      </trkpt>
      <trkpt lat="45.85947" lon="4.7093">
        <ele>197</ele>
        <time>2018-07-27T09:21:05Z</time>
      </trkpt>
      <trkpt lat="45.8595" lon="4.70923">
        <ele>197</ele>
        <time>2018-07-27T09:21:06Z</time>
      </trkpt>
      <trkpt lat="45.85951" lon="4.70916">
        <ele>197</ele>
        <time>2018-07-27T09:21:07Z</time>
      </trkpt>
      <trkpt lat="45.85956" lon="4.7091">
        <ele>197</ele>
        <time>2018-07-27T09:21:08Z</time>
      </trkpt>
      <trkpt lat="45.85958" lon="4.70903">
        <ele>197</ele>
        <time>2018-07-27T09:21:09Z</time>
      </trkpt>
      <trkpt lat="45.8596" lon="4.70895">
        <ele>197</ele>
        <time>2018-07-27T09:21:10Z</time>
      </trkpt>
      <trkpt lat="45.85961" lon="4.70887">
        <ele>197</ele>
        <time>2018-07-27T09:21:11Z</time>
      </trkpt>
      <trkpt lat="45.85963" lon="4.70881">
        <ele>197</ele>
        <time>2018-07-27T09:21:12Z</time>
      </trkpt>
      <trkpt lat="45.85964" lon="4.70873">
        <ele>196</ele>
        <time>2018-07-27T09:21:13Z</time>
      </trkpt>
      <trkpt lat="45.85964" lon="4.70865">
        <ele>196</ele>
        <time>2018-07-27T09:21:14Z</time>
      </trkpt>
      <trkpt lat="45.85965" lon="4.70858">
        <ele>196</ele>
        <time>2018-07-27T09:21:15Z</time>
      </trkpt>
      <trkpt lat="45.85965" lon="4.7085">
        <ele>196</ele>
        <time>2018-07-27T09:21:16Z</time>
      </trkpt>
      <trkpt lat="45.85964" lon="4.70843">
        <ele>196</ele>
        <time>2018-07-27T09:21:17Z</time>
      </trkpt>
      <trkpt lat="45.85964" lon="4.70835">
        <ele>196</ele>
        <time>2018-07-27T09:21:18Z</time>
      </trkpt>
      <trkpt lat="45.85964" lon="4.70827">
        <ele>196</ele>
        <time>2018-07-27T09:21:19Z</time>
      </trkpt>
      <trkpt lat="45.85963" lon="4.70821">
        <ele>195</ele>
        <time>2018-07-27T09:21:20Z</time>
      </trkpt>
      <trkpt lat="45.85962" lon="4.70813">
        <ele>195</ele>
        <time>2018-07-27T09:21:21Z</time>
      </trkpt>
      <trkpt lat="45.85961" lon="4.70806">
        <ele>195</ele>
        <time>2018-07-27T09:21:22Z</time>
      </trkpt>
      <trkpt lat="45.85959" lon="4.70797">
        <ele>195</ele>
        <time>2018-07-27T09:21:23Z</time>
      </trkpt>
      <trkpt lat="45.85957" lon="4.70789">
        <ele>195</ele>
        <time>2018-07-27T09:21:24Z</time>
      </trkpt>
      <trkpt lat="45.85959" lon="4.70781">
        <ele>195</ele>
        <time>2018-07-27T09:21:25Z</time>
      </trkpt>
      <trkpt lat="45.85958" lon="4.70773">
        <ele>195</ele>
        <time>2018-07-27T09:21:26Z</time>
      </trkpt>
      <trkpt lat="45.85959" lon="4.70764">
        <ele>195</ele>
        <time>2018-07-27T09:21:27Z</time>
      </trkpt>
      <trkpt lat="45.8596" lon="4.70755">
        <ele>195</ele>
        <time>2018-07-27T09:21:28Z</time>
      </trkpt>
      <trkpt lat="45.85961" lon="4.70748">
        <ele>194</ele>
        <time>2018-07-27T09:21:29Z</time>
      </trkpt>
      <trkpt lat="45.85961" lon="4.7074">
        <ele>194</ele>
        <time>2018-07-27T09:21:30Z</time>
      </trkpt>
      <trkpt lat="45.85962" lon="4.70732">
        <ele>194</ele>
        <time>2018-07-27T09:21:31Z</time>
      </trkpt>
      <trkpt lat="45.85963" lon="4.70725">
        <ele>194</ele>
        <time>2018-07-27T09:21:32Z</time>
      </trkpt>
      <trkpt lat="45.85964" lon="4.70718">
        <ele>194</ele>
        <time>2018-07-27T09:21:33Z</time>
      </trkpt>
      <trkpt lat="45.85966" lon="4.70711">
        <ele>194</ele>
        <time>2018-07-27T09:21:34Z</time>
      </trkpt>
      <trkpt lat="45.85967" lon="4.70704">
        <ele>194</ele>
        <time>2018-07-27T09:21:35Z</time>
      </trkpt>
      <trkpt lat="45.85969" lon="4.70698">
        <ele>194</ele>
        <time>2018-07-27T09:21:36Z</time>
      </trkpt>
      <trkpt lat="45.8597" lon="4.70691">
        <ele>194</ele>
        <time>2018-07-27T09:21:37Z</time>
      </trkpt>
      <trkpt lat="45.85965" lon="4.70681">
        <ele>194</ele>
        <time>2018-07-27T09:21:38Z</time>
      </trkpt>
      <trkpt lat="45.85962" lon="4.70674">
        <ele>194</ele>
        <time>2018-07-27T09:21:39Z</time>
      </trkpt>
      <trkpt lat="45.85957" lon="4.70667">
        <ele>194</ele>
        <time>2018-07-27T09:21:40Z</time>
      </trkpt>
      <trkpt lat="45.85953" lon="4.70661">
        <ele>194</ele>
        <time>2018-07-27T09:21:41Z</time>
      </trkpt>
      <trkpt lat="45.85949" lon="4.70652">
        <ele>194</ele>
        <time>2018-07-27T09:21:42Z</time>
      </trkpt>
      <trkpt lat="45.85945" lon="4.70645">
        <ele>194</ele>
        <time>2018-07-27T09:21:43Z</time>
      </trkpt>
      <trkpt lat="45.85938" lon="4.70636">
        <ele>194</ele>
        <time>2018-07-27T09:21:44Z</time>
      </trkpt>
      <trkpt lat="45.85934" lon="4.7063">
        <ele>194</ele>
        <time>2018-07-27T09:21:45Z</time>
      </trkpt>
      <trkpt lat="45.8593" lon="4.70624">
        <ele>194</ele>
        <time>2018-07-27T09:21:46Z</time>
      </trkpt>
      <trkpt lat="45.85927" lon="4.70618">
        <ele>194</ele>
        <time>2018-07-27T09:21:47Z</time>
      </trkpt>
      <trkpt lat="45.85922" lon="4.70613">
        <ele>194</ele>
        <time>2018-07-27T09:21:48Z</time>
      </trkpt>
      <trkpt lat="45.85919" lon="4.70607">
        <ele>194</ele>
        <time>2018-07-27T09:21:49Z</time>
      </trkpt>
      <trkpt lat="45.85916" lon="4.70602">
        <ele>195</ele>
        <time>2018-07-27T09:21:50Z</time>
      </trkpt>
      <trkpt lat="45.85912" lon="4.70597">
        <ele>195</ele>
        <time>2018-07-27T09:21:51Z</time>
      </trkpt>
      <trkpt lat="45.85909" lon="4.70593">
        <ele>195</ele>
        <time>2018-07-27T09:21:52Z</time>
      </trkpt>
      <trkpt lat="45.85906" lon="4.70588">
        <ele>195</ele>
        <time>2018-07-27T09:21:53Z</time>
      </trkpt>
      <trkpt lat="45.85901" lon="4.70584">
        <ele>195</ele>
        <time>2018-07-27T09:21:54Z</time>
      </trkpt>
      <trkpt lat="45.85895" lon="4.7058">
        <ele>195</ele>
        <time>2018-07-27T09:21:55Z</time>
      </trkpt>
      <trkpt lat="45.85891" lon="4.70578">
        <ele>195</ele>
        <time>2018-07-27T09:21:56Z</time>
      </trkpt>
      <trkpt lat="45.85883" lon="4.70576">
        <ele>195</ele>
        <time>2018-07-27T09:21:57Z</time>
      </trkpt>
      <trkpt lat="45.85877" lon="4.70574">
        <ele>195</ele>
        <time>2018-07-27T09:21:58Z</time>
      </trkpt>
      <trkpt lat="45.85873" lon="4.70572">
        <ele>195</ele>
        <time>2018-07-27T09:21:59Z</time>
      </trkpt>
      <trkpt lat="45.85867" lon="4.70571">
        <ele>195</ele>
        <time>2018-07-27T09:22:00Z</time>
      </trkpt>
      <trkpt lat="45.85861" lon="4.70569">
        <ele>195</ele>
        <time>2018-07-27T09:22:01Z</time>
      </trkpt>
      <trkpt lat="45.85856" lon="4.70568">
        <ele>195</ele>
        <time>2018-07-27T09:22:02Z</time>
      </trkpt>
      <trkpt lat="45.8585" lon="4.70565">
        <ele>195</ele>
        <time>2018-07-27T09:22:03Z</time>
      </trkpt>
      <trkpt lat="45.85843" lon="4.70563">
        <ele>195</ele>
        <time>2018-07-27T09:22:04Z</time>
      </trkpt>
      <trkpt lat="45.85838" lon="4.7056">
        <ele>195</ele>
        <time>2018-07-27T09:22:05Z</time>
      </trkpt>
      <trkpt lat="45.85833" lon="4.70556">
        <ele>195</ele>
        <time>2018-07-27T09:22:06Z</time>
      </trkpt>
      <trkpt lat="45.85828" lon="4.70554">
        <ele>195</ele>
        <time>2018-07-27T09:22:07Z</time>
      </trkpt>
      <trkpt lat="45.85822" lon="4.7055">
        <ele>195</ele>
        <time>2018-07-27T09:22:08Z</time>
      </trkpt>
      <trkpt lat="45.85815" lon="4.70548">
        <ele>195</ele>
        <time>2018-07-27T09:22:09Z</time>
      </trkpt>
      <trkpt lat="45.85809" lon="4.70545">
        <ele>195</ele>
        <time>2018-07-27T09:22:10Z</time>
      </trkpt>
      <trkpt lat="45.85803" lon="4.70542">
        <ele>195</ele>
        <time>2018-07-27T09:22:11Z</time>
      </trkpt>
      <trkpt lat="45.85799" lon="4.7054">
        <ele>195</ele>
        <time>2018-07-27T09:22:12Z</time>
      </trkpt>
      <trkpt lat="45.85794" lon="4.70538">
        <ele>195</ele>
        <time>2018-07-27T09:22:13Z</time>
      </trkpt>
      <trkpt lat="45.85789" lon="4.70536">
        <ele>196</ele>
        <time>2018-07-27T09:22:14Z</time>
      </trkpt>
      <trkpt lat="45.85781" lon="4.7053">
        <ele>196</ele>
        <time>2018-07-27T09:22:16Z</time>
      </trkpt>
      <trkpt lat="45.85776" lon="4.70527">
        <ele>196</ele>
        <time>2018-07-27T09:22:17Z</time>
      </trkpt>
      <trkpt lat="45.85772" lon="4.70524">
        <ele>196</ele>
        <time>2018-07-27T09:22:18Z</time>
      </trkpt>
      <trkpt lat="45.85768" lon="4.7052">
        <ele>196</ele>
        <time>2018-07-27T09:22:19Z</time>
      </trkpt>
      <trkpt lat="45.85764" lon="4.70516">
        <ele>196</ele>
        <time>2018-07-27T09:22:20Z</time>
      </trkpt>
      <trkpt lat="45.8576" lon="4.70512">
        <ele>196</ele>
        <time>2018-07-27T09:22:21Z</time>
      </trkpt>
      <trkpt lat="45.85755" lon="4.70509">
        <ele>196</ele>
        <time>2018-07-27T09:22:22Z</time>
      </trkpt>
      <trkpt lat="45.85751" lon="4.70505">
        <ele>196</ele>
        <time>2018-07-27T09:22:23Z</time>
      </trkpt>
      <trkpt lat="45.85745" lon="4.70502">
        <ele>196</ele>
        <time>2018-07-27T09:22:24Z</time>
      </trkpt>
      <trkpt lat="45.8574" lon="4.70499">
        <ele>196</ele>
        <time>2018-07-27T09:22:25Z</time>
      </trkpt>
      <trkpt lat="45.85735" lon="4.70495">
        <ele>196</ele>
        <time>2018-07-27T09:22:26Z</time>
      </trkpt>
      <trkpt lat="45.85731" lon="4.7049">
        <ele>196</ele>
        <time>2018-07-27T09:22:27Z</time>
      </trkpt>
      <trkpt lat="45.85729" lon="4.70484">
        <ele>196</ele>
        <time>2018-07-27T09:22:28Z</time>
      </trkpt>
      <trkpt lat="45.85726" lon="4.70477">
        <ele>196</ele>
        <time>2018-07-27T09:22:29Z</time>
      </trkpt>
      <trkpt lat="45.85725" lon="4.7047">
        <ele>196</ele>
        <time>2018-07-27T09:22:30Z</time>
      </trkpt>
      <trkpt lat="45.85724" lon="4.70462">
        <ele>196</ele>
        <time>2018-07-27T09:22:31Z</time>
      </trkpt>
      <trkpt lat="45.85723" lon="4.70454">
        <ele>196</ele>
        <time>2018-07-27T09:22:32Z</time>
      </trkpt>
      <trkpt lat="45.85722" lon="4.70446">
        <ele>196</ele>
        <time>2018-07-27T09:22:33Z</time>
      </trkpt>
      <trkpt lat="45.8572" lon="4.70438">
        <ele>196</ele>
        <time>2018-07-27T09:22:34Z</time>
      </trkpt>
      <trkpt lat="45.85721" lon="4.7043">
        <ele>196</ele>
        <time>2018-07-27T09:22:35Z</time>
      </trkpt>
      <trkpt lat="45.8572" lon="4.70422">
        <ele>196</ele>
        <time>2018-07-27T09:22:36Z</time>
      </trkpt>
      <trkpt lat="45.85719" lon="4.70414">
        <ele>196</ele>
        <time>2018-07-27T09:22:37Z</time>
      </trkpt>
      <trkpt lat="45.85717" lon="4.70406">
        <ele>196</ele>
        <time>2018-07-27T09:22:38Z</time>
      </trkpt>
      <trkpt lat="45.85716" lon="4.70396">
        <ele>196</ele>
        <time>2018-07-27T09:22:39Z</time>
      </trkpt>
      <trkpt lat="45.85715" lon="4.70387">
        <ele>196</ele>
        <time>2018-07-27T09:22:40Z</time>
      </trkpt>
      <trkpt lat="45.85714" lon="4.70378">
        <ele>196</ele>
        <time>2018-07-27T09:22:41Z</time>
      </trkpt>
      <trkpt lat="45.85714" lon="4.70369">
        <ele>196</ele>
        <time>2018-07-27T09:22:42Z</time>
      </trkpt>
      <trkpt lat="45.85713" lon="4.70361">
        <ele>196</ele>
        <time>2018-07-27T09:22:43Z</time>
      </trkpt>
      <trkpt lat="45.85712" lon="4.70352">
        <ele>196</ele>
        <time>2018-07-27T09:22:44Z</time>
      </trkpt>
      <trkpt lat="45.85711" lon="4.70344">
        <ele>196</ele>
        <time>2018-07-27T09:22:45Z</time>
      </trkpt>
      <trkpt lat="45.85711" lon="4.70335">
        <ele>196</ele>
        <time>2018-07-27T09:22:46Z</time>
      </trkpt>
      <trkpt lat="45.8571" lon="4.70325">
        <ele>197</ele>
        <time>2018-07-27T09:22:47Z</time>
      </trkpt>
      <trkpt lat="45.85709" lon="4.70316">
        <ele>197</ele>
        <time>2018-07-27T09:22:48Z</time>
      </trkpt>
      <trkpt lat="45.85708" lon="4.70308">
        <ele>197</ele>
        <time>2018-07-27T09:22:49Z</time>
      </trkpt>
      <trkpt lat="45.85707" lon="4.70299">
        <ele>197</ele>
        <time>2018-07-27T09:22:50Z</time>
      </trkpt>
      <trkpt lat="45.85705" lon="4.70289">
        <ele>197</ele>
        <time>2018-07-27T09:22:51Z</time>
      </trkpt>
      <trkpt lat="45.85705" lon="4.7028">
        <ele>197</ele>
        <time>2018-07-27T09:22:52Z</time>
      </trkpt>
      <trkpt lat="45.85703" lon="4.7027">
        <ele>197</ele>
        <time>2018-07-27T09:22:53Z</time>
      </trkpt>
      <trkpt lat="45.85702" lon="4.70262">
        <ele>197</ele>
        <time>2018-07-27T09:22:54Z</time>
      </trkpt>
      <trkpt lat="45.85701" lon="4.70252">
        <ele>197</ele>
        <time>2018-07-27T09:22:55Z</time>
      </trkpt>
      <trkpt lat="45.857" lon="4.70243">
        <ele>197</ele>
        <time>2018-07-27T09:22:56Z</time>
      </trkpt>
      <trkpt lat="45.85698" lon="4.70235">
        <ele>197</ele>
        <time>2018-07-27T09:22:57Z</time>
      </trkpt>
      <trkpt lat="45.85697" lon="4.70227">
        <ele>197</ele>
        <time>2018-07-27T09:22:58Z</time>
      </trkpt>
      <trkpt lat="45.85696" lon="4.70218">
        <ele>197</ele>
        <time>2018-07-27T09:22:59Z</time>
      </trkpt>
      <trkpt lat="45.85695" lon="4.70211">
        <ele>197</ele>
        <time>2018-07-27T09:23:00Z</time>
      </trkpt>
      <trkpt lat="45.85694" lon="4.70203">
        <ele>197</ele>
        <time>2018-07-27T09:23:01Z</time>
      </trkpt>
      <trkpt lat="45.85692" lon="4.70195">
        <ele>197</ele>
        <time>2018-07-27T09:23:02Z</time>
      </trkpt>
      <trkpt lat="45.8569" lon="4.70187">
        <ele>197</ele>
        <time>2018-07-27T09:23:03Z</time>
      </trkpt>
      <trkpt lat="45.85687" lon="4.70179">
        <ele>197</ele>
        <time>2018-07-27T09:23:04Z</time>
      </trkpt>
      <trkpt lat="45.85685" lon="4.7017">
        <ele>197</ele>
        <time>2018-07-27T09:23:05Z</time>
      </trkpt>
      <trkpt lat="45.85685" lon="4.70163">
        <ele>197</ele>
        <time>2018-07-27T09:23:06Z</time>
      </trkpt>
      <trkpt lat="45.85685" lon="4.70152">
        <ele>197</ele>
        <time>2018-07-27T09:23:07Z</time>
      </trkpt>
      <trkpt lat="45.85684" lon="4.70144">
        <ele>197</ele>
        <time>2018-07-27T09:23:08Z</time>
      </trkpt>
      <trkpt lat="45.85683" lon="4.70135">
        <ele>197</ele>
        <time>2018-07-27T09:23:09Z</time>
      </trkpt>
      <trkpt lat="45.85681" lon="4.70127">
        <ele>197</ele>
        <time>2018-07-27T09:23:10Z</time>
      </trkpt>
      <trkpt lat="45.85682" lon="4.70118">
        <ele>197</ele>
        <time>2018-07-27T09:23:11Z</time>
      </trkpt>
      <trkpt lat="45.85682" lon="4.70109">
        <ele>197</ele>
        <time>2018-07-27T09:23:12Z</time>
      </trkpt>
      <trkpt lat="45.85682" lon="4.701">
        <ele>196</ele>
        <time>2018-07-27T09:23:13Z</time>
      </trkpt>
      <trkpt lat="45.85681" lon="4.70091">
        <ele>196</ele>
        <time>2018-07-27T09:23:14Z</time>
      </trkpt>
      <trkpt lat="45.85683" lon="4.70083">
        <ele>196</ele>
        <time>2018-07-27T09:23:15Z</time>
      </trkpt>
      <trkpt lat="45.85684" lon="4.70075">
        <ele>196</ele>
        <time>2018-07-27T09:23:16Z</time>
      </trkpt>
      <trkpt lat="45.85685" lon="4.70068">
        <ele>196</ele>
        <time>2018-07-27T09:23:17Z</time>
      </trkpt>
      <trkpt lat="45.85686" lon="4.7006">
        <ele>195</ele>
        <time>2018-07-27T09:23:18Z</time>
      </trkpt>
      <trkpt lat="45.85688" lon="4.70054">
        <ele>195</ele>
        <time>2018-07-27T09:23:19Z</time>
      </trkpt>
      <trkpt lat="45.8569" lon="4.70048">
        <ele>195</ele>
        <time>2018-07-27T09:23:20Z</time>
      </trkpt>
      <trkpt lat="45.85692" lon="4.7004">
        <ele>195</ele>
        <time>2018-07-27T09:23:21Z</time>
      </trkpt>
      <trkpt lat="45.85694" lon="4.70032">
        <ele>195</ele>
        <time>2018-07-27T09:23:22Z</time>
      </trkpt>
      <trkpt lat="45.85693" lon="4.70022">
        <ele>195</ele>
        <time>2018-07-27T09:23:23Z</time>
      </trkpt>
      <trkpt lat="45.85695" lon="4.70013">
        <ele>195</ele>
        <time>2018-07-27T09:23:24Z</time>
      </trkpt>
      <trkpt lat="45.85695" lon="4.70005">
        <ele>195</ele>
        <time>2018-07-27T09:23:25Z</time>
      </trkpt>
      <trkpt lat="45.85695" lon="4.69995">
        <ele>195</ele>
        <time>2018-07-27T09:23:26Z</time>
      </trkpt>
      <trkpt lat="45.85694" lon="4.69985">
        <ele>195</ele>
        <time>2018-07-27T09:23:27Z</time>
      </trkpt>
      <trkpt lat="45.85693" lon="4.69976">
        <ele>195</ele>
        <time>2018-07-27T09:23:28Z</time>
      </trkpt>
      <trkpt lat="45.85691" lon="4.69967">
        <ele>195</ele>
        <time>2018-07-27T09:23:29Z</time>
      </trkpt>
      <trkpt lat="45.85689" lon="4.69958">
        <ele>195</ele>
        <time>2018-07-27T09:23:30Z</time>
      </trkpt>
      <trkpt lat="45.85686" lon="4.69947">
        <ele>195</ele>
        <time>2018-07-27T09:23:31Z</time>
      </trkpt>
      <trkpt lat="45.85683" lon="4.69938">
        <ele>195</ele>
        <time>2018-07-27T09:23:32Z</time>
      </trkpt>
      <trkpt lat="45.8568" lon="4.6993">
        <ele>195</ele>
        <time>2018-07-27T09:23:33Z</time>
      </trkpt>
      <trkpt lat="45.85678" lon="4.6992">
        <ele>195</ele>
        <time>2018-07-27T09:23:34Z</time>
      </trkpt>
      <trkpt lat="45.85674" lon="4.69911">
        <ele>195</ele>
        <time>2018-07-27T09:23:35Z</time>
      </trkpt>
      <trkpt lat="45.85672" lon="4.69901">
        <ele>195</ele>
        <time>2018-07-27T09:23:36Z</time>
      </trkpt>
      <trkpt lat="45.85672" lon="4.69893">
        <ele>195</ele>
        <time>2018-07-27T09:23:37Z</time>
      </trkpt>
      <trkpt lat="45.85671" lon="4.69884">
        <ele>195</ele>
        <time>2018-07-27T09:23:38Z</time>
      </trkpt>
      <trkpt lat="45.85669" lon="4.69876">
        <ele>195</ele>
        <time>2018-07-27T09:23:39Z</time>
      </trkpt>
      <trkpt lat="45.85667" lon="4.69867">
        <ele>195</ele>
        <time>2018-07-27T09:23:40Z</time>
      </trkpt>
      <trkpt lat="45.85666" lon="4.6986">
        <ele>195</ele>
        <time>2018-07-27T09:23:41Z</time>
      </trkpt>
      <trkpt lat="45.85665" lon="4.69852">
        <ele>195</ele>
        <time>2018-07-27T09:23:42Z</time>
      </trkpt>
      <trkpt lat="45.85664" lon="4.69845">
        <ele>195</ele>
        <time>2018-07-27T09:23:43Z</time>
      </trkpt>
      <trkpt lat="45.85663" lon="4.69836">
        <ele>195</ele>
        <time>2018-07-27T09:23:44Z</time>
      </trkpt>
      <trkpt lat="45.85663" lon="4.69829">
        <ele>195</ele>
        <time>2018-07-27T09:23:45Z</time>
      </trkpt>
      <trkpt lat="45.85663" lon="4.69822">
        <ele>195</ele>
        <time>2018-07-27T09:23:46Z</time>
      </trkpt>
      <trkpt lat="45.85662" lon="4.69813">
        <ele>195</ele>
        <time>2018-07-27T09:23:47Z</time>
      </trkpt>
      <trkpt lat="45.85661" lon="4.69804">
        <ele>195</ele>
        <time>2018-07-27T09:23:48Z</time>
      </trkpt>
      <trkpt lat="45.85659" lon="4.69796">
        <ele>195</ele>
        <time>2018-07-27T09:23:49Z</time>
      </trkpt>
      <trkpt lat="45.8566" lon="4.69789">
        <ele>195</ele>
        <time>2018-07-27T09:23:50Z</time>
      </trkpt>
      <trkpt lat="45.8566" lon="4.69782">
        <ele>195</ele>
        <time>2018-07-27T09:23:51Z</time>
      </trkpt>
      <trkpt lat="45.85657" lon="4.69774">
        <ele>195</ele>
        <time>2018-07-27T09:23:52Z</time>
      </trkpt>
      <trkpt lat="45.85656" lon="4.69765">
        <ele>195</ele>
        <time>2018-07-27T09:23:53Z</time>
      </trkpt>
      <trkpt lat="45.85656" lon="4.69757">
        <ele>195</ele>
        <time>2018-07-27T09:23:54Z</time>
      </trkpt>
      <trkpt lat="45.85655" lon="4.69749">
        <ele>195</ele>
        <time>2018-07-27T09:23:55Z</time>
      </trkpt>
      <trkpt lat="45.85655" lon="4.69739">
        <ele>195</ele>
        <time>2018-07-27T09:23:56Z</time>
      </trkpt>
      <trkpt lat="45.85654" lon="4.6973">
        <ele>195</ele>
        <time>2018-07-27T09:23:57Z</time>
      </trkpt>
      <trkpt lat="45.85653" lon="4.69721">
        <ele>195</ele>
        <time>2018-07-27T09:23:58Z</time>
      </trkpt>
      <trkpt lat="45.85652" lon="4.69713">
        <ele>196</ele>
        <time>2018-07-27T09:23:59Z</time>
      </trkpt>
      <trkpt lat="45.85652" lon="4.69704">
        <ele>196</ele>
        <time>2018-07-27T09:24:00Z</time>
      </trkpt>
      <trkpt lat="45.85652" lon="4.69696">
        <ele>196</ele>
        <time>2018-07-27T09:24:01Z</time>
      </trkpt>
      <trkpt lat="45.85652" lon="4.69688">
        <ele>196</ele>
        <time>2018-07-27T09:24:02Z</time>
      </trkpt>
      <trkpt lat="45.8565" lon="4.69681">
        <ele>196</ele>
        <time>2018-07-27T09:24:03Z</time>
      </trkpt>
      <trkpt lat="45.85649" lon="4.69672">
        <ele>196</ele>
        <time>2018-07-27T09:24:04Z</time>
      </trkpt>
      <trkpt lat="45.85649" lon="4.69664">
        <ele>197</ele>
        <time>2018-07-27T09:24:05Z</time>
      </trkpt>
      <trkpt lat="45.85648" lon="4.69656">
        <ele>197</ele>
        <time>2018-07-27T09:24:06Z</time>
      </trkpt>
      <trkpt lat="45.85648" lon="4.69648">
        <ele>197</ele>
        <time>2018-07-27T09:24:07Z</time>
      </trkpt>
      <trkpt lat="45.85647" lon="4.69639">
        <ele>197</ele>
        <time>2018-07-27T09:24:08Z</time>
      </trkpt>
      <trkpt lat="45.85647" lon="4.69631">
        <ele>197</ele>
        <time>2018-07-27T09:24:09Z</time>
      </trkpt>
      <trkpt lat="45.85646" lon="4.69623">
        <ele>197</ele>
        <time>2018-07-27T09:24:10Z</time>
      </trkpt>
      <trkpt lat="45.85646" lon="4.69615">
        <ele>197</ele>
        <time>2018-07-27T09:24:11Z</time>
      </trkpt>
      <trkpt lat="45.85644" lon="4.69606">
        <ele>197</ele>
        <time>2018-07-27T09:24:12Z</time>
      </trkpt>
      <trkpt lat="45.85644" lon="4.69598">
        <ele>197</ele>
        <time>2018-07-27T09:24:13Z</time>
      </trkpt>
      <trkpt lat="45.85644" lon="4.6959">
        <ele>197</ele>
        <time>2018-07-27T09:24:14Z</time>
      </trkpt>
      <trkpt lat="45.85642" lon="4.69579">
        <ele>198</ele>
        <time>2018-07-27T09:24:15Z</time>
      </trkpt>
      <trkpt lat="45.85642" lon="4.69571">
        <ele>198</ele>
        <time>2018-07-27T09:24:16Z</time>
      </trkpt>
      <trkpt lat="45.85641" lon="4.69562">
        <ele>198</ele>
        <time>2018-07-27T09:24:17Z</time>
      </trkpt>
      <trkpt lat="45.8564" lon="4.69554">
        <ele>198</ele>
        <time>2018-07-27T09:24:18Z</time>
      </trkpt>
      <trkpt lat="45.8564" lon="4.69546">
        <ele>198</ele>
        <time>2018-07-27T09:24:19Z</time>
      </trkpt>
      <trkpt lat="45.85639" lon="4.69538">
        <ele>198</ele>
        <time>2018-07-27T09:24:20Z</time>
      </trkpt>
      <trkpt lat="45.85636" lon="4.69528">
        <ele>198</ele>
        <time>2018-07-27T09:24:21Z</time>
      </trkpt>
      <trkpt lat="45.85635" lon="4.69519">
        <ele>198</ele>
        <time>2018-07-27T09:24:22Z</time>
      </trkpt>
      <trkpt lat="45.85636" lon="4.69513">
        <ele>198</ele>
        <time>2018-07-27T09:24:23Z</time>
      </trkpt>
      <trkpt lat="45.85635" lon="4.69503">
        <ele>198</ele>
        <time>2018-07-27T09:24:24Z</time>
      </trkpt>
      <trkpt lat="45.85634" lon="4.69494">
        <ele>198</ele>
        <time>2018-07-27T09:24:25Z</time>
      </trkpt>
      <trkpt lat="45.85632" lon="4.69485">
        <ele>198</ele>
        <time>2018-07-27T09:24:26Z</time>
      </trkpt>
      <trkpt lat="45.85633" lon="4.69478">
        <ele>198</ele>
        <time>2018-07-27T09:24:27Z</time>
      </trkpt>
      <trkpt lat="45.85632" lon="4.69471">
        <ele>198</ele>
        <time>2018-07-27T09:24:28Z</time>
      </trkpt>
      <trkpt lat="45.85631" lon="4.69463">
        <ele>198</ele>
        <time>2018-07-27T09:24:29Z</time>
      </trkpt>
      <trkpt lat="45.85628" lon="4.69453">
        <ele>198</ele>
        <time>2018-07-27T09:24:30Z</time>
      </trkpt>
      <trkpt lat="45.85627" lon="4.69446">
        <ele>198</ele>
        <time>2018-07-27T09:24:31Z</time>
      </trkpt>
      <trkpt lat="45.85624" lon="4.69438">
        <ele>198</ele>
        <time>2018-07-27T09:24:32Z</time>
      </trkpt>
      <trkpt lat="45.85622" lon="4.69431">
        <ele>198</ele>
        <time>2018-07-27T09:24:33Z</time>
      </trkpt>
      <trkpt lat="45.85621" lon="4.69424">
        <ele>198</ele>
        <time>2018-07-27T09:24:34Z</time>
      </trkpt>
      <trkpt lat="45.85621" lon="4.69417">
        <ele>198</ele>
        <time>2018-07-27T09:24:35Z</time>
      </trkpt>
      <trkpt lat="45.85621" lon="4.69409">
        <ele>198</ele>
        <time>2018-07-27T09:24:36Z</time>
      </trkpt>
      <trkpt lat="45.85619" lon="4.69401">
        <ele>198</ele>
        <time>2018-07-27T09:24:37Z</time>
      </trkpt>
      <trkpt lat="45.85619" lon="4.69392">
        <ele>198</ele>
        <time>2018-07-27T09:24:38Z</time>
      </trkpt>
      <trkpt lat="45.85617" lon="4.69384">
        <ele>198</ele>
        <time>2018-07-27T09:24:39Z</time>
      </trkpt>
      <trkpt lat="45.85617" lon="4.69375">
        <ele>198</ele>
        <time>2018-07-27T09:24:40Z</time>
      </trkpt>
      <trkpt lat="45.85617" lon="4.69367">
        <ele>198</ele>
        <time>2018-07-27T09:24:41Z</time>
      </trkpt>
      <trkpt lat="45.85617" lon="4.69358">
        <ele>198</ele>
        <time>2018-07-27T09:24:42Z</time>
      </trkpt>
      <trkpt lat="45.85617" lon="4.6935">
        <ele>198</ele>
        <time>2018-07-27T09:24:43Z</time>
      </trkpt>
      <trkpt lat="45.85616" lon="4.69342">
        <ele>198</ele>
        <time>2018-07-27T09:24:44Z</time>
      </trkpt>
      <trkpt lat="45.85616" lon="4.69334">
        <ele>198</ele>
        <time>2018-07-27T09:24:45Z</time>
      </trkpt>
      <trkpt lat="45.85614" lon="4.69326">
        <ele>198</ele>
        <time>2018-07-27T09:24:46Z</time>
      </trkpt>
      <trkpt lat="45.85614" lon="4.6932">
        <ele>198</ele>
        <time>2018-07-27T09:24:47Z</time>
      </trkpt>
      <trkpt lat="45.85613" lon="4.69307">
        <ele>198</ele>
        <time>2018-07-27T09:24:49Z</time>
      </trkpt>
      <trkpt lat="45.85613" lon="4.693">
        <ele>198</ele>
        <time>2018-07-27T09:24:50Z</time>
      </trkpt>
      <trkpt lat="45.85613" lon="4.69293">
        <ele>198</ele>
        <time>2018-07-27T09:24:51Z</time>
      </trkpt>
      <trkpt lat="45.85613" lon="4.69286">
        <ele>198</ele>
        <time>2018-07-27T09:24:52Z</time>
      </trkpt>
      <trkpt lat="45.85614" lon="4.6928">
        <ele>198</ele>
        <time>2018-07-27T09:24:53Z</time>
      </trkpt>
      <trkpt lat="45.85616" lon="4.69274">
        <ele>198</ele>
        <time>2018-07-27T09:24:54Z</time>
      </trkpt>
      <trkpt lat="45.85615" lon="4.69265">
        <ele>198</ele>
        <time>2018-07-27T09:24:55Z</time>
      </trkpt>
      <trkpt lat="45.85615" lon="4.69258">
        <ele>198</ele>
        <time>2018-07-27T09:24:56Z</time>
      </trkpt>
      <trkpt lat="45.85612" lon="4.69251">
        <ele>198</ele>
        <time>2018-07-27T09:24:57Z</time>
      </trkpt>
      <trkpt lat="45.8561" lon="4.69244">
        <ele>199</ele>
        <time>2018-07-27T09:24:58Z</time>
      </trkpt>
      <trkpt lat="45.85608" lon="4.69236">
        <ele>199</ele>
        <time>2018-07-27T09:24:59Z</time>
      </trkpt>
      <trkpt lat="45.85606" lon="4.69228">
        <ele>199</ele>
        <time>2018-07-27T09:25:00Z</time>
      </trkpt>
      <trkpt lat="45.85604" lon="4.69219">
        <ele>199</ele>
        <time>2018-07-27T09:25:01Z</time>
      </trkpt>
      <trkpt lat="45.85603" lon="4.6921">
        <ele>199</ele>
        <time>2018-07-27T09:25:02Z</time>
      </trkpt>
      <trkpt lat="45.85603" lon="4.69202">
        <ele>199</ele>
        <time>2018-07-27T09:25:03Z</time>
      </trkpt>
      <trkpt lat="45.85603" lon="4.69194">
        <ele>199</ele>
        <time>2018-07-27T09:25:04Z</time>
      </trkpt>
      <trkpt lat="45.85603" lon="4.69187">
        <ele>199</ele>
        <time>2018-07-27T09:25:05Z</time>
      </trkpt>
      <trkpt lat="45.85605" lon="4.69181">
        <ele>199</ele>
        <time>2018-07-27T09:25:06Z</time>
      </trkpt>
      <trkpt lat="45.85599" lon="4.69169">
        <ele>199</ele>
        <time>2018-07-27T09:25:07Z</time>
      </trkpt>
      <trkpt lat="45.85603" lon="4.69157">
        <ele>199</ele>
        <time>2018-07-27T09:25:09Z</time>
      </trkpt>
      <trkpt lat="45.85603" lon="4.69149">
        <ele>199</ele>
        <time>2018-07-27T09:25:10Z</time>
      </trkpt>
      <trkpt lat="45.85601" lon="4.6914">
        <ele>198</ele>
        <time>2018-07-27T09:25:11Z</time>
      </trkpt>
      <trkpt lat="45.85601" lon="4.69132">
        <ele>198</ele>
        <time>2018-07-27T09:25:12Z</time>
      </trkpt>
      <trkpt lat="45.856" lon="4.69124">
        <ele>198</ele>
        <time>2018-07-27T09:25:13Z</time>
      </trkpt>
      <trkpt lat="45.85599" lon="4.69115">
        <ele>198</ele>
        <time>2018-07-27T09:25:14Z</time>
      </trkpt>
      <trkpt lat="45.85598" lon="4.69106">
        <ele>198</ele>
        <time>2018-07-27T09:25:15Z</time>
      </trkpt>
      <trkpt lat="45.85596" lon="4.69098">
        <ele>199</ele>
        <time>2018-07-27T09:25:16Z</time>
      </trkpt>
      <trkpt lat="45.85596" lon="4.69089">
        <ele>199</ele>
        <time>2018-07-27T09:25:17Z</time>
      </trkpt>
      <trkpt lat="45.85595" lon="4.69079">
        <ele>199</ele>
        <time>2018-07-27T09:25:18Z</time>
      </trkpt>
      <trkpt lat="45.85595" lon="4.69071">
        <ele>199</ele>
        <time>2018-07-27T09:25:19Z</time>
      </trkpt>
      <trkpt lat="45.85592" lon="4.69062">
        <ele>199</ele>
        <time>2018-07-27T09:25:20Z</time>
      </trkpt>
      <trkpt lat="45.85592" lon="4.69055">
        <ele>199</ele>
        <time>2018-07-27T09:25:21Z</time>
      </trkpt>
      <trkpt lat="45.8559" lon="4.69045">
        <ele>199</ele>
        <time>2018-07-27T09:25:22Z</time>
      </trkpt>
      <trkpt lat="45.85591" lon="4.69037">
        <ele>199</ele>
        <time>2018-07-27T09:25:23Z</time>
      </trkpt>
      <trkpt lat="45.8559" lon="4.6903">
        <ele>199</ele>
        <time>2018-07-27T09:25:24Z</time>
      </trkpt>
      <trkpt lat="45.85589" lon="4.6902">
        <ele>199</ele>
        <time>2018-07-27T09:25:25Z</time>
      </trkpt>
      <trkpt lat="45.85589" lon="4.69011">
        <ele>200</ele>
        <time>2018-07-27T09:25:26Z</time>
      </trkpt>
      <trkpt lat="45.8559" lon="4.69005">
        <ele>200</ele>
        <time>2018-07-27T09:25:27Z</time>
      </trkpt>
      <trkpt lat="45.85589" lon="4.68995">
        <ele>200</ele>
        <time>2018-07-27T09:25:28Z</time>
      </trkpt>
      <trkpt lat="45.85587" lon="4.68985">
        <ele>200</ele>
        <time>2018-07-27T09:25:29Z</time>
      </trkpt>
      <trkpt lat="45.85587" lon="4.68977">
        <ele>200</ele>
        <time>2018-07-27T09:25:30Z</time>
      </trkpt>
      <trkpt lat="45.85587" lon="4.68968">
        <ele>200</ele>
        <time>2018-07-27T09:25:31Z</time>
      </trkpt>
      <trkpt lat="45.85587" lon="4.68959">
        <ele>200</ele>
        <time>2018-07-27T09:25:32Z</time>
      </trkpt>
      <trkpt lat="45.85585" lon="4.68951">
        <ele>200</ele>
        <time>2018-07-27T09:25:33Z</time>
      </trkpt>
      <trkpt lat="45.85585" lon="4.68944">
        <ele>200</ele>
        <time>2018-07-27T09:25:34Z</time>
      </trkpt>
      <trkpt lat="45.85584" lon="4.68936">
        <ele>200</ele>
        <time>2018-07-27T09:25:35Z</time>
      </trkpt>
      <trkpt lat="45.85583" lon="4.68927">
        <ele>200</ele>
        <time>2018-07-27T09:25:36Z</time>
      </trkpt>
      <trkpt lat="45.85581" lon="4.68918">
        <ele>200</ele>
        <time>2018-07-27T09:25:37Z</time>
      </trkpt>
      <trkpt lat="45.85581" lon="4.68911">
        <ele>200</ele>
        <time>2018-07-27T09:25:38Z</time>
      </trkpt>
      <trkpt lat="45.8558" lon="4.68902">
        <ele>200</ele>
        <time>2018-07-27T09:25:39Z</time>
      </trkpt>
      <trkpt lat="45.85579" lon="4.68893">
        <ele>200</ele>
        <time>2018-07-27T09:25:40Z</time>
      </trkpt>
      <trkpt lat="45.85577" lon="4.68884">
        <ele>200</ele>
        <time>2018-07-27T09:25:41Z</time>
      </trkpt>
      <trkpt lat="45.85577" lon="4.68875">
        <ele>200</ele>
        <time>2018-07-27T09:25:42Z</time>
      </trkpt>
      <trkpt lat="45.85576" lon="4.68866">
        <ele>200</ele>
        <time>2018-07-27T09:25:43Z</time>
      </trkpt>
      <trkpt lat="45.85575" lon="4.68857">
        <ele>200</ele>
        <time>2018-07-27T09:25:44Z</time>
      </trkpt>
      <trkpt lat="45.85575" lon="4.68847">
        <ele>200</ele>
        <time>2018-07-27T09:25:45Z</time>
      </trkpt>
      <trkpt lat="45.85574" lon="4.68838">
        <ele>200</ele>
        <time>2018-07-27T09:25:46Z</time>
      </trkpt>
      <trkpt lat="45.85573" lon="4.68827">
        <ele>200</ele>
        <time>2018-07-27T09:25:47Z</time>
      </trkpt>
      <trkpt lat="45.85575" lon="4.68819">
        <ele>200</ele>
        <time>2018-07-27T09:25:48Z</time>
      </trkpt>
      <trkpt lat="45.85573" lon="4.68806">
        <ele>200</ele>
        <time>2018-07-27T09:25:49Z</time>
      </trkpt>
      <trkpt lat="45.85574" lon="4.68797">
        <ele>200</ele>
        <time>2018-07-27T09:25:50Z</time>
      </trkpt>
      <trkpt lat="45.85573" lon="4.68785">
        <ele>200</ele>
        <time>2018-07-27T09:25:51Z</time>
      </trkpt>
      <trkpt lat="45.85569" lon="4.68773">
        <ele>200</ele>
        <time>2018-07-27T09:25:52Z</time>
      </trkpt>
      <trkpt lat="45.85566" lon="4.68762">
        <ele>200</ele>
        <time>2018-07-27T09:25:53Z</time>
      </trkpt>
      <trkpt lat="45.85566" lon="4.68751">
        <ele>200</ele>
        <time>2018-07-27T09:25:54Z</time>
      </trkpt>
      <trkpt lat="45.85564" lon="4.6874">
        <ele>200</ele>
        <time>2018-07-27T09:25:55Z</time>
      </trkpt>
      <trkpt lat="45.85565" lon="4.68731">
        <ele>200</ele>
        <time>2018-07-27T09:25:56Z</time>
      </trkpt>
      <trkpt lat="45.85565" lon="4.68721">
        <ele>200</ele>
        <time>2018-07-27T09:25:57Z</time>
      </trkpt>
      <trkpt lat="45.85562" lon="4.68709">
        <ele>200</ele>
        <time>2018-07-27T09:25:58Z</time>
      </trkpt>
      <trkpt lat="45.85561" lon="4.68698">
        <ele>200</ele>
        <time>2018-07-27T09:25:59Z</time>
      </trkpt>
      <trkpt lat="45.8556" lon="4.68688">
        <ele>200</ele>
        <time>2018-07-27T09:26:00Z</time>
      </trkpt>
      <trkpt lat="45.85558" lon="4.68678">
        <ele>200</ele>
        <time>2018-07-27T09:26:01Z</time>
      </trkpt>
      <trkpt lat="45.85557" lon="4.68669">
        <ele>200</ele>
        <time>2018-07-27T09:26:02Z</time>
      </trkpt>
      <trkpt lat="45.85556" lon="4.6866">
        <ele>200</ele>
        <time>2018-07-27T09:26:03Z</time>
      </trkpt>
      <trkpt lat="45.85555" lon="4.68649">
        <ele>201</ele>
        <time>2018-07-27T09:26:04Z</time>
      </trkpt>
      <trkpt lat="45.85556" lon="4.6864">
        <ele>201</ele>
        <time>2018-07-27T09:26:05Z</time>
      </trkpt>
      <trkpt lat="45.85555" lon="4.68631">
        <ele>201</ele>
        <time>2018-07-27T09:26:06Z</time>
      </trkpt>
      <trkpt lat="45.85551" lon="4.68621">
        <ele>201</ele>
        <time>2018-07-27T09:26:07Z</time>
      </trkpt>
      <trkpt lat="45.8555" lon="4.68611">
        <ele>201</ele>
        <time>2018-07-27T09:26:08Z</time>
      </trkpt>
      <trkpt lat="45.85552" lon="4.686">
        <ele>201</ele>
        <time>2018-07-27T09:26:09Z</time>
      </trkpt>
      <trkpt lat="45.85554" lon="4.6859">
        <ele>201</ele>
        <time>2018-07-27T09:26:10Z</time>
      </trkpt>
      <trkpt lat="45.85552" lon="4.68583">
        <ele>201</ele>
        <time>2018-07-27T09:26:11Z</time>
      </trkpt>
      <trkpt lat="45.85547" lon="4.68571">
        <ele>201</ele>
        <time>2018-07-27T09:26:12Z</time>
      </trkpt>
      <trkpt lat="45.85547" lon="4.68563">
        <ele>201</ele>
        <time>2018-07-27T09:26:13Z</time>
      </trkpt>
      <trkpt lat="45.85545" lon="4.68553">
        <ele>201</ele>
        <time>2018-07-27T09:26:14Z</time>
      </trkpt>
      <trkpt lat="45.85545" lon="4.68543">
        <ele>201</ele>
        <time>2018-07-27T09:26:15Z</time>
      </trkpt>
      <trkpt lat="45.85545" lon="4.68538">
        <ele>201</ele>
        <time>2018-07-27T09:26:16Z</time>
      </trkpt>
      <trkpt lat="45.85545" lon="4.68526">
        <ele>201</ele>
        <time>2018-07-27T09:26:17Z</time>
      </trkpt>
      <trkpt lat="45.85543" lon="4.68518">
        <ele>201</ele>
        <time>2018-07-27T09:26:18Z</time>
      </trkpt>
      <trkpt lat="45.8554" lon="4.68506">
        <ele>201</ele>
        <time>2018-07-27T09:26:19Z</time>
      </trkpt>
      <trkpt lat="45.85539" lon="4.68497">
        <ele>200</ele>
        <time>2018-07-27T09:26:20Z</time>
      </trkpt>
      <trkpt lat="45.85539" lon="4.68489">
        <ele>200</ele>
        <time>2018-07-27T09:26:21Z</time>
      </trkpt>
      <trkpt lat="45.8554" lon="4.68477">
        <ele>200</ele>
        <time>2018-07-27T09:26:23Z</time>
      </trkpt>
      <trkpt lat="45.85535" lon="4.68466">
        <ele>200</ele>
        <time>2018-07-27T09:26:24Z</time>
      </trkpt>
      <trkpt lat="45.85536" lon="4.68459">
        <ele>200</ele>
        <time>2018-07-27T09:26:25Z</time>
      </trkpt>
      <trkpt lat="45.85535" lon="4.6845">
        <ele>200</ele>
        <time>2018-07-27T09:26:26Z</time>
      </trkpt>
      <trkpt lat="45.85536" lon="4.68442">
        <ele>200</ele>
        <time>2018-07-27T09:26:27Z</time>
      </trkpt>
      <trkpt lat="45.85536" lon="4.68434">
        <ele>200</ele>
        <time>2018-07-27T09:26:28Z</time>
      </trkpt>
      <trkpt lat="45.85535" lon="4.68425">
        <ele>200</ele>
        <time>2018-07-27T09:26:29Z</time>
      </trkpt>
      <trkpt lat="45.85533" lon="4.68415">
        <ele>200</ele>
        <time>2018-07-27T09:26:30Z</time>
      </trkpt>
      <trkpt lat="45.85533" lon="4.68406">
        <ele>200</ele>
        <time>2018-07-27T09:26:31Z</time>
      </trkpt>
      <trkpt lat="45.85532" lon="4.68397">
        <ele>200</ele>
        <time>2018-07-27T09:26:32Z</time>
      </trkpt>
      <trkpt lat="45.85531" lon="4.68389">
        <ele>200</ele>
        <time>2018-07-27T09:26:33Z</time>
      </trkpt>
      <trkpt lat="45.8553" lon="4.6838">
        <ele>201</ele>
        <time>2018-07-27T09:26:34Z</time>
      </trkpt>
      <trkpt lat="45.85529" lon="4.68372">
        <ele>201</ele>
        <time>2018-07-27T09:26:35Z</time>
      </trkpt>
      <trkpt lat="45.85529" lon="4.68364">
        <ele>201</ele>
        <time>2018-07-27T09:26:36Z</time>
      </trkpt>
      <trkpt lat="45.85529" lon="4.68357">
        <ele>201</ele>
        <time>2018-07-27T09:26:37Z</time>
      </trkpt>
      <trkpt lat="45.85527" lon="4.68349">
        <ele>201</ele>
        <time>2018-07-27T09:26:38Z</time>
      </trkpt>
      <trkpt lat="45.85527" lon="4.68342">
        <ele>201</ele>
        <time>2018-07-27T09:26:39Z</time>
      </trkpt>
      <trkpt lat="45.85526" lon="4.68334">
        <ele>201</ele>
        <time>2018-07-27T09:26:40Z</time>
      </trkpt>
      <trkpt lat="45.85525" lon="4.68326">
        <ele>202</ele>
        <time>2018-07-27T09:26:41Z</time>
      </trkpt>
      <trkpt lat="45.85526" lon="4.68319">
        <ele>202</ele>
        <time>2018-07-27T09:26:42Z</time>
      </trkpt>
      <trkpt lat="45.85525" lon="4.6831">
        <ele>202</ele>
        <time>2018-07-27T09:26:43Z</time>
      </trkpt>
      <trkpt lat="45.85525" lon="4.683">
        <ele>202</ele>
        <time>2018-07-27T09:26:44Z</time>
      </trkpt>
      <trkpt lat="45.85524" lon="4.68292">
        <ele>202</ele>
        <time>2018-07-27T09:26:45Z</time>
      </trkpt>
      <trkpt lat="45.85522" lon="4.68282">
        <ele>202</ele>
        <time>2018-07-27T09:26:46Z</time>
      </trkpt>
      <trkpt lat="45.85519" lon="4.68272">
        <ele>202</ele>
        <time>2018-07-27T09:26:47Z</time>
      </trkpt>
      <trkpt lat="45.85515" lon="4.68262">
        <ele>202</ele>
        <time>2018-07-27T09:26:48Z</time>
      </trkpt>
      <trkpt lat="45.85515" lon="4.68252">
        <ele>203</ele>
        <time>2018-07-27T09:26:49Z</time>
      </trkpt>
      <trkpt lat="45.85514" lon="4.68245">
        <ele>203</ele>
        <time>2018-07-27T09:26:50Z</time>
      </trkpt>
      <trkpt lat="45.85514" lon="4.68238">
        <ele>203</ele>
        <time>2018-07-27T09:26:51Z</time>
      </trkpt>
      <trkpt lat="45.85514" lon="4.68228">
        <ele>203</ele>
        <time>2018-07-27T09:26:52Z</time>
      </trkpt>
      <trkpt lat="45.85515" lon="4.68219">
        <ele>203</ele>
        <time>2018-07-27T09:26:53Z</time>
      </trkpt>
      <trkpt lat="45.85517" lon="4.68211">
        <ele>203</ele>
        <time>2018-07-27T09:26:54Z</time>
      </trkpt>
      <trkpt lat="45.85515" lon="4.68205">
        <ele>203</ele>
        <time>2018-07-27T09:26:55Z</time>
      </trkpt>
      <trkpt lat="45.85513" lon="4.68197">
        <ele>203</ele>
        <time>2018-07-27T09:26:56Z</time>
      </trkpt>
      <trkpt lat="45.85512" lon="4.68189">
        <ele>203</ele>
        <time>2018-07-27T09:26:57Z</time>
      </trkpt>
      <trkpt lat="45.85511" lon="4.6818">
        <ele>203</ele>
        <time>2018-07-27T09:26:58Z</time>
      </trkpt>
      <trkpt lat="45.85512" lon="4.68173">
        <ele>204</ele>
        <time>2018-07-27T09:26:59Z</time>
      </trkpt>
      <trkpt lat="45.85511" lon="4.68164">
        <ele>204</ele>
        <time>2018-07-27T09:27:00Z</time>
      </trkpt>
      <trkpt lat="45.8551" lon="4.68157">
        <ele>203</ele>
        <time>2018-07-27T09:27:01Z</time>
      </trkpt>
      <trkpt lat="45.85509" lon="4.6815">
        <ele>203</ele>
        <time>2018-07-27T09:27:02Z</time>
      </trkpt>
      <trkpt lat="45.8551" lon="4.68144">
        <ele>203</ele>
        <time>2018-07-27T09:27:03Z</time>
      </trkpt>
      <trkpt lat="45.85507" lon="4.68137">
        <ele>203</ele>
        <time>2018-07-27T09:27:04Z</time>
      </trkpt>
      <trkpt lat="45.85506" lon="4.68131">
        <ele>203</ele>
        <time>2018-07-27T09:27:05Z</time>
      </trkpt>
      <trkpt lat="45.85505" lon="4.68123">
        <ele>203</ele>
        <time>2018-07-27T09:27:06Z</time>
      </trkpt>
      <trkpt lat="45.85504" lon="4.68116">
        <ele>203</ele>
        <time>2018-07-27T09:27:07Z</time>
      </trkpt>
      <trkpt lat="45.85503" lon="4.68109">
        <ele>203</ele>
        <time>2018-07-27T09:27:08Z</time>
      </trkpt>
      <trkpt lat="45.85502" lon="4.68102">
        <ele>203</ele>
        <time>2018-07-27T09:27:09Z</time>
      </trkpt>
      <trkpt lat="45.85501" lon="4.68095">
        <ele>203</ele>
        <time>2018-07-27T09:27:10Z</time>
      </trkpt>
      <trkpt lat="45.855" lon="4.68088">
        <ele>204</ele>
        <time>2018-07-27T09:27:11Z</time>
      </trkpt>
      <trkpt lat="45.855" lon="4.68081">
        <ele>204</ele>
        <time>2018-07-27T09:27:12Z</time>
      </trkpt>
      <trkpt lat="45.855" lon="4.68073">
        <ele>204</ele>
        <time>2018-07-27T09:27:13Z</time>
      </trkpt>
      <trkpt lat="45.85499" lon="4.68066">
        <ele>205</ele>
        <time>2018-07-27T09:27:14Z</time>
      </trkpt>
      <trkpt lat="45.855" lon="4.68054">
        <ele>206</ele>
        <time>2018-07-27T09:27:16Z</time>
      </trkpt>
      <trkpt lat="45.855" lon="4.68049">
        <ele>206</ele>
        <time>2018-07-27T09:27:17Z</time>
      </trkpt>
      <trkpt lat="45.85495" lon="4.68038">
        <ele>207</ele>
        <time>2018-07-27T09:27:18Z</time>
      </trkpt>
      <trkpt lat="45.85493" lon="4.6803">
        <ele>207</ele>
        <time>2018-07-27T09:27:19Z</time>
      </trkpt>
      <trkpt lat="45.85495" lon="4.68024">
        <ele>207</ele>
        <time>2018-07-27T09:27:20Z</time>
      </trkpt>
      <trkpt lat="45.85496" lon="4.68017">
        <ele>207</ele>
        <time>2018-07-27T09:27:21Z</time>
      </trkpt>
      <trkpt lat="45.85499" lon="4.6801">
        <ele>206</ele>
        <time>2018-07-27T09:27:22Z</time>
      </trkpt>
      <trkpt lat="45.85505" lon="4.68005">
        <ele>205</ele>
        <time>2018-07-27T09:27:23Z</time>
      </trkpt>
      <trkpt lat="45.85508" lon="4.68">
        <ele>206</ele>
        <time>2018-07-27T09:27:24Z</time>
      </trkpt>
      <trkpt lat="45.85511" lon="4.67993">
        <ele>206</ele>
        <time>2018-07-27T09:27:25Z</time>
      </trkpt>
      <trkpt lat="45.85514" lon="4.67987">
        <ele>206</ele>
        <time>2018-07-27T09:27:26Z</time>
      </trkpt>
      <trkpt lat="45.85517" lon="4.67981">
        <ele>206</ele>
        <time>2018-07-27T09:27:27Z</time>
      </trkpt>
      <trkpt lat="45.85521" lon="4.67978">
        <ele>206</ele>
        <time>2018-07-27T09:27:28Z</time>
      </trkpt>
      <trkpt lat="45.85526" lon="4.67974">
        <ele>205</ele>
        <time>2018-07-27T09:27:29Z</time>
      </trkpt>
      <trkpt lat="45.85531" lon="4.67971">
        <ele>205</ele>
        <time>2018-07-27T09:27:30Z</time>
      </trkpt>
      <trkpt lat="45.85537" lon="4.67963">
        <ele>205</ele>
        <time>2018-07-27T09:27:31Z</time>
      </trkpt>
      <trkpt lat="45.85543" lon="4.67958">
        <ele>205</ele>
        <time>2018-07-27T09:27:32Z</time>
      </trkpt>
      <trkpt lat="45.85547" lon="4.67953">
        <ele>205</ele>
        <time>2018-07-27T09:27:33Z</time>
      </trkpt>
      <trkpt lat="45.85552" lon="4.67947">
        <ele>205</ele>
        <time>2018-07-27T09:27:34Z</time>
      </trkpt>
      <trkpt lat="45.85556" lon="4.67944">
        <ele>205</ele>
        <time>2018-07-27T09:27:35Z</time>
      </trkpt>
      <trkpt lat="45.85561" lon="4.67938">
        <ele>205</ele>
        <time>2018-07-27T09:27:38Z</time>
      </trkpt>
      <trkpt lat="45.85563" lon="4.67936">
        <ele>205</ele>
        <time>2018-07-27T09:27:39Z</time>
      </trkpt>
      <trkpt lat="45.85566" lon="4.67932">
        <ele>205</ele>
        <time>2018-07-27T09:27:41Z</time>
      </trkpt>
      <trkpt lat="45.85572" lon="4.67926">
        <ele>205</ele>
        <time>2018-07-27T09:27:42Z</time>
      </trkpt>
      <trkpt lat="45.85577" lon="4.67931">
        <ele>205</ele>
        <time>2018-07-27T09:27:44Z</time>
      </trkpt>
      <trkpt lat="45.8558" lon="4.67935">
        <ele>205</ele>
        <time>2018-07-27T09:27:45Z</time>
      </trkpt>
      <trkpt lat="45.85584" lon="4.67946">
        <ele>204</ele>
        <time>2018-07-27T09:27:47Z</time>
      </trkpt>
      <trkpt lat="45.85587" lon="4.67953">
        <ele>203</ele>
        <time>2018-07-27T09:27:48Z</time>
      </trkpt>
      <trkpt lat="45.85589" lon="4.6796">
        <ele>203</ele>
        <time>2018-07-27T09:27:49Z</time>
      </trkpt>
      <trkpt lat="45.85592" lon="4.67967">
        <ele>203</ele>
        <time>2018-07-27T09:27:50Z</time>
      </trkpt>
      <trkpt lat="45.85594" lon="4.67974">
        <ele>203</ele>
        <time>2018-07-27T09:27:51Z</time>
      </trkpt>
      <trkpt lat="45.85598" lon="4.67981">
        <ele>203</ele>
        <time>2018-07-27T09:27:52Z</time>
      </trkpt>
      <trkpt lat="45.85601" lon="4.67988">
        <ele>202</ele>
        <time>2018-07-27T09:27:53Z</time>
      </trkpt>
      <trkpt lat="45.85602" lon="4.67995">
        <ele>202</ele>
        <time>2018-07-27T09:27:54Z</time>
      </trkpt>
      <trkpt lat="45.85605" lon="4.68002">
        <ele>201</ele>
        <time>2018-07-27T09:27:55Z</time>
      </trkpt>
      <trkpt lat="45.85608" lon="4.68009">
        <ele>201</ele>
        <time>2018-07-27T09:27:56Z</time>
      </trkpt>
      <trkpt lat="45.85612" lon="4.6802">
        <ele>201</ele>
        <time>2018-07-27T09:27:58Z</time>
      </trkpt>
      <trkpt lat="45.85613" lon="4.68026">
        <ele>201</ele>
        <time>2018-07-27T09:27:59Z</time>
      </trkpt>
      <trkpt lat="45.85617" lon="4.68035">
        <ele>201</ele>
        <time>2018-07-27T09:28:03Z</time>
      </trkpt>
      <trkpt lat="45.85618" lon="4.68037">
        <ele>201</ele>
        <time>2018-07-27T09:28:04Z</time>
      </trkpt>
      <trkpt lat="45.8562" lon="4.68044">
        <ele>200</ele>
        <time>2018-07-27T09:28:15Z</time>
      </trkpt>
      <trkpt lat="45.8562" lon="4.68044">
        <ele>200</ele>
        <time>2018-07-27T09:28:16Z</time>
      </trkpt>
      <trkpt lat="45.8562" lon="4.68044">
        <ele>200</ele>
        <time>2018-07-27T09:28:17Z</time>
      </trkpt>
      <trkpt lat="45.85619" lon="4.6805">
        <ele>200</ele>
        <time>2018-07-27T09:32:39Z</time>
      </trkpt>
      <trkpt lat="45.85619" lon="4.6805">
        <ele>200</ele>
        <time>2018-07-27T09:32:40Z</time>
      </trkpt>
      <trkpt lat="45.85619" lon="4.68047">
        <ele>200</ele>
        <time>2018-07-27T09:33:11Z</time>
      </trkpt>
      <trkpt lat="45.85619" lon="4.68047">
        <ele>200</ele>
        <time>2018-07-27T09:33:12Z</time>
      </trkpt>
      <trkpt lat="45.8562" lon="4.68047">
        <ele>200</ele>
        <time>2018-07-27T09:33:13Z</time>
      </trkpt>
      <trkpt lat="45.8562" lon="4.68047">
        <ele>200</ele>
        <time>2018-07-27T09:33:14Z</time>
      </trkpt>
      <trkpt lat="45.85622" lon="4.68046">
        <ele>200</ele>
        <time>2018-07-27T09:34:48Z</time>
      </trkpt>
      <trkpt lat="45.85622" lon="4.68046">
        <ele>200</ele>
        <time>2018-07-27T09:34:49Z</time>
      </trkpt>
      <trkpt lat="45.85618" lon="4.68048">
        <ele>200</ele>
        <time>2018-07-27T09:39:50Z</time>
      </trkpt>
      <trkpt lat="45.85618" lon="4.68048">
        <ele>200</ele>
        <time>2018-07-27T09:39:51Z</time>
      </trkpt>
      <trkpt lat="45.85621" lon="4.68051">
        <ele>200</ele>
        <time>2018-07-27T09:41:51Z</time>
      </trkpt>
      <trkpt lat="45.85621" lon="4.68051">
        <ele>200</ele>
        <time>2018-07-27T09:41:52Z</time>
      </trkpt>
      <trkpt lat="45.85616" lon="4.68049">
        <ele>200</ele>
        <time>2018-07-27T09:45:47Z</time>
      </trkpt>
      <trkpt lat="45.85616" lon="4.6805">
        <ele>200</ele>
        <time>2018-07-27T09:45:48Z</time>
      </trkpt>
      <trkpt lat="45.85617" lon="4.68052">
        <ele>200</ele>
        <time>2018-07-27T09:45:52Z</time>
      </trkpt>
      <trkpt lat="45.85617" lon="4.68052">
        <ele>200</ele>
        <time>2018-07-27T09:45:53Z</time>
      </trkpt>
      <trkpt lat="45.85623" lon="4.6806">
        <ele>200</ele>
        <time>2018-07-27T09:46:31Z</time>
      </trkpt>
      <trkpt lat="45.85625" lon="4.68063">
        <ele>200</ele>
        <time>2018-07-27T09:46:32Z</time>
      </trkpt>
      <trkpt lat="45.85631" lon="4.68068">
        <ele>200</ele>
        <time>2018-07-27T09:46:34Z</time>
      </trkpt>
      <trkpt lat="45.85633" lon="4.6807">
        <ele>200</ele>
        <time>2018-07-27T09:46:35Z</time>
      </trkpt>
      <trkpt lat="45.85638" lon="4.68075">
        <ele>200</ele>
        <time>2018-07-27T09:46:37Z</time>
      </trkpt>
      <trkpt lat="45.85641" lon="4.68078">
        <ele>200</ele>
        <time>2018-07-27T09:46:38Z</time>
      </trkpt>
      <trkpt lat="45.85646" lon="4.68085">
        <ele>200</ele>
        <time>2018-07-27T09:46:40Z</time>
      </trkpt>
      <trkpt lat="45.85648" lon="4.68088">
        <ele>200</ele>
        <time>2018-07-27T09:46:41Z</time>
      </trkpt>
      <trkpt lat="45.85657" lon="4.68099">
        <ele>200</ele>
        <time>2018-07-27T09:46:42Z</time>
      </trkpt>
      <trkpt lat="45.85661" lon="4.68103">
        <ele>200</ele>
        <time>2018-07-27T09:46:43.3Z</time>
      </trkpt>
      <trkpt lat="45.85666" lon="4.68108">
        <ele>200</ele>
        <time>2018-07-27T09:46:44Z</time>
      </trkpt>
      <trkpt lat="45.85669" lon="4.68114">
        <ele>200</ele>
        <time>2018-07-27T09:46:45Z</time>
      </trkpt>
      <trkpt lat="45.85673" lon="4.68118">
        <ele>200</ele>
        <time>2018-07-27T09:46:46Z</time>
      </trkpt>
      <trkpt lat="45.85676" lon="4.68122">
        <ele>200</ele>
        <time>2018-07-27T09:46:47Z</time>
      </trkpt>
      <trkpt lat="45.85682" lon="4.68127">
        <ele>200</ele>
        <time>2018-07-27T09:46:48Z</time>
      </trkpt>
      <trkpt lat="45.85689" lon="4.68135">
        <ele>200</ele>
        <time>2018-07-27T09:46:50Z</time>
      </trkpt>
      <trkpt lat="45.85692" lon="4.68137">
        <ele>200</ele>
        <time>2018-07-27T09:46:51Z</time>
      </trkpt>
      <trkpt lat="45.85697" lon="4.68142">
        <ele>200</ele>
        <time>2018-07-27T09:46:52Z</time>
      </trkpt>
      <trkpt lat="45.85701" lon="4.68144">
        <ele>200</ele>
        <time>2018-07-27T09:46:53Z</time>
      </trkpt>
      <trkpt lat="45.85708" lon="4.68152">
        <ele>200</ele>
        <time>2018-07-27T09:46:55Z</time>
      </trkpt>
      <trkpt lat="45.85711" lon="4.68155">
        <ele>200</ele>
        <time>2018-07-27T09:46:56Z</time>
      </trkpt>
      <trkpt lat="45.85715" lon="4.6816">
        <ele>200</ele>
        <time>2018-07-27T09:46:57Z</time>
      </trkpt>
      <trkpt lat="45.85718" lon="4.68166">
        <ele>200</ele>
        <time>2018-07-27T09:46:58Z</time>
      </trkpt>
      <trkpt lat="45.85722" lon="4.6817">
        <ele>199</ele>
        <time>2018-07-27T09:46:59Z</time>
      </trkpt>
      <trkpt lat="45.85726" lon="4.68174">
        <ele>199</ele>
        <time>2018-07-27T09:47:00Z</time>
      </trkpt>
      <trkpt lat="45.85728" lon="4.68181">
        <ele>199</ele>
        <time>2018-07-27T09:47:01Z</time>
      </trkpt>
      <trkpt lat="45.85732" lon="4.6819">
        <ele>199</ele>
        <time>2018-07-27T09:47:02Z</time>
      </trkpt>
      <trkpt lat="45.85736" lon="4.68193">
        <ele>199</ele>
        <time>2018-07-27T09:47:03Z</time>
      </trkpt>
      <trkpt lat="45.85742" lon="4.68197">
        <ele>199</ele>
        <time>2018-07-27T09:47:04Z</time>
      </trkpt>
      <trkpt lat="45.8575" lon="4.68201">
        <ele>199</ele>
        <time>2018-07-27T09:47:06Z</time>
      </trkpt>
      <trkpt lat="45.85753" lon="4.68206">
        <ele>202</ele>
        <time>2018-07-27T09:47:07Z</time>
      </trkpt>
      <trkpt lat="45.85756" lon="4.68213">
        <ele>202</ele>
        <time>2018-07-27T09:47:08Z</time>
      </trkpt>
      <trkpt lat="45.8576" lon="4.68218">
        <ele>201</ele>
        <time>2018-07-27T09:47:09Z</time>
      </trkpt>
      <trkpt lat="45.85765" lon="4.68224">
        <ele>201</ele>
        <time>2018-07-27T09:47:10Z</time>
      </trkpt>
      <trkpt lat="45.8577" lon="4.68229">
        <ele>201</ele>
        <time>2018-07-27T09:47:11Z</time>
      </trkpt>
      <trkpt lat="45.85774" lon="4.68233">
        <ele>201</ele>
        <time>2018-07-27T09:47:12Z</time>
      </trkpt>
      <trkpt lat="45.85778" lon="4.68237">
        <ele>202</ele>
        <time>2018-07-27T09:47:13Z</time>
      </trkpt>
      <trkpt lat="45.85783" lon="4.68242">
        <ele>202</ele>
        <time>2018-07-27T09:47:14Z</time>
      </trkpt>
      <trkpt lat="45.85787" lon="4.68247">
        <ele>202</ele>
        <time>2018-07-27T09:47:15Z</time>
      </trkpt>
      <trkpt lat="45.85792" lon="4.68251">
        <ele>200</ele>
        <time>2018-07-27T09:47:16Z</time>
      </trkpt>
      <trkpt lat="45.85796" lon="4.68257">
        <ele>201</ele>
        <time>2018-07-27T09:47:17Z</time>
      </trkpt>
      <trkpt lat="45.858" lon="4.68263">
        <ele>201</ele>
        <time>2018-07-27T09:47:18Z</time>
      </trkpt>
      <trkpt lat="45.85803" lon="4.6827">
        <ele>201</ele>
        <time>2018-07-27T09:47:19Z</time>
      </trkpt>
      <trkpt lat="45.85807" lon="4.68276">
        <ele>201</ele>
        <time>2018-07-27T09:47:20Z</time>
      </trkpt>
      <trkpt lat="45.85812" lon="4.68283">
        <ele>201</ele>
        <time>2018-07-27T09:47:21Z</time>
      </trkpt>
      <trkpt lat="45.85816" lon="4.68289">
        <ele>201</ele>
        <time>2018-07-27T09:47:22Z</time>
      </trkpt>
      <trkpt lat="45.8582" lon="4.68293">
        <ele>201</ele>
        <time>2018-07-27T09:47:23Z</time>
      </trkpt>
      <trkpt lat="45.85823" lon="4.68298">
        <ele>201</ele>
        <time>2018-07-27T09:47:24Z</time>
      </trkpt>
      <trkpt lat="45.85827" lon="4.68305">
        <ele>201</ele>
        <time>2018-07-27T09:47:25Z</time>
      </trkpt>
      <trkpt lat="45.8583" lon="4.68311">
        <ele>200</ele>
        <time>2018-07-27T09:47:26Z</time>
      </trkpt>
      <trkpt lat="45.85832" lon="4.68318">
        <ele>200</ele>
        <time>2018-07-27T09:47:27Z</time>
      </trkpt>
      <trkpt lat="45.85837" lon="4.68328">
        <ele>201</ele>
        <time>2018-07-27T09:47:29Z</time>
      </trkpt>
      <trkpt lat="45.85839" lon="4.68334">
        <ele>200</ele>
        <time>2018-07-27T09:47:30Z</time>
      </trkpt>
      <trkpt lat="45.85843" lon="4.68341">
        <ele>201</ele>
        <time>2018-07-27T09:47:31Z</time>
      </trkpt>
      <trkpt lat="45.85845" lon="4.68346">
        <ele>201</ele>
        <time>2018-07-27T09:47:32Z</time>
      </trkpt>
      <trkpt lat="45.85846" lon="4.68351">
        <ele>201</ele>
        <time>2018-07-27T09:47:33Z</time>
      </trkpt>
      <trkpt lat="45.85847" lon="4.68359">
        <ele>201</ele>
        <time>2018-07-27T09:47:34Z</time>
      </trkpt>
      <trkpt lat="45.8585" lon="4.68365">
        <ele>201</ele>
        <time>2018-07-27T09:47:35Z</time>
      </trkpt>
      <trkpt lat="45.8585" lon="4.68372">
        <ele>201</ele>
        <time>2018-07-27T09:47:36Z</time>
      </trkpt>
      <trkpt lat="45.85854" lon="4.6838">
        <ele>201</ele>
        <time>2018-07-27T09:47:37Z</time>
      </trkpt>
      <trkpt lat="45.85856" lon="4.68386">
        <ele>201</ele>
        <time>2018-07-27T09:47:38Z</time>
      </trkpt>
      <trkpt lat="45.85856" lon="4.68392">
        <ele>201</ele>
        <time>2018-07-27T09:47:39Z</time>
      </trkpt>
      <trkpt lat="45.85857" lon="4.68401">
        <ele>201</ele>
        <time>2018-07-27T09:47:40Z</time>
      </trkpt>
      <trkpt lat="45.8586" lon="4.68409">
        <ele>201</ele>
        <time>2018-07-27T09:47:41Z</time>
      </trkpt>
      <trkpt lat="45.85861" lon="4.68418">
        <ele>200</ele>
        <time>2018-07-27T09:47:42Z</time>
      </trkpt>
      <trkpt lat="45.85865" lon="4.68428">
        <ele>200</ele>
        <time>2018-07-27T09:47:43Z</time>
      </trkpt>
      <trkpt lat="45.85867" lon="4.68435">
        <ele>200</ele>
        <time>2018-07-27T09:47:44Z</time>
      </trkpt>
      <trkpt lat="45.85868" lon="4.68441">
        <ele>200</ele>
        <time>2018-07-27T09:47:45Z</time>
      </trkpt>
      <trkpt lat="45.85872" lon="4.6845">
        <ele>200</ele>
        <time>2018-07-27T09:47:46Z</time>
      </trkpt>
      <trkpt lat="45.85875" lon="4.68458">
        <ele>200</ele>
        <time>2018-07-27T09:47:47Z</time>
      </trkpt>
      <trkpt lat="45.85876" lon="4.68465">
        <ele>201</ele>
        <time>2018-07-27T09:47:48Z</time>
      </trkpt>
      <trkpt lat="45.85877" lon="4.68473">
        <ele>201</ele>
        <time>2018-07-27T09:47:49Z</time>
      </trkpt>
      <trkpt lat="45.85878" lon="4.68483">
        <ele>201</ele>
        <time>2018-07-27T09:47:50Z</time>
      </trkpt>
      <trkpt lat="45.85881" lon="4.68492">
        <ele>201</ele>
        <time>2018-07-27T09:47:51Z</time>
      </trkpt>
      <trkpt lat="45.85883" lon="4.685">
        <ele>201</ele>
        <time>2018-07-27T09:47:52Z</time>
      </trkpt>
      <trkpt lat="45.85885" lon="4.68508">
        <ele>200</ele>
        <time>2018-07-27T09:47:53Z</time>
      </trkpt>
      <trkpt lat="45.85887" lon="4.68516">
        <ele>200</ele>
        <time>2018-07-27T09:47:54Z</time>
      </trkpt>
      <trkpt lat="45.85887" lon="4.68523">
        <ele>200</ele>
        <time>2018-07-27T09:47:55Z</time>
      </trkpt>
      <trkpt lat="45.85888" lon="4.68531">
        <ele>200</ele>
        <time>2018-07-27T09:47:56Z</time>
      </trkpt>
      <trkpt lat="45.85888" lon="4.68538">
        <ele>200</ele>
        <time>2018-07-27T09:47:57Z</time>
      </trkpt>
      <trkpt lat="45.85889" lon="4.68546">
        <ele>200</ele>
        <time>2018-07-27T09:47:58Z</time>
      </trkpt>
      <trkpt lat="45.85889" lon="4.68553">
        <ele>200</ele>
        <time>2018-07-27T09:47:59Z</time>
      </trkpt>
      <trkpt lat="45.8589" lon="4.68562">
        <ele>200</ele>
        <time>2018-07-27T09:48:00Z</time>
      </trkpt>
      <trkpt lat="45.85891" lon="4.68569">
        <ele>200</ele>
        <time>2018-07-27T09:48:01Z</time>
      </trkpt>
      <trkpt lat="45.85892" lon="4.68579">
        <ele>199</ele>
        <time>2018-07-27T09:48:02Z</time>
      </trkpt>
      <trkpt lat="45.85892" lon="4.68586">
        <ele>199</ele>
        <time>2018-07-27T09:48:03Z</time>
      </trkpt>
      <trkpt lat="45.85893" lon="4.68594">
        <ele>199</ele>
        <time>2018-07-27T09:48:04Z</time>
      </trkpt>
      <trkpt lat="45.85894" lon="4.68602">
        <ele>199</ele>
        <time>2018-07-27T09:48:05Z</time>
      </trkpt>
      <trkpt lat="45.85895" lon="4.6861">
        <ele>199</ele>
        <time>2018-07-27T09:48:06Z</time>
      </trkpt>
      <trkpt lat="45.85895" lon="4.68617">
        <ele>199</ele>
        <time>2018-07-27T09:48:07Z</time>
      </trkpt>
      <trkpt lat="45.85895" lon="4.68624">
        <ele>199</ele>
        <time>2018-07-27T09:48:08Z</time>
      </trkpt>
      <trkpt lat="45.85895" lon="4.68631">
        <ele>198</ele>
        <time>2018-07-27T09:48:09Z</time>
      </trkpt>
      <trkpt lat="45.85895" lon="4.6864">
        <ele>198</ele>
        <time>2018-07-27T09:48:10Z</time>
      </trkpt>
      <trkpt lat="45.85895" lon="4.68649">
        <ele>198</ele>
        <time>2018-07-27T09:48:11Z</time>
      </trkpt>
      <trkpt lat="45.85896" lon="4.6866">
        <ele>198</ele>
        <time>2018-07-27T09:48:12Z</time>
      </trkpt>
      <trkpt lat="45.85894" lon="4.6867">
        <ele>198</ele>
        <time>2018-07-27T09:48:14Z</time>
      </trkpt>
      <trkpt lat="45.85893" lon="4.68674">
        <ele>198</ele>
        <time>2018-07-27T09:48:15Z</time>
      </trkpt>
      <trkpt lat="45.85892" lon="4.68681">
        <ele>198</ele>
        <time>2018-07-27T09:48:16Z</time>
      </trkpt>
      <trkpt lat="45.85891" lon="4.68689">
        <ele>198</ele>
        <time>2018-07-27T09:48:17Z</time>
      </trkpt>
      <trkpt lat="45.85886" lon="4.68698">
        <ele>198</ele>
        <time>2018-07-27T09:48:18Z</time>
      </trkpt>
      <trkpt lat="45.85887" lon="4.68707">
        <ele>198</ele>
        <time>2018-07-27T09:48:19Z</time>
      </trkpt>
      <trkpt lat="45.85885" lon="4.68715">
        <ele>198</ele>
        <time>2018-07-27T09:48:20Z</time>
      </trkpt>
      <trkpt lat="45.85887" lon="4.68723">
        <ele>198</ele>
        <time>2018-07-27T09:48:21Z</time>
      </trkpt>
      <trkpt lat="45.85885" lon="4.68729">
        <ele>198</ele>
        <time>2018-07-27T09:48:22Z</time>
      </trkpt>
      <trkpt lat="45.85884" lon="4.68739">
        <ele>198</ele>
        <time>2018-07-27T09:48:23Z</time>
      </trkpt>
      <trkpt lat="45.85884" lon="4.6875">
        <ele>198</ele>
        <time>2018-07-27T09:48:24Z</time>
      </trkpt>
      <trkpt lat="45.85882" lon="4.68757">
        <ele>198</ele>
        <time>2018-07-27T09:48:25Z</time>
      </trkpt>
      <trkpt lat="45.85881" lon="4.68766">
        <ele>198</ele>
        <time>2018-07-27T09:48:26Z</time>
      </trkpt>
      <trkpt lat="45.85881" lon="4.68777">
        <ele>198</ele>
        <time>2018-07-27T09:48:27Z</time>
      </trkpt>
      <trkpt lat="45.8588" lon="4.68784">
        <ele>198</ele>
        <time>2018-07-27T09:48:28Z</time>
      </trkpt>
      <trkpt lat="45.85878" lon="4.68793">
        <ele>198</ele>
        <time>2018-07-27T09:48:29Z</time>
      </trkpt>
      <trkpt lat="45.85876" lon="4.68802">
        <ele>198</ele>
        <time>2018-07-27T09:48:30Z</time>
      </trkpt>
      <trkpt lat="45.85875" lon="4.68811">
        <ele>198</ele>
        <time>2018-07-27T09:48:31Z</time>
      </trkpt>
      <trkpt lat="45.85875" lon="4.68819">
        <ele>198</ele>
        <time>2018-07-27T09:48:32Z</time>
      </trkpt>
      <trkpt lat="45.85874" lon="4.68828">
        <ele>198</ele>
        <time>2018-07-27T09:48:33Z</time>
      </trkpt>
      <trkpt lat="45.85872" lon="4.68837">
        <ele>198</ele>
        <time>2018-07-27T09:48:34Z</time>
      </trkpt>
      <trkpt lat="45.85871" lon="4.68847">
        <ele>198</ele>
        <time>2018-07-27T09:48:35Z</time>
      </trkpt>
      <trkpt lat="45.85871" lon="4.68854">
        <ele>198</ele>
        <time>2018-07-27T09:48:36Z</time>
      </trkpt>
      <trkpt lat="45.8587" lon="4.68862">
        <ele>198</ele>
        <time>2018-07-27T09:48:37Z</time>
      </trkpt>
      <trkpt lat="45.8587" lon="4.6887">
        <ele>198</ele>
        <time>2018-07-27T09:48:38Z</time>
      </trkpt>
      <trkpt lat="45.85868" lon="4.68877">
        <ele>197</ele>
        <time>2018-07-27T09:48:39Z</time>
      </trkpt>
      <trkpt lat="45.85867" lon="4.68884">
        <ele>197</ele>
        <time>2018-07-27T09:48:40Z</time>
      </trkpt>
      <trkpt lat="45.85866" lon="4.68891">
        <ele>197</ele>
        <time>2018-07-27T09:48:41Z</time>
      </trkpt>
      <trkpt lat="45.85865" lon="4.68898">
        <ele>197</ele>
        <time>2018-07-27T09:48:42Z</time>
      </trkpt>
      <trkpt lat="45.85863" lon="4.68903">
        <ele>197</ele>
        <time>2018-07-27T09:48:43Z</time>
      </trkpt>
      <trkpt lat="45.85864" lon="4.68913">
        <ele>197</ele>
        <time>2018-07-27T09:48:44Z</time>
      </trkpt>
      <trkpt lat="45.85863" lon="4.68918">
        <ele>197</ele>
        <time>2018-07-27T09:48:45Z</time>
      </trkpt>
      <trkpt lat="45.85863" lon="4.68926">
        <ele>197</ele>
        <time>2018-07-27T09:48:46Z</time>
      </trkpt>
      <trkpt lat="45.85864" lon="4.68935">
        <ele>197</ele>
        <time>2018-07-27T09:48:47Z</time>
      </trkpt>
      <trkpt lat="45.85865" lon="4.68945">
        <ele>197</ele>
        <time>2018-07-27T09:48:48Z</time>
      </trkpt>
      <trkpt lat="45.85865" lon="4.68953">
        <ele>197</ele>
        <time>2018-07-27T09:48:49Z</time>
      </trkpt>
      <trkpt lat="45.85866" lon="4.68963">
        <ele>197</ele>
        <time>2018-07-27T09:48:50Z</time>
      </trkpt>
      <trkpt lat="45.85867" lon="4.68972">
        <ele>197</ele>
        <time>2018-07-27T09:48:51Z</time>
      </trkpt>
      <trkpt lat="45.85867" lon="4.68982">
        <ele>197</ele>
        <time>2018-07-27T09:48:52Z</time>
      </trkpt>
      <trkpt lat="45.85868" lon="4.6899">
        <ele>197</ele>
        <time>2018-07-27T09:48:53Z</time>
      </trkpt>
      <trkpt lat="45.85869" lon="4.68998">
        <ele>197</ele>
        <time>2018-07-27T09:48:54Z</time>
      </trkpt>
      <trkpt lat="45.85869" lon="4.69006">
        <ele>197</ele>
        <time>2018-07-27T09:48:55Z</time>
      </trkpt>
      <trkpt lat="45.85873" lon="4.69015">
        <ele>197</ele>
        <time>2018-07-27T09:48:56Z</time>
      </trkpt>
      <trkpt lat="45.85876" lon="4.69024">
        <ele>198</ele>
        <time>2018-07-27T09:48:57Z</time>
      </trkpt>
      <trkpt lat="45.8588" lon="4.69032">
        <ele>198</ele>
        <time>2018-07-27T09:48:58Z</time>
      </trkpt>
      <trkpt lat="45.85882" lon="4.69037">
        <ele>198</ele>
        <time>2018-07-27T09:48:59Z</time>
      </trkpt>
      <trkpt lat="45.85885" lon="4.69043">
        <ele>198</ele>
        <time>2018-07-27T09:49:00Z</time>
      </trkpt>
      <trkpt lat="45.85887" lon="4.69049">
        <ele>198</ele>
        <time>2018-07-27T09:49:01Z</time>
      </trkpt>
      <trkpt lat="45.85891" lon="4.69056">
        <ele>198</ele>
        <time>2018-07-27T09:49:02Z</time>
      </trkpt>
      <trkpt lat="45.85895" lon="4.69061">
        <ele>198</ele>
        <time>2018-07-27T09:49:03Z</time>
      </trkpt>
      <trkpt lat="45.85899" lon="4.69067">
        <ele>198</ele>
        <time>2018-07-27T09:49:04Z</time>
      </trkpt>
      <trkpt lat="45.85902" lon="4.6907">
        <ele>198</ele>
        <time>2018-07-27T09:49:05Z</time>
      </trkpt>
      <trkpt lat="45.85906" lon="4.69075">
        <ele>198</ele>
        <time>2018-07-27T09:49:06Z</time>
      </trkpt>
      <trkpt lat="45.8591" lon="4.69078">
        <ele>198</ele>
        <time>2018-07-27T09:49:07Z</time>
      </trkpt>
      <trkpt lat="45.85918" lon="4.69083">
        <ele>198</ele>
        <time>2018-07-27T09:49:09Z</time>
      </trkpt>
      <trkpt lat="45.85923" lon="4.69086">
        <ele>198</ele>
        <time>2018-07-27T09:49:10Z</time>
      </trkpt>
      <trkpt lat="45.85928" lon="4.69086">
        <ele>198</ele>
        <time>2018-07-27T09:49:11Z</time>
      </trkpt>
      <trkpt lat="45.85932" lon="4.69089">
        <ele>197</ele>
        <time>2018-07-27T09:49:12Z</time>
      </trkpt>
      <trkpt lat="45.85939" lon="4.69089">
        <ele>197</ele>
        <time>2018-07-27T09:49:13Z</time>
      </trkpt>
      <trkpt lat="45.85945" lon="4.69091">
        <ele>197</ele>
        <time>2018-07-27T09:49:14Z</time>
      </trkpt>
      <trkpt lat="45.85951" lon="4.69092">
        <ele>197</ele>
        <time>2018-07-27T09:49:15Z</time>
      </trkpt>
      <trkpt lat="45.85957" lon="4.69094">
        <ele>197</ele>
        <time>2018-07-27T09:49:16Z</time>
      </trkpt>
      <trkpt lat="45.85962" lon="4.69093">
        <ele>197</ele>
        <time>2018-07-27T09:49:17Z</time>
      </trkpt>
      <trkpt lat="45.85969" lon="4.69093">
        <ele>197</ele>
        <time>2018-07-27T09:49:18Z</time>
      </trkpt>
      <trkpt lat="45.85975" lon="4.69095">
        <ele>197</ele>
        <time>2018-07-27T09:49:19Z</time>
      </trkpt>
      <trkpt lat="45.85981" lon="4.69095">
        <ele>197</ele>
        <time>2018-07-27T09:49:20Z</time>
      </trkpt>
      <trkpt lat="45.85987" lon="4.69094">
        <ele>196</ele>
        <time>2018-07-27T09:49:21Z</time>
      </trkpt>
      <trkpt lat="45.85993" lon="4.69095">
        <ele>196</ele>
        <time>2018-07-27T09:49:22Z</time>
      </trkpt>
      <trkpt lat="45.85999" lon="4.69095">
        <ele>196</ele>
        <time>2018-07-27T09:49:23Z</time>
      </trkpt>
      <trkpt lat="45.86005" lon="4.69095">
        <ele>196</ele>
        <time>2018-07-27T09:49:24Z</time>
      </trkpt>
      <trkpt lat="45.86011" lon="4.69097">
        <ele>197</ele>
        <time>2018-07-27T09:49:25Z</time>
      </trkpt>
      <trkpt lat="45.86014" lon="4.69094">
        <ele>197</ele>
        <time>2018-07-27T09:49:26Z</time>
      </trkpt>
      <trkpt lat="45.8602" lon="4.69095">
        <ele>197</ele>
        <time>2018-07-27T09:49:27Z</time>
      </trkpt>
      <trkpt lat="45.86025" lon="4.69094">
        <ele>197</ele>
        <time>2018-07-27T09:49:28Z</time>
      </trkpt>
      <trkpt lat="45.8603" lon="4.69093">
        <ele>197</ele>
        <time>2018-07-27T09:49:29Z</time>
      </trkpt>
      <trkpt lat="45.86036" lon="4.69094">
        <ele>197</ele>
        <time>2018-07-27T09:49:30Z</time>
      </trkpt>
      <trkpt lat="45.86042" lon="4.69094">
        <ele>197</ele>
        <time>2018-07-27T09:49:31Z</time>
      </trkpt>
      <trkpt lat="45.86048" lon="4.69093">
        <ele>197</ele>
        <time>2018-07-27T09:49:32Z</time>
      </trkpt>
      <trkpt lat="45.86053" lon="4.69093">
        <ele>197</ele>
        <time>2018-07-27T09:49:33Z</time>
      </trkpt>
      <trkpt lat="45.86059" lon="4.69092">
        <ele>197</ele>
        <time>2018-07-27T09:49:34Z</time>
      </trkpt>
      <trkpt lat="45.86065" lon="4.69091">
        <ele>198</ele>
        <time>2018-07-27T09:49:35Z</time>
      </trkpt>
      <trkpt lat="45.8607" lon="4.69089">
        <ele>198</ele>
        <time>2018-07-27T09:49:36Z</time>
      </trkpt>
      <trkpt lat="45.86076" lon="4.69089">
        <ele>198</ele>
        <time>2018-07-27T09:49:37Z</time>
      </trkpt>
      <trkpt lat="45.86082" lon="4.69086">
        <ele>198</ele>
        <time>2018-07-27T09:49:38Z</time>
      </trkpt>
      <trkpt lat="45.86087" lon="4.69086">
        <ele>199</ele>
        <time>2018-07-27T09:49:39Z</time>
      </trkpt>
      <trkpt lat="45.86092" lon="4.69088">
        <ele>199</ele>
        <time>2018-07-27T09:49:40Z</time>
      </trkpt>
      <trkpt lat="45.86097" lon="4.69086">
        <ele>200</ele>
        <time>2018-07-27T09:49:41Z</time>
      </trkpt>
      <trkpt lat="45.86103" lon="4.69085">
        <ele>200</ele>
        <time>2018-07-27T09:49:42Z</time>
      </trkpt>
      <trkpt lat="45.86108" lon="4.69086">
        <ele>200</ele>
        <time>2018-07-27T09:49:43Z</time>
      </trkpt>
      <trkpt lat="45.86112" lon="4.69085">
        <ele>201</ele>
        <time>2018-07-27T09:49:44Z</time>
      </trkpt>
      <trkpt lat="45.86117" lon="4.69084">
        <ele>201</ele>
        <time>2018-07-27T09:49:45Z</time>
      </trkpt>
      <trkpt lat="45.86122" lon="4.69084">
        <ele>201</ele>
        <time>2018-07-27T09:49:46Z</time>
      </trkpt>
      <trkpt lat="45.86127" lon="4.69084">
        <ele>201</ele>
        <time>2018-07-27T09:49:47Z</time>
      </trkpt>
      <trkpt lat="45.86131" lon="4.69083">
        <ele>202</ele>
        <time>2018-07-27T09:49:48Z</time>
      </trkpt>
      <trkpt lat="45.86139" lon="4.69083">
        <ele>203</ele>
        <time>2018-07-27T09:49:50Z</time>
      </trkpt>
      <trkpt lat="45.86141" lon="4.69082">
        <ele>204</ele>
        <time>2018-07-27T09:49:51Z</time>
      </trkpt>
      <trkpt lat="45.86149" lon="4.69081">
        <ele>204</ele>
        <time>2018-07-27T09:49:53Z</time>
      </trkpt>
      <trkpt lat="45.86152" lon="4.69081">
        <ele>204</ele>
        <time>2018-07-27T09:49:54Z</time>
      </trkpt>
      <trkpt lat="45.86159" lon="4.69078">
        <ele>204</ele>
        <time>2018-07-27T09:49:55Z</time>
      </trkpt>
      <trkpt lat="45.86163" lon="4.69077">
        <ele>205</ele>
        <time>2018-07-27T09:49:56Z</time>
      </trkpt>
      <trkpt lat="45.86171" lon="4.69076">
        <ele>207</ele>
        <time>2018-07-27T09:49:58Z</time>
      </trkpt>
      <trkpt lat="45.86173" lon="4.69076">
        <ele>207</ele>
        <time>2018-07-27T09:49:59Z</time>
      </trkpt>
      <trkpt lat="45.86175" lon="4.69075">
        <ele>207</ele>
        <time>2018-07-27T09:50:00Z</time>
      </trkpt>
      <trkpt lat="45.86182" lon="4.69074">
        <ele>208</ele>
        <time>2018-07-27T09:50:01Z</time>
      </trkpt>
      <trkpt lat="45.8619" lon="4.69076">
        <ele>208</ele>
        <time>2018-07-27T09:50:06Z</time>
      </trkpt>
      <trkpt lat="45.86192" lon="4.69076">
        <ele>209</ele>
        <time>2018-07-27T09:50:07Z</time>
      </trkpt>
      <trkpt lat="45.86199" lon="4.69076">
        <ele>209</ele>
        <time>2018-07-27T09:50:10Z</time>
      </trkpt>
      <trkpt lat="45.86202" lon="4.69075">
        <ele>209</ele>
        <time>2018-07-27T09:50:11Z</time>
      </trkpt>
      <trkpt lat="45.8621" lon="4.69076">
        <ele>210</ele>
        <time>2018-07-27T09:50:14Z</time>
      </trkpt>
      <trkpt lat="45.86212" lon="4.69077">
        <ele>210</ele>
        <time>2018-07-27T09:50:15Z</time>
      </trkpt>
      <trkpt lat="45.8622" lon="4.6908">
        <ele>210</ele>
        <time>2018-07-27T09:50:18Z</time>
      </trkpt>
      <trkpt lat="45.86223" lon="4.69081">
        <ele>210</ele>
        <time>2018-07-27T09:50:19Z</time>
      </trkpt>
      <trkpt lat="45.86231" lon="4.69082">
        <ele>211</ele>
        <time>2018-07-27T09:50:22Z</time>
      </trkpt>
      <trkpt lat="45.86233" lon="4.69082">
        <ele>211</ele>
        <time>2018-07-27T09:50:23Z</time>
      </trkpt>
      <trkpt lat="45.8624" lon="4.69082">
        <ele>211</ele>
        <time>2018-07-27T09:50:26Z</time>
      </trkpt>
      <trkpt lat="45.86242" lon="4.69082">
        <ele>211</ele>
        <time>2018-07-27T09:50:27Z</time>
      </trkpt>
      <trkpt lat="45.86249" lon="4.69082">
        <ele>211</ele>
        <time>2018-07-27T09:50:30Z</time>
      </trkpt>
      <trkpt lat="45.86252" lon="4.69082">
        <ele>211</ele>
        <time>2018-07-27T09:50:31Z</time>
      </trkpt>
      <trkpt lat="45.8626" lon="4.69084">
        <ele>212</ele>
        <time>2018-07-27T09:50:34Z</time>
      </trkpt>
      <trkpt lat="45.86263" lon="4.69085">
        <ele>212</ele>
        <time>2018-07-27T09:50:35Z</time>
      </trkpt>
      <trkpt lat="45.86272" lon="4.69088">
        <ele>213</ele>
        <time>2018-07-27T09:50:38Z</time>
      </trkpt>
      <trkpt lat="45.86275" lon="4.69089">
        <ele>213</ele>
        <time>2018-07-27T09:50:39Z</time>
      </trkpt>
      <trkpt lat="45.86283" lon="4.69093">
        <ele>213</ele>
        <time>2018-07-27T09:50:42Z</time>
      </trkpt>
      <trkpt lat="45.86285" lon="4.69094">
        <ele>213</ele>
        <time>2018-07-27T09:50:43Z</time>
      </trkpt>
      <trkpt lat="45.86294" lon="4.69099">
        <ele>214</ele>
        <time>2018-07-27T09:50:46Z</time>
      </trkpt>
      <trkpt lat="45.86296" lon="4.69101">
        <ele>214</ele>
        <time>2018-07-27T09:50:47Z</time>
      </trkpt>
      <trkpt lat="45.86303" lon="4.69107">
        <ele>214</ele>
        <time>2018-07-27T09:50:50Z</time>
      </trkpt>
      <trkpt lat="45.86305" lon="4.69109">
        <ele>214</ele>
        <time>2018-07-27T09:50:51Z</time>
      </trkpt>
      <trkpt lat="45.86312" lon="4.69116">
        <ele>214</ele>
        <time>2018-07-27T09:50:54Z</time>
      </trkpt>
      <trkpt lat="45.86314" lon="4.69118">
        <ele>214</ele>
        <time>2018-07-27T09:50:55Z</time>
      </trkpt>
      <trkpt lat="45.8632" lon="4.69126">
        <ele>214</ele>
        <time>2018-07-27T09:50:58Z</time>
      </trkpt>
      <trkpt lat="45.86322" lon="4.69128">
        <ele>215</ele>
        <time>2018-07-27T09:50:59Z</time>
      </trkpt>
      <trkpt lat="45.86328" lon="4.69135">
        <ele>215</ele>
        <time>2018-07-27T09:51:02Z</time>
      </trkpt>
      <trkpt lat="45.8633" lon="4.69138">
        <ele>215</ele>
        <time>2018-07-27T09:51:03Z</time>
      </trkpt>
      <trkpt lat="45.86335" lon="4.69145">
        <ele>217</ele>
        <time>2018-07-27T09:51:06Z</time>
      </trkpt>
      <trkpt lat="45.86337" lon="4.69148">
        <ele>217</ele>
        <time>2018-07-27T09:51:07Z</time>
      </trkpt>
      <trkpt lat="45.86342" lon="4.69155">
        <ele>217</ele>
        <time>2018-07-27T09:51:10Z</time>
      </trkpt>
      <trkpt lat="45.86343" lon="4.69158">
        <ele>217</ele>
        <time>2018-07-27T09:51:11Z</time>
      </trkpt>
      <trkpt lat="45.86347" lon="4.69167">
        <ele>217</ele>
        <time>2018-07-27T09:51:14Z</time>
      </trkpt>
      <trkpt lat="45.86349" lon="4.69169">
        <ele>218</ele>
        <time>2018-07-27T09:51:15Z</time>
      </trkpt>
      <trkpt lat="45.86353" lon="4.69178">
        <ele>218</ele>
        <time>2018-07-27T09:51:18Z</time>
      </trkpt>
      <trkpt lat="45.86354" lon="4.69182">
        <ele>218</ele>
        <time>2018-07-27T09:51:19Z</time>
      </trkpt>
      <trkpt lat="45.86358" lon="4.69192">
        <ele>218</ele>
        <time>2018-07-27T09:51:22Z</time>
      </trkpt>
      <trkpt lat="45.8636" lon="4.69196">
        <ele>218</ele>
        <time>2018-07-27T09:51:23Z</time>
      </trkpt>
      <trkpt lat="45.86364" lon="4.69206">
        <ele>219</ele>
        <time>2018-07-27T09:51:26Z</time>
      </trkpt>
      <trkpt lat="45.86366" lon="4.6921">
        <ele>219</ele>
        <time>2018-07-27T09:51:27Z</time>
      </trkpt>
      <trkpt lat="45.8637" lon="4.69216">
        <ele>219</ele>
        <time>2018-07-27T09:51:29Z</time>
      </trkpt>
      <trkpt lat="45.86371" lon="4.6922">
        <ele>219</ele>
        <time>2018-07-27T09:51:30Z</time>
      </trkpt>
      <trkpt lat="45.86375" lon="4.69227">
        <ele>219</ele>
        <time>2018-07-27T09:51:32Z</time>
      </trkpt>
      <trkpt lat="45.86381" lon="4.6924">
        <ele>219</ele>
        <time>2018-07-27T09:51:33Z</time>
      </trkpt>
      <trkpt lat="45.86385" lon="4.69249">
        <ele>219</ele>
        <time>2018-07-27T09:51:35Z</time>
      </trkpt>
      <trkpt lat="45.86386" lon="4.69252">
        <ele>219</ele>
        <time>2018-07-27T09:51:36Z</time>
      </trkpt>
      <trkpt lat="45.86389" lon="4.69258">
        <ele>219</ele>
        <time>2018-07-27T09:51:37Z</time>
      </trkpt>
      <trkpt lat="45.86391" lon="4.69263">
        <ele>219</ele>
        <time>2018-07-27T09:51:38Z</time>
      </trkpt>
      <trkpt lat="45.86395" lon="4.69274">
        <ele>219</ele>
        <time>2018-07-27T09:51:40Z</time>
      </trkpt>
      <trkpt lat="45.86397" lon="4.69281">
        <ele>219</ele>
        <time>2018-07-27T09:51:41Z</time>
      </trkpt>
      <trkpt lat="45.86401" lon="4.69287">
        <ele>219</ele>
        <time>2018-07-27T09:51:42Z</time>
      </trkpt>
      <trkpt lat="45.86402" lon="4.69293">
        <ele>219</ele>
        <time>2018-07-27T09:51:43Z</time>
      </trkpt>
      <trkpt lat="45.86406" lon="4.69298">
        <ele>219</ele>
        <time>2018-07-27T09:51:44Z</time>
      </trkpt>
      <trkpt lat="45.86408" lon="4.69305">
        <ele>219</ele>
        <time>2018-07-27T09:51:45Z</time>
      </trkpt>
      <trkpt lat="45.86411" lon="4.69311">
        <ele>219</ele>
        <time>2018-07-27T09:51:46Z</time>
      </trkpt>
      <trkpt lat="45.86414" lon="4.69317">
        <ele>219</ele>
        <time>2018-07-27T09:51:47Z</time>
      </trkpt>
      <trkpt lat="45.86419" lon="4.69328">
        <ele>219</ele>
        <time>2018-07-27T09:51:49Z</time>
      </trkpt>
      <trkpt lat="45.86422" lon="4.69335">
        <ele>219</ele>
        <time>2018-07-27T09:51:50Z</time>
      </trkpt>
      <trkpt lat="45.86424" lon="4.6934">
        <ele>219</ele>
        <time>2018-07-27T09:51:51Z</time>
      </trkpt>
      <trkpt lat="45.86426" lon="4.69346">
        <ele>219</ele>
        <time>2018-07-27T09:51:52Z</time>
      </trkpt>
      <trkpt lat="45.86429" lon="4.69352">
        <ele>219</ele>
        <time>2018-07-27T09:51:53Z</time>
      </trkpt>
      <trkpt lat="45.86433" lon="4.69359">
        <ele>219</ele>
        <time>2018-07-27T09:51:54Z</time>
      </trkpt>
      <trkpt lat="45.86436" lon="4.69366">
        <ele>219</ele>
        <time>2018-07-27T09:51:55Z</time>
      </trkpt>
      <trkpt lat="45.86439" lon="4.69374">
        <ele>219</ele>
        <time>2018-07-27T09:51:56Z</time>
      </trkpt>
      <trkpt lat="45.86443" lon="4.6938">
        <ele>219</ele>
        <time>2018-07-27T09:51:57Z</time>
      </trkpt>
      <trkpt lat="45.86446" lon="4.69385">
        <ele>219</ele>
        <time>2018-07-27T09:51:58Z</time>
      </trkpt>
      <trkpt lat="45.86449" lon="4.6939">
        <ele>219</ele>
        <time>2018-07-27T09:51:59Z</time>
      </trkpt>
      <trkpt lat="45.86452" lon="4.69395">
        <ele>219</ele>
        <time>2018-07-27T09:52:00Z</time>
      </trkpt>
      <trkpt lat="45.86457" lon="4.69401">
        <ele>219</ele>
        <time>2018-07-27T09:52:01Z</time>
      </trkpt>
      <trkpt lat="45.86461" lon="4.69407">
        <ele>219</ele>
        <time>2018-07-27T09:52:02Z</time>
      </trkpt>
      <trkpt lat="45.86464" lon="4.69413">
        <ele>219</ele>
        <time>2018-07-27T09:52:03Z</time>
      </trkpt>
      <trkpt lat="45.86466" lon="4.69418">
        <ele>218</ele>
        <time>2018-07-27T09:52:04Z</time>
      </trkpt>
      <trkpt lat="45.8647" lon="4.69424">
        <ele>218</ele>
        <time>2018-07-27T09:52:05Z</time>
      </trkpt>
      <trkpt lat="45.86475" lon="4.69431">
        <ele>218</ele>
        <time>2018-07-27T09:52:06Z</time>
      </trkpt>
      <trkpt lat="45.8648" lon="4.69438">
        <ele>218</ele>
        <time>2018-07-27T09:52:07Z</time>
      </trkpt>
      <trkpt lat="45.86484" lon="4.69444">
        <ele>218</ele>
        <time>2018-07-27T09:52:08Z</time>
      </trkpt>
      <trkpt lat="45.86488" lon="4.69451">
        <ele>218</ele>
        <time>2018-07-27T09:52:09Z</time>
      </trkpt>
      <trkpt lat="45.86491" lon="4.69457">
        <ele>218</ele>
        <time>2018-07-27T09:52:10Z</time>
      </trkpt>
      <trkpt lat="45.86495" lon="4.69463">
        <ele>218</ele>
        <time>2018-07-27T09:52:11Z</time>
      </trkpt>
      <trkpt lat="45.86499" lon="4.6947">
        <ele>218</ele>
        <time>2018-07-27T09:52:12Z</time>
      </trkpt>
      <trkpt lat="45.86502" lon="4.69475">
        <ele>219</ele>
        <time>2018-07-27T09:52:13Z</time>
      </trkpt>
      <trkpt lat="45.86505" lon="4.69481">
        <ele>219</ele>
        <time>2018-07-27T09:52:14Z</time>
      </trkpt>
      <trkpt lat="45.86509" lon="4.69485">
        <ele>219</ele>
        <time>2018-07-27T09:52:15Z</time>
      </trkpt>
      <trkpt lat="45.86512" lon="4.6949">
        <ele>219</ele>
        <time>2018-07-27T09:52:16Z</time>
      </trkpt>
      <trkpt lat="45.86516" lon="4.69494">
        <ele>219</ele>
        <time>2018-07-27T09:52:17Z</time>
      </trkpt>
      <trkpt lat="45.86519" lon="4.69499">
        <ele>219</ele>
        <time>2018-07-27T09:52:18Z</time>
      </trkpt>
      <trkpt lat="45.86524" lon="4.69508">
        <ele>219</ele>
        <time>2018-07-27T09:52:20Z</time>
      </trkpt>
      <trkpt lat="45.86528" lon="4.69514">
        <ele>219</ele>
        <time>2018-07-27T09:52:21Z</time>
      </trkpt>
      <trkpt lat="45.86532" lon="4.69519">
        <ele>219</ele>
        <time>2018-07-27T09:52:22Z</time>
      </trkpt>
      <trkpt lat="45.86535" lon="4.69525">
        <ele>219</ele>
        <time>2018-07-27T09:52:23Z</time>
      </trkpt>
      <trkpt lat="45.86539" lon="4.69532">
        <ele>219</ele>
        <time>2018-07-27T09:52:24Z</time>
      </trkpt>
      <trkpt lat="45.86544" lon="4.69538">
        <ele>219</ele>
        <time>2018-07-27T09:52:25Z</time>
      </trkpt>
      <trkpt lat="45.86547" lon="4.69544">
        <ele>219</ele>
        <time>2018-07-27T09:52:26Z</time>
      </trkpt>
      <trkpt lat="45.86551" lon="4.6955">
        <ele>219</ele>
        <time>2018-07-27T09:52:27Z</time>
      </trkpt>
      <trkpt lat="45.86555" lon="4.69556">
        <ele>219</ele>
        <time>2018-07-27T09:52:28Z</time>
      </trkpt>
      <trkpt lat="45.86559" lon="4.69562">
        <ele>219</ele>
        <time>2018-07-27T09:52:29Z</time>
      </trkpt>
      <trkpt lat="45.86563" lon="4.69569">
        <ele>219</ele>
        <time>2018-07-27T09:52:30Z</time>
      </trkpt>
      <trkpt lat="45.86567" lon="4.69575">
        <ele>219</ele>
        <time>2018-07-27T09:52:31Z</time>
      </trkpt>
      <trkpt lat="45.86572" lon="4.69581">
        <ele>219</ele>
        <time>2018-07-27T09:52:32Z</time>
      </trkpt>
      <trkpt lat="45.86577" lon="4.69587">
        <ele>219</ele>
        <time>2018-07-27T09:52:33Z</time>
      </trkpt>
      <trkpt lat="45.86581" lon="4.69593">
        <ele>219</ele>
        <time>2018-07-27T09:52:34Z</time>
      </trkpt>
      <trkpt lat="45.86585" lon="4.69599">
        <ele>219</ele>
        <time>2018-07-27T09:52:35Z</time>
      </trkpt>
      <trkpt lat="45.86589" lon="4.69606">
        <ele>219</ele>
        <time>2018-07-27T09:52:36Z</time>
      </trkpt>
      <trkpt lat="45.86593" lon="4.69613">
        <ele>219</ele>
        <time>2018-07-27T09:52:37Z</time>
      </trkpt>
      <trkpt lat="45.86597" lon="4.69618">
        <ele>219</ele>
        <time>2018-07-27T09:52:38Z</time>
      </trkpt>
      <trkpt lat="45.866" lon="4.69625">
        <ele>219</ele>
        <time>2018-07-27T09:52:39Z</time>
      </trkpt>
      <trkpt lat="45.86604" lon="4.69631">
        <ele>219</ele>
        <time>2018-07-27T09:52:40Z</time>
      </trkpt>
      <trkpt lat="45.86607" lon="4.69637">
        <ele>219</ele>
        <time>2018-07-27T09:52:41Z</time>
      </trkpt>
      <trkpt lat="45.86612" lon="4.69642">
        <ele>219</ele>
        <time>2018-07-27T09:52:42Z</time>
      </trkpt>
      <trkpt lat="45.86615" lon="4.69648">
        <ele>219</ele>
        <time>2018-07-27T09:52:43Z</time>
      </trkpt>
      <trkpt lat="45.86619" lon="4.69654">
        <ele>219</ele>
        <time>2018-07-27T09:52:44Z</time>
      </trkpt>
      <trkpt lat="45.86623" lon="4.69661">
        <ele>219</ele>
        <time>2018-07-27T09:52:45Z</time>
      </trkpt>
      <trkpt lat="45.86627" lon="4.69666">
        <ele>218</ele>
        <time>2018-07-27T09:52:46Z</time>
      </trkpt>
      <trkpt lat="45.86632" lon="4.69673">
        <ele>218</ele>
        <time>2018-07-27T09:52:47Z</time>
      </trkpt>
      <trkpt lat="45.86636" lon="4.69678">
        <ele>218</ele>
        <time>2018-07-27T09:52:48Z</time>
      </trkpt>
      <trkpt lat="45.86641" lon="4.69684">
        <ele>218</ele>
        <time>2018-07-27T09:52:49Z</time>
      </trkpt>
      <trkpt lat="45.86647" lon="4.69687">
        <ele>218</ele>
        <time>2018-07-27T09:52:50Z</time>
      </trkpt>
      <trkpt lat="45.86652" lon="4.69693">
        <ele>218</ele>
        <time>2018-07-27T09:52:51Z</time>
      </trkpt>
      <trkpt lat="45.86656" lon="4.69698">
        <ele>218</ele>
        <time>2018-07-27T09:52:52Z</time>
      </trkpt>
      <trkpt lat="45.86661" lon="4.69703">
        <ele>218</ele>
        <time>2018-07-27T09:52:53Z</time>
      </trkpt>
      <trkpt lat="45.86665" lon="4.69707">
        <ele>218</ele>
        <time>2018-07-27T09:52:54Z</time>
      </trkpt>
      <trkpt lat="45.8667" lon="4.6971">
        <ele>217</ele>
        <time>2018-07-27T09:52:55Z</time>
      </trkpt>
      <trkpt lat="45.86675" lon="4.69715">
        <ele>217</ele>
        <time>2018-07-27T09:52:56Z</time>
      </trkpt>
      <trkpt lat="45.86679" lon="4.69719">
        <ele>217</ele>
        <time>2018-07-27T09:52:57Z</time>
      </trkpt>
      <trkpt lat="45.86684" lon="4.69724">
        <ele>217</ele>
        <time>2018-07-27T09:52:58Z</time>
      </trkpt>
      <trkpt lat="45.86689" lon="4.69729">
        <ele>217</ele>
        <time>2018-07-27T09:52:59Z</time>
      </trkpt>
      <trkpt lat="45.86695" lon="4.69734">
        <ele>217</ele>
        <time>2018-07-27T09:53:00Z</time>
      </trkpt>
      <trkpt lat="45.867" lon="4.69739">
        <ele>217</ele>
        <time>2018-07-27T09:53:01Z</time>
      </trkpt>
      <trkpt lat="45.86705" lon="4.69744">
        <ele>217</ele>
        <time>2018-07-27T09:53:02Z</time>
      </trkpt>
      <trkpt lat="45.8671" lon="4.69748">
        <ele>217</ele>
        <time>2018-07-27T09:53:03Z</time>
      </trkpt>
      <trkpt lat="45.86715" lon="4.69753">
        <ele>217</ele>
        <time>2018-07-27T09:53:04Z</time>
      </trkpt>
      <trkpt lat="45.86719" lon="4.69757">
        <ele>217</ele>
        <time>2018-07-27T09:53:05Z</time>
      </trkpt>
      <trkpt lat="45.86724" lon="4.69761">
        <ele>217</ele>
        <time>2018-07-27T09:53:06Z</time>
      </trkpt>
      <trkpt lat="45.86728" lon="4.69766">
        <ele>217</ele>
        <time>2018-07-27T09:53:07Z</time>
      </trkpt>
      <trkpt lat="45.86733" lon="4.6977">
        <ele>217</ele>
        <time>2018-07-27T09:53:08Z</time>
      </trkpt>
      <trkpt lat="45.86737" lon="4.69774">
        <ele>217</ele>
        <time>2018-07-27T09:53:09Z</time>
      </trkpt>
      <trkpt lat="45.86742" lon="4.69778">
        <ele>217</ele>
        <time>2018-07-27T09:53:10Z</time>
      </trkpt>
      <trkpt lat="45.86745" lon="4.69783">
        <ele>217</ele>
        <time>2018-07-27T09:53:11Z</time>
      </trkpt>
      <trkpt lat="45.8675" lon="4.69787">
        <ele>217</ele>
        <time>2018-07-27T09:53:12Z</time>
      </trkpt>
      <trkpt lat="45.86755" lon="4.69791">
        <ele>217</ele>
        <time>2018-07-27T09:53:13Z</time>
      </trkpt>
      <trkpt lat="45.8676" lon="4.69796">
        <ele>217</ele>
        <time>2018-07-27T09:53:14Z</time>
      </trkpt>
      <trkpt lat="45.86764" lon="4.69802">
        <ele>217</ele>
        <time>2018-07-27T09:53:15Z</time>
      </trkpt>
      <trkpt lat="45.86771" lon="4.69806">
        <ele>217</ele>
        <time>2018-07-27T09:53:16Z</time>
      </trkpt>
      <trkpt lat="45.86777" lon="4.6981">
        <ele>217</ele>
        <time>2018-07-27T09:53:17Z</time>
      </trkpt>
      <trkpt lat="45.86782" lon="4.69815">
        <ele>217</ele>
        <time>2018-07-27T09:53:18Z</time>
      </trkpt>
      <trkpt lat="45.86789" lon="4.6982">
        <ele>217</ele>
        <time>2018-07-27T09:53:19Z</time>
      </trkpt>
      <trkpt lat="45.86795" lon="4.69826">
        <ele>217</ele>
        <time>2018-07-27T09:53:20Z</time>
      </trkpt>
      <trkpt lat="45.86801" lon="4.69831">
        <ele>217</ele>
        <time>2018-07-27T09:53:21Z</time>
      </trkpt>
      <trkpt lat="45.86806" lon="4.69835">
        <ele>217</ele>
        <time>2018-07-27T09:53:22Z</time>
      </trkpt>
      <trkpt lat="45.86813" lon="4.69841">
        <ele>217</ele>
        <time>2018-07-27T09:53:23Z</time>
      </trkpt>
      <trkpt lat="45.86818" lon="4.69844">
        <ele>217</ele>
        <time>2018-07-27T09:53:24Z</time>
      </trkpt>
      <trkpt lat="45.86823" lon="4.69848">
        <ele>217</ele>
        <time>2018-07-27T09:53:25Z</time>
      </trkpt>
      <trkpt lat="45.86827" lon="4.69855">
        <ele>217</ele>
        <time>2018-07-27T09:53:26Z</time>
      </trkpt>
      <trkpt lat="45.86833" lon="4.69858">
        <ele>217</ele>
        <time>2018-07-27T09:53:27Z</time>
      </trkpt>
      <trkpt lat="45.86839" lon="4.69863">
        <ele>217</ele>
        <time>2018-07-27T09:53:28Z</time>
      </trkpt>
      <trkpt lat="45.86844" lon="4.69869">
        <ele>217</ele>
        <time>2018-07-27T09:53:29Z</time>
      </trkpt>
      <trkpt lat="45.86849" lon="4.69873">
        <ele>217</ele>
        <time>2018-07-27T09:53:30Z</time>
      </trkpt>
      <trkpt lat="45.86855" lon="4.69878">
        <ele>217</ele>
        <time>2018-07-27T09:53:31Z</time>
      </trkpt>
      <trkpt lat="45.8686" lon="4.69883">
        <ele>217</ele>
        <time>2018-07-27T09:53:32Z</time>
      </trkpt>
      <trkpt lat="45.86865" lon="4.69889">
        <ele>217</ele>
        <time>2018-07-27T09:53:33Z</time>
      </trkpt>
      <trkpt lat="45.86871" lon="4.69893">
        <ele>217</ele>
        <time>2018-07-27T09:53:34Z</time>
      </trkpt>
      <trkpt lat="45.86877" lon="4.69898">
        <ele>217</ele>
        <time>2018-07-27T09:53:35Z</time>
      </trkpt>
      <trkpt lat="45.86882" lon="4.69903">
        <ele>217</ele>
        <time>2018-07-27T09:53:36Z</time>
      </trkpt>
      <trkpt lat="45.86888" lon="4.69908">
        <ele>217</ele>
        <time>2018-07-27T09:53:37Z</time>
      </trkpt>
      <trkpt lat="45.86892" lon="4.69914">
        <ele>217</ele>
        <time>2018-07-27T09:53:38Z</time>
      </trkpt>
      <trkpt lat="45.86898" lon="4.69917">
        <ele>217</ele>
        <time>2018-07-27T09:53:39Z</time>
      </trkpt>
      <trkpt lat="45.86904" lon="4.6992">
        <ele>217</ele>
        <time>2018-07-27T09:53:40Z</time>
      </trkpt>
      <trkpt lat="45.86909" lon="4.69923">
        <ele>217</ele>
        <time>2018-07-27T09:53:41Z</time>
      </trkpt>
      <trkpt lat="45.86915" lon="4.69925">
        <ele>217</ele>
        <time>2018-07-27T09:53:42Z</time>
      </trkpt>
      <trkpt lat="45.86919" lon="4.6993">
        <ele>217</ele>
        <time>2018-07-27T09:53:43Z</time>
      </trkpt>
      <trkpt lat="45.86925" lon="4.69934">
        <ele>217</ele>
        <time>2018-07-27T09:53:44Z</time>
      </trkpt>
      <trkpt lat="45.86929" lon="4.69938">
        <ele>217</ele>
        <time>2018-07-27T09:53:45Z</time>
      </trkpt>
      <trkpt lat="45.86933" lon="4.69943">
        <ele>217</ele>
        <time>2018-07-27T09:53:46Z</time>
      </trkpt>
      <trkpt lat="45.86939" lon="4.69947">
        <ele>217</ele>
        <time>2018-07-27T09:53:47Z</time>
      </trkpt>
      <trkpt lat="45.86944" lon="4.69951">
        <ele>217</ele>
        <time>2018-07-27T09:53:48Z</time>
      </trkpt>
      <trkpt lat="45.86949" lon="4.69955">
        <ele>217</ele>
        <time>2018-07-27T09:53:49Z</time>
      </trkpt>
      <trkpt lat="45.86953" lon="4.69959">
        <ele>217</ele>
        <time>2018-07-27T09:53:50Z</time>
      </trkpt>
      <trkpt lat="45.86957" lon="4.69964">
        <ele>217</ele>
        <time>2018-07-27T09:53:51Z</time>
      </trkpt>
      <trkpt lat="45.86962" lon="4.69966">
        <ele>217</ele>
        <time>2018-07-27T09:53:52Z</time>
      </trkpt>
      <trkpt lat="45.86968" lon="4.6997">
        <ele>217</ele>
        <time>2018-07-27T09:53:53Z</time>
      </trkpt>
      <trkpt lat="45.86972" lon="4.69973">
        <ele>217</ele>
        <time>2018-07-27T09:53:54Z</time>
      </trkpt>
      <trkpt lat="45.86975" lon="4.6998">
        <ele>217</ele>
        <time>2018-07-27T09:53:55Z</time>
      </trkpt>
      <trkpt lat="45.86978" lon="4.69987">
        <ele>217</ele>
        <time>2018-07-27T09:53:56Z</time>
      </trkpt>
      <trkpt lat="45.86981" lon="4.69994">
        <ele>217</ele>
        <time>2018-07-27T09:53:57Z</time>
      </trkpt>
      <trkpt lat="45.86985" lon="4.69999">
        <ele>217</ele>
        <time>2018-07-27T09:53:58Z</time>
      </trkpt>
      <trkpt lat="45.8699" lon="4.70002">
        <ele>217</ele>
        <time>2018-07-27T09:53:59Z</time>
      </trkpt>
      <trkpt lat="45.86995" lon="4.70004">
        <ele>217</ele>
        <time>2018-07-27T09:54:00Z</time>
      </trkpt>
      <trkpt lat="45.87" lon="4.70007">
        <ele>217</ele>
        <time>2018-07-27T09:54:01Z</time>
      </trkpt>
      <trkpt lat="45.87006" lon="4.70007">
        <ele>217</ele>
        <time>2018-07-27T09:54:02Z</time>
      </trkpt>
      <trkpt lat="45.87011" lon="4.70007">
        <ele>217</ele>
        <time>2018-07-27T09:54:03Z</time>
      </trkpt>
      <trkpt lat="45.87017" lon="4.70009">
        <ele>217</ele>
        <time>2018-07-27T09:54:04Z</time>
      </trkpt>
      <trkpt lat="45.87024" lon="4.70013">
        <ele>217</ele>
        <time>2018-07-27T09:54:05Z</time>
      </trkpt>
      <trkpt lat="45.87028" lon="4.70017">
        <ele>217</ele>
        <time>2018-07-27T09:54:06Z</time>
      </trkpt>
      <trkpt lat="45.87032" lon="4.70022">
        <ele>217</ele>
        <time>2018-07-27T09:54:07Z</time>
      </trkpt>
      <trkpt lat="45.87036" lon="4.70028">
        <ele>217</ele>
        <time>2018-07-27T09:54:08Z</time>
      </trkpt>
      <trkpt lat="45.8704" lon="4.70034">
        <ele>217</ele>
        <time>2018-07-27T09:54:09Z</time>
      </trkpt>
      <trkpt lat="45.87044" lon="4.70041">
        <ele>217</ele>
        <time>2018-07-27T09:54:10Z</time>
      </trkpt>
      <trkpt lat="45.87047" lon="4.70047">
        <ele>217</ele>
        <time>2018-07-27T09:54:11Z</time>
      </trkpt>
      <trkpt lat="45.87051" lon="4.70053">
        <ele>217</ele>
        <time>2018-07-27T09:54:12Z</time>
      </trkpt>
      <trkpt lat="45.87055" lon="4.7006">
        <ele>217</ele>
        <time>2018-07-27T09:54:13Z</time>
      </trkpt>
      <trkpt lat="45.87058" lon="4.70068">
        <ele>217</ele>
        <time>2018-07-27T09:54:14Z</time>
      </trkpt>
      <trkpt lat="45.87061" lon="4.70075">
        <ele>217</ele>
        <time>2018-07-27T09:54:15Z</time>
      </trkpt>
      <trkpt lat="45.87063" lon="4.70083">
        <ele>217</ele>
        <time>2018-07-27T09:54:16Z</time>
      </trkpt>
      <trkpt lat="45.87066" lon="4.7009">
        <ele>217</ele>
        <time>2018-07-27T09:54:17Z</time>
      </trkpt>
      <trkpt lat="45.87069" lon="4.70097">
        <ele>217</ele>
        <time>2018-07-27T09:54:18Z</time>
      </trkpt>
      <trkpt lat="45.87073" lon="4.70105">
        <ele>217</ele>
        <time>2018-07-27T09:54:19Z</time>
      </trkpt>
      <trkpt lat="45.87077" lon="4.70112">
        <ele>217</ele>
        <time>2018-07-27T09:54:20Z</time>
      </trkpt>
      <trkpt lat="45.8708" lon="4.70118">
        <ele>217</ele>
        <time>2018-07-27T09:54:21Z</time>
      </trkpt>
      <trkpt lat="45.87084" lon="4.70125">
        <ele>217</ele>
        <time>2018-07-27T09:54:22Z</time>
      </trkpt>
      <trkpt lat="45.87088" lon="4.70131">
        <ele>217</ele>
        <time>2018-07-27T09:54:23Z</time>
      </trkpt>
      <trkpt lat="45.87091" lon="4.70138">
        <ele>217</ele>
        <time>2018-07-27T09:54:24Z</time>
      </trkpt>
      <trkpt lat="45.87094" lon="4.70143">
        <ele>217</ele>
        <time>2018-07-27T09:54:25Z</time>
      </trkpt>
      <trkpt lat="45.87098" lon="4.7015">
        <ele>217</ele>
        <time>2018-07-27T09:54:26Z</time>
      </trkpt>
      <trkpt lat="45.87102" lon="4.70156">
        <ele>217</ele>
        <time>2018-07-27T09:54:27Z</time>
      </trkpt>
      <trkpt lat="45.87105" lon="4.70161">
        <ele>217</ele>
        <time>2018-07-27T09:54:28Z</time>
      </trkpt>
      <trkpt lat="45.87109" lon="4.70168">
        <ele>216</ele>
        <time>2018-07-27T09:54:29Z</time>
      </trkpt>
      <trkpt lat="45.87113" lon="4.70174">
        <ele>216</ele>
        <time>2018-07-27T09:54:30Z</time>
      </trkpt>
      <trkpt lat="45.87117" lon="4.7018">
        <ele>216</ele>
        <time>2018-07-27T09:54:31Z</time>
      </trkpt>
      <trkpt lat="45.87121" lon="4.70187">
        <ele>216</ele>
        <time>2018-07-27T09:54:32Z</time>
      </trkpt>
      <trkpt lat="45.87125" lon="4.70192">
        <ele>216</ele>
        <time>2018-07-27T09:54:33Z</time>
      </trkpt>
      <trkpt lat="45.8713" lon="4.70196">
        <ele>216</ele>
        <time>2018-07-27T09:54:34Z</time>
      </trkpt>
      <trkpt lat="45.87134" lon="4.70202">
        <ele>216</ele>
        <time>2018-07-27T09:54:35Z</time>
      </trkpt>
      <trkpt lat="45.87138" lon="4.70208">
        <ele>216</ele>
        <time>2018-07-27T09:54:36Z</time>
      </trkpt>
      <trkpt lat="45.87143" lon="4.70213">
        <ele>216</ele>
        <time>2018-07-27T09:54:37Z</time>
      </trkpt>
      <trkpt lat="45.87148" lon="4.7022">
        <ele>216</ele>
        <time>2018-07-27T09:54:38Z</time>
      </trkpt>
      <trkpt lat="45.87153" lon="4.70224">
        <ele>216</ele>
        <time>2018-07-27T09:54:39Z</time>
      </trkpt>
      <trkpt lat="45.87158" lon="4.70232">
        <ele>216</ele>
        <time>2018-07-27T09:54:40Z</time>
      </trkpt>
      <trkpt lat="45.87163" lon="4.70237">
        <ele>216</ele>
        <time>2018-07-27T09:54:41Z</time>
      </trkpt>
      <trkpt lat="45.87167" lon="4.70244">
        <ele>216</ele>
        <time>2018-07-27T09:54:42Z</time>
      </trkpt>
      <trkpt lat="45.87172" lon="4.7025">
        <ele>216</ele>
        <time>2018-07-27T09:54:43Z</time>
      </trkpt>
      <trkpt lat="45.87177" lon="4.70256">
        <ele>216</ele>
        <time>2018-07-27T09:54:44Z</time>
      </trkpt>
      <trkpt lat="45.87181" lon="4.70263">
        <ele>216</ele>
        <time>2018-07-27T09:54:45Z</time>
      </trkpt>
      <trkpt lat="45.87186" lon="4.70269">
        <ele>217</ele>
        <time>2018-07-27T09:54:46Z</time>
      </trkpt>
      <trkpt lat="45.87191" lon="4.70276">
        <ele>217</ele>
        <time>2018-07-27T09:54:47Z</time>
      </trkpt>
      <trkpt lat="45.87196" lon="4.70281">
        <ele>217</ele>
        <time>2018-07-27T09:54:48Z</time>
      </trkpt>
      <trkpt lat="45.87201" lon="4.70288">
        <ele>217</ele>
        <time>2018-07-27T09:54:49Z</time>
      </trkpt>
      <trkpt lat="45.87205" lon="4.70294">
        <ele>217</ele>
        <time>2018-07-27T09:54:50Z</time>
      </trkpt>
      <trkpt lat="45.8721" lon="4.703">
        <ele>217</ele>
        <time>2018-07-27T09:54:51Z</time>
      </trkpt>
      <trkpt lat="45.87214" lon="4.70307">
        <ele>217</ele>
        <time>2018-07-27T09:54:52Z</time>
      </trkpt>
      <trkpt lat="45.87219" lon="4.70313">
        <ele>217</ele>
        <time>2018-07-27T09:54:53Z</time>
      </trkpt>
      <trkpt lat="45.87224" lon="4.70319">
        <ele>217</ele>
        <time>2018-07-27T09:54:54Z</time>
      </trkpt>
      <trkpt lat="45.87227" lon="4.70325">
        <ele>217</ele>
        <time>2018-07-27T09:54:55Z</time>
      </trkpt>
      <trkpt lat="45.87233" lon="4.7033">
        <ele>217</ele>
        <time>2018-07-27T09:54:56Z</time>
      </trkpt>
      <trkpt lat="45.87237" lon="4.70336">
        <ele>217</ele>
        <time>2018-07-27T09:54:57Z</time>
      </trkpt>
      <trkpt lat="45.87241" lon="4.7034">
        <ele>217</ele>
        <time>2018-07-27T09:54:58Z</time>
      </trkpt>
      <trkpt lat="45.87247" lon="4.70345">
        <ele>217</ele>
        <time>2018-07-27T09:54:59Z</time>
      </trkpt>
      <trkpt lat="45.8725" lon="4.70352">
        <ele>217</ele>
        <time>2018-07-27T09:55:00Z</time>
      </trkpt>
      <trkpt lat="45.87254" lon="4.70357">
        <ele>216</ele>
        <time>2018-07-27T09:55:01Z</time>
      </trkpt>
      <trkpt lat="45.87256" lon="4.70366">
        <ele>216</ele>
        <time>2018-07-27T09:55:02Z</time>
      </trkpt>
      <trkpt lat="45.8726" lon="4.70372">
        <ele>216</ele>
        <time>2018-07-27T09:55:03Z</time>
      </trkpt>
      <trkpt lat="45.87264" lon="4.70378">
        <ele>216</ele>
        <time>2018-07-27T09:55:04Z</time>
      </trkpt>
      <trkpt lat="45.87267" lon="4.70382">
        <ele>216</ele>
        <time>2018-07-27T09:55:05Z</time>
      </trkpt>
      <trkpt lat="45.87271" lon="4.7039">
        <ele>216</ele>
        <time>2018-07-27T09:55:06Z</time>
      </trkpt>
      <trkpt lat="45.87273" lon="4.70397">
        <ele>216</ele>
        <time>2018-07-27T09:55:07Z</time>
      </trkpt>
      <trkpt lat="45.87276" lon="4.70404">
        <ele>216</ele>
        <time>2018-07-27T09:55:08Z</time>
      </trkpt>
      <trkpt lat="45.87279" lon="4.70409">
        <ele>216</ele>
        <time>2018-07-27T09:55:09Z</time>
      </trkpt>
      <trkpt lat="45.87284" lon="4.70414">
        <ele>216</ele>
        <time>2018-07-27T09:55:10Z</time>
      </trkpt>
      <trkpt lat="45.87289" lon="4.70418">
        <ele>214</ele>
        <time>2018-07-27T09:55:11Z</time>
      </trkpt>
      <trkpt lat="45.87294" lon="4.70426">
        <ele>214</ele>
        <time>2018-07-27T09:55:12Z</time>
      </trkpt>
      <trkpt lat="45.873" lon="4.70432">
        <ele>214</ele>
        <time>2018-07-27T09:55:13Z</time>
      </trkpt>
      <trkpt lat="45.87305" lon="4.7044">
        <ele>214</ele>
        <time>2018-07-27T09:55:14Z</time>
      </trkpt>
      <trkpt lat="45.8731" lon="4.70447">
        <ele>214</ele>
        <time>2018-07-27T09:55:15Z</time>
      </trkpt>
      <trkpt lat="45.87314" lon="4.70455">
        <ele>214</ele>
        <time>2018-07-27T09:55:16Z</time>
      </trkpt>
      <trkpt lat="45.87318" lon="4.70462">
        <ele>214</ele>
        <time>2018-07-27T09:55:17Z</time>
      </trkpt>
      <trkpt lat="45.87323" lon="4.7047">
        <ele>214</ele>
        <time>2018-07-27T09:55:18Z</time>
      </trkpt>
      <trkpt lat="45.87327" lon="4.70478">
        <ele>214</ele>
        <time>2018-07-27T09:55:19Z</time>
      </trkpt>
      <trkpt lat="45.87333" lon="4.70486">
        <ele>213</ele>
        <time>2018-07-27T09:55:20Z</time>
      </trkpt>
      <trkpt lat="45.87339" lon="4.70495">
        <ele>213</ele>
        <time>2018-07-27T09:55:21Z</time>
      </trkpt>
      <trkpt lat="45.87344" lon="4.70504">
        <ele>213</ele>
        <time>2018-07-27T09:55:22Z</time>
      </trkpt>
      <trkpt lat="45.87349" lon="4.70512">
        <ele>212</ele>
        <time>2018-07-27T09:55:23Z</time>
      </trkpt>
      <trkpt lat="45.87354" lon="4.7052">
        <ele>212</ele>
        <time>2018-07-27T09:55:24Z</time>
      </trkpt>
      <trkpt lat="45.87361" lon="4.70528">
        <ele>212</ele>
        <time>2018-07-27T09:55:25Z</time>
      </trkpt>
      <trkpt lat="45.87365" lon="4.70537">
        <ele>212</ele>
        <time>2018-07-27T09:55:26Z</time>
      </trkpt>
      <trkpt lat="45.87372" lon="4.70545">
        <ele>212</ele>
        <time>2018-07-27T09:55:27Z</time>
      </trkpt>
      <trkpt lat="45.87378" lon="4.70555">
        <ele>212</ele>
        <time>2018-07-27T09:55:28Z</time>
      </trkpt>
      <trkpt lat="45.87385" lon="4.70564">
        <ele>211</ele>
        <time>2018-07-27T09:55:29Z</time>
      </trkpt>
      <trkpt lat="45.87392" lon="4.70571">
        <ele>211</ele>
        <time>2018-07-27T09:55:30Z</time>
      </trkpt>
      <trkpt lat="45.87398" lon="4.7058">
        <ele>211</ele>
        <time>2018-07-27T09:55:31Z</time>
      </trkpt>
      <trkpt lat="45.87404" lon="4.70589">
        <ele>210</ele>
        <time>2018-07-27T09:55:32Z</time>
      </trkpt>
      <trkpt lat="45.87409" lon="4.70597">
        <ele>210</ele>
        <time>2018-07-27T09:55:33Z</time>
      </trkpt>
      <trkpt lat="45.87413" lon="4.70607">
        <ele>210</ele>
        <time>2018-07-27T09:55:34Z</time>
      </trkpt>
      <trkpt lat="45.87417" lon="4.70616">
        <ele>210</ele>
        <time>2018-07-27T09:55:35Z</time>
      </trkpt>
      <trkpt lat="45.87419" lon="4.70627">
        <ele>210</ele>
        <time>2018-07-27T09:55:36Z</time>
      </trkpt>
      <trkpt lat="45.87421" lon="4.70636">
        <ele>209</ele>
        <time>2018-07-27T09:55:37Z</time>
      </trkpt>
      <trkpt lat="45.87424" lon="4.70646">
        <ele>209</ele>
        <time>2018-07-27T09:55:38Z</time>
      </trkpt>
      <trkpt lat="45.87425" lon="4.70656">
        <ele>208</ele>
        <time>2018-07-27T09:55:39Z</time>
      </trkpt>
      <trkpt lat="45.87426" lon="4.70665">
        <ele>208</ele>
        <time>2018-07-27T09:55:40Z</time>
      </trkpt>
      <trkpt lat="45.87426" lon="4.70673">
        <ele>208</ele>
        <time>2018-07-27T09:55:41Z</time>
      </trkpt>
      <trkpt lat="45.87427" lon="4.70681">
        <ele>209</ele>
        <time>2018-07-27T09:55:42Z</time>
      </trkpt>
      <trkpt lat="45.87428" lon="4.7069">
        <ele>209</ele>
        <time>2018-07-27T09:55:43Z</time>
      </trkpt>
      <trkpt lat="45.87429" lon="4.70697">
        <ele>209</ele>
        <time>2018-07-27T09:55:44Z</time>
      </trkpt>
      <trkpt lat="45.8743" lon="4.70706">
        <ele>209</ele>
        <time>2018-07-27T09:55:45Z</time>
      </trkpt>
      <trkpt lat="45.87431" lon="4.70714">
        <ele>209</ele>
        <time>2018-07-27T09:55:46Z</time>
      </trkpt>
      <trkpt lat="45.87433" lon="4.70725">
        <ele>209</ele>
        <time>2018-07-27T09:55:48Z</time>
      </trkpt>
      <trkpt lat="45.87434" lon="4.70734">
        <ele>209</ele>
        <time>2018-07-27T09:55:49Z</time>
      </trkpt>
      <trkpt lat="45.87437" lon="4.7074">
        <ele>209</ele>
        <time>2018-07-27T09:55:50Z</time>
      </trkpt>
      <trkpt lat="45.87438" lon="4.70746">
        <ele>209</ele>
        <time>2018-07-27T09:55:51Z</time>
      </trkpt>
      <trkpt lat="45.87439" lon="4.70752">
        <ele>210</ele>
        <time>2018-07-27T09:55:52Z</time>
      </trkpt>
      <trkpt lat="45.87439" lon="4.7076">
        <ele>210</ele>
        <time>2018-07-27T09:55:53Z</time>
      </trkpt>
      <trkpt lat="45.87441" lon="4.70766">
        <ele>210</ele>
        <time>2018-07-27T09:55:54Z</time>
      </trkpt>
      <trkpt lat="45.87443" lon="4.70771">
        <ele>210</ele>
        <time>2018-07-27T09:55:55Z</time>
      </trkpt>
      <trkpt lat="45.87444" lon="4.70777">
        <ele>210</ele>
        <time>2018-07-27T09:55:56Z</time>
      </trkpt>
      <trkpt lat="45.87446" lon="4.70784">
        <ele>211</ele>
        <time>2018-07-27T09:55:57Z</time>
      </trkpt>
      <trkpt lat="45.87448" lon="4.70796">
        <ele>211</ele>
        <time>2018-07-27T09:55:59Z</time>
      </trkpt>
      <trkpt lat="45.87449" lon="4.70802">
        <ele>211</ele>
        <time>2018-07-27T09:56:00Z</time>
      </trkpt>
      <trkpt lat="45.87451" lon="4.70812">
        <ele>211</ele>
        <time>2018-07-27T09:56:02Z</time>
      </trkpt>
      <trkpt lat="45.87452" lon="4.70818">
        <ele>211</ele>
        <time>2018-07-27T09:56:03Z</time>
      </trkpt>
      <trkpt lat="45.87453" lon="4.70824">
        <ele>211</ele>
        <time>2018-07-27T09:56:04Z</time>
      </trkpt>
      <trkpt lat="45.87455" lon="4.70832">
        <ele>211</ele>
        <time>2018-07-27T09:56:05Z</time>
      </trkpt>
      <trkpt lat="45.87456" lon="4.70838">
        <ele>213</ele>
        <time>2018-07-27T09:56:06Z</time>
      </trkpt>
      <trkpt lat="45.87458" lon="4.70845">
        <ele>213</ele>
        <time>2018-07-27T09:56:07Z</time>
      </trkpt>
      <trkpt lat="45.8746" lon="4.70856">
        <ele>213</ele>
        <time>2018-07-27T09:56:09Z</time>
      </trkpt>
      <trkpt lat="45.87462" lon="4.70864">
        <ele>213</ele>
        <time>2018-07-27T09:56:10Z</time>
      </trkpt>
      <trkpt lat="45.87463" lon="4.70871">
        <ele>213</ele>
        <time>2018-07-27T09:56:11Z</time>
      </trkpt>
      <trkpt lat="45.87464" lon="4.70878">
        <ele>213</ele>
        <time>2018-07-27T09:56:12Z</time>
      </trkpt>
      <trkpt lat="45.87465" lon="4.70885">
        <ele>214</ele>
        <time>2018-07-27T09:56:13Z</time>
      </trkpt>
      <trkpt lat="45.87466" lon="4.70893">
        <ele>214</ele>
        <time>2018-07-27T09:56:14Z</time>
      </trkpt>
      <trkpt lat="45.87468" lon="4.709">
        <ele>214</ele>
        <time>2018-07-27T09:56:15Z</time>
      </trkpt>
      <trkpt lat="45.8747" lon="4.7091">
        <ele>214</ele>
        <time>2018-07-27T09:56:16Z</time>
      </trkpt>
      <trkpt lat="45.87471" lon="4.70917">
        <ele>215</ele>
        <time>2018-07-27T09:56:17Z</time>
      </trkpt>
      <trkpt lat="45.87472" lon="4.70924">
        <ele>215</ele>
        <time>2018-07-27T09:56:18Z</time>
      </trkpt>
      <trkpt lat="45.87475" lon="4.70936">
        <ele>215</ele>
        <time>2018-07-27T09:56:20Z</time>
      </trkpt>
      <trkpt lat="45.87476" lon="4.70941">
        <ele>215</ele>
        <time>2018-07-27T09:56:21Z</time>
      </trkpt>
      <trkpt lat="45.87479" lon="4.70953">
        <ele>215</ele>
        <time>2018-07-27T09:56:23Z</time>
      </trkpt>
      <trkpt lat="45.8748" lon="4.70958">
        <ele>215</ele>
        <time>2018-07-27T09:56:24Z</time>
      </trkpt>
      <trkpt lat="45.87483" lon="4.70963">
        <ele>215</ele>
        <time>2018-07-27T09:56:25Z</time>
      </trkpt>
      <trkpt lat="45.87486" lon="4.70968">
        <ele>215</ele>
        <time>2018-07-27T09:56:26Z</time>
      </trkpt>
      <trkpt lat="45.87491" lon="4.70978">
        <ele>215</ele>
        <time>2018-07-27T09:56:28Z</time>
      </trkpt>
      <trkpt lat="45.87494" lon="4.70983">
        <ele>214</ele>
        <time>2018-07-27T09:56:29Z</time>
      </trkpt>
      <trkpt lat="45.87498" lon="4.70989">
        <ele>214</ele>
        <time>2018-07-27T09:56:30Z</time>
      </trkpt>
      <trkpt lat="45.87501" lon="4.70992">
        <ele>214</ele>
        <time>2018-07-27T09:56:31Z</time>
      </trkpt>
      <trkpt lat="45.87505" lon="4.70997">
        <ele>214</ele>
        <time>2018-07-27T09:56:32Z</time>
      </trkpt>
      <trkpt lat="45.87508" lon="4.71005">
        <ele>214</ele>
        <time>2018-07-27T09:56:33Z</time>
      </trkpt>
      <trkpt lat="45.87512" lon="4.71009">
        <ele>215</ele>
        <time>2018-07-27T09:56:34Z</time>
      </trkpt>
      <trkpt lat="45.87518" lon="4.71016">
        <ele>215</ele>
        <time>2018-07-27T09:56:35Z</time>
      </trkpt>
      <trkpt lat="45.87521" lon="4.71023">
        <ele>215</ele>
        <time>2018-07-27T09:56:36Z</time>
      </trkpt>
      <trkpt lat="45.87524" lon="4.71028">
        <ele>215</ele>
        <time>2018-07-27T09:56:37Z</time>
      </trkpt>
      <trkpt lat="45.87527" lon="4.71033">
        <ele>215</ele>
        <time>2018-07-27T09:56:38Z</time>
      </trkpt>
      <trkpt lat="45.8753" lon="4.71039">
        <ele>215</ele>
        <time>2018-07-27T09:56:39Z</time>
      </trkpt>
      <trkpt lat="45.87535" lon="4.71047">
        <ele>215</ele>
        <time>2018-07-27T09:56:42Z</time>
      </trkpt>
      <trkpt lat="45.87536" lon="4.7105">
        <ele>215</ele>
        <time>2018-07-27T09:56:43Z</time>
      </trkpt>
      <trkpt lat="45.87543" lon="4.71058">
        <ele>215</ele>
        <time>2018-07-27T09:56:47Z</time>
      </trkpt>
      <trkpt lat="45.87545" lon="4.71061">
        <ele>216</ele>
        <time>2018-07-27T09:56:48Z</time>
      </trkpt>
      <trkpt lat="45.87551" lon="4.71068">
        <ele>216</ele>
        <time>2018-07-27T09:56:51Z</time>
      </trkpt>
      <trkpt lat="45.87553" lon="4.71071">
        <ele>216</ele>
        <time>2018-07-27T09:56:52Z</time>
      </trkpt>
      <trkpt lat="45.87559" lon="4.71076">
        <ele>216</ele>
        <time>2018-07-27T09:56:54Z</time>
      </trkpt>
      <trkpt lat="45.87567" lon="4.71083">
        <ele>216</ele>
        <time>2018-07-27T09:56:55Z</time>
      </trkpt>
      <trkpt lat="45.87574" lon="4.71087">
        <ele>217</ele>
        <time>2018-07-27T09:56:57Z</time>
      </trkpt>
      <trkpt lat="45.87576" lon="4.71088">
        <ele>217</ele>
        <time>2018-07-27T09:56:58Z</time>
      </trkpt>
      <trkpt lat="45.87583" lon="4.71091">
        <ele>217</ele>
        <time>2018-07-27T09:57:02Z</time>
      </trkpt>
      <trkpt lat="45.87585" lon="4.71092">
        <ele>218</ele>
        <time>2018-07-27T09:57:03Z</time>
      </trkpt>
      <trkpt lat="45.87598" lon="4.71092">
        <ele>219</ele>
        <time>2018-07-27T09:57:04Z</time>
      </trkpt>
      <trkpt lat="45.87607" lon="4.71088">
        <ele>219</ele>
        <time>2018-07-27T09:57:06Z</time>
      </trkpt>
      <trkpt lat="45.8761" lon="4.71086">
        <ele>219</ele>
        <time>2018-07-27T09:57:07Z</time>
      </trkpt>
      <trkpt lat="45.87616" lon="4.71079">
        <ele>217</ele>
        <time>2018-07-27T09:57:08Z</time>
      </trkpt>
      <trkpt lat="45.8762" lon="4.71079">
        <ele>217</ele>
        <time>2018-07-27T09:57:09Z</time>
      </trkpt>
      <trkpt lat="45.87628" lon="4.71077">
        <ele>218</ele>
        <time>2018-07-27T09:57:11Z</time>
      </trkpt>
      <trkpt lat="45.87633" lon="4.71075">
        <ele>218</ele>
        <time>2018-07-27T09:57:12Z</time>
      </trkpt>
      <trkpt lat="45.87641" lon="4.71072">
        <ele>218</ele>
        <time>2018-07-27T09:57:15Z</time>
      </trkpt>
      <trkpt lat="45.87647" lon="4.71069">
        <ele>218</ele>
        <time>2018-07-27T09:57:16Z</time>
      </trkpt>
      <trkpt lat="45.87655" lon="4.71068">
        <ele>218</ele>
        <time>2018-07-27T09:57:18Z</time>
      </trkpt>
      <trkpt lat="45.87659" lon="4.71067">
        <ele>218</ele>
        <time>2018-07-27T09:57:19Z</time>
      </trkpt>
      <trkpt lat="45.87668" lon="4.71063">
        <ele>220</ele>
        <time>2018-07-27T09:57:21Z</time>
      </trkpt>
      <trkpt lat="45.87672" lon="4.71062">
        <ele>220</ele>
        <time>2018-07-27T09:57:22Z</time>
      </trkpt>
      <trkpt lat="45.87679" lon="4.7106">
        <ele>220</ele>
        <time>2018-07-27T09:57:24Z</time>
      </trkpt>
      <trkpt lat="45.87684" lon="4.71057">
        <ele>220</ele>
        <time>2018-07-27T09:57:25Z</time>
      </trkpt>
      <trkpt lat="45.8769" lon="4.71056">
        <ele>220</ele>
        <time>2018-07-27T09:57:26Z</time>
      </trkpt>
      <trkpt lat="45.87693" lon="4.71053">
        <ele>220</ele>
        <time>2018-07-27T09:57:27Z</time>
      </trkpt>
      <trkpt lat="45.87699" lon="4.71048">
        <ele>220</ele>
        <time>2018-07-27T09:57:28Z</time>
      </trkpt>
      <trkpt lat="45.87704" lon="4.71046">
        <ele>220</ele>
        <time>2018-07-27T09:57:29Z</time>
      </trkpt>
      <trkpt lat="45.87713" lon="4.71045">
        <ele>220</ele>
        <time>2018-07-27T09:57:31Z</time>
      </trkpt>
      <trkpt lat="45.87717" lon="4.71043">
        <ele>220</ele>
        <time>2018-07-27T09:57:32Z</time>
      </trkpt>
      <trkpt lat="45.87724" lon="4.71041">
        <ele>220</ele>
        <time>2018-07-27T09:57:34Z</time>
      </trkpt>
      <trkpt lat="45.8773" lon="4.71038">
        <ele>220</ele>
        <time>2018-07-27T09:57:35Z</time>
      </trkpt>
      <trkpt lat="45.87738" lon="4.71035">
        <ele>220</ele>
        <time>2018-07-27T09:57:37Z</time>
      </trkpt>
      <trkpt lat="45.87743" lon="4.71035">
        <ele>220</ele>
        <time>2018-07-27T09:57:38Z</time>
      </trkpt>
      <trkpt lat="45.8775" lon="4.71032">
        <ele>222</ele>
        <time>2018-07-27T09:57:40Z</time>
      </trkpt>
      <trkpt lat="45.87757" lon="4.71025">
        <ele>222</ele>
        <time>2018-07-27T09:57:41Z</time>
      </trkpt>
      <trkpt lat="45.87764" lon="4.71021">
        <ele>222</ele>
        <time>2018-07-27T09:57:42Z</time>
      </trkpt>
      <trkpt lat="45.87767" lon="4.71021">
        <ele>222</ele>
        <time>2018-07-27T09:57:43Z</time>
      </trkpt>
      <trkpt lat="45.87774" lon="4.71022">
        <ele>222</ele>
        <time>2018-07-27T09:57:46Z</time>
      </trkpt>
      <trkpt lat="45.87778" lon="4.71019">
        <ele>222</ele>
        <time>2018-07-27T09:57:47Z</time>
      </trkpt>
      <trkpt lat="45.87786" lon="4.71015">
        <ele>223</ele>
        <time>2018-07-27T09:57:49Z</time>
      </trkpt>
      <trkpt lat="45.87792" lon="4.71012">
        <ele>223</ele>
        <time>2018-07-27T09:57:50Z</time>
      </trkpt>
      <trkpt lat="45.87796" lon="4.7101">
        <ele>223</ele>
        <time>2018-07-27T09:57:51Z</time>
      </trkpt>
      <trkpt lat="45.878" lon="4.71006">
        <ele>223</ele>
        <time>2018-07-27T09:57:52Z</time>
      </trkpt>
      <trkpt lat="45.87808" lon="4.71004">
        <ele>223</ele>
        <time>2018-07-27T09:57:54Z</time>
      </trkpt>
      <trkpt lat="45.87811" lon="4.71005">
        <ele>223</ele>
        <time>2018-07-27T09:57:55Z</time>
      </trkpt>
      <trkpt lat="45.87818" lon="4.71008">
        <ele>223</ele>
        <time>2018-07-27T09:57:59Z</time>
      </trkpt>
      <trkpt lat="45.87827" lon="4.71004">
        <ele>224</ele>
        <time>2018-07-27T09:58:00Z</time>
      </trkpt>
      <trkpt lat="45.87832" lon="4.71001">
        <ele>224</ele>
        <time>2018-07-27T09:58:01Z</time>
      </trkpt>
      <trkpt lat="45.87837" lon="4.70997">
        <ele>224</ele>
        <time>2018-07-27T09:58:02Z</time>
      </trkpt>
      <trkpt lat="45.87844" lon="4.70994">
        <ele>224</ele>
        <time>2018-07-27T09:58:04Z</time>
      </trkpt>
      <trkpt lat="45.87849" lon="4.70992">
        <ele>224</ele>
        <time>2018-07-27T09:58:05Z</time>
      </trkpt>
      <trkpt lat="45.87855" lon="4.70987">
        <ele>224</ele>
        <time>2018-07-27T09:58:06Z</time>
      </trkpt>
      <trkpt lat="45.87859" lon="4.70984">
        <ele>224</ele>
        <time>2018-07-27T09:58:07Z</time>
      </trkpt>
      <trkpt lat="45.87866" lon="4.70982">
        <ele>225</ele>
        <time>2018-07-27T09:58:09Z</time>
      </trkpt>
      <trkpt lat="45.87868" lon="4.70982">
        <ele>225</ele>
        <time>2018-07-27T09:58:10Z</time>
      </trkpt>
      <trkpt lat="45.87875" lon="4.70978">
        <ele>225</ele>
        <time>2018-07-27T09:58:12Z</time>
      </trkpt>
      <trkpt lat="45.87879" lon="4.70976">
        <ele>225</ele>
        <time>2018-07-27T09:58:13Z</time>
      </trkpt>
      <trkpt lat="45.87883" lon="4.70972">
        <ele>225</ele>
        <time>2018-07-27T09:58:14Z</time>
      </trkpt>
      <trkpt lat="45.87887" lon="4.7097">
        <ele>225</ele>
        <time>2018-07-27T09:58:15Z</time>
      </trkpt>
      <trkpt lat="45.87895" lon="4.70964">
        <ele>225</ele>
        <time>2018-07-27T09:58:17Z</time>
      </trkpt>
      <trkpt lat="45.87898" lon="4.70962">
        <ele>225</ele>
        <time>2018-07-27T09:58:18Z</time>
      </trkpt>
      <trkpt lat="45.87904" lon="4.70958">
        <ele>225</ele>
        <time>2018-07-27T09:58:20Z</time>
      </trkpt>
      <trkpt lat="45.87908" lon="4.70955">
        <ele>225</ele>
        <time>2018-07-27T09:58:21Z</time>
      </trkpt>
      <trkpt lat="45.87912" lon="4.70952">
        <ele>225</ele>
        <time>2018-07-27T09:58:22Z</time>
      </trkpt>
      <trkpt lat="45.87919" lon="4.70945">
        <ele>225</ele>
        <time>2018-07-27T09:58:23Z</time>
      </trkpt>
      <trkpt lat="45.87923" lon="4.70942">
        <ele>225</ele>
        <time>2018-07-27T09:58:24Z</time>
      </trkpt>
      <trkpt lat="45.87928" lon="4.70936">
        <ele>225</ele>
        <time>2018-07-27T09:58:25Z</time>
      </trkpt>
      <trkpt lat="45.87934" lon="4.70932">
        <ele>225</ele>
        <time>2018-07-27T09:58:27Z</time>
      </trkpt>
      <trkpt lat="45.87937" lon="4.70929">
        <ele>225</ele>
        <time>2018-07-27T09:58:28Z</time>
      </trkpt>
      <trkpt lat="45.87942" lon="4.70926">
        <ele>225</ele>
        <time>2018-07-27T09:58:30Z</time>
      </trkpt>
      <trkpt lat="45.87946" lon="4.70923">
        <ele>225</ele>
        <time>2018-07-27T09:58:31Z</time>
      </trkpt>
      <trkpt lat="45.87952" lon="4.70918">
        <ele>225</ele>
        <time>2018-07-27T09:58:32Z</time>
      </trkpt>
      <trkpt lat="45.87955" lon="4.70917">
        <ele>225</ele>
        <time>2018-07-27T09:58:33Z</time>
      </trkpt>
      <trkpt lat="45.87962" lon="4.70911">
        <ele>225</ele>
        <time>2018-07-27T09:58:35Z</time>
      </trkpt>
      <trkpt lat="45.87967" lon="4.70908">
        <ele>225</ele>
        <time>2018-07-27T09:58:36Z</time>
      </trkpt>
      <trkpt lat="45.87972" lon="4.70905">
        <ele>225</ele>
        <time>2018-07-27T09:58:37Z</time>
      </trkpt>
      <trkpt lat="45.87977" lon="4.70902">
        <ele>225</ele>
        <time>2018-07-27T09:58:38Z</time>
      </trkpt>
      <trkpt lat="45.87985" lon="4.70897">
        <ele>225</ele>
        <time>2018-07-27T09:58:40Z</time>
      </trkpt>
      <trkpt lat="45.87989" lon="4.70894">
        <ele>225</ele>
        <time>2018-07-27T09:58:41Z</time>
      </trkpt>
      <trkpt lat="45.87996" lon="4.7089">
        <ele>225</ele>
        <time>2018-07-27T09:58:43Z</time>
      </trkpt>
      <trkpt lat="45.87999" lon="4.7089">
        <ele>225</ele>
        <time>2018-07-27T09:58:44Z</time>
      </trkpt>
      <trkpt lat="45.88007" lon="4.70885">
        <ele>226</ele>
        <time>2018-07-27T09:58:46Z</time>
      </trkpt>
      <trkpt lat="45.8801" lon="4.70881">
        <ele>226</ele>
        <time>2018-07-27T09:58:47Z</time>
      </trkpt>
      <trkpt lat="45.88018" lon="4.70877">
        <ele>226</ele>
        <time>2018-07-27T09:58:49Z</time>
      </trkpt>
      <trkpt lat="45.88022" lon="4.70875">
        <ele>226</ele>
        <time>2018-07-27T09:58:50Z</time>
      </trkpt>
      <trkpt lat="45.88026" lon="4.70872">
        <ele>226</ele>
        <time>2018-07-27T09:58:51Z</time>
      </trkpt>
      <trkpt lat="45.8803" lon="4.70869">
        <ele>226</ele>
        <time>2018-07-27T09:58:52Z</time>
      </trkpt>
      <trkpt lat="45.88038" lon="4.70865">
        <ele>226</ele>
        <time>2018-07-27T09:58:54Z</time>
      </trkpt>
      <trkpt lat="45.88042" lon="4.70862">
        <ele>227</ele>
        <time>2018-07-27T09:58:55Z</time>
      </trkpt>
      <trkpt lat="45.88049" lon="4.70857">
        <ele>227</ele>
        <time>2018-07-27T09:58:57Z</time>
      </trkpt>
      <trkpt lat="45.88054" lon="4.70854">
        <ele>227</ele>
        <time>2018-07-27T09:58:58Z</time>
      </trkpt>
      <trkpt lat="45.88061" lon="4.7085">
        <ele>227</ele>
        <time>2018-07-27T09:59:00Z</time>
      </trkpt>
      <trkpt lat="45.88065" lon="4.70847">
        <ele>227</ele>
        <time>2018-07-27T09:59:01Z</time>
      </trkpt>
      <trkpt lat="45.88073" lon="4.70842">
        <ele>228</ele>
        <time>2018-07-27T09:59:03Z</time>
      </trkpt>
      <trkpt lat="45.88077" lon="4.7084">
        <ele>228</ele>
        <time>2018-07-27T09:59:04Z</time>
      </trkpt>
      <trkpt lat="45.88085" lon="4.70842">
        <ele>229</ele>
        <time>2018-07-27T09:59:06Z</time>
      </trkpt>
      <trkpt lat="45.88089" lon="4.70844">
        <ele>229</ele>
        <time>2018-07-27T09:59:07Z</time>
      </trkpt>
      <trkpt lat="45.88097" lon="4.70848">
        <ele>229</ele>
        <time>2018-07-27T09:59:09Z</time>
      </trkpt>
      <trkpt lat="45.88103" lon="4.70848">
        <ele>229</ele>
        <time>2018-07-27T09:59:10Z</time>
      </trkpt>
      <trkpt lat="45.88108" lon="4.70847">
        <ele>229</ele>
        <time>2018-07-27T09:59:12Z</time>
      </trkpt>
      <trkpt lat="45.88113" lon="4.70842">
        <ele>229</ele>
        <time>2018-07-27T09:59:13Z</time>
      </trkpt>
      <trkpt lat="45.88117" lon="4.70833">
        <ele>230</ele>
        <time>2018-07-27T09:59:16Z</time>
      </trkpt>
      <trkpt lat="45.88118" lon="4.7083">
        <ele>230</ele>
        <time>2018-07-27T09:59:17Z</time>
      </trkpt>
      <trkpt lat="45.88123" lon="4.70821">
        <ele>230</ele>
        <time>2018-07-27T09:59:19Z</time>
      </trkpt>
      <trkpt lat="45.88125" lon="4.70819">
        <ele>230</ele>
        <time>2018-07-27T09:59:20Z</time>
      </trkpt>
      <trkpt lat="45.88132" lon="4.70812">
        <ele>230</ele>
        <time>2018-07-27T09:59:22Z</time>
      </trkpt>
      <trkpt lat="45.88136" lon="4.70807">
        <ele>231</ele>
        <time>2018-07-27T09:59:23Z</time>
      </trkpt>
      <trkpt lat="45.88143" lon="4.708">
        <ele>231</ele>
        <time>2018-07-27T09:59:26Z</time>
      </trkpt>
      <trkpt lat="45.88148" lon="4.70794">
        <ele>231</ele>
        <time>2018-07-27T09:59:27Z</time>
      </trkpt>
      <trkpt lat="45.88155" lon="4.70786">
        <ele>231</ele>
        <time>2018-07-27T09:59:29Z</time>
      </trkpt>
      <trkpt lat="45.88159" lon="4.70783">
        <ele>231</ele>
        <time>2018-07-27T09:59:30Z</time>
      </trkpt>
      <trkpt lat="45.88166" lon="4.70778">
        <ele>231</ele>
        <time>2018-07-27T09:59:32Z</time>
      </trkpt>
      <trkpt lat="45.8817" lon="4.70776">
        <ele>232</ele>
        <time>2018-07-27T09:59:33Z</time>
      </trkpt>
      <trkpt lat="45.88177" lon="4.70772">
        <ele>232</ele>
        <time>2018-07-27T09:59:35Z</time>
      </trkpt>
      <trkpt lat="45.88183" lon="4.70769">
        <ele>232</ele>
        <time>2018-07-27T09:59:36Z</time>
      </trkpt>
      <trkpt lat="45.88187" lon="4.70766">
        <ele>232</ele>
        <time>2018-07-27T09:59:37Z</time>
      </trkpt>
      <trkpt lat="45.88191" lon="4.70762">
        <ele>232</ele>
        <time>2018-07-27T09:59:38Z</time>
      </trkpt>
      <trkpt lat="45.88199" lon="4.70756">
        <ele>232</ele>
        <time>2018-07-27T09:59:40Z</time>
      </trkpt>
      <trkpt lat="45.88202" lon="4.70754">
        <ele>232</ele>
        <time>2018-07-27T09:59:41Z</time>
      </trkpt>
      <trkpt lat="45.88206" lon="4.70749">
        <ele>235</ele>
        <time>2018-07-27T09:59:42Z</time>
      </trkpt>
      <trkpt lat="45.8821" lon="4.70746">
        <ele>235</ele>
        <time>2018-07-27T09:59:43Z</time>
      </trkpt>
      <trkpt lat="45.88218" lon="4.70741">
        <ele>235</ele>
        <time>2018-07-27T09:59:45Z</time>
      </trkpt>
      <trkpt lat="45.88222" lon="4.70739">
        <ele>235</ele>
        <time>2018-07-27T09:59:46Z</time>
      </trkpt>
      <trkpt lat="45.88229" lon="4.70734">
        <ele>235</ele>
        <time>2018-07-27T09:59:48Z</time>
      </trkpt>
      <trkpt lat="45.88233" lon="4.70731">
        <ele>235</ele>
        <time>2018-07-27T09:59:49Z</time>
      </trkpt>
      <trkpt lat="45.88241" lon="4.70726">
        <ele>235</ele>
        <time>2018-07-27T09:59:51Z</time>
      </trkpt>
      <trkpt lat="45.88245" lon="4.70721">
        <ele>235</ele>
        <time>2018-07-27T09:59:52Z</time>
      </trkpt>
      <trkpt lat="45.88252" lon="4.70714">
        <ele>234</ele>
        <time>2018-07-27T09:59:54Z</time>
      </trkpt>
      <trkpt lat="45.88256" lon="4.7071">
        <ele>235</ele>
        <time>2018-07-27T09:59:55Z</time>
      </trkpt>
      <trkpt lat="45.88262" lon="4.70704">
        <ele>235</ele>
        <time>2018-07-27T09:59:57Z</time>
      </trkpt>
      <trkpt lat="45.88268" lon="4.707">
        <ele>235</ele>
        <time>2018-07-27T09:59:58Z</time>
      </trkpt>
      <trkpt lat="45.88273" lon="4.70698">
        <ele>235</ele>
        <time>2018-07-27T09:59:59Z</time>
      </trkpt>
      <trkpt lat="45.88278" lon="4.70693">
        <ele>235</ele>
        <time>2018-07-27T10:00:00Z</time>
      </trkpt>
      <trkpt lat="45.88282" lon="4.7069">
        <ele>235</ele>
        <time>2018-07-27T10:00:01Z</time>
      </trkpt>
      <trkpt lat="45.88287" lon="4.70687">
        <ele>235</ele>
        <time>2018-07-27T10:00:02Z</time>
      </trkpt>
      <trkpt lat="45.88295" lon="4.70682">
        <ele>235</ele>
        <time>2018-07-27T10:00:04Z</time>
      </trkpt>
      <trkpt lat="45.88298" lon="4.70678">
        <ele>235</ele>
        <time>2018-07-27T10:00:05Z</time>
      </trkpt>
      <trkpt lat="45.88306" lon="4.70672">
        <ele>235</ele>
        <time>2018-07-27T10:00:07Z</time>
      </trkpt>
      <trkpt lat="45.88309" lon="4.7067">
        <ele>235</ele>
        <time>2018-07-27T10:00:08Z</time>
      </trkpt>
      <trkpt lat="45.88314" lon="4.70666">
        <ele>237</ele>
        <time>2018-07-27T10:00:09Z</time>
      </trkpt>
      <trkpt lat="45.88318" lon="4.70664">
        <ele>237</ele>
        <time>2018-07-27T10:00:10Z</time>
      </trkpt>
      <trkpt lat="45.88322" lon="4.7066">
        <ele>237</ele>
        <time>2018-07-27T10:00:11Z</time>
      </trkpt>
      <trkpt lat="45.88327" lon="4.70656">
        <ele>237</ele>
        <time>2018-07-27T10:00:12Z</time>
      </trkpt>
      <trkpt lat="45.88331" lon="4.70652">
        <ele>237</ele>
        <time>2018-07-27T10:00:13Z</time>
      </trkpt>
      <trkpt lat="45.88336" lon="4.70648">
        <ele>235</ele>
        <time>2018-07-27T10:00:14Z</time>
      </trkpt>
      <trkpt lat="45.88341" lon="4.70644">
        <ele>235</ele>
        <time>2018-07-27T10:00:15Z</time>
      </trkpt>
      <trkpt lat="45.88345" lon="4.70641">
        <ele>235</ele>
        <time>2018-07-27T10:00:16Z</time>
      </trkpt>
      <trkpt lat="45.88353" lon="4.70636">
        <ele>235</ele>
        <time>2018-07-27T10:00:18Z</time>
      </trkpt>
      <trkpt lat="45.88358" lon="4.70634">
        <ele>235</ele>
        <time>2018-07-27T10:00:19Z</time>
      </trkpt>
      <trkpt lat="45.88362" lon="4.70631">
        <ele>235</ele>
        <time>2018-07-27T10:00:20Z</time>
      </trkpt>
      <trkpt lat="45.88366" lon="4.70628">
        <ele>235</ele>
        <time>2018-07-27T10:00:21Z</time>
      </trkpt>
      <trkpt lat="45.88373" lon="4.70626">
        <ele>235</ele>
        <time>2018-07-27T10:00:22Z</time>
      </trkpt>
      <trkpt lat="45.88378" lon="4.70622">
        <ele>235</ele>
        <time>2018-07-27T10:00:23Z</time>
      </trkpt>
      <trkpt lat="45.88381" lon="4.70618">
        <ele>235</ele>
        <time>2018-07-27T10:00:24Z</time>
      </trkpt>
      <trkpt lat="45.88387" lon="4.70611">
        <ele>235</ele>
        <time>2018-07-27T10:00:25Z</time>
      </trkpt>
      <trkpt lat="45.88392" lon="4.70607">
        <ele>235</ele>
        <time>2018-07-27T10:00:26Z</time>
      </trkpt>
      <trkpt lat="45.88398" lon="4.70602">
        <ele>235</ele>
        <time>2018-07-27T10:00:27Z</time>
      </trkpt>
      <trkpt lat="45.88404" lon="4.70598">
        <ele>235</ele>
        <time>2018-07-27T10:00:28Z</time>
      </trkpt>
      <trkpt lat="45.88409" lon="4.70594">
        <ele>235</ele>
        <time>2018-07-27T10:00:29Z</time>
      </trkpt>
      <trkpt lat="45.88414" lon="4.70589">
        <ele>235</ele>
        <time>2018-07-27T10:00:30Z</time>
      </trkpt>
      <trkpt lat="45.8842" lon="4.70585">
        <ele>234</ele>
        <time>2018-07-27T10:00:31Z</time>
      </trkpt>
      <trkpt lat="45.88424" lon="4.7058">
        <ele>235</ele>
        <time>2018-07-27T10:00:32Z</time>
      </trkpt>
      <trkpt lat="45.88429" lon="4.70577">
        <ele>235</ele>
        <time>2018-07-27T10:00:33Z</time>
      </trkpt>
      <trkpt lat="45.88435" lon="4.70571">
        <ele>234</ele>
        <time>2018-07-27T10:00:34Z</time>
      </trkpt>
      <trkpt lat="45.88441" lon="4.70566">
        <ele>234</ele>
        <time>2018-07-27T10:00:35Z</time>
      </trkpt>
      <trkpt lat="45.88445" lon="4.70561">
        <ele>234</ele>
        <time>2018-07-27T10:00:36Z</time>
      </trkpt>
      <trkpt lat="45.8845" lon="4.70557">
        <ele>234</ele>
        <time>2018-07-27T10:00:37Z</time>
      </trkpt>
      <trkpt lat="45.88455" lon="4.70554">
        <ele>234</ele>
        <time>2018-07-27T10:00:38Z</time>
      </trkpt>
      <trkpt lat="45.88461" lon="4.70549">
        <ele>234</ele>
        <time>2018-07-27T10:00:39Z</time>
      </trkpt>
      <trkpt lat="45.88466" lon="4.70546">
        <ele>234</ele>
        <time>2018-07-27T10:00:40Z</time>
      </trkpt>
      <trkpt lat="45.88472" lon="4.70542">
        <ele>234</ele>
        <time>2018-07-27T10:00:41Z</time>
      </trkpt>
      <trkpt lat="45.88477" lon="4.70538">
        <ele>234</ele>
        <time>2018-07-27T10:00:42Z</time>
      </trkpt>
      <trkpt lat="45.88482" lon="4.70532">
        <ele>234</ele>
        <time>2018-07-27T10:00:43Z</time>
      </trkpt>
      <trkpt lat="45.88485" lon="4.7053">
        <ele>234</ele>
        <time>2018-07-27T10:00:44Z</time>
      </trkpt>
      <trkpt lat="45.8849" lon="4.70526">
        <ele>234</ele>
        <time>2018-07-27T10:00:45Z</time>
      </trkpt>
      <trkpt lat="45.88495" lon="4.70523">
        <ele>233</ele>
        <time>2018-07-27T10:00:46Z</time>
      </trkpt>
      <trkpt lat="45.885" lon="4.70519">
        <ele>233</ele>
        <time>2018-07-27T10:00:47Z</time>
      </trkpt>
      <trkpt lat="45.88506" lon="4.70514">
        <ele>231</ele>
        <time>2018-07-27T10:00:48Z</time>
      </trkpt>
      <trkpt lat="45.88511" lon="4.70511">
        <ele>231</ele>
        <time>2018-07-27T10:00:49Z</time>
      </trkpt>
      <trkpt lat="45.88516" lon="4.70507">
        <ele>230</ele>
        <time>2018-07-27T10:00:50Z</time>
      </trkpt>
      <trkpt lat="45.88521" lon="4.70503">
        <ele>230</ele>
        <time>2018-07-27T10:00:51Z</time>
      </trkpt>
      <trkpt lat="45.88525" lon="4.705">
        <ele>230</ele>
        <time>2018-07-27T10:00:52Z</time>
      </trkpt>
      <trkpt lat="45.8853" lon="4.70497">
        <ele>232</ele>
        <time>2018-07-27T10:00:53Z</time>
      </trkpt>
      <trkpt lat="45.88535" lon="4.70491">
        <ele>232</ele>
        <time>2018-07-27T10:00:54Z</time>
      </trkpt>
      <trkpt lat="45.88541" lon="4.70488">
        <ele>232</ele>
        <time>2018-07-27T10:00:55Z</time>
      </trkpt>
      <trkpt lat="45.88547" lon="4.70483">
        <ele>232</ele>
        <time>2018-07-27T10:00:56Z</time>
      </trkpt>
      <trkpt lat="45.88552" lon="4.70478">
        <ele>231</ele>
        <time>2018-07-27T10:00:57Z</time>
      </trkpt>
      <trkpt lat="45.88557" lon="4.70473">
        <ele>231</ele>
        <time>2018-07-27T10:00:58Z</time>
      </trkpt>
      <trkpt lat="45.88564" lon="4.70466">
        <ele>231</ele>
        <time>2018-07-27T10:00:59Z</time>
      </trkpt>
      <trkpt lat="45.8857" lon="4.70462">
        <ele>231</ele>
        <time>2018-07-27T10:01:00Z</time>
      </trkpt>
      <trkpt lat="45.88576" lon="4.70459">
        <ele>231</ele>
        <time>2018-07-27T10:01:01Z</time>
      </trkpt>
      <trkpt lat="45.88581" lon="4.70455">
        <ele>232</ele>
        <time>2018-07-27T10:01:02Z</time>
      </trkpt>
      <trkpt lat="45.88586" lon="4.70449">
        <ele>228</ele>
        <time>2018-07-27T10:01:03Z</time>
      </trkpt>
      <trkpt lat="45.88592" lon="4.70445">
        <ele>228</ele>
        <time>2018-07-27T10:01:04Z</time>
      </trkpt>
      <trkpt lat="45.88598" lon="4.70441">
        <ele>229</ele>
        <time>2018-07-27T10:01:05Z</time>
      </trkpt>
      <trkpt lat="45.88603" lon="4.70437">
        <ele>229</ele>
        <time>2018-07-27T10:01:06Z</time>
      </trkpt>
      <trkpt lat="45.88609" lon="4.70433">
        <ele>228</ele>
        <time>2018-07-27T10:01:07Z</time>
      </trkpt>
      <trkpt lat="45.88614" lon="4.7043">
        <ele>228</ele>
        <time>2018-07-27T10:01:08Z</time>
      </trkpt>
      <trkpt lat="45.8862" lon="4.70424">
        <ele>228</ele>
        <time>2018-07-27T10:01:09Z</time>
      </trkpt>
      <trkpt lat="45.88626" lon="4.7042">
        <ele>228</ele>
        <time>2018-07-27T10:01:10Z</time>
      </trkpt>
      <trkpt lat="45.8863" lon="4.70416">
        <ele>230</ele>
        <time>2018-07-27T10:01:11Z</time>
      </trkpt>
      <trkpt lat="45.88635" lon="4.70413">
        <ele>230</ele>
        <time>2018-07-27T10:01:12Z</time>
      </trkpt>
      <trkpt lat="45.88642" lon="4.70406">
        <ele>230</ele>
        <time>2018-07-27T10:01:13Z</time>
      </trkpt>
      <trkpt lat="45.88648" lon="4.70402">
        <ele>230</ele>
        <time>2018-07-27T10:01:14Z</time>
      </trkpt>
      <trkpt lat="45.88653" lon="4.70397">
        <ele>230</ele>
        <time>2018-07-27T10:01:15Z</time>
      </trkpt>
      <trkpt lat="45.88659" lon="4.70393">
        <ele>230</ele>
        <time>2018-07-27T10:01:16Z</time>
      </trkpt>
      <trkpt lat="45.88662" lon="4.70389">
        <ele>230</ele>
        <time>2018-07-27T10:01:17Z</time>
      </trkpt>
      <trkpt lat="45.88667" lon="4.70385">
        <ele>228</ele>
        <time>2018-07-27T10:01:18Z</time>
      </trkpt>
      <trkpt lat="45.88672" lon="4.70381">
        <ele>228</ele>
        <time>2018-07-27T10:01:19Z</time>
      </trkpt>
      <trkpt lat="45.88679" lon="4.70376">
        <ele>228</ele>
        <time>2018-07-27T10:01:20Z</time>
      </trkpt>
      <trkpt lat="45.88683" lon="4.70374">
        <ele>228</ele>
        <time>2018-07-27T10:01:21Z</time>
      </trkpt>
      <trkpt lat="45.88688" lon="4.70371">
        <ele>229</ele>
        <time>2018-07-27T10:01:22Z</time>
      </trkpt>
      <trkpt lat="45.88692" lon="4.70368">
        <ele>229</ele>
        <time>2018-07-27T10:01:23Z</time>
      </trkpt>
      <trkpt lat="45.88697" lon="4.70363">
        <ele>229</ele>
        <time>2018-07-27T10:01:24Z</time>
      </trkpt>
      <trkpt lat="45.88701" lon="4.70359">
        <ele>229</ele>
        <time>2018-07-27T10:01:25Z</time>
      </trkpt>
      <trkpt lat="45.88705" lon="4.70356">
        <ele>229</ele>
        <time>2018-07-27T10:01:26Z</time>
      </trkpt>
      <trkpt lat="45.88709" lon="4.70352">
        <ele>229</ele>
        <time>2018-07-27T10:01:27Z</time>
      </trkpt>
      <trkpt lat="45.88713" lon="4.70349">
        <ele>229</ele>
        <time>2018-07-27T10:01:28Z</time>
      </trkpt>
      <trkpt lat="45.88717" lon="4.70344">
        <ele>229</ele>
        <time>2018-07-27T10:01:29Z</time>
      </trkpt>
      <trkpt lat="45.88721" lon="4.70341">
        <ele>229</ele>
        <time>2018-07-27T10:01:30Z</time>
      </trkpt>
      <trkpt lat="45.88726" lon="4.70332">
        <ele>233</ele>
        <time>2018-07-27T10:01:31Z</time>
      </trkpt>
      <trkpt lat="45.88731" lon="4.70328">
        <ele>232</ele>
        <time>2018-07-27T10:01:32Z</time>
      </trkpt>
      <trkpt lat="45.88736" lon="4.70326">
        <ele>232</ele>
        <time>2018-07-27T10:01:33Z</time>
      </trkpt>
      <trkpt lat="45.88742" lon="4.70321">
        <ele>232</ele>
        <time>2018-07-27T10:01:34Z</time>
      </trkpt>
      <trkpt lat="45.88747" lon="4.70317">
        <ele>232</ele>
        <time>2018-07-27T10:01:35Z</time>
      </trkpt>
      <trkpt lat="45.88753" lon="4.70314">
        <ele>232</ele>
        <time>2018-07-27T10:01:36Z</time>
      </trkpt>
      <trkpt lat="45.88758" lon="4.70308">
        <ele>232</ele>
        <time>2018-07-27T10:01:37Z</time>
      </trkpt>
      <trkpt lat="45.88763" lon="4.70305">
        <ele>233</ele>
        <time>2018-07-27T10:01:38Z</time>
      </trkpt>
      <trkpt lat="45.88768" lon="4.70301">
        <ele>233</ele>
        <time>2018-07-27T10:01:39Z</time>
      </trkpt>
      <trkpt lat="45.88775" lon="4.70295">
        <ele>234</ele>
        <time>2018-07-27T10:01:40Z</time>
      </trkpt>
      <trkpt lat="45.8878" lon="4.70291">
        <ele>234</ele>
        <time>2018-07-27T10:01:41Z</time>
      </trkpt>
      <trkpt lat="45.88784" lon="4.7029">
        <ele>234</ele>
        <time>2018-07-27T10:01:42Z</time>
      </trkpt>
      <trkpt lat="45.88789" lon="4.70286">
        <ele>234</ele>
        <time>2018-07-27T10:01:43Z</time>
      </trkpt>
      <trkpt lat="45.88794" lon="4.70282">
        <ele>234</ele>
        <time>2018-07-27T10:01:44Z</time>
      </trkpt>
      <trkpt lat="45.88798" lon="4.70277">
        <ele>234</ele>
        <time>2018-07-27T10:01:45Z</time>
      </trkpt>
      <trkpt lat="45.88802" lon="4.70275">
        <ele>234</ele>
        <time>2018-07-27T10:01:46Z</time>
      </trkpt>
      <trkpt lat="45.88807" lon="4.70272">
        <ele>235</ele>
        <time>2018-07-27T10:01:47Z</time>
      </trkpt>
      <trkpt lat="45.88812" lon="4.70267">
        <ele>235</ele>
        <time>2018-07-27T10:01:48Z</time>
      </trkpt>
      <trkpt lat="45.88815" lon="4.70263">
        <ele>235</ele>
        <time>2018-07-27T10:01:49Z</time>
      </trkpt>
      <trkpt lat="45.88821" lon="4.7026">
        <ele>235</ele>
        <time>2018-07-27T10:01:50Z</time>
      </trkpt>
      <trkpt lat="45.88825" lon="4.70257">
        <ele>236</ele>
        <time>2018-07-27T10:01:51Z</time>
      </trkpt>
      <trkpt lat="45.8883" lon="4.70256">
        <ele>236</ele>
        <time>2018-07-27T10:01:52Z</time>
      </trkpt>
      <trkpt lat="45.88834" lon="4.7025">
        <ele>237</ele>
        <time>2018-07-27T10:01:53Z</time>
      </trkpt>
      <trkpt lat="45.88837" lon="4.70247">
        <ele>237</ele>
        <time>2018-07-27T10:01:54Z</time>
      </trkpt>
      <trkpt lat="45.88843" lon="4.70242">
        <ele>238</ele>
        <time>2018-07-27T10:01:55Z</time>
      </trkpt>
      <trkpt lat="45.88848" lon="4.7024">
        <ele>238</ele>
        <time>2018-07-27T10:01:56Z</time>
      </trkpt>
      <trkpt lat="45.88852" lon="4.70237">
        <ele>238</ele>
        <time>2018-07-27T10:01:57Z</time>
      </trkpt>
      <trkpt lat="45.88856" lon="4.70234">
        <ele>238</ele>
        <time>2018-07-27T10:01:58Z</time>
      </trkpt>
      <trkpt lat="45.88861" lon="4.70231">
        <ele>238</ele>
        <time>2018-07-27T10:01:59Z</time>
      </trkpt>
      <trkpt lat="45.88867" lon="4.70228">
        <ele>238</ele>
        <time>2018-07-27T10:02:00Z</time>
      </trkpt>
      <trkpt lat="45.88873" lon="4.70222">
        <ele>239</ele>
        <time>2018-07-27T10:02:01Z</time>
      </trkpt>
      <trkpt lat="45.8888" lon="4.70218">
        <ele>239</ele>
        <time>2018-07-27T10:02:02Z</time>
      </trkpt>
      <trkpt lat="45.88885" lon="4.70214">
        <ele>239</ele>
        <time>2018-07-27T10:02:03Z</time>
      </trkpt>
      <trkpt lat="45.88891" lon="4.70214">
        <ele>238</ele>
        <time>2018-07-27T10:02:04Z</time>
      </trkpt>
      <trkpt lat="45.88896" lon="4.70211">
        <ele>239</ele>
        <time>2018-07-27T10:02:05Z</time>
      </trkpt>
      <trkpt lat="45.88902" lon="4.70208">
        <ele>239</ele>
        <time>2018-07-27T10:02:06Z</time>
      </trkpt>
      <trkpt lat="45.88908" lon="4.70205">
        <ele>239</ele>
        <time>2018-07-27T10:02:07Z</time>
      </trkpt>
      <trkpt lat="45.88912" lon="4.70203">
        <ele>239</ele>
        <time>2018-07-27T10:02:08Z</time>
      </trkpt>
      <trkpt lat="45.88918" lon="4.70201">
        <ele>235</ele>
        <time>2018-07-27T10:02:09Z</time>
      </trkpt>
      <trkpt lat="45.88921" lon="4.702">
        <ele>235</ele>
        <time>2018-07-27T10:02:10Z</time>
      </trkpt>
      <trkpt lat="45.88926" lon="4.70197">
        <ele>235</ele>
        <time>2018-07-27T10:02:11Z</time>
      </trkpt>
      <trkpt lat="45.88931" lon="4.70195">
        <ele>235</ele>
        <time>2018-07-27T10:02:12Z</time>
      </trkpt>
      <trkpt lat="45.88936" lon="4.70192">
        <ele>235</ele>
        <time>2018-07-27T10:02:13Z</time>
      </trkpt>
      <trkpt lat="45.88942" lon="4.7019">
        <ele>235</ele>
        <time>2018-07-27T10:02:14Z</time>
      </trkpt>
      <trkpt lat="45.88946" lon="4.70189">
        <ele>235</ele>
        <time>2018-07-27T10:02:15Z</time>
      </trkpt>
      <trkpt lat="45.88951" lon="4.70191">
        <ele>234</ele>
        <time>2018-07-27T10:02:18Z</time>
      </trkpt>
      <trkpt lat="45.88959" lon="4.70184">
        <ele>234</ele>
        <time>2018-07-27T10:02:19Z</time>
      </trkpt>
      <trkpt lat="45.88966" lon="4.70177">
        <ele>234</ele>
        <time>2018-07-27T10:02:20Z</time>
      </trkpt>
      <trkpt lat="45.88978" lon="4.7017">
        <ele>233</ele>
        <time>2018-07-27T10:02:21Z</time>
      </trkpt>
      <trkpt lat="45.88984" lon="4.70169">
        <ele>233</ele>
        <time>2018-07-27T10:02:23Z</time>
      </trkpt>
      <trkpt lat="45.88989" lon="4.70166">
        <ele>234</ele>
        <time>2018-07-27T10:02:24Z</time>
      </trkpt>
      <trkpt lat="45.88996" lon="4.70159">
        <ele>234</ele>
        <time>2018-07-27T10:02:25Z</time>
      </trkpt>
      <trkpt lat="45.89001" lon="4.70156">
        <ele>232</ele>
        <time>2018-07-27T10:02:26Z</time>
      </trkpt>
      <trkpt lat="45.89006" lon="4.70152">
        <ele>232</ele>
        <time>2018-07-27T10:02:27Z</time>
      </trkpt>
      <trkpt lat="45.89011" lon="4.70149">
        <ele>232</ele>
        <time>2018-07-27T10:02:28Z</time>
      </trkpt>
      <trkpt lat="45.89019" lon="4.70145">
        <ele>231</ele>
        <time>2018-07-27T10:02:30Z</time>
      </trkpt>
      <trkpt lat="45.89024" lon="4.70141">
        <ele>231</ele>
        <time>2018-07-27T10:02:31Z</time>
      </trkpt>
      <trkpt lat="45.89029" lon="4.70138">
        <ele>231</ele>
        <time>2018-07-27T10:02:32Z</time>
      </trkpt>
      <trkpt lat="45.89034" lon="4.70135">
        <ele>231</ele>
        <time>2018-07-27T10:02:33Z</time>
      </trkpt>
      <trkpt lat="45.8904" lon="4.70133">
        <ele>231</ele>
        <time>2018-07-27T10:02:34Z</time>
      </trkpt>
      <trkpt lat="45.89045" lon="4.7013">
        <ele>231</ele>
        <time>2018-07-27T10:02:35Z</time>
      </trkpt>
      <trkpt lat="45.8905" lon="4.70127">
        <ele>231</ele>
        <time>2018-07-27T10:02:36Z</time>
      </trkpt>
      <trkpt lat="45.89056" lon="4.70124">
        <ele>230</ele>
        <time>2018-07-27T10:02:37Z</time>
      </trkpt>
      <trkpt lat="45.89062" lon="4.70119">
        <ele>230</ele>
        <time>2018-07-27T10:02:38Z</time>
      </trkpt>
      <trkpt lat="45.89067" lon="4.70116">
        <ele>230</ele>
        <time>2018-07-27T10:02:39Z</time>
      </trkpt>
      <trkpt lat="45.89073" lon="4.70113">
        <ele>230</ele>
        <time>2018-07-27T10:02:40Z</time>
      </trkpt>
      <trkpt lat="45.89078" lon="4.7011">
        <ele>230</ele>
        <time>2018-07-27T10:02:41Z</time>
      </trkpt>
      <trkpt lat="45.89084" lon="4.70106">
        <ele>228</ele>
        <time>2018-07-27T10:02:42Z</time>
      </trkpt>
      <trkpt lat="45.89089" lon="4.70101">
        <ele>228</ele>
        <time>2018-07-27T10:02:43Z</time>
      </trkpt>
      <trkpt lat="45.89094" lon="4.70097">
        <ele>228</ele>
        <time>2018-07-27T10:02:44Z</time>
      </trkpt>
      <trkpt lat="45.891" lon="4.70092">
        <ele>228</ele>
        <time>2018-07-27T10:02:45Z</time>
      </trkpt>
      <trkpt lat="45.89105" lon="4.70088">
        <ele>228</ele>
        <time>2018-07-27T10:02:46Z</time>
      </trkpt>
      <trkpt lat="45.89112" lon="4.70084">
        <ele>228</ele>
        <time>2018-07-27T10:02:47Z</time>
      </trkpt>
      <trkpt lat="45.89119" lon="4.70079">
        <ele>231</ele>
        <time>2018-07-27T10:02:48Z</time>
      </trkpt>
      <trkpt lat="45.89125" lon="4.70075">
        <ele>231</ele>
        <time>2018-07-27T10:02:49Z</time>
      </trkpt>
      <trkpt lat="45.89131" lon="4.70072">
        <ele>231</ele>
        <time>2018-07-27T10:02:50Z</time>
      </trkpt>
      <trkpt lat="45.89138" lon="4.70068">
        <ele>231</ele>
        <time>2018-07-27T10:02:51Z</time>
      </trkpt>
      <trkpt lat="45.89144" lon="4.70065">
        <ele>231</ele>
        <time>2018-07-27T10:02:52Z</time>
      </trkpt>
      <trkpt lat="45.8915" lon="4.70061">
        <ele>231</ele>
        <time>2018-07-27T10:02:53Z</time>
      </trkpt>
      <trkpt lat="45.89157" lon="4.70058">
        <ele>231</ele>
        <time>2018-07-27T10:02:54Z</time>
      </trkpt>
      <trkpt lat="45.89163" lon="4.70055">
        <ele>231</ele>
        <time>2018-07-27T10:02:55Z</time>
      </trkpt>
      <trkpt lat="45.89169" lon="4.70052">
        <ele>229</ele>
        <time>2018-07-27T10:02:56Z</time>
      </trkpt>
      <trkpt lat="45.89175" lon="4.7005">
        <ele>229</ele>
        <time>2018-07-27T10:02:57Z</time>
      </trkpt>
      <trkpt lat="45.89181" lon="4.70047">
        <ele>229</ele>
        <time>2018-07-27T10:02:58Z</time>
      </trkpt>
      <trkpt lat="45.89187" lon="4.70045">
        <ele>229</ele>
        <time>2018-07-27T10:02:59Z</time>
      </trkpt>
      <trkpt lat="45.89191" lon="4.70043">
        <ele>229</ele>
        <time>2018-07-27T10:03:00Z</time>
      </trkpt>
      <trkpt lat="45.89197" lon="4.7004">
        <ele>229</ele>
        <time>2018-07-27T10:03:01Z</time>
      </trkpt>
      <trkpt lat="45.89201" lon="4.70038">
        <ele>229</ele>
        <time>2018-07-27T10:03:02Z</time>
      </trkpt>
      <trkpt lat="45.89206" lon="4.70035">
        <ele>229</ele>
        <time>2018-07-27T10:03:03Z</time>
      </trkpt>
      <trkpt lat="45.89211" lon="4.70034">
        <ele>229</ele>
        <time>2018-07-27T10:03:04Z</time>
      </trkpt>
      <trkpt lat="45.89217" lon="4.70032">
        <ele>229</ele>
        <time>2018-07-27T10:03:05Z</time>
      </trkpt>
      <trkpt lat="45.89223" lon="4.7003">
        <ele>229</ele>
        <time>2018-07-27T10:03:06Z</time>
      </trkpt>
      <trkpt lat="45.89226" lon="4.7003">
        <ele>228</ele>
        <time>2018-07-27T10:03:07Z</time>
      </trkpt>
      <trkpt lat="45.89232" lon="4.70029">
        <ele>228</ele>
        <time>2018-07-27T10:03:08Z</time>
      </trkpt>
      <trkpt lat="45.89238" lon="4.70026">
        <ele>228</ele>
        <time>2018-07-27T10:03:09Z</time>
      </trkpt>
      <trkpt lat="45.89246" lon="4.70022">
        <ele>228</ele>
        <time>2018-07-27T10:03:10Z</time>
      </trkpt>
      <trkpt lat="45.89252" lon="4.70019">
        <ele>227</ele>
        <time>2018-07-27T10:03:11Z</time>
      </trkpt>
      <trkpt lat="45.89259" lon="4.70017">
        <ele>227</ele>
        <time>2018-07-27T10:03:12Z</time>
      </trkpt>
      <trkpt lat="45.89264" lon="4.70013">
        <ele>227</ele>
        <time>2018-07-27T10:03:13Z</time>
      </trkpt>
      <trkpt lat="45.8927" lon="4.70011">
        <ele>227</ele>
        <time>2018-07-27T10:03:14Z</time>
      </trkpt>
      <trkpt lat="45.89276" lon="4.70009">
        <ele>227</ele>
        <time>2018-07-27T10:03:15Z</time>
      </trkpt>
      <trkpt lat="45.89282" lon="4.70005">
        <ele>226</ele>
        <time>2018-07-27T10:03:16Z</time>
      </trkpt>
      <trkpt lat="45.89287" lon="4.70003">
        <ele>226</ele>
        <time>2018-07-27T10:03:17Z</time>
      </trkpt>
      <trkpt lat="45.89296" lon="4.70002">
        <ele>226</ele>
        <time>2018-07-27T10:03:19Z</time>
      </trkpt>
      <trkpt lat="45.89301" lon="4.7">
        <ele>229</ele>
        <time>2018-07-27T10:03:20Z</time>
      </trkpt>
      <trkpt lat="45.89306" lon="4.69999">
        <ele>229</ele>
        <time>2018-07-27T10:03:21Z</time>
      </trkpt>
      <trkpt lat="45.89312" lon="4.69997">
        <ele>228</ele>
        <time>2018-07-27T10:03:22Z</time>
      </trkpt>
      <trkpt lat="45.89319" lon="4.69993">
        <ele>228</ele>
        <time>2018-07-27T10:03:23Z</time>
      </trkpt>
      <trkpt lat="45.89325" lon="4.69991">
        <ele>228</ele>
        <time>2018-07-27T10:03:24Z</time>
      </trkpt>
      <trkpt lat="45.89331" lon="4.69991">
        <ele>227</ele>
        <time>2018-07-27T10:03:25Z</time>
      </trkpt>
      <trkpt lat="45.89337" lon="4.69991">
        <ele>227</ele>
        <time>2018-07-27T10:03:26Z</time>
      </trkpt>
      <trkpt lat="45.89344" lon="4.6999">
        <ele>227</ele>
        <time>2018-07-27T10:03:27Z</time>
      </trkpt>
      <trkpt lat="45.89351" lon="4.6999">
        <ele>227</ele>
        <time>2018-07-27T10:03:28Z</time>
      </trkpt>
      <trkpt lat="45.89357" lon="4.6999">
        <ele>227</ele>
        <time>2018-07-27T10:03:29Z</time>
      </trkpt>
      <trkpt lat="45.89362" lon="4.69992">
        <ele>227</ele>
        <time>2018-07-27T10:03:30Z</time>
      </trkpt>
      <trkpt lat="45.89369" lon="4.69993">
        <ele>227</ele>
        <time>2018-07-27T10:03:31Z</time>
      </trkpt>
      <trkpt lat="45.89375" lon="4.69995">
        <ele>227</ele>
        <time>2018-07-27T10:03:32Z</time>
      </trkpt>
      <trkpt lat="45.89381" lon="4.69997">
        <ele>227</ele>
        <time>2018-07-27T10:03:33Z</time>
      </trkpt>
      <trkpt lat="45.89387" lon="4.69998">
        <ele>227</ele>
        <time>2018-07-27T10:03:34Z</time>
      </trkpt>
      <trkpt lat="45.89394" lon="4.69998">
        <ele>227</ele>
        <time>2018-07-27T10:03:35Z</time>
      </trkpt>
      <trkpt lat="45.894" lon="4.7">
        <ele>226</ele>
        <time>2018-07-27T10:03:36Z</time>
      </trkpt>
      <trkpt lat="45.89407" lon="4.70001">
        <ele>226</ele>
        <time>2018-07-27T10:03:37Z</time>
      </trkpt>
      <trkpt lat="45.89413" lon="4.70003">
        <ele>227</ele>
        <time>2018-07-27T10:03:38Z</time>
      </trkpt>
      <trkpt lat="45.89419" lon="4.70005">
        <ele>226</ele>
        <time>2018-07-27T10:03:39Z</time>
      </trkpt>
      <trkpt lat="45.89426" lon="4.70006">
        <ele>226</ele>
        <time>2018-07-27T10:03:40Z</time>
      </trkpt>
      <trkpt lat="45.89435" lon="4.70004">
        <ele>226</ele>
        <time>2018-07-27T10:03:41Z</time>
      </trkpt>
      <trkpt lat="45.89441" lon="4.70007">
        <ele>225</ele>
        <time>2018-07-27T10:03:42Z</time>
      </trkpt>
      <trkpt lat="45.89446" lon="4.70008">
        <ele>225</ele>
        <time>2018-07-27T10:03:43Z</time>
      </trkpt>
      <trkpt lat="45.89452" lon="4.70009">
        <ele>225</ele>
        <time>2018-07-27T10:03:44Z</time>
      </trkpt>
      <trkpt lat="45.89458" lon="4.7001">
        <ele>225</ele>
        <time>2018-07-27T10:03:45Z</time>
      </trkpt>
      <trkpt lat="45.89463" lon="4.70013">
        <ele>225</ele>
        <time>2018-07-27T10:03:46Z</time>
      </trkpt>
      <trkpt lat="45.89467" lon="4.70016">
        <ele>225</ele>
        <time>2018-07-27T10:03:47Z</time>
      </trkpt>
      <trkpt lat="45.89473" lon="4.70017">
        <ele>225</ele>
        <time>2018-07-27T10:03:48Z</time>
      </trkpt>
      <trkpt lat="45.89477" lon="4.70022">
        <ele>224</ele>
        <time>2018-07-27T10:03:49Z</time>
      </trkpt>
      <trkpt lat="45.89484" lon="4.70022">
        <ele>224</ele>
        <time>2018-07-27T10:03:50Z</time>
      </trkpt>
      <trkpt lat="45.89491" lon="4.70023">
        <ele>224</ele>
        <time>2018-07-27T10:03:51Z</time>
      </trkpt>
      <trkpt lat="45.89498" lon="4.70024">
        <ele>224</ele>
        <time>2018-07-27T10:03:52Z</time>
      </trkpt>
      <trkpt lat="45.89504" lon="4.70026">
        <ele>223</ele>
        <time>2018-07-27T10:03:53Z</time>
      </trkpt>
      <trkpt lat="45.8951" lon="4.70027">
        <ele>223</ele>
        <time>2018-07-27T10:03:54Z</time>
      </trkpt>
      <trkpt lat="45.89516" lon="4.70028">
        <ele>223</ele>
        <time>2018-07-27T10:03:55Z</time>
      </trkpt>
      <trkpt lat="45.89523" lon="4.70029">
        <ele>223</ele>
        <time>2018-07-27T10:03:56Z</time>
      </trkpt>
      <trkpt lat="45.89529" lon="4.7003">
        <ele>223</ele>
        <time>2018-07-27T10:03:57Z</time>
      </trkpt>
      <trkpt lat="45.89536" lon="4.70032">
        <ele>223</ele>
        <time>2018-07-27T10:03:58Z</time>
      </trkpt>
      <trkpt lat="45.89542" lon="4.70032">
        <ele>222</ele>
        <time>2018-07-27T10:03:59Z</time>
      </trkpt>
      <trkpt lat="45.89549" lon="4.70035">
        <ele>222</ele>
        <time>2018-07-27T10:04:00Z</time>
      </trkpt>
      <trkpt lat="45.89558" lon="4.70034">
        <ele>222</ele>
        <time>2018-07-27T10:04:01Z</time>
      </trkpt>
      <trkpt lat="45.89565" lon="4.70035">
        <ele>222</ele>
        <time>2018-07-27T10:04:02Z</time>
      </trkpt>
      <trkpt lat="45.89573" lon="4.70035">
        <ele>222</ele>
        <time>2018-07-27T10:04:03Z</time>
      </trkpt>
      <trkpt lat="45.89582" lon="4.70035">
        <ele>222</ele>
        <time>2018-07-27T10:04:04Z</time>
      </trkpt>
      <trkpt lat="45.89588" lon="4.70036">
        <ele>222</ele>
        <time>2018-07-27T10:04:05Z</time>
      </trkpt>
      <trkpt lat="45.89596" lon="4.70036">
        <ele>222</ele>
        <time>2018-07-27T10:04:06Z</time>
      </trkpt>
      <trkpt lat="45.89603" lon="4.70037">
        <ele>222</ele>
        <time>2018-07-27T10:04:07Z</time>
      </trkpt>
      <trkpt lat="45.8961" lon="4.70039">
        <ele>222</ele>
        <time>2018-07-27T10:04:08Z</time>
      </trkpt>
      <trkpt lat="45.89617" lon="4.7004">
        <ele>222</ele>
        <time>2018-07-27T10:04:09Z</time>
      </trkpt>
      <trkpt lat="45.89624" lon="4.7004">
        <ele>222</ele>
        <time>2018-07-27T10:04:10Z</time>
      </trkpt>
      <trkpt lat="45.89631" lon="4.70042">
        <ele>222</ele>
        <time>2018-07-27T10:04:11Z</time>
      </trkpt>
      <trkpt lat="45.89638" lon="4.70041">
        <ele>222</ele>
        <time>2018-07-27T10:04:12Z</time>
      </trkpt>
      <trkpt lat="45.89645" lon="4.70042">
        <ele>222</ele>
        <time>2018-07-27T10:04:13Z</time>
      </trkpt>
      <trkpt lat="45.89652" lon="4.70044">
        <ele>222</ele>
        <time>2018-07-27T10:04:14Z</time>
      </trkpt>
      <trkpt lat="45.89659" lon="4.70046">
        <ele>222</ele>
        <time>2018-07-27T10:04:15Z</time>
      </trkpt>
      <trkpt lat="45.89666" lon="4.70048">
        <ele>222</ele>
        <time>2018-07-27T10:04:16Z</time>
      </trkpt>
      <trkpt lat="45.89672" lon="4.70048">
        <ele>222</ele>
        <time>2018-07-27T10:04:17Z</time>
      </trkpt>
      <trkpt lat="45.89679" lon="4.70049">
        <ele>222</ele>
        <time>2018-07-27T10:04:18Z</time>
      </trkpt>
      <trkpt lat="45.89684" lon="4.70052">
        <ele>222</ele>
        <time>2018-07-27T10:04:19Z</time>
      </trkpt>
      <trkpt lat="45.89691" lon="4.70054">
        <ele>222</ele>
        <time>2018-07-27T10:04:20Z</time>
      </trkpt>
      <trkpt lat="45.89697" lon="4.70055">
        <ele>222</ele>
        <time>2018-07-27T10:04:21Z</time>
      </trkpt>
      <trkpt lat="45.89704" lon="4.70056">
        <ele>222</ele>
        <time>2018-07-27T10:04:22Z</time>
      </trkpt>
      <trkpt lat="45.89711" lon="4.70058">
        <ele>221</ele>
        <time>2018-07-27T10:04:23Z</time>
      </trkpt>
      <trkpt lat="45.89719" lon="4.70061">
        <ele>221</ele>
        <time>2018-07-27T10:04:24Z</time>
      </trkpt>
      <trkpt lat="45.89726" lon="4.70061">
        <ele>221</ele>
        <time>2018-07-27T10:04:25Z</time>
      </trkpt>
      <trkpt lat="45.89733" lon="4.70064">
        <ele>221</ele>
        <time>2018-07-27T10:04:26Z</time>
      </trkpt>
      <trkpt lat="45.89741" lon="4.70066">
        <ele>221</ele>
        <time>2018-07-27T10:04:27Z</time>
      </trkpt>
      <trkpt lat="45.8975" lon="4.70066">
        <ele>220</ele>
        <time>2018-07-27T10:04:28Z</time>
      </trkpt>
      <trkpt lat="45.89758" lon="4.70067">
        <ele>220</ele>
        <time>2018-07-27T10:04:29Z</time>
      </trkpt>
      <trkpt lat="45.89765" lon="4.70067">
        <ele>220</ele>
        <time>2018-07-27T10:04:30Z</time>
      </trkpt>
      <trkpt lat="45.89772" lon="4.70072">
        <ele>220</ele>
        <time>2018-07-27T10:04:31Z</time>
      </trkpt>
      <trkpt lat="45.89779" lon="4.70074">
        <ele>221</ele>
        <time>2018-07-27T10:04:32Z</time>
      </trkpt>
      <trkpt lat="45.89786" lon="4.70076">
        <ele>221</ele>
        <time>2018-07-27T10:04:33Z</time>
      </trkpt>
      <trkpt lat="45.89794" lon="4.70075">
        <ele>221</ele>
        <time>2018-07-27T10:04:34Z</time>
      </trkpt>
      <trkpt lat="45.89801" lon="4.70077">
        <ele>221</ele>
        <time>2018-07-27T10:04:35Z</time>
      </trkpt>
      <trkpt lat="45.89807" lon="4.70078">
        <ele>221</ele>
        <time>2018-07-27T10:04:36Z</time>
      </trkpt>
      <trkpt lat="45.89813" lon="4.70079">
        <ele>221</ele>
        <time>2018-07-27T10:04:37Z</time>
      </trkpt>
      <trkpt lat="45.89818" lon="4.70078">
        <ele>221</ele>
        <time>2018-07-27T10:04:38Z</time>
      </trkpt>
      <trkpt lat="45.89822" lon="4.70078">
        <ele>220</ele>
        <time>2018-07-27T10:04:39Z</time>
      </trkpt>
      <trkpt lat="45.89831" lon="4.7008">
        <ele>220</ele>
        <time>2018-07-27T10:04:44Z</time>
      </trkpt>
      <trkpt lat="45.89839" lon="4.7008">
        <ele>220</ele>
        <time>2018-07-27T10:04:45Z</time>
      </trkpt>
      <trkpt lat="45.89846" lon="4.7008">
        <ele>221</ele>
        <time>2018-07-27T10:04:47Z</time>
      </trkpt>
      <trkpt lat="45.8985" lon="4.70081">
        <ele>221</ele>
        <time>2018-07-27T10:04:48Z</time>
      </trkpt>
      <trkpt lat="45.89856" lon="4.70079">
        <ele>221</ele>
        <time>2018-07-27T10:04:49Z</time>
      </trkpt>
      <trkpt lat="45.89861" lon="4.70078">
        <ele>221</ele>
        <time>2018-07-27T10:04:50Z</time>
      </trkpt>
      <trkpt lat="45.89866" lon="4.7008">
        <ele>221</ele>
        <time>2018-07-27T10:04:51Z</time>
      </trkpt>
      <trkpt lat="45.89872" lon="4.7008">
        <ele>221</ele>
        <time>2018-07-27T10:04:52Z</time>
      </trkpt>
      <trkpt lat="45.89878" lon="4.7008">
        <ele>221</ele>
        <time>2018-07-27T10:04:53Z</time>
      </trkpt>
      <trkpt lat="45.89883" lon="4.70081">
        <ele>221</ele>
        <time>2018-07-27T10:04:54Z</time>
      </trkpt>
      <trkpt lat="45.89891" lon="4.70084">
        <ele>220</ele>
        <time>2018-07-27T10:04:56Z</time>
      </trkpt>
      <trkpt lat="45.89896" lon="4.70085">
        <ele>220</ele>
        <time>2018-07-27T10:04:57Z</time>
      </trkpt>
      <trkpt lat="45.89901" lon="4.70085">
        <ele>220</ele>
        <time>2018-07-27T10:04:58Z</time>
      </trkpt>
      <trkpt lat="45.89907" lon="4.70084">
        <ele>221</ele>
        <time>2018-07-27T10:04:59Z</time>
      </trkpt>
      <trkpt lat="45.89915" lon="4.70083">
        <ele>221</ele>
        <time>2018-07-27T10:05:01Z</time>
      </trkpt>
      <trkpt lat="45.8992" lon="4.70083">
        <ele>221</ele>
        <time>2018-07-27T10:05:02Z</time>
      </trkpt>
      <trkpt lat="45.89926" lon="4.70085">
        <ele>221</ele>
        <time>2018-07-27T10:05:03Z</time>
      </trkpt>
      <trkpt lat="45.89931" lon="4.70084">
        <ele>221</ele>
        <time>2018-07-27T10:05:04Z</time>
      </trkpt>
      <trkpt lat="45.89935" lon="4.70084">
        <ele>221</ele>
        <time>2018-07-27T10:05:05Z</time>
      </trkpt>
      <trkpt lat="45.8994" lon="4.70085">
        <ele>221</ele>
        <time>2018-07-27T10:05:06Z</time>
      </trkpt>
      <trkpt lat="45.89947" lon="4.70089">
        <ele>221</ele>
        <time>2018-07-27T10:05:08Z</time>
      </trkpt>
      <trkpt lat="45.89951" lon="4.70089">
        <ele>221</ele>
        <time>2018-07-27T10:05:09Z</time>
      </trkpt>
      <trkpt lat="45.8996" lon="4.70089">
        <ele>221</ele>
        <time>2018-07-27T10:05:11Z</time>
      </trkpt>
      <trkpt lat="45.89965" lon="4.70087">
        <ele>221</ele>
        <time>2018-07-27T10:05:12Z</time>
      </trkpt>
      <trkpt lat="45.8997" lon="4.70088">
        <ele>221</ele>
        <time>2018-07-27T10:05:13Z</time>
      </trkpt>
      <trkpt lat="45.89976" lon="4.70089">
        <ele>221</ele>
        <time>2018-07-27T10:05:14Z</time>
      </trkpt>
      <trkpt lat="45.8998" lon="4.70089">
        <ele>221</ele>
        <time>2018-07-27T10:05:15Z</time>
      </trkpt>
      <trkpt lat="45.89985" lon="4.7009">
        <ele>222</ele>
        <time>2018-07-27T10:05:16Z</time>
      </trkpt>
      <trkpt lat="45.89991" lon="4.7009">
        <ele>222</ele>
        <time>2018-07-27T10:05:17Z</time>
      </trkpt>
      <trkpt lat="45.89996" lon="4.70089">
        <ele>222</ele>
        <time>2018-07-27T10:05:18Z</time>
      </trkpt>
      <trkpt lat="45.90002" lon="4.7009">
        <ele>222</ele>
        <time>2018-07-27T10:05:19Z</time>
      </trkpt>
      <trkpt lat="45.90007" lon="4.7009">
        <ele>222</ele>
        <time>2018-07-27T10:05:20Z</time>
      </trkpt>
      <trkpt lat="45.90013" lon="4.7009">
        <ele>222</ele>
        <time>2018-07-27T10:05:21Z</time>
      </trkpt>
      <trkpt lat="45.90018" lon="4.70089">
        <ele>222</ele>
        <time>2018-07-27T10:05:22Z</time>
      </trkpt>
      <trkpt lat="45.90026" lon="4.70091">
        <ele>222</ele>
        <time>2018-07-27T10:05:24Z</time>
      </trkpt>
      <trkpt lat="45.90031" lon="4.7009">
        <ele>222</ele>
        <time>2018-07-27T10:05:25Z</time>
      </trkpt>
      <trkpt lat="45.9004" lon="4.7009">
        <ele>222</ele>
        <time>2018-07-27T10:05:27Z</time>
      </trkpt>
      <trkpt lat="45.90045" lon="4.7009">
        <ele>222</ele>
        <time>2018-07-27T10:05:28Z</time>
      </trkpt>
      <trkpt lat="45.9005" lon="4.70091">
        <ele>222</ele>
        <time>2018-07-27T10:05:29Z</time>
      </trkpt>
      <trkpt lat="45.90055" lon="4.7009">
        <ele>222</ele>
        <time>2018-07-27T10:05:30Z</time>
      </trkpt>
      <trkpt lat="45.90059" lon="4.70091">
        <ele>223</ele>
        <time>2018-07-27T10:05:31Z</time>
      </trkpt>
      <trkpt lat="45.90064" lon="4.70092">
        <ele>223</ele>
        <time>2018-07-27T10:05:32Z</time>
      </trkpt>
      <trkpt lat="45.90069" lon="4.70091">
        <ele>223</ele>
        <time>2018-07-27T10:05:33Z</time>
      </trkpt>
      <trkpt lat="45.90073" lon="4.70091">
        <ele>223</ele>
        <time>2018-07-27T10:05:34Z</time>
      </trkpt>
      <trkpt lat="45.90082" lon="4.70089">
        <ele>223</ele>
        <time>2018-07-27T10:05:36Z</time>
      </trkpt>
      <trkpt lat="45.90085" lon="4.70087">
        <ele>224</ele>
        <time>2018-07-27T10:05:37Z</time>
      </trkpt>
      <trkpt lat="45.90089" lon="4.70085">
        <ele>224</ele>
        <time>2018-07-27T10:05:38Z</time>
      </trkpt>
      <trkpt lat="45.90094" lon="4.70086">
        <ele>224</ele>
        <time>2018-07-27T10:05:39Z</time>
      </trkpt>
      <trkpt lat="45.90099" lon="4.70084">
        <ele>224</ele>
        <time>2018-07-27T10:05:40Z</time>
      </trkpt>
      <trkpt lat="45.90104" lon="4.70085">
        <ele>223</ele>
        <time>2018-07-27T10:05:41Z</time>
      </trkpt>
      <trkpt lat="45.90109" lon="4.70085">
        <ele>223</ele>
        <time>2018-07-27T10:05:42Z</time>
      </trkpt>
      <trkpt lat="45.90113" lon="4.70084">
        <ele>223</ele>
        <time>2018-07-27T10:05:43Z</time>
      </trkpt>
      <trkpt lat="45.90118" lon="4.70085">
        <ele>223</ele>
        <time>2018-07-27T10:05:44Z</time>
      </trkpt>
      <trkpt lat="45.90122" lon="4.70086">
        <ele>223</ele>
        <time>2018-07-27T10:05:45Z</time>
      </trkpt>
      <trkpt lat="45.90131" lon="4.70086">
        <ele>223</ele>
        <time>2018-07-27T10:05:47Z</time>
      </trkpt>
      <trkpt lat="45.90135" lon="4.70086">
        <ele>224</ele>
        <time>2018-07-27T10:05:48Z</time>
      </trkpt>
      <trkpt lat="45.90141" lon="4.70082">
        <ele>226</ele>
        <time>2018-07-27T10:05:49Z</time>
      </trkpt>
      <trkpt lat="45.90146" lon="4.70081">
        <ele>226</ele>
        <time>2018-07-27T10:05:50Z</time>
      </trkpt>
      <trkpt lat="45.90152" lon="4.70083">
        <ele>226</ele>
        <time>2018-07-27T10:05:52Z</time>
      </trkpt>
      <trkpt lat="45.90157" lon="4.7008">
        <ele>226</ele>
        <time>2018-07-27T10:05:53Z</time>
      </trkpt>
      <trkpt lat="45.90165" lon="4.7008">
        <ele>225</ele>
        <time>2018-07-27T10:05:55Z</time>
      </trkpt>
      <trkpt lat="45.90169" lon="4.70079">
        <ele>225</ele>
        <time>2018-07-27T10:05:56Z</time>
      </trkpt>
      <trkpt lat="45.90173" lon="4.70076">
        <ele>225</ele>
        <time>2018-07-27T10:05:57Z</time>
      </trkpt>
      <trkpt lat="45.90178" lon="4.70075">
        <ele>225</ele>
        <time>2018-07-27T10:05:58Z</time>
      </trkpt>
      <trkpt lat="45.90186" lon="4.70073">
        <ele>226</ele>
        <time>2018-07-27T10:06:00Z</time>
      </trkpt>
      <trkpt lat="45.90192" lon="4.7007">
        <ele>226</ele>
        <time>2018-07-27T10:06:01Z</time>
      </trkpt>
      <trkpt lat="45.902" lon="4.70072">
        <ele>226</ele>
        <time>2018-07-27T10:06:03Z</time>
      </trkpt>
      <trkpt lat="45.90205" lon="4.70071">
        <ele>226</ele>
        <time>2018-07-27T10:06:04Z</time>
      </trkpt>
      <trkpt lat="45.90211" lon="4.70069">
        <ele>226</ele>
        <time>2018-07-27T10:06:05Z</time>
      </trkpt>
      <trkpt lat="45.90216" lon="4.70067">
        <ele>225</ele>
        <time>2018-07-27T10:06:06Z</time>
      </trkpt>
      <trkpt lat="45.9022" lon="4.70067">
        <ele>225</ele>
        <time>2018-07-27T10:06:07Z</time>
      </trkpt>
      <trkpt lat="45.90225" lon="4.70065">
        <ele>225</ele>
        <time>2018-07-27T10:06:08Z</time>
      </trkpt>
      <trkpt lat="45.90234" lon="4.70063">
        <ele>225</ele>
        <time>2018-07-27T10:06:10Z</time>
      </trkpt>
      <trkpt lat="45.90239" lon="4.70062">
        <ele>225</ele>
        <time>2018-07-27T10:06:11Z</time>
      </trkpt>
      <trkpt lat="45.90244" lon="4.70062">
        <ele>225</ele>
        <time>2018-07-27T10:06:12Z</time>
      </trkpt>
      <trkpt lat="45.90249" lon="4.70059">
        <ele>225</ele>
        <time>2018-07-27T10:06:13Z</time>
      </trkpt>
      <trkpt lat="45.90254" lon="4.70057">
        <ele>224</ele>
        <time>2018-07-27T10:06:14Z</time>
      </trkpt>
      <trkpt lat="45.9026" lon="4.70057">
        <ele>224</ele>
        <time>2018-07-27T10:06:15Z</time>
      </trkpt>
      <trkpt lat="45.90265" lon="4.70056">
        <ele>224</ele>
        <time>2018-07-27T10:06:16Z</time>
      </trkpt>
      <trkpt lat="45.90269" lon="4.70057">
        <ele>224</ele>
        <time>2018-07-27T10:06:17Z</time>
      </trkpt>
      <trkpt lat="45.90274" lon="4.70056">
        <ele>224</ele>
        <time>2018-07-27T10:06:18Z</time>
      </trkpt>
      <trkpt lat="45.90279" lon="4.70055">
        <ele>224</ele>
        <time>2018-07-27T10:06:19Z</time>
      </trkpt>
      <trkpt lat="45.90285" lon="4.70055">
        <ele>224</ele>
        <time>2018-07-27T10:06:20Z</time>
      </trkpt>
      <trkpt lat="45.9029" lon="4.70054">
        <ele>224</ele>
        <time>2018-07-27T10:06:21Z</time>
      </trkpt>
      <trkpt lat="45.90295" lon="4.70053">
        <ele>224</ele>
        <time>2018-07-27T10:06:22Z</time>
      </trkpt>
      <trkpt lat="45.90299" lon="4.70052">
        <ele>224</ele>
        <time>2018-07-27T10:06:23Z</time>
      </trkpt>
      <trkpt lat="45.90308" lon="4.7005">
        <ele>224</ele>
        <time>2018-07-27T10:06:25Z</time>
      </trkpt>
      <trkpt lat="45.90314" lon="4.70049">
        <ele>224</ele>
        <time>2018-07-27T10:06:26Z</time>
      </trkpt>
      <trkpt lat="45.90319" lon="4.70047">
        <ele>224</ele>
        <time>2018-07-27T10:06:27Z</time>
      </trkpt>
      <trkpt lat="45.90323" lon="4.70048">
        <ele>224</ele>
        <time>2018-07-27T10:06:28Z</time>
      </trkpt>
      <trkpt lat="45.90329" lon="4.70047">
        <ele>224</ele>
        <time>2018-07-27T10:06:29Z</time>
      </trkpt>
      <trkpt lat="45.90335" lon="4.70046">
        <ele>224</ele>
        <time>2018-07-27T10:06:30Z</time>
      </trkpt>
      <trkpt lat="45.9034" lon="4.70045">
        <ele>224</ele>
        <time>2018-07-27T10:06:31Z</time>
      </trkpt>
      <trkpt lat="45.90346" lon="4.70043">
        <ele>224</ele>
        <time>2018-07-27T10:06:32Z</time>
      </trkpt>
      <trkpt lat="45.90352" lon="4.70041">
        <ele>224</ele>
        <time>2018-07-27T10:06:33Z</time>
      </trkpt>
      <trkpt lat="45.90357" lon="4.70041">
        <ele>224</ele>
        <time>2018-07-27T10:06:34Z</time>
      </trkpt>
      <trkpt lat="45.90363" lon="4.7004">
        <ele>224</ele>
        <time>2018-07-27T10:06:35Z</time>
      </trkpt>
      <trkpt lat="45.90369" lon="4.70039">
        <ele>224</ele>
        <time>2018-07-27T10:06:36Z</time>
      </trkpt>
      <trkpt lat="45.90375" lon="4.70038">
        <ele>224</ele>
        <time>2018-07-27T10:06:37Z</time>
      </trkpt>
      <trkpt lat="45.9038" lon="4.70037">
        <ele>224</ele>
        <time>2018-07-27T10:06:38Z</time>
      </trkpt>
      <trkpt lat="45.90385" lon="4.70037">
        <ele>225</ele>
        <time>2018-07-27T10:06:39Z</time>
      </trkpt>
      <trkpt lat="45.90391" lon="4.70035">
        <ele>225</ele>
        <time>2018-07-27T10:06:40Z</time>
      </trkpt>
      <trkpt lat="45.90396" lon="4.70035">
        <ele>225</ele>
        <time>2018-07-27T10:06:41Z</time>
      </trkpt>
      <trkpt lat="45.90401" lon="4.70034">
        <ele>225</ele>
        <time>2018-07-27T10:06:42Z</time>
      </trkpt>
      <trkpt lat="45.90407" lon="4.70032">
        <ele>225</ele>
        <time>2018-07-27T10:06:43Z</time>
      </trkpt>
      <trkpt lat="45.90411" lon="4.70032">
        <ele>225</ele>
        <time>2018-07-27T10:06:44Z</time>
      </trkpt>
      <trkpt lat="45.90417" lon="4.7003">
        <ele>225</ele>
        <time>2018-07-27T10:06:45Z</time>
      </trkpt>
      <trkpt lat="45.90421" lon="4.7003">
        <ele>225</ele>
        <time>2018-07-27T10:06:46Z</time>
      </trkpt>
      <trkpt lat="45.90428" lon="4.70028">
        <ele>225</ele>
        <time>2018-07-27T10:06:47Z</time>
      </trkpt>
      <trkpt lat="45.90434" lon="4.70028">
        <ele>225</ele>
        <time>2018-07-27T10:06:48Z</time>
      </trkpt>
      <trkpt lat="45.90438" lon="4.70027">
        <ele>225</ele>
        <time>2018-07-27T10:06:49Z</time>
      </trkpt>
      <trkpt lat="45.90444" lon="4.70027">
        <ele>225</ele>
        <time>2018-07-27T10:06:50Z</time>
      </trkpt>
      <trkpt lat="45.9045" lon="4.70027">
        <ele>225</ele>
        <time>2018-07-27T10:06:51Z</time>
      </trkpt>
      <trkpt lat="45.90456" lon="4.70028">
        <ele>225</ele>
        <time>2018-07-27T10:06:52Z</time>
      </trkpt>
      <trkpt lat="45.90462" lon="4.7003">
        <ele>225</ele>
        <time>2018-07-27T10:06:53Z</time>
      </trkpt>
      <trkpt lat="45.90468" lon="4.70031">
        <ele>225</ele>
        <time>2018-07-27T10:06:54Z</time>
      </trkpt>
      <trkpt lat="45.90474" lon="4.70032">
        <ele>225</ele>
        <time>2018-07-27T10:06:55Z</time>
      </trkpt>
      <trkpt lat="45.9048" lon="4.70032">
        <ele>225</ele>
        <time>2018-07-27T10:06:56Z</time>
      </trkpt>
      <trkpt lat="45.90487" lon="4.70033">
        <ele>225</ele>
        <time>2018-07-27T10:06:57Z</time>
      </trkpt>
      <trkpt lat="45.90494" lon="4.70033">
        <ele>225</ele>
        <time>2018-07-27T10:06:58Z</time>
      </trkpt>
      <trkpt lat="45.90499" lon="4.70034">
        <ele>225</ele>
        <time>2018-07-27T10:06:59Z</time>
      </trkpt>
      <trkpt lat="45.90506" lon="4.70035">
        <ele>224</ele>
        <time>2018-07-27T10:07:00Z</time>
      </trkpt>
      <trkpt lat="45.90511" lon="4.70038">
        <ele>224</ele>
        <time>2018-07-27T10:07:01Z</time>
      </trkpt>
      <trkpt lat="45.90517" lon="4.70039">
        <ele>224</ele>
        <time>2018-07-27T10:07:02Z</time>
      </trkpt>
      <trkpt lat="45.90523" lon="4.70041">
        <ele>224</ele>
        <time>2018-07-27T10:07:03Z</time>
      </trkpt>
      <trkpt lat="45.90528" lon="4.70042">
        <ele>224</ele>
        <time>2018-07-27T10:07:04Z</time>
      </trkpt>
      <trkpt lat="45.90534" lon="4.70044">
        <ele>224</ele>
        <time>2018-07-27T10:07:05Z</time>
      </trkpt>
      <trkpt lat="45.9054" lon="4.70047">
        <ele>224</ele>
        <time>2018-07-27T10:07:06Z</time>
      </trkpt>
      <trkpt lat="45.90547" lon="4.70048">
        <ele>224</ele>
        <time>2018-07-27T10:07:07Z</time>
      </trkpt>
      <trkpt lat="45.90553" lon="4.70051">
        <ele>224</ele>
        <time>2018-07-27T10:07:08Z</time>
      </trkpt>
      <trkpt lat="45.9056" lon="4.70051">
        <ele>224</ele>
        <time>2018-07-27T10:07:09Z</time>
      </trkpt>
      <trkpt lat="45.90566" lon="4.70055">
        <ele>223</ele>
        <time>2018-07-27T10:07:10Z</time>
      </trkpt>
      <trkpt lat="45.90571" lon="4.70058">
        <ele>223</ele>
        <time>2018-07-27T10:07:11Z</time>
      </trkpt>
      <trkpt lat="45.90577" lon="4.70061">
        <ele>223</ele>
        <time>2018-07-27T10:07:12Z</time>
      </trkpt>
      <trkpt lat="45.90581" lon="4.70064">
        <ele>223</ele>
        <time>2018-07-27T10:07:13Z</time>
      </trkpt>
      <trkpt lat="45.90587" lon="4.70068">
        <ele>223</ele>
        <time>2018-07-27T10:07:14Z</time>
      </trkpt>
      <trkpt lat="45.90592" lon="4.70072">
        <ele>223</ele>
        <time>2018-07-27T10:07:15Z</time>
      </trkpt>
      <trkpt lat="45.90598" lon="4.70075">
        <ele>223</ele>
        <time>2018-07-27T10:07:16Z</time>
      </trkpt>
      <trkpt lat="45.90603" lon="4.70078">
        <ele>223</ele>
        <time>2018-07-27T10:07:17Z</time>
      </trkpt>
      <trkpt lat="45.90608" lon="4.70081">
        <ele>223</ele>
        <time>2018-07-27T10:07:18Z</time>
      </trkpt>
      <trkpt lat="45.90615" lon="4.70084">
        <ele>221</ele>
        <time>2018-07-27T10:07:19Z</time>
      </trkpt>
      <trkpt lat="45.90621" lon="4.70087">
        <ele>221</ele>
        <time>2018-07-27T10:07:20Z</time>
      </trkpt>
      <trkpt lat="45.90628" lon="4.70091">
        <ele>221</ele>
        <time>2018-07-27T10:07:21Z</time>
      </trkpt>
      <trkpt lat="45.90633" lon="4.70094">
        <ele>221</ele>
        <time>2018-07-27T10:07:22Z</time>
      </trkpt>
      <trkpt lat="45.90639" lon="4.70097">
        <ele>221</ele>
        <time>2018-07-27T10:07:23Z</time>
      </trkpt>
      <trkpt lat="45.90645" lon="4.70101">
        <ele>221</ele>
        <time>2018-07-27T10:07:24Z</time>
      </trkpt>
      <trkpt lat="45.90652" lon="4.70104">
        <ele>221</ele>
        <time>2018-07-27T10:07:25Z</time>
      </trkpt>
      <trkpt lat="45.90658" lon="4.70107">
        <ele>221</ele>
        <time>2018-07-27T10:07:26Z</time>
      </trkpt>
      <trkpt lat="45.90663" lon="4.70112">
        <ele>221</ele>
        <time>2018-07-27T10:07:27Z</time>
      </trkpt>
      <trkpt lat="45.90669" lon="4.70116">
        <ele>222</ele>
        <time>2018-07-27T10:07:28Z</time>
      </trkpt>
      <trkpt lat="45.90674" lon="4.70121">
        <ele>221</ele>
        <time>2018-07-27T10:07:29Z</time>
      </trkpt>
      <trkpt lat="45.9068" lon="4.70127">
        <ele>221</ele>
        <time>2018-07-27T10:07:30Z</time>
      </trkpt>
      <trkpt lat="45.90686" lon="4.70131">
        <ele>221</ele>
        <time>2018-07-27T10:07:31Z</time>
      </trkpt>
      <trkpt lat="45.90691" lon="4.70137">
        <ele>221</ele>
        <time>2018-07-27T10:07:32Z</time>
      </trkpt>
      <trkpt lat="45.90696" lon="4.70143">
        <ele>221</ele>
        <time>2018-07-27T10:07:33Z</time>
      </trkpt>
      <trkpt lat="45.90703" lon="4.70146">
        <ele>220</ele>
        <time>2018-07-27T10:07:34Z</time>
      </trkpt>
      <trkpt lat="45.90708" lon="4.70145">
        <ele>220</ele>
        <time>2018-07-27T10:07:35Z</time>
      </trkpt>
      <trkpt lat="45.90713" lon="4.70143">
        <ele>220</ele>
        <time>2018-07-27T10:07:36Z</time>
      </trkpt>
      <trkpt lat="45.9072" lon="4.70144">
        <ele>220</ele>
        <time>2018-07-27T10:07:37Z</time>
      </trkpt>
      <trkpt lat="45.90727" lon="4.70144">
        <ele>220</ele>
        <time>2018-07-27T10:07:38Z</time>
      </trkpt>
      <trkpt lat="45.90735" lon="4.70144">
        <ele>220</ele>
        <time>2018-07-27T10:07:39Z</time>
      </trkpt>
      <trkpt lat="45.90742" lon="4.70144">
        <ele>220</ele>
        <time>2018-07-27T10:07:40Z</time>
      </trkpt>
      <trkpt lat="45.90749" lon="4.70144">
        <ele>220</ele>
        <time>2018-07-27T10:07:41Z</time>
      </trkpt>
      <trkpt lat="45.90755" lon="4.70143">
        <ele>219</ele>
        <time>2018-07-27T10:07:42Z</time>
      </trkpt>
      <trkpt lat="45.90762" lon="4.70143">
        <ele>219</ele>
        <time>2018-07-27T10:07:43Z</time>
      </trkpt>
      <trkpt lat="45.90768" lon="4.70142">
        <ele>219</ele>
        <time>2018-07-27T10:07:44Z</time>
      </trkpt>
      <trkpt lat="45.90776" lon="4.70143">
        <ele>219</ele>
        <time>2018-07-27T10:07:45Z</time>
      </trkpt>
      <trkpt lat="45.90783" lon="4.70142">
        <ele>219</ele>
        <time>2018-07-27T10:07:46Z</time>
      </trkpt>
      <trkpt lat="45.90791" lon="4.70139">
        <ele>219</ele>
        <time>2018-07-27T10:07:47Z</time>
      </trkpt>
      <trkpt lat="45.90797" lon="4.70138">
        <ele>219</ele>
        <time>2018-07-27T10:07:48Z</time>
      </trkpt>
      <trkpt lat="45.90803" lon="4.70137">
        <ele>219</ele>
        <time>2018-07-27T10:07:49Z</time>
      </trkpt>
      <trkpt lat="45.90809" lon="4.70139">
        <ele>219</ele>
        <time>2018-07-27T10:07:50Z</time>
      </trkpt>
      <trkpt lat="45.90815" lon="4.70139">
        <ele>219</ele>
        <time>2018-07-27T10:07:51Z</time>
      </trkpt>
      <trkpt lat="45.90822" lon="4.70138">
        <ele>219</ele>
        <time>2018-07-27T10:07:52Z</time>
      </trkpt>
      <trkpt lat="45.90828" lon="4.7014">
        <ele>218</ele>
        <time>2018-07-27T10:07:53Z</time>
      </trkpt>
      <trkpt lat="45.90835" lon="4.7014">
        <ele>218</ele>
        <time>2018-07-27T10:07:54Z</time>
      </trkpt>
      <trkpt lat="45.90842" lon="4.70139">
        <ele>218</ele>
        <time>2018-07-27T10:07:55Z</time>
      </trkpt>
      <trkpt lat="45.90848" lon="4.70138">
        <ele>218</ele>
        <time>2018-07-27T10:07:56Z</time>
      </trkpt>
      <trkpt lat="45.90854" lon="4.70137">
        <ele>218</ele>
        <time>2018-07-27T10:07:57Z</time>
      </trkpt>
      <trkpt lat="45.90861" lon="4.70138">
        <ele>218</ele>
        <time>2018-07-27T10:07:58Z</time>
      </trkpt>
      <trkpt lat="45.90868" lon="4.70137">
        <ele>218</ele>
        <time>2018-07-27T10:07:59Z</time>
      </trkpt>
      <trkpt lat="45.90876" lon="4.70136">
        <ele>218</ele>
        <time>2018-07-27T10:08:00Z</time>
      </trkpt>
      <trkpt lat="45.90883" lon="4.70133">
        <ele>218</ele>
        <time>2018-07-27T10:08:01Z</time>
      </trkpt>
      <trkpt lat="45.90889" lon="4.70132">
        <ele>219</ele>
        <time>2018-07-27T10:08:02Z</time>
      </trkpt>
      <trkpt lat="45.90895" lon="4.70135">
        <ele>218</ele>
        <time>2018-07-27T10:08:03Z</time>
      </trkpt>
      <trkpt lat="45.909" lon="4.70135">
        <ele>218</ele>
        <time>2018-07-27T10:08:04Z</time>
      </trkpt>
      <trkpt lat="45.90904" lon="4.70136">
        <ele>218</ele>
        <time>2018-07-27T10:08:05Z</time>
      </trkpt>
      <trkpt lat="45.90911" lon="4.70135">
        <ele>218</ele>
        <time>2018-07-27T10:08:06Z</time>
      </trkpt>
      <trkpt lat="45.90916" lon="4.70133">
        <ele>218</ele>
        <time>2018-07-27T10:08:07Z</time>
      </trkpt>
      <trkpt lat="45.90922" lon="4.70134">
        <ele>219</ele>
        <time>2018-07-27T10:08:08Z</time>
      </trkpt>
      <trkpt lat="45.90928" lon="4.70132">
        <ele>219</ele>
        <time>2018-07-27T10:08:09Z</time>
      </trkpt>
      <trkpt lat="45.90933" lon="4.70134">
        <ele>219</ele>
        <time>2018-07-27T10:08:10Z</time>
      </trkpt>
      <trkpt lat="45.9094" lon="4.70135">
        <ele>219</ele>
        <time>2018-07-27T10:08:11Z</time>
      </trkpt>
      <trkpt lat="45.90946" lon="4.70137">
        <ele>219</ele>
        <time>2018-07-27T10:08:12Z</time>
      </trkpt>
      <trkpt lat="45.90953" lon="4.70138">
        <ele>219</ele>
        <time>2018-07-27T10:08:13Z</time>
      </trkpt>
      <trkpt lat="45.9096" lon="4.70141">
        <ele>218</ele>
        <time>2018-07-27T10:08:14Z</time>
      </trkpt>
      <trkpt lat="45.90966" lon="4.70143">
        <ele>218</ele>
        <time>2018-07-27T10:08:15Z</time>
      </trkpt>
      <trkpt lat="45.90973" lon="4.70145">
        <ele>218</ele>
        <time>2018-07-27T10:08:16Z</time>
      </trkpt>
      <trkpt lat="45.9098" lon="4.70147">
        <ele>218</ele>
        <time>2018-07-27T10:08:17Z</time>
      </trkpt>
      <trkpt lat="45.90988" lon="4.70149">
        <ele>218</ele>
        <time>2018-07-27T10:08:18Z</time>
      </trkpt>
      <trkpt lat="45.90994" lon="4.70151">
        <ele>218</ele>
        <time>2018-07-27T10:08:19Z</time>
      </trkpt>
      <trkpt lat="45.91001" lon="4.70155">
        <ele>217</ele>
        <time>2018-07-27T10:08:20Z</time>
      </trkpt>
      <trkpt lat="45.91008" lon="4.70157">
        <ele>217</ele>
        <time>2018-07-27T10:08:21Z</time>
      </trkpt>
      <trkpt lat="45.91015" lon="4.70159">
        <ele>218</ele>
        <time>2018-07-27T10:08:22Z</time>
      </trkpt>
      <trkpt lat="45.91022" lon="4.70162">
        <ele>218</ele>
        <time>2018-07-27T10:08:23Z</time>
      </trkpt>
      <trkpt lat="45.91029" lon="4.70164">
        <ele>218</ele>
        <time>2018-07-27T10:08:24Z</time>
      </trkpt>
      <trkpt lat="45.91036" lon="4.70167">
        <ele>215</ele>
        <time>2018-07-27T10:08:25Z</time>
      </trkpt>
      <trkpt lat="45.91043" lon="4.70169">
        <ele>215</ele>
        <time>2018-07-27T10:08:26Z</time>
      </trkpt>
      <trkpt lat="45.9105" lon="4.70171">
        <ele>215</ele>
        <time>2018-07-27T10:08:27Z</time>
      </trkpt>
      <trkpt lat="45.91057" lon="4.70173">
        <ele>216</ele>
        <time>2018-07-27T10:08:28Z</time>
      </trkpt>
      <trkpt lat="45.91064" lon="4.70179">
        <ele>216</ele>
        <time>2018-07-27T10:08:29Z</time>
      </trkpt>
      <trkpt lat="45.91071" lon="4.7018">
        <ele>216</ele>
        <time>2018-07-27T10:08:30Z</time>
      </trkpt>
      <trkpt lat="45.91078" lon="4.70181">
        <ele>216</ele>
        <time>2018-07-27T10:08:31Z</time>
      </trkpt>
      <trkpt lat="45.91085" lon="4.70184">
        <ele>216</ele>
        <time>2018-07-27T10:08:32Z</time>
      </trkpt>
      <trkpt lat="45.91094" lon="4.70185">
        <ele>216</ele>
        <time>2018-07-27T10:08:33Z</time>
      </trkpt>
      <trkpt lat="45.911" lon="4.70187">
        <ele>215</ele>
        <time>2018-07-27T10:08:34Z</time>
      </trkpt>
      <trkpt lat="45.91108" lon="4.70186">
        <ele>215</ele>
        <time>2018-07-27T10:08:35Z</time>
      </trkpt>
      <trkpt lat="45.91116" lon="4.70188">
        <ele>215</ele>
        <time>2018-07-27T10:08:36Z</time>
      </trkpt>
      <trkpt lat="45.91123" lon="4.7019">
        <ele>215</ele>
        <time>2018-07-27T10:08:37Z</time>
      </trkpt>
      <trkpt lat="45.9113" lon="4.70193">
        <ele>215</ele>
        <time>2018-07-27T10:08:38Z</time>
      </trkpt>
      <trkpt lat="45.91136" lon="4.70196">
        <ele>215</ele>
        <time>2018-07-27T10:08:39Z</time>
      </trkpt>
      <trkpt lat="45.91143" lon="4.70198">
        <ele>215</ele>
        <time>2018-07-27T10:08:40Z</time>
      </trkpt>
      <trkpt lat="45.91151" lon="4.70199">
        <ele>215</ele>
        <time>2018-07-27T10:08:41Z</time>
      </trkpt>
      <trkpt lat="45.91159" lon="4.70202">
        <ele>215</ele>
        <time>2018-07-27T10:08:42Z</time>
      </trkpt>
      <trkpt lat="45.91165" lon="4.70207">
        <ele>214</ele>
        <time>2018-07-27T10:08:43Z</time>
      </trkpt>
      <trkpt lat="45.91172" lon="4.7021">
        <ele>214</ele>
        <time>2018-07-27T10:08:44Z</time>
      </trkpt>
      <trkpt lat="45.91179" lon="4.70212">
        <ele>214</ele>
        <time>2018-07-27T10:08:45Z</time>
      </trkpt>
      <trkpt lat="45.91185" lon="4.70215">
        <ele>214</ele>
        <time>2018-07-27T10:08:46Z</time>
      </trkpt>
      <trkpt lat="45.91193" lon="4.70216">
        <ele>214</ele>
        <time>2018-07-27T10:08:47Z</time>
      </trkpt>
      <trkpt lat="45.91201" lon="4.70217">
        <ele>214</ele>
        <time>2018-07-27T10:08:48Z</time>
      </trkpt>
      <trkpt lat="45.91208" lon="4.70219">
        <ele>214</ele>
        <time>2018-07-27T10:08:49Z</time>
      </trkpt>
      <trkpt lat="45.91214" lon="4.70223">
        <ele>213</ele>
        <time>2018-07-27T10:08:50Z</time>
      </trkpt>
      <trkpt lat="45.91221" lon="4.70226">
        <ele>213</ele>
        <time>2018-07-27T10:08:51Z</time>
      </trkpt>
      <trkpt lat="45.91228" lon="4.70229">
        <ele>213</ele>
        <time>2018-07-27T10:08:52Z</time>
      </trkpt>
      <trkpt lat="45.91237" lon="4.70229">
        <ele>213</ele>
        <time>2018-07-27T10:08:53Z</time>
      </trkpt>
      <trkpt lat="45.91244" lon="4.70232">
        <ele>213</ele>
        <time>2018-07-27T10:08:54Z</time>
      </trkpt>
      <trkpt lat="45.91252" lon="4.70235">
        <ele>213</ele>
        <time>2018-07-27T10:08:55Z</time>
      </trkpt>
      <trkpt lat="45.91259" lon="4.70239">
        <ele>213</ele>
        <time>2018-07-27T10:08:56Z</time>
      </trkpt>
      <trkpt lat="45.91266" lon="4.70241">
        <ele>213</ele>
        <time>2018-07-27T10:08:57Z</time>
      </trkpt>
      <trkpt lat="45.91273" lon="4.70244">
        <ele>213</ele>
        <time>2018-07-27T10:08:58Z</time>
      </trkpt>
      <trkpt lat="45.91281" lon="4.70246">
        <ele>213</ele>
        <time>2018-07-27T10:08:59Z</time>
      </trkpt>
      <trkpt lat="45.91289" lon="4.70248">
        <ele>214</ele>
        <time>2018-07-27T10:09:00Z</time>
      </trkpt>
      <trkpt lat="45.91296" lon="4.7025">
        <ele>210</ele>
        <time>2018-07-27T10:09:01Z</time>
      </trkpt>
      <trkpt lat="45.91303" lon="4.70254">
        <ele>210</ele>
        <time>2018-07-27T10:09:02Z</time>
      </trkpt>
      <trkpt lat="45.91309" lon="4.70257">
        <ele>210</ele>
        <time>2018-07-27T10:09:03Z</time>
      </trkpt>
      <trkpt lat="45.91316" lon="4.70261">
        <ele>210</ele>
        <time>2018-07-27T10:09:04Z</time>
      </trkpt>
      <trkpt lat="45.91322" lon="4.70264">
        <ele>210</ele>
        <time>2018-07-27T10:09:05Z</time>
      </trkpt>
      <trkpt lat="45.91328" lon="4.70268">
        <ele>210</ele>
        <time>2018-07-27T10:09:06Z</time>
      </trkpt>
      <trkpt lat="45.91334" lon="4.70273">
        <ele>210</ele>
        <time>2018-07-27T10:09:07Z</time>
      </trkpt>
      <trkpt lat="45.9134" lon="4.70278">
        <ele>210</ele>
        <time>2018-07-27T10:09:08Z</time>
      </trkpt>
      <trkpt lat="45.91347" lon="4.70283">
        <ele>210</ele>
        <time>2018-07-27T10:09:09Z</time>
      </trkpt>
      <trkpt lat="45.91353" lon="4.70286">
        <ele>210</ele>
        <time>2018-07-27T10:09:10Z</time>
      </trkpt>
      <trkpt lat="45.91359" lon="4.70291">
        <ele>210</ele>
        <time>2018-07-27T10:09:11Z</time>
      </trkpt>
      <trkpt lat="45.91365" lon="4.70299">
        <ele>209</ele>
        <time>2018-07-27T10:09:12Z</time>
      </trkpt>
      <trkpt lat="45.91372" lon="4.70304">
        <ele>209</ele>
        <time>2018-07-27T10:09:13Z</time>
      </trkpt>
      <trkpt lat="45.91378" lon="4.70308">
        <ele>209</ele>
        <time>2018-07-27T10:09:14Z</time>
      </trkpt>
      <trkpt lat="45.91383" lon="4.70312">
        <ele>209</ele>
        <time>2018-07-27T10:09:15Z</time>
      </trkpt>
      <trkpt lat="45.91389" lon="4.70318">
        <ele>209</ele>
        <time>2018-07-27T10:09:16Z</time>
      </trkpt>
      <trkpt lat="45.91395" lon="4.70322">
        <ele>209</ele>
        <time>2018-07-27T10:09:17Z</time>
      </trkpt>
      <trkpt lat="45.91401" lon="4.70326">
        <ele>209</ele>
        <time>2018-07-27T10:09:18Z</time>
      </trkpt>
      <trkpt lat="45.91407" lon="4.70332">
        <ele>208</ele>
        <time>2018-07-27T10:09:19Z</time>
      </trkpt>
      <trkpt lat="45.91414" lon="4.70336">
        <ele>208</ele>
        <time>2018-07-27T10:09:20Z</time>
      </trkpt>
      <trkpt lat="45.91421" lon="4.70341">
        <ele>207</ele>
        <time>2018-07-27T10:09:21Z</time>
      </trkpt>
      <trkpt lat="45.91428" lon="4.70348">
        <ele>207</ele>
        <time>2018-07-27T10:09:22Z</time>
      </trkpt>
      <trkpt lat="45.91435" lon="4.70354">
        <ele>207</ele>
        <time>2018-07-27T10:09:23Z</time>
      </trkpt>
      <trkpt lat="45.91442" lon="4.7036">
        <ele>206</ele>
        <time>2018-07-27T10:09:24Z</time>
      </trkpt>
      <trkpt lat="45.91449" lon="4.70366">
        <ele>206</ele>
        <time>2018-07-27T10:09:25Z</time>
      </trkpt>
      <trkpt lat="45.91456" lon="4.70371">
        <ele>206</ele>
        <time>2018-07-27T10:09:26Z</time>
      </trkpt>
      <trkpt lat="45.91463" lon="4.70377">
        <ele>206</ele>
        <time>2018-07-27T10:09:27Z</time>
      </trkpt>
      <trkpt lat="45.9147" lon="4.70382">
        <ele>206</ele>
        <time>2018-07-27T10:09:28Z</time>
      </trkpt>
      <trkpt lat="45.91476" lon="4.70387">
        <ele>206</ele>
        <time>2018-07-27T10:09:29Z</time>
      </trkpt>
      <trkpt lat="45.91483" lon="4.70391">
        <ele>205</ele>
        <time>2018-07-27T10:09:30Z</time>
      </trkpt>
      <trkpt lat="45.9149" lon="4.70396">
        <ele>205</ele>
        <time>2018-07-27T10:09:31Z</time>
      </trkpt>
      <trkpt lat="45.91497" lon="4.70401">
        <ele>205</ele>
        <time>2018-07-27T10:09:32Z</time>
      </trkpt>
      <trkpt lat="45.91504" lon="4.70407">
        <ele>204</ele>
        <time>2018-07-27T10:09:33Z</time>
      </trkpt>
      <trkpt lat="45.9151" lon="4.70411">
        <ele>205</ele>
        <time>2018-07-27T10:09:34Z</time>
      </trkpt>
      <trkpt lat="45.91516" lon="4.70417">
        <ele>203</ele>
        <time>2018-07-27T10:09:35Z</time>
      </trkpt>
      <trkpt lat="45.91523" lon="4.70423">
        <ele>203</ele>
        <time>2018-07-27T10:09:36Z</time>
      </trkpt>
      <trkpt lat="45.9153" lon="4.70428">
        <ele>203</ele>
        <time>2018-07-27T10:09:37Z</time>
      </trkpt>
      <trkpt lat="45.91536" lon="4.70433">
        <ele>203</ele>
        <time>2018-07-27T10:09:38Z</time>
      </trkpt>
      <trkpt lat="45.91543" lon="4.70437">
        <ele>203</ele>
        <time>2018-07-27T10:09:39Z</time>
      </trkpt>
      <trkpt lat="45.9155" lon="4.70443">
        <ele>203</ele>
        <time>2018-07-27T10:09:40Z</time>
      </trkpt>
      <trkpt lat="45.91556" lon="4.70447">
        <ele>203</ele>
        <time>2018-07-27T10:09:41Z</time>
      </trkpt>
      <trkpt lat="45.91563" lon="4.70452">
        <ele>203</ele>
        <time>2018-07-27T10:09:42Z</time>
      </trkpt>
      <trkpt lat="45.9157" lon="4.70456">
        <ele>203</ele>
        <time>2018-07-27T10:09:43Z</time>
      </trkpt>
      <trkpt lat="45.91576" lon="4.70461">
        <ele>203</ele>
        <time>2018-07-27T10:09:44Z</time>
      </trkpt>
      <trkpt lat="45.91582" lon="4.70466">
        <ele>203</ele>
        <time>2018-07-27T10:09:45Z</time>
      </trkpt>
      <trkpt lat="45.91588" lon="4.70471">
        <ele>203</ele>
        <time>2018-07-27T10:09:46Z</time>
      </trkpt>
      <trkpt lat="45.91594" lon="4.70475">
        <ele>202</ele>
        <time>2018-07-27T10:09:47Z</time>
      </trkpt>
      <trkpt lat="45.916" lon="4.70479">
        <ele>202</ele>
        <time>2018-07-27T10:09:48Z</time>
      </trkpt>
      <trkpt lat="45.91606" lon="4.70485">
        <ele>202</ele>
        <time>2018-07-27T10:09:49Z</time>
      </trkpt>
      <trkpt lat="45.91613" lon="4.70492">
        <ele>202</ele>
        <time>2018-07-27T10:09:50Z</time>
      </trkpt>
      <trkpt lat="45.91619" lon="4.70498">
        <ele>202</ele>
        <time>2018-07-27T10:09:51Z</time>
      </trkpt>
      <trkpt lat="45.91626" lon="4.70505">
        <ele>199</ele>
        <time>2018-07-27T10:09:52Z</time>
      </trkpt>
      <trkpt lat="45.91633" lon="4.7051">
        <ele>199</ele>
        <time>2018-07-27T10:09:53Z</time>
      </trkpt>
      <trkpt lat="45.91641" lon="4.70515">
        <ele>199</ele>
        <time>2018-07-27T10:09:54Z</time>
      </trkpt>
      <trkpt lat="45.91648" lon="4.70521">
        <ele>199</ele>
        <time>2018-07-27T10:09:55Z</time>
      </trkpt>
      <trkpt lat="45.91655" lon="4.70527">
        <ele>198</ele>
        <time>2018-07-27T10:09:56Z</time>
      </trkpt>
      <trkpt lat="45.91662" lon="4.70531">
        <ele>198</ele>
        <time>2018-07-27T10:09:57Z</time>
      </trkpt>
      <trkpt lat="45.91668" lon="4.70536">
        <ele>198</ele>
        <time>2018-07-27T10:09:58Z</time>
      </trkpt>
      <trkpt lat="45.91675" lon="4.70542">
        <ele>198</ele>
        <time>2018-07-27T10:09:59Z</time>
      </trkpt>
      <trkpt lat="45.91681" lon="4.70548">
        <ele>198</ele>
        <time>2018-07-27T10:10:00Z</time>
      </trkpt>
      <trkpt lat="45.91688" lon="4.70554">
        <ele>198</ele>
        <time>2018-07-27T10:10:01Z</time>
      </trkpt>
      <trkpt lat="45.91693" lon="4.70559">
        <ele>198</ele>
        <time>2018-07-27T10:10:02Z</time>
      </trkpt>
      <trkpt lat="45.91698" lon="4.70564">
        <ele>197</ele>
        <time>2018-07-27T10:10:03Z</time>
      </trkpt>
      <trkpt lat="45.91703" lon="4.70569">
        <ele>197</ele>
        <time>2018-07-27T10:10:04Z</time>
      </trkpt>
      <trkpt lat="45.91707" lon="4.70575">
        <ele>197</ele>
        <time>2018-07-27T10:10:05Z</time>
      </trkpt>
      <trkpt lat="45.91711" lon="4.70583">
        <ele>197</ele>
        <time>2018-07-27T10:10:06Z</time>
      </trkpt>
      <trkpt lat="45.91716" lon="4.70589">
        <ele>196</ele>
        <time>2018-07-27T10:10:07Z</time>
      </trkpt>
      <trkpt lat="45.9172" lon="4.70592">
        <ele>195</ele>
        <time>2018-07-27T10:10:08Z</time>
      </trkpt>
      <trkpt lat="45.91726" lon="4.70593">
        <ele>195</ele>
        <time>2018-07-27T10:10:09Z</time>
      </trkpt>
      <trkpt lat="45.91731" lon="4.70592">
        <ele>196</ele>
        <time>2018-07-27T10:10:10Z</time>
      </trkpt>
      <trkpt lat="45.91737" lon="4.70592">
        <ele>196</ele>
        <time>2018-07-27T10:10:11Z</time>
      </trkpt>
      <trkpt lat="45.91743" lon="4.70595">
        <ele>196</ele>
        <time>2018-07-27T10:10:12Z</time>
      </trkpt>
      <trkpt lat="45.9175" lon="4.70597">
        <ele>195</ele>
        <time>2018-07-27T10:10:13Z</time>
      </trkpt>
      <trkpt lat="45.91756" lon="4.706">
        <ele>195</ele>
        <time>2018-07-27T10:10:14Z</time>
      </trkpt>
      <trkpt lat="45.91764" lon="4.70602">
        <ele>195</ele>
        <time>2018-07-27T10:10:15Z</time>
      </trkpt>
      <trkpt lat="45.9177" lon="4.70605">
        <ele>195</ele>
        <time>2018-07-27T10:10:16Z</time>
      </trkpt>
      <trkpt lat="45.91776" lon="4.70608">
        <ele>195</ele>
        <time>2018-07-27T10:10:17Z</time>
      </trkpt>
      <trkpt lat="45.91783" lon="4.70609">
        <ele>195</ele>
        <time>2018-07-27T10:10:18Z</time>
      </trkpt>
      <trkpt lat="45.9179" lon="4.70611">
        <ele>194</ele>
        <time>2018-07-27T10:10:19Z</time>
      </trkpt>
      <trkpt lat="45.91797" lon="4.70612">
        <ele>194</ele>
        <time>2018-07-27T10:10:20Z</time>
      </trkpt>
      <trkpt lat="45.91803" lon="4.70612">
        <ele>194</ele>
        <time>2018-07-27T10:10:21Z</time>
      </trkpt>
      <trkpt lat="45.91807" lon="4.70617">
        <ele>194</ele>
        <time>2018-07-27T10:10:22Z</time>
      </trkpt>
      <trkpt lat="45.91815" lon="4.70617">
        <ele>194</ele>
        <time>2018-07-27T10:10:23Z</time>
      </trkpt>
      <trkpt lat="45.9182" lon="4.70621">
        <ele>194</ele>
        <time>2018-07-27T10:10:24Z</time>
      </trkpt>
      <trkpt lat="45.91827" lon="4.7062">
        <ele>194</ele>
        <time>2018-07-27T10:10:25Z</time>
      </trkpt>
      <trkpt lat="45.91834" lon="4.7062">
        <ele>194</ele>
        <time>2018-07-27T10:10:26Z</time>
      </trkpt>
      <trkpt lat="45.91841" lon="4.7062">
        <ele>194</ele>
        <time>2018-07-27T10:10:27Z</time>
      </trkpt>
      <trkpt lat="45.91849" lon="4.70619">
        <ele>194</ele>
        <time>2018-07-27T10:10:28Z</time>
      </trkpt>
      <trkpt lat="45.91855" lon="4.7062">
        <ele>194</ele>
        <time>2018-07-27T10:10:29Z</time>
      </trkpt>
      <trkpt lat="45.91861" lon="4.7062">
        <ele>194</ele>
        <time>2018-07-27T10:10:30Z</time>
      </trkpt>
      <trkpt lat="45.91867" lon="4.70617">
        <ele>194</ele>
        <time>2018-07-27T10:10:31Z</time>
      </trkpt>
      <trkpt lat="45.91872" lon="4.70618">
        <ele>194</ele>
        <time>2018-07-27T10:10:32Z</time>
      </trkpt>
      <trkpt lat="45.91879" lon="4.70617">
        <ele>194</ele>
        <time>2018-07-27T10:10:33Z</time>
      </trkpt>
      <trkpt lat="45.91885" lon="4.70618">
        <ele>194</ele>
        <time>2018-07-27T10:10:34Z</time>
      </trkpt>
      <trkpt lat="45.91891" lon="4.70618">
        <ele>194</ele>
        <time>2018-07-27T10:10:35Z</time>
      </trkpt>
      <trkpt lat="45.91898" lon="4.70618">
        <ele>194</ele>
        <time>2018-07-27T10:10:36Z</time>
      </trkpt>
      <trkpt lat="45.91905" lon="4.70615">
        <ele>194</ele>
        <time>2018-07-27T10:10:37Z</time>
      </trkpt>
      <trkpt lat="45.91911" lon="4.70615">
        <ele>194</ele>
        <time>2018-07-27T10:10:38Z</time>
      </trkpt>
      <trkpt lat="45.91917" lon="4.70614">
        <ele>195</ele>
        <time>2018-07-27T10:10:39Z</time>
      </trkpt>
      <trkpt lat="45.91923" lon="4.70614">
        <ele>194</ele>
        <time>2018-07-27T10:10:40Z</time>
      </trkpt>
      <trkpt lat="45.9193" lon="4.70614">
        <ele>194</ele>
        <time>2018-07-27T10:10:41Z</time>
      </trkpt>
      <trkpt lat="45.91938" lon="4.70613">
        <ele>194</ele>
        <time>2018-07-27T10:10:42Z</time>
      </trkpt>
      <trkpt lat="45.91944" lon="4.70612">
        <ele>194</ele>
        <time>2018-07-27T10:10:43Z</time>
      </trkpt>
      <trkpt lat="45.91952" lon="4.70611">
        <ele>194</ele>
        <time>2018-07-27T10:10:44Z</time>
      </trkpt>
      <trkpt lat="45.9196" lon="4.7061">
        <ele>194</ele>
        <time>2018-07-27T10:10:45Z</time>
      </trkpt>
      <trkpt lat="45.91967" lon="4.70606">
        <ele>194</ele>
        <time>2018-07-27T10:10:46Z</time>
      </trkpt>
      <trkpt lat="45.91974" lon="4.70606">
        <ele>194</ele>
        <time>2018-07-27T10:10:47Z</time>
      </trkpt>
      <trkpt lat="45.91981" lon="4.70607">
        <ele>194</ele>
        <time>2018-07-27T10:10:48Z</time>
      </trkpt>
      <trkpt lat="45.91988" lon="4.70607">
        <ele>194</ele>
        <time>2018-07-27T10:10:49Z</time>
      </trkpt>
      <trkpt lat="45.91994" lon="4.70605">
        <ele>194</ele>
        <time>2018-07-27T10:10:50Z</time>
      </trkpt>
      <trkpt lat="45.92001" lon="4.70603">
        <ele>194</ele>
        <time>2018-07-27T10:10:51Z</time>
      </trkpt>
      <trkpt lat="45.92007" lon="4.70602">
        <ele>194</ele>
        <time>2018-07-27T10:10:52Z</time>
      </trkpt>
      <trkpt lat="45.92012" lon="4.70603">
        <ele>194</ele>
        <time>2018-07-27T10:10:53Z</time>
      </trkpt>
      <trkpt lat="45.92019" lon="4.70602">
        <ele>194</ele>
        <time>2018-07-27T10:10:54Z</time>
      </trkpt>
      <trkpt lat="45.92026" lon="4.706">
        <ele>194</ele>
        <time>2018-07-27T10:10:55Z</time>
      </trkpt>
      <trkpt lat="45.92031" lon="4.70602">
        <ele>193</ele>
        <time>2018-07-27T10:10:56Z</time>
      </trkpt>
      <trkpt lat="45.92039" lon="4.70599">
        <ele>193</ele>
        <time>2018-07-27T10:10:57Z</time>
      </trkpt>
      <trkpt lat="45.92046" lon="4.70598">
        <ele>193</ele>
        <time>2018-07-27T10:10:58Z</time>
      </trkpt>
      <trkpt lat="45.92054" lon="4.706">
        <ele>193</ele>
        <time>2018-07-27T10:10:59Z</time>
      </trkpt>
      <trkpt lat="45.92061" lon="4.70599">
        <ele>193</ele>
        <time>2018-07-27T10:11:00Z</time>
      </trkpt>
      <trkpt lat="45.92068" lon="4.70599">
        <ele>193</ele>
        <time>2018-07-27T10:11:01Z</time>
      </trkpt>
      <trkpt lat="45.92075" lon="4.70598">
        <ele>193</ele>
        <time>2018-07-27T10:11:02Z</time>
      </trkpt>
      <trkpt lat="45.92083" lon="4.70597">
        <ele>194</ele>
        <time>2018-07-27T10:11:03Z</time>
      </trkpt>
      <trkpt lat="45.92089" lon="4.70596">
        <ele>193</ele>
        <time>2018-07-27T10:11:04Z</time>
      </trkpt>
      <trkpt lat="45.92097" lon="4.70594">
        <ele>192</ele>
        <time>2018-07-27T10:11:05Z</time>
      </trkpt>
      <trkpt lat="45.92104" lon="4.70593">
        <ele>192</ele>
        <time>2018-07-27T10:11:06Z</time>
      </trkpt>
      <trkpt lat="45.92112" lon="4.70593">
        <ele>192</ele>
        <time>2018-07-27T10:11:07Z</time>
      </trkpt>
      <trkpt lat="45.92119" lon="4.70593">
        <ele>191</ele>
        <time>2018-07-27T10:11:08Z</time>
      </trkpt>
      <trkpt lat="45.92126" lon="4.70593">
        <ele>191</ele>
        <time>2018-07-27T10:11:09Z</time>
      </trkpt>
      <trkpt lat="45.92133" lon="4.70592">
        <ele>191</ele>
        <time>2018-07-27T10:11:10Z</time>
      </trkpt>
      <trkpt lat="45.92137" lon="4.70594">
        <ele>191</ele>
        <time>2018-07-27T10:11:11Z</time>
      </trkpt>
      <trkpt lat="45.92142" lon="4.70595">
        <ele>191</ele>
        <time>2018-07-27T10:11:12Z</time>
      </trkpt>
      <trkpt lat="45.92149" lon="4.70596">
        <ele>191</ele>
        <time>2018-07-27T10:11:13Z</time>
      </trkpt>
      <trkpt lat="45.92156" lon="4.70595">
        <ele>190</ele>
        <time>2018-07-27T10:11:14Z</time>
      </trkpt>
      <trkpt lat="45.92161" lon="4.70595">
        <ele>190</ele>
        <time>2018-07-27T10:11:15Z</time>
      </trkpt>
      <trkpt lat="45.92167" lon="4.70594">
        <ele>191</ele>
        <time>2018-07-27T10:11:16Z</time>
      </trkpt>
      <trkpt lat="45.92174" lon="4.70595">
        <ele>191</ele>
        <time>2018-07-27T10:11:17Z</time>
      </trkpt>
      <trkpt lat="45.92179" lon="4.70595">
        <ele>191</ele>
        <time>2018-07-27T10:11:18Z</time>
      </trkpt>
      <trkpt lat="45.92185" lon="4.70596">
        <ele>191</ele>
        <time>2018-07-27T10:11:19Z</time>
      </trkpt>
      <trkpt lat="45.92192" lon="4.70594">
        <ele>192</ele>
        <time>2018-07-27T10:11:20Z</time>
      </trkpt>
      <trkpt lat="45.92197" lon="4.70596">
        <ele>192</ele>
        <time>2018-07-27T10:11:21Z</time>
      </trkpt>
      <trkpt lat="45.92203" lon="4.70597">
        <ele>192</ele>
        <time>2018-07-27T10:11:22Z</time>
      </trkpt>
      <trkpt lat="45.92209" lon="4.70598">
        <ele>192</ele>
        <time>2018-07-27T10:11:23Z</time>
      </trkpt>
      <trkpt lat="45.92216" lon="4.70596">
        <ele>193</ele>
        <time>2018-07-27T10:11:24Z</time>
      </trkpt>
      <trkpt lat="45.92223" lon="4.70596">
        <ele>193</ele>
        <time>2018-07-27T10:11:25Z</time>
      </trkpt>
      <trkpt lat="45.92229" lon="4.70597">
        <ele>194</ele>
        <time>2018-07-27T10:11:26Z</time>
      </trkpt>
      <trkpt lat="45.92235" lon="4.70599">
        <ele>194</ele>
        <time>2018-07-27T10:11:27Z</time>
      </trkpt>
      <trkpt lat="45.92241" lon="4.706">
        <ele>194</ele>
        <time>2018-07-27T10:11:28Z</time>
      </trkpt>
      <trkpt lat="45.92246" lon="4.70603">
        <ele>194</ele>
        <time>2018-07-27T10:11:29Z</time>
      </trkpt>
      <trkpt lat="45.92253" lon="4.70605">
        <ele>196</ele>
        <time>2018-07-27T10:11:30Z</time>
      </trkpt>
      <trkpt lat="45.92259" lon="4.70607">
        <ele>196</ele>
        <time>2018-07-27T10:11:31Z</time>
      </trkpt>
      <trkpt lat="45.92265" lon="4.7061">
        <ele>196</ele>
        <time>2018-07-27T10:11:32Z</time>
      </trkpt>
      <trkpt lat="45.92272" lon="4.70611">
        <ele>196</ele>
        <time>2018-07-27T10:11:33Z</time>
      </trkpt>
      <trkpt lat="45.92277" lon="4.70612">
        <ele>196</ele>
        <time>2018-07-27T10:11:34Z</time>
      </trkpt>
      <trkpt lat="45.92283" lon="4.70616">
        <ele>196</ele>
        <time>2018-07-27T10:11:35Z</time>
      </trkpt>
      <trkpt lat="45.9229" lon="4.70619">
        <ele>196</ele>
        <time>2018-07-27T10:11:36Z</time>
      </trkpt>
      <trkpt lat="45.92295" lon="4.70622">
        <ele>196</ele>
        <time>2018-07-27T10:11:37Z</time>
      </trkpt>
      <trkpt lat="45.92302" lon="4.70625">
        <ele>196</ele>
        <time>2018-07-27T10:11:38Z</time>
      </trkpt>
      <trkpt lat="45.92309" lon="4.70631">
        <ele>196</ele>
        <time>2018-07-27T10:11:39Z</time>
      </trkpt>
      <trkpt lat="45.92315" lon="4.70635">
        <ele>196</ele>
        <time>2018-07-27T10:11:40Z</time>
      </trkpt>
      <trkpt lat="45.92322" lon="4.70638">
        <ele>196</ele>
        <time>2018-07-27T10:11:41Z</time>
      </trkpt>
      <trkpt lat="45.92328" lon="4.70643">
        <ele>196</ele>
        <time>2018-07-27T10:11:42Z</time>
      </trkpt>
      <trkpt lat="45.92334" lon="4.70646">
        <ele>196</ele>
        <time>2018-07-27T10:11:43Z</time>
      </trkpt>
      <trkpt lat="45.9234" lon="4.70649">
        <ele>196</ele>
        <time>2018-07-27T10:11:44Z</time>
      </trkpt>
      <trkpt lat="45.92346" lon="4.70653">
        <ele>196</ele>
        <time>2018-07-27T10:11:45Z</time>
      </trkpt>
      <trkpt lat="45.92352" lon="4.70656">
        <ele>196</ele>
        <time>2018-07-27T10:11:46Z</time>
      </trkpt>
      <trkpt lat="45.92358" lon="4.70659">
        <ele>196</ele>
        <time>2018-07-27T10:11:47Z</time>
      </trkpt>
      <trkpt lat="45.92364" lon="4.70662">
        <ele>196</ele>
        <time>2018-07-27T10:11:48Z</time>
      </trkpt>
      <trkpt lat="45.9237" lon="4.70665">
        <ele>196</ele>
        <time>2018-07-27T10:11:49Z</time>
      </trkpt>
      <trkpt lat="45.92377" lon="4.70668">
        <ele>194</ele>
        <time>2018-07-27T10:11:50Z</time>
      </trkpt>
      <trkpt lat="45.92383" lon="4.70672">
        <ele>194</ele>
        <time>2018-07-27T10:11:51Z</time>
      </trkpt>
      <trkpt lat="45.9239" lon="4.70676">
        <ele>194</ele>
        <time>2018-07-27T10:11:52Z</time>
      </trkpt>
      <trkpt lat="45.92397" lon="4.70679">
        <ele>195</ele>
        <time>2018-07-27T10:11:53Z</time>
      </trkpt>
      <trkpt lat="45.92403" lon="4.70683">
        <ele>195</ele>
        <time>2018-07-27T10:11:54Z</time>
      </trkpt>
      <trkpt lat="45.92409" lon="4.70687">
        <ele>194</ele>
        <time>2018-07-27T10:11:55Z</time>
      </trkpt>
      <trkpt lat="45.92415" lon="4.70691">
        <ele>194</ele>
        <time>2018-07-27T10:11:56Z</time>
      </trkpt>
      <trkpt lat="45.92421" lon="4.70695">
        <ele>195</ele>
        <time>2018-07-27T10:11:57Z</time>
      </trkpt>
      <trkpt lat="45.92427" lon="4.70699">
        <ele>195</ele>
        <time>2018-07-27T10:11:58Z</time>
      </trkpt>
      <trkpt lat="45.92432" lon="4.70702">
        <ele>194</ele>
        <time>2018-07-27T10:11:59Z</time>
      </trkpt>
      <trkpt lat="45.92438" lon="4.70706">
        <ele>194</ele>
        <time>2018-07-27T10:12:00Z</time>
      </trkpt>
      <trkpt lat="45.92444" lon="4.70709">
        <ele>194</ele>
        <time>2018-07-27T10:12:01Z</time>
      </trkpt>
      <trkpt lat="45.92449" lon="4.70712">
        <ele>194</ele>
        <time>2018-07-27T10:12:02Z</time>
      </trkpt>
      <trkpt lat="45.92455" lon="4.70716">
        <ele>194</ele>
        <time>2018-07-27T10:12:03Z</time>
      </trkpt>
      <trkpt lat="45.92461" lon="4.70719">
        <ele>194</ele>
        <time>2018-07-27T10:12:04Z</time>
      </trkpt>
      <trkpt lat="45.92467" lon="4.70722">
        <ele>194</ele>
        <time>2018-07-27T10:12:05Z</time>
      </trkpt>
      <trkpt lat="45.92473" lon="4.70725">
        <ele>194</ele>
        <time>2018-07-27T10:12:06Z</time>
      </trkpt>
      <trkpt lat="45.92479" lon="4.70728">
        <ele>194</ele>
        <time>2018-07-27T10:12:07Z</time>
      </trkpt>
      <trkpt lat="45.92485" lon="4.70732">
        <ele>194</ele>
        <time>2018-07-27T10:12:08Z</time>
      </trkpt>
      <trkpt lat="45.9249" lon="4.70735">
        <ele>194</ele>
        <time>2018-07-27T10:12:09Z</time>
      </trkpt>
      <trkpt lat="45.92496" lon="4.70738">
        <ele>194</ele>
        <time>2018-07-27T10:12:10Z</time>
      </trkpt>
      <trkpt lat="45.92501" lon="4.70741">
        <ele>195</ele>
        <time>2018-07-27T10:12:11Z</time>
      </trkpt>
      <trkpt lat="45.92506" lon="4.70745">
        <ele>195</ele>
        <time>2018-07-27T10:12:12Z</time>
      </trkpt>
      <trkpt lat="45.92511" lon="4.70748">
        <ele>195</ele>
        <time>2018-07-27T10:12:13Z</time>
      </trkpt>
      <trkpt lat="45.92516" lon="4.70752">
        <ele>195</ele>
        <time>2018-07-27T10:12:14Z</time>
      </trkpt>
      <trkpt lat="45.92522" lon="4.70755">
        <ele>195</ele>
        <time>2018-07-27T10:12:15Z</time>
      </trkpt>
      <trkpt lat="45.92527" lon="4.70757">
        <ele>195</ele>
        <time>2018-07-27T10:12:16Z</time>
      </trkpt>
      <trkpt lat="45.92532" lon="4.7076">
        <ele>195</ele>
        <time>2018-07-27T10:12:17Z</time>
      </trkpt>
      <trkpt lat="45.92537" lon="4.70764">
        <ele>195</ele>
        <time>2018-07-27T10:12:18Z</time>
      </trkpt>
      <trkpt lat="45.92542" lon="4.70767">
        <ele>195</ele>
        <time>2018-07-27T10:12:19Z</time>
      </trkpt>
      <trkpt lat="45.92547" lon="4.7077">
        <ele>195</ele>
        <time>2018-07-27T10:12:20Z</time>
      </trkpt>
      <trkpt lat="45.92552" lon="4.70773">
        <ele>196</ele>
        <time>2018-07-27T10:12:21Z</time>
      </trkpt>
      <trkpt lat="45.92557" lon="4.70776">
        <ele>196</ele>
        <time>2018-07-27T10:12:22Z</time>
      </trkpt>
      <trkpt lat="45.9256" lon="4.70779">
        <ele>196</ele>
        <time>2018-07-27T10:12:23Z</time>
      </trkpt>
      <trkpt lat="45.92565" lon="4.70782">
        <ele>196</ele>
        <time>2018-07-27T10:12:24Z</time>
      </trkpt>
      <trkpt lat="45.9257" lon="4.70786">
        <ele>196</ele>
        <time>2018-07-27T10:12:25Z</time>
      </trkpt>
      <trkpt lat="45.92574" lon="4.70789">
        <ele>196</ele>
        <time>2018-07-27T10:12:26Z</time>
      </trkpt>
      <trkpt lat="45.92579" lon="4.70793">
        <ele>196</ele>
        <time>2018-07-27T10:12:27Z</time>
      </trkpt>
      <trkpt lat="45.92583" lon="4.70798">
        <ele>196</ele>
        <time>2018-07-27T10:12:28Z</time>
      </trkpt>
      <trkpt lat="45.92588" lon="4.70801">
        <ele>198</ele>
        <time>2018-07-27T10:12:29Z</time>
      </trkpt>
      <trkpt lat="45.92592" lon="4.70805">
        <ele>198</ele>
        <time>2018-07-27T10:12:30Z</time>
      </trkpt>
      <trkpt lat="45.92597" lon="4.70809">
        <ele>198</ele>
        <time>2018-07-27T10:12:31Z</time>
      </trkpt>
      <trkpt lat="45.92601" lon="4.70812">
        <ele>198</ele>
        <time>2018-07-27T10:12:32Z</time>
      </trkpt>
      <trkpt lat="45.92606" lon="4.70815">
        <ele>198</ele>
        <time>2018-07-27T10:12:33Z</time>
      </trkpt>
      <trkpt lat="45.9261" lon="4.70819">
        <ele>198</ele>
        <time>2018-07-27T10:12:34Z</time>
      </trkpt>
      <trkpt lat="45.92617" lon="4.70827">
        <ele>199</ele>
        <time>2018-07-27T10:12:36Z</time>
      </trkpt>
      <trkpt lat="45.92621" lon="4.70831">
        <ele>199</ele>
        <time>2018-07-27T10:12:37Z</time>
      </trkpt>
      <trkpt lat="45.92625" lon="4.70835">
        <ele>198</ele>
        <time>2018-07-27T10:12:38Z</time>
      </trkpt>
      <trkpt lat="45.92629" lon="4.7084">
        <ele>198</ele>
        <time>2018-07-27T10:12:39Z</time>
      </trkpt>
      <trkpt lat="45.92634" lon="4.70844">
        <ele>198</ele>
        <time>2018-07-27T10:12:40Z</time>
      </trkpt>
      <trkpt lat="45.92637" lon="4.70848">
        <ele>198</ele>
        <time>2018-07-27T10:12:41Z</time>
      </trkpt>
      <trkpt lat="45.92643" lon="4.70852">
        <ele>198</ele>
        <time>2018-07-27T10:12:42Z</time>
      </trkpt>
      <trkpt lat="45.92647" lon="4.70857">
        <ele>198</ele>
        <time>2018-07-27T10:12:43Z</time>
      </trkpt>
      <trkpt lat="45.92652" lon="4.70862">
        <ele>198</ele>
        <time>2018-07-27T10:12:44Z</time>
      </trkpt>
      <trkpt lat="45.92656" lon="4.70868">
        <ele>198</ele>
        <time>2018-07-27T10:12:45Z</time>
      </trkpt>
      <trkpt lat="45.92662" lon="4.70874">
        <ele>198</ele>
        <time>2018-07-27T10:12:46Z</time>
      </trkpt>
      <trkpt lat="45.92666" lon="4.70879">
        <ele>197</ele>
        <time>2018-07-27T10:12:47Z</time>
      </trkpt>
      <trkpt lat="45.92672" lon="4.70881">
        <ele>198</ele>
        <time>2018-07-27T10:12:48Z</time>
      </trkpt>
      <trkpt lat="45.92676" lon="4.70884">
        <ele>198</ele>
        <time>2018-07-27T10:12:49Z</time>
      </trkpt>
      <trkpt lat="45.92681" lon="4.70888">
        <ele>198</ele>
        <time>2018-07-27T10:12:50Z</time>
      </trkpt>
      <trkpt lat="45.92685" lon="4.70892">
        <ele>198</ele>
        <time>2018-07-27T10:12:51Z</time>
      </trkpt>
      <trkpt lat="45.92691" lon="4.70894">
        <ele>198</ele>
        <time>2018-07-27T10:12:52Z</time>
      </trkpt>
      <trkpt lat="45.92695" lon="4.70897">
        <ele>197</ele>
        <time>2018-07-27T10:12:53Z</time>
      </trkpt>
      <trkpt lat="45.92701" lon="4.70901">
        <ele>197</ele>
        <time>2018-07-27T10:12:54Z</time>
      </trkpt>
      <trkpt lat="45.92705" lon="4.70904">
        <ele>197</ele>
        <time>2018-07-27T10:12:55Z</time>
      </trkpt>
      <trkpt lat="45.9271" lon="4.70906">
        <ele>197</ele>
        <time>2018-07-27T10:12:56Z</time>
      </trkpt>
      <trkpt lat="45.92716" lon="4.70908">
        <ele>197</ele>
        <time>2018-07-27T10:12:57Z</time>
      </trkpt>
      <trkpt lat="45.92721" lon="4.70911">
        <ele>197</ele>
        <time>2018-07-27T10:12:58Z</time>
      </trkpt>
      <trkpt lat="45.92727" lon="4.70914">
        <ele>197</ele>
        <time>2018-07-27T10:12:59Z</time>
      </trkpt>
      <trkpt lat="45.92732" lon="4.70916">
        <ele>197</ele>
        <time>2018-07-27T10:13:00Z</time>
      </trkpt>
      <trkpt lat="45.92738" lon="4.70917">
        <ele>195</ele>
        <time>2018-07-27T10:13:01Z</time>
      </trkpt>
      <trkpt lat="45.92744" lon="4.70919">
        <ele>196</ele>
        <time>2018-07-27T10:13:02Z</time>
      </trkpt>
      <trkpt lat="45.9275" lon="4.7092">
        <ele>196</ele>
        <time>2018-07-27T10:13:03Z</time>
      </trkpt>
      <trkpt lat="45.92757" lon="4.7092">
        <ele>196</ele>
        <time>2018-07-27T10:13:04Z</time>
      </trkpt>
      <trkpt lat="45.92764" lon="4.7092">
        <ele>196</ele>
        <time>2018-07-27T10:13:05Z</time>
      </trkpt>
      <trkpt lat="45.92769" lon="4.70922">
        <ele>196</ele>
        <time>2018-07-27T10:13:06Z</time>
      </trkpt>
      <trkpt lat="45.92774" lon="4.70924">
        <ele>196</ele>
        <time>2018-07-27T10:13:07Z</time>
      </trkpt>
      <trkpt lat="45.92779" lon="4.70925">
        <ele>196</ele>
        <time>2018-07-27T10:13:08Z</time>
      </trkpt>
      <trkpt lat="45.92784" lon="4.70927">
        <ele>196</ele>
        <time>2018-07-27T10:13:09Z</time>
      </trkpt>
      <trkpt lat="45.92791" lon="4.70927">
        <ele>196</ele>
        <time>2018-07-27T10:13:10Z</time>
      </trkpt>
      <trkpt lat="45.92797" lon="4.70927">
        <ele>196</ele>
        <time>2018-07-27T10:13:11Z</time>
      </trkpt>
      <trkpt lat="45.928" lon="4.70931">
        <ele>196</ele>
        <time>2018-07-27T10:13:12Z</time>
      </trkpt>
      <trkpt lat="45.92805" lon="4.70934">
        <ele>197</ele>
        <time>2018-07-27T10:13:13Z</time>
      </trkpt>
      <trkpt lat="45.92809" lon="4.70938">
        <ele>197</ele>
        <time>2018-07-27T10:13:14Z</time>
      </trkpt>
      <trkpt lat="45.92814" lon="4.70941">
        <ele>197</ele>
        <time>2018-07-27T10:13:15Z</time>
      </trkpt>
      <trkpt lat="45.92818" lon="4.70944">
        <ele>197</ele>
        <time>2018-07-27T10:13:16Z</time>
      </trkpt>
      <trkpt lat="45.92824" lon="4.70944">
        <ele>197</ele>
        <time>2018-07-27T10:13:17Z</time>
      </trkpt>
      <trkpt lat="45.92828" lon="4.70942">
        <ele>197</ele>
        <time>2018-07-27T10:13:18Z</time>
      </trkpt>
      <trkpt lat="45.92833" lon="4.70939">
        <ele>197</ele>
        <time>2018-07-27T10:13:19Z</time>
      </trkpt>
      <trkpt lat="45.92837" lon="4.70938">
        <ele>198</ele>
        <time>2018-07-27T10:13:20Z</time>
      </trkpt>
      <trkpt lat="45.92842" lon="4.70938">
        <ele>198</ele>
        <time>2018-07-27T10:13:21Z</time>
      </trkpt>
      <trkpt lat="45.92847" lon="4.70938">
        <ele>198</ele>
        <time>2018-07-27T10:13:22Z</time>
      </trkpt>
      <trkpt lat="45.92853" lon="4.70939">
        <ele>198</ele>
        <time>2018-07-27T10:13:23Z</time>
      </trkpt>
      <trkpt lat="45.92858" lon="4.70941">
        <ele>198</ele>
        <time>2018-07-27T10:13:24Z</time>
      </trkpt>
      <trkpt lat="45.92864" lon="4.70943">
        <ele>198</ele>
        <time>2018-07-27T10:13:25Z</time>
      </trkpt>
      <trkpt lat="45.92869" lon="4.70947">
        <ele>198</ele>
        <time>2018-07-27T10:13:26Z</time>
      </trkpt>
      <trkpt lat="45.92876" lon="4.70948">
        <ele>198</ele>
        <time>2018-07-27T10:13:27Z</time>
      </trkpt>
      <trkpt lat="45.92883" lon="4.70951">
        <ele>198</ele>
        <time>2018-07-27T10:13:28Z</time>
      </trkpt>
      <trkpt lat="45.92889" lon="4.70952">
        <ele>198</ele>
        <time>2018-07-27T10:13:29Z</time>
      </trkpt>
      <trkpt lat="45.92895" lon="4.70953">
        <ele>198</ele>
        <time>2018-07-27T10:13:30Z</time>
      </trkpt>
      <trkpt lat="45.92902" lon="4.70954">
        <ele>198</ele>
        <time>2018-07-27T10:13:31Z</time>
      </trkpt>
      <trkpt lat="45.92908" lon="4.70955">
        <ele>198</ele>
        <time>2018-07-27T10:13:32Z</time>
      </trkpt>
      <trkpt lat="45.92913" lon="4.70957">
        <ele>198</ele>
        <time>2018-07-27T10:13:33Z</time>
      </trkpt>
      <trkpt lat="45.92922" lon="4.70958">
        <ele>198</ele>
        <time>2018-07-27T10:13:34Z</time>
      </trkpt>
      <trkpt lat="45.9293" lon="4.70958">
        <ele>198</ele>
        <time>2018-07-27T10:13:35Z</time>
      </trkpt>
      <trkpt lat="45.92936" lon="4.70959">
        <ele>198</ele>
        <time>2018-07-27T10:13:36Z</time>
      </trkpt>
      <trkpt lat="45.92943" lon="4.7096">
        <ele>198</ele>
        <time>2018-07-27T10:13:37Z</time>
      </trkpt>
      <trkpt lat="45.92949" lon="4.70961">
        <ele>198</ele>
        <time>2018-07-27T10:13:38Z</time>
      </trkpt>
      <trkpt lat="45.92955" lon="4.70964">
        <ele>198</ele>
        <time>2018-07-27T10:13:39Z</time>
      </trkpt>
      <trkpt lat="45.9296" lon="4.70966">
        <ele>198</ele>
        <time>2018-07-27T10:13:40Z</time>
      </trkpt>
      <trkpt lat="45.92966" lon="4.7097">
        <ele>198</ele>
        <time>2018-07-27T10:13:41Z</time>
      </trkpt>
      <trkpt lat="45.92972" lon="4.70971">
        <ele>198</ele>
        <time>2018-07-27T10:13:42Z</time>
      </trkpt>
      <trkpt lat="45.92979" lon="4.70972">
        <ele>198</ele>
        <time>2018-07-27T10:13:43Z</time>
      </trkpt>
      <trkpt lat="45.92985" lon="4.70975">
        <ele>198</ele>
        <time>2018-07-27T10:13:44Z</time>
      </trkpt>
      <trkpt lat="45.92991" lon="4.70978">
        <ele>198</ele>
        <time>2018-07-27T10:13:45Z</time>
      </trkpt>
      <trkpt lat="45.92997" lon="4.7098">
        <ele>198</ele>
        <time>2018-07-27T10:13:46Z</time>
      </trkpt>
      <trkpt lat="45.93003" lon="4.70982">
        <ele>198</ele>
        <time>2018-07-27T10:13:47Z</time>
      </trkpt>
      <trkpt lat="45.93009" lon="4.70985">
        <ele>198</ele>
        <time>2018-07-27T10:13:48Z</time>
      </trkpt>
      <trkpt lat="45.93016" lon="4.70987">
        <ele>198</ele>
        <time>2018-07-27T10:13:49Z</time>
      </trkpt>
      <trkpt lat="45.93021" lon="4.70991">
        <ele>198</ele>
        <time>2018-07-27T10:13:50Z</time>
      </trkpt>
      <trkpt lat="45.93025" lon="4.70997">
        <ele>198</ele>
        <time>2018-07-27T10:13:51Z</time>
      </trkpt>
      <trkpt lat="45.93031" lon="4.71001">
        <ele>197</ele>
        <time>2018-07-27T10:13:52Z</time>
      </trkpt>
      <trkpt lat="45.93037" lon="4.71005">
        <ele>197</ele>
        <time>2018-07-27T10:13:53Z</time>
      </trkpt>
      <trkpt lat="45.93044" lon="4.71011">
        <ele>197</ele>
        <time>2018-07-27T10:13:54Z</time>
      </trkpt>
      <trkpt lat="45.93051" lon="4.71014">
        <ele>197</ele>
        <time>2018-07-27T10:13:55Z</time>
      </trkpt>
      <trkpt lat="45.93055" lon="4.7102">
        <ele>197</ele>
        <time>2018-07-27T10:13:56Z</time>
      </trkpt>
      <trkpt lat="45.93061" lon="4.71024">
        <ele>197</ele>
        <time>2018-07-27T10:13:57Z</time>
      </trkpt>
      <trkpt lat="45.93067" lon="4.7103">
        <ele>197</ele>
        <time>2018-07-27T10:13:58Z</time>
      </trkpt>
      <trkpt lat="45.93074" lon="4.71034">
        <ele>197</ele>
        <time>2018-07-27T10:13:59Z</time>
      </trkpt>
      <trkpt lat="45.9308" lon="4.7104">
        <ele>196</ele>
        <time>2018-07-27T10:14:00Z</time>
      </trkpt>
      <trkpt lat="45.93086" lon="4.71046">
        <ele>196</ele>
        <time>2018-07-27T10:14:01Z</time>
      </trkpt>
      <trkpt lat="45.93091" lon="4.71052">
        <ele>196</ele>
        <time>2018-07-27T10:14:02Z</time>
      </trkpt>
      <trkpt lat="45.93097" lon="4.7106">
        <ele>195</ele>
        <time>2018-07-27T10:14:03Z</time>
      </trkpt>
      <trkpt lat="45.93101" lon="4.71068">
        <ele>195</ele>
        <time>2018-07-27T10:14:04Z</time>
      </trkpt>
      <trkpt lat="45.93106" lon="4.71076">
        <ele>195</ele>
        <time>2018-07-27T10:14:05Z</time>
      </trkpt>
      <trkpt lat="45.93111" lon="4.71084">
        <ele>193</ele>
        <time>2018-07-27T10:14:06Z</time>
      </trkpt>
      <trkpt lat="45.93115" lon="4.71093">
        <ele>193</ele>
        <time>2018-07-27T10:14:07Z</time>
      </trkpt>
      <trkpt lat="45.9312" lon="4.71101">
        <ele>192</ele>
        <time>2018-07-27T10:14:08Z</time>
      </trkpt>
      <trkpt lat="45.93125" lon="4.7111">
        <ele>192</ele>
        <time>2018-07-27T10:14:09Z</time>
      </trkpt>
      <trkpt lat="45.9313" lon="4.71118">
        <ele>192</ele>
        <time>2018-07-27T10:14:10Z</time>
      </trkpt>
      <trkpt lat="45.93135" lon="4.71127">
        <ele>192</ele>
        <time>2018-07-27T10:14:11Z</time>
      </trkpt>
      <trkpt lat="45.93139" lon="4.71136">
        <ele>192</ele>
        <time>2018-07-27T10:14:12Z</time>
      </trkpt>
      <trkpt lat="45.93142" lon="4.71146">
        <ele>191</ele>
        <time>2018-07-27T10:14:13Z</time>
      </trkpt>
      <trkpt lat="45.93146" lon="4.71155">
        <ele>191</ele>
        <time>2018-07-27T10:14:14Z</time>
      </trkpt>
      <trkpt lat="45.9315" lon="4.71165">
        <ele>191</ele>
        <time>2018-07-27T10:14:15Z</time>
      </trkpt>
      <trkpt lat="45.93155" lon="4.71175">
        <ele>190</ele>
        <time>2018-07-27T10:14:16Z</time>
      </trkpt>
      <trkpt lat="45.9316" lon="4.71182">
        <ele>190</ele>
        <time>2018-07-27T10:14:17Z</time>
      </trkpt>
      <trkpt lat="45.93164" lon="4.71192">
        <ele>190</ele>
        <time>2018-07-27T10:14:18Z</time>
      </trkpt>
      <trkpt lat="45.93168" lon="4.71199">
        <ele>190</ele>
        <time>2018-07-27T10:14:19Z</time>
      </trkpt>
      <trkpt lat="45.93172" lon="4.71208">
        <ele>190</ele>
        <time>2018-07-27T10:14:20Z</time>
      </trkpt>
      <trkpt lat="45.93175" lon="4.71217">
        <ele>190</ele>
        <time>2018-07-27T10:14:21Z</time>
      </trkpt>
      <trkpt lat="45.93178" lon="4.71226">
        <ele>190</ele>
        <time>2018-07-27T10:14:22Z</time>
      </trkpt>
      <trkpt lat="45.93182" lon="4.71235">
        <ele>190</ele>
        <time>2018-07-27T10:14:23Z</time>
      </trkpt>
      <trkpt lat="45.93186" lon="4.71246">
        <ele>190</ele>
        <time>2018-07-27T10:14:24Z</time>
      </trkpt>
      <trkpt lat="45.93191" lon="4.71256">
        <ele>189</ele>
        <time>2018-07-27T10:14:25Z</time>
      </trkpt>
      <trkpt lat="45.93195" lon="4.71264">
        <ele>189</ele>
        <time>2018-07-27T10:14:26Z</time>
      </trkpt>
      <trkpt lat="45.93198" lon="4.71272">
        <ele>188</ele>
        <time>2018-07-27T10:14:27Z</time>
      </trkpt>
      <trkpt lat="45.93201" lon="4.7128">
        <ele>188</ele>
        <time>2018-07-27T10:14:28Z</time>
      </trkpt>
      <trkpt lat="45.93204" lon="4.71288">
        <ele>188</ele>
        <time>2018-07-27T10:14:29Z</time>
      </trkpt>
      <trkpt lat="45.93209" lon="4.71295">
        <ele>188</ele>
        <time>2018-07-27T10:14:30Z</time>
      </trkpt>
      <trkpt lat="45.93213" lon="4.71305">
        <ele>188</ele>
        <time>2018-07-27T10:14:31Z</time>
      </trkpt>
      <trkpt lat="45.93217" lon="4.71315">
        <ele>188</ele>
        <time>2018-07-27T10:14:32Z</time>
      </trkpt>
      <trkpt lat="45.93221" lon="4.71323">
        <ele>187</ele>
        <time>2018-07-27T10:14:33Z</time>
      </trkpt>
      <trkpt lat="45.93224" lon="4.71333">
        <ele>187</ele>
        <time>2018-07-27T10:14:34Z</time>
      </trkpt>
      <trkpt lat="45.93228" lon="4.71342">
        <ele>186</ele>
        <time>2018-07-27T10:14:35Z</time>
      </trkpt>
      <trkpt lat="45.93234" lon="4.71353">
        <ele>186</ele>
        <time>2018-07-27T10:14:36Z</time>
      </trkpt>
      <trkpt lat="45.93239" lon="4.71362">
        <ele>186</ele>
        <time>2018-07-27T10:14:37Z</time>
      </trkpt>
      <trkpt lat="45.93244" lon="4.71372">
        <ele>186</ele>
        <time>2018-07-27T10:14:38Z</time>
      </trkpt>
      <trkpt lat="45.93248" lon="4.7138">
        <ele>186</ele>
        <time>2018-07-27T10:14:39Z</time>
      </trkpt>
      <trkpt lat="45.93251" lon="4.71389">
        <ele>186</ele>
        <time>2018-07-27T10:14:40Z</time>
      </trkpt>
      <trkpt lat="45.93255" lon="4.71397">
        <ele>186</ele>
        <time>2018-07-27T10:14:41Z</time>
      </trkpt>
      <trkpt lat="45.93258" lon="4.71406">
        <ele>186</ele>
        <time>2018-07-27T10:14:42Z</time>
      </trkpt>
      <trkpt lat="45.93261" lon="4.71413">
        <ele>186</ele>
        <time>2018-07-27T10:14:43Z</time>
      </trkpt>
      <trkpt lat="45.93264" lon="4.71422">
        <ele>186</ele>
        <time>2018-07-27T10:14:44Z</time>
      </trkpt>
      <trkpt lat="45.93268" lon="4.71431">
        <ele>185</ele>
        <time>2018-07-27T10:14:45Z</time>
      </trkpt>
      <trkpt lat="45.93271" lon="4.71439">
        <ele>185</ele>
        <time>2018-07-27T10:14:46Z</time>
      </trkpt>
      <trkpt lat="45.93274" lon="4.71447">
        <ele>185</ele>
        <time>2018-07-27T10:14:47Z</time>
      </trkpt>
      <trkpt lat="45.93277" lon="4.71455">
        <ele>185</ele>
        <time>2018-07-27T10:14:48Z</time>
      </trkpt>
      <trkpt lat="45.93281" lon="4.71462">
        <ele>185</ele>
        <time>2018-07-27T10:14:49Z</time>
      </trkpt>
      <trkpt lat="45.93283" lon="4.7147">
        <ele>185</ele>
        <time>2018-07-27T10:14:50Z</time>
      </trkpt>
      <trkpt lat="45.93287" lon="4.71478">
        <ele>185</ele>
        <time>2018-07-27T10:14:51Z</time>
      </trkpt>
      <trkpt lat="45.9329" lon="4.71487">
        <ele>185</ele>
        <time>2018-07-27T10:14:52Z</time>
      </trkpt>
      <trkpt lat="45.93293" lon="4.71494">
        <ele>185</ele>
        <time>2018-07-27T10:14:53Z</time>
      </trkpt>
      <trkpt lat="45.93297" lon="4.71501">
        <ele>184</ele>
        <time>2018-07-27T10:14:54Z</time>
      </trkpt>
      <trkpt lat="45.93301" lon="4.7151">
        <ele>184</ele>
        <time>2018-07-27T10:14:55Z</time>
      </trkpt>
      <trkpt lat="45.93304" lon="4.71517">
        <ele>184</ele>
        <time>2018-07-27T10:14:56Z</time>
      </trkpt>
      <trkpt lat="45.93307" lon="4.71525">
        <ele>184</ele>
        <time>2018-07-27T10:14:57Z</time>
      </trkpt>
      <trkpt lat="45.9331" lon="4.71533">
        <ele>184</ele>
        <time>2018-07-27T10:14:58Z</time>
      </trkpt>
      <trkpt lat="45.93314" lon="4.71541">
        <ele>184</ele>
        <time>2018-07-27T10:14:59Z</time>
      </trkpt>
      <trkpt lat="45.93316" lon="4.71549">
        <ele>184</ele>
        <time>2018-07-27T10:15:00Z</time>
      </trkpt>
      <trkpt lat="45.93319" lon="4.71557">
        <ele>184</ele>
        <time>2018-07-27T10:15:01Z</time>
      </trkpt>
      <trkpt lat="45.93323" lon="4.71563">
        <ele>185</ele>
        <time>2018-07-27T10:15:02Z</time>
      </trkpt>
      <trkpt lat="45.93326" lon="4.7157">
        <ele>185</ele>
        <time>2018-07-27T10:15:03Z</time>
      </trkpt>
      <trkpt lat="45.93331" lon="4.71577">
        <ele>185</ele>
        <time>2018-07-27T10:15:04Z</time>
      </trkpt>
      <trkpt lat="45.93334" lon="4.71584">
        <ele>185</ele>
        <time>2018-07-27T10:15:05Z</time>
      </trkpt>
      <trkpt lat="45.93339" lon="4.71592">
        <ele>185</ele>
        <time>2018-07-27T10:15:06Z</time>
      </trkpt>
      <trkpt lat="45.93343" lon="4.71599">
        <ele>185</ele>
        <time>2018-07-27T10:15:07Z</time>
      </trkpt>
      <trkpt lat="45.93347" lon="4.71608">
        <ele>185</ele>
        <time>2018-07-27T10:15:08Z</time>
      </trkpt>
      <trkpt lat="45.9335" lon="4.71612">
        <ele>185</ele>
        <time>2018-07-27T10:15:09Z</time>
      </trkpt>
      <trkpt lat="45.93353" lon="4.7162">
        <ele>185</ele>
        <time>2018-07-27T10:15:10Z</time>
      </trkpt>
      <trkpt lat="45.93356" lon="4.71627">
        <ele>185</ele>
        <time>2018-07-27T10:15:11Z</time>
      </trkpt>
      <trkpt lat="45.9336" lon="4.71634">
        <ele>185</ele>
        <time>2018-07-27T10:15:12Z</time>
      </trkpt>
      <trkpt lat="45.93364" lon="4.71643">
        <ele>185</ele>
        <time>2018-07-27T10:15:13Z</time>
      </trkpt>
      <trkpt lat="45.93368" lon="4.71652">
        <ele>185</ele>
        <time>2018-07-27T10:15:14Z</time>
      </trkpt>
      <trkpt lat="45.93371" lon="4.71659">
        <ele>185</ele>
        <time>2018-07-27T10:15:15Z</time>
      </trkpt>
      <trkpt lat="45.93374" lon="4.71667">
        <ele>185</ele>
        <time>2018-07-27T10:15:16Z</time>
      </trkpt>
      <trkpt lat="45.93378" lon="4.71677">
        <ele>185</ele>
        <time>2018-07-27T10:15:17Z</time>
      </trkpt>
      <trkpt lat="45.93382" lon="4.71686">
        <ele>185</ele>
        <time>2018-07-27T10:15:18Z</time>
      </trkpt>
      <trkpt lat="45.93387" lon="4.71694">
        <ele>184</ele>
        <time>2018-07-27T10:15:19Z</time>
      </trkpt>
      <trkpt lat="45.93392" lon="4.71706">
        <ele>184</ele>
        <time>2018-07-27T10:15:20Z</time>
      </trkpt>
      <trkpt lat="45.93396" lon="4.71715">
        <ele>184</ele>
        <time>2018-07-27T10:15:21Z</time>
      </trkpt>
      <trkpt lat="45.934" lon="4.71725">
        <ele>184</ele>
        <time>2018-07-27T10:15:22Z</time>
      </trkpt>
      <trkpt lat="45.93404" lon="4.71733">
        <ele>184</ele>
        <time>2018-07-27T10:15:23Z</time>
      </trkpt>
      <trkpt lat="45.93408" lon="4.71743">
        <ele>184</ele>
        <time>2018-07-27T10:15:24Z</time>
      </trkpt>
      <trkpt lat="45.93412" lon="4.71753">
        <ele>183</ele>
        <time>2018-07-27T10:15:25Z</time>
      </trkpt>
      <trkpt lat="45.93416" lon="4.71763">
        <ele>183</ele>
        <time>2018-07-27T10:15:26Z</time>
      </trkpt>
      <trkpt lat="45.93421" lon="4.71772">
        <ele>182</ele>
        <time>2018-07-27T10:15:27Z</time>
      </trkpt>
      <trkpt lat="45.93426" lon="4.71783">
        <ele>182</ele>
        <time>2018-07-27T10:15:28Z</time>
      </trkpt>
      <trkpt lat="45.93431" lon="4.71792">
        <ele>182</ele>
        <time>2018-07-27T10:15:29Z</time>
      </trkpt>
      <trkpt lat="45.93434" lon="4.71801">
        <ele>182</ele>
        <time>2018-07-27T10:15:30Z</time>
      </trkpt>
      <trkpt lat="45.93437" lon="4.7181">
        <ele>182</ele>
        <time>2018-07-27T10:15:31Z</time>
      </trkpt>
      <trkpt lat="45.9344" lon="4.71819">
        <ele>182</ele>
        <time>2018-07-27T10:15:32Z</time>
      </trkpt>
      <trkpt lat="45.93445" lon="4.71827">
        <ele>182</ele>
        <time>2018-07-27T10:15:33Z</time>
      </trkpt>
      <trkpt lat="45.9345" lon="4.71835">
        <ele>181</ele>
        <time>2018-07-27T10:15:34Z</time>
      </trkpt>
      <trkpt lat="45.93456" lon="4.71843">
        <ele>181</ele>
        <time>2018-07-27T10:15:35Z</time>
      </trkpt>
      <trkpt lat="45.93462" lon="4.7185">
        <ele>180</ele>
        <time>2018-07-27T10:15:36Z</time>
      </trkpt>
      <trkpt lat="45.93468" lon="4.71856">
        <ele>180</ele>
        <time>2018-07-27T10:15:37Z</time>
      </trkpt>
      <trkpt lat="45.93476" lon="4.71856">
        <ele>180</ele>
        <time>2018-07-27T10:15:38Z</time>
      </trkpt>
      <trkpt lat="45.93484" lon="4.71855">
        <ele>180</ele>
        <time>2018-07-27T10:15:39Z</time>
      </trkpt>
      <trkpt lat="45.93492" lon="4.71854">
        <ele>180</ele>
        <time>2018-07-27T10:15:40Z</time>
      </trkpt>
      <trkpt lat="45.935" lon="4.71853">
        <ele>180</ele>
        <time>2018-07-27T10:15:41Z</time>
      </trkpt>
      <trkpt lat="45.93509" lon="4.71849">
        <ele>179</ele>
        <time>2018-07-27T10:15:42Z</time>
      </trkpt>
      <trkpt lat="45.93517" lon="4.71848">
        <ele>179</ele>
        <time>2018-07-27T10:15:43Z</time>
      </trkpt>
      <trkpt lat="45.93525" lon="4.71848">
        <ele>179</ele>
        <time>2018-07-27T10:15:44Z</time>
      </trkpt>
      <trkpt lat="45.93533" lon="4.71845">
        <ele>179</ele>
        <time>2018-07-27T10:15:45Z</time>
      </trkpt>
      <trkpt lat="45.93543" lon="4.71842">
        <ele>179</ele>
        <time>2018-07-27T10:15:46Z</time>
      </trkpt>
      <trkpt lat="45.93551" lon="4.71841">
        <ele>179</ele>
        <time>2018-07-27T10:15:47Z</time>
      </trkpt>
      <trkpt lat="45.93557" lon="4.71841">
        <ele>179</ele>
        <time>2018-07-27T10:15:48Z</time>
      </trkpt>
      <trkpt lat="45.93565" lon="4.71839">
        <ele>179</ele>
        <time>2018-07-27T10:15:49Z</time>
      </trkpt>
      <trkpt lat="45.93571" lon="4.71838">
        <ele>179</ele>
        <time>2018-07-27T10:15:50Z</time>
      </trkpt>
      <trkpt lat="45.93577" lon="4.71837">
        <ele>180</ele>
        <time>2018-07-27T10:15:51Z</time>
      </trkpt>
      <trkpt lat="45.93583" lon="4.71837">
        <ele>180</ele>
        <time>2018-07-27T10:15:52Z</time>
      </trkpt>
      <trkpt lat="45.93588" lon="4.71836">
        <ele>179</ele>
        <time>2018-07-27T10:15:53Z</time>
      </trkpt>
      <trkpt lat="45.93593" lon="4.71836">
        <ele>179</ele>
        <time>2018-07-27T10:15:54Z</time>
      </trkpt>
      <trkpt lat="45.93601" lon="4.71834">
        <ele>179</ele>
        <time>2018-07-27T10:15:56Z</time>
      </trkpt>
      <trkpt lat="45.93605" lon="4.71831">
        <ele>179</ele>
        <time>2018-07-27T10:15:57Z</time>
      </trkpt>
      <trkpt lat="45.93609" lon="4.71822">
        <ele>179</ele>
        <time>2018-07-27T10:15:58Z</time>
      </trkpt>
      <trkpt lat="45.93614" lon="4.71819">
        <ele>179</ele>
        <time>2018-07-27T10:15:59Z</time>
      </trkpt>
      <trkpt lat="45.93619" lon="4.7181">
        <ele>179</ele>
        <time>2018-07-27T10:16:02Z</time>
      </trkpt>
      <trkpt lat="45.93623" lon="4.71808">
        <ele>179</ele>
        <time>2018-07-27T10:16:03Z</time>
      </trkpt>
      <trkpt lat="45.93629" lon="4.71805">
        <ele>179</ele>
        <time>2018-07-27T10:16:04Z</time>
      </trkpt>
      <trkpt lat="45.93635" lon="4.71804">
        <ele>179</ele>
        <time>2018-07-27T10:16:05Z</time>
      </trkpt>
      <trkpt lat="45.9364" lon="4.71803">
        <ele>179</ele>
        <time>2018-07-27T10:16:06Z</time>
      </trkpt>
      <trkpt lat="45.93647" lon="4.718">
        <ele>179</ele>
        <time>2018-07-27T10:16:07Z</time>
      </trkpt>
      <trkpt lat="45.93652" lon="4.71796">
        <ele>179</ele>
        <time>2018-07-27T10:16:08Z</time>
      </trkpt>
      <trkpt lat="45.93658" lon="4.71793">
        <ele>179</ele>
        <time>2018-07-27T10:16:09Z</time>
      </trkpt>
      <trkpt lat="45.93664" lon="4.71791">
        <ele>179</ele>
        <time>2018-07-27T10:16:10Z</time>
      </trkpt>
      <trkpt lat="45.93669" lon="4.7179">
        <ele>177</ele>
        <time>2018-07-27T10:16:11Z</time>
      </trkpt>
      <trkpt lat="45.93675" lon="4.71788">
        <ele>177</ele>
        <time>2018-07-27T10:16:12Z</time>
      </trkpt>
      <trkpt lat="45.9368" lon="4.71786">
        <ele>177</ele>
        <time>2018-07-27T10:16:13Z</time>
      </trkpt>
      <trkpt lat="45.93686" lon="4.71783">
        <ele>177</ele>
        <time>2018-07-27T10:16:14Z</time>
      </trkpt>
      <trkpt lat="45.9369" lon="4.71783">
        <ele>177</ele>
        <time>2018-07-27T10:16:15Z</time>
      </trkpt>
      <trkpt lat="45.93696" lon="4.71782">
        <ele>177</ele>
        <time>2018-07-27T10:16:16Z</time>
      </trkpt>
      <trkpt lat="45.93702" lon="4.71781">
        <ele>176</ele>
        <time>2018-07-27T10:16:17Z</time>
      </trkpt>
      <trkpt lat="45.93707" lon="4.71792">
        <ele>176</ele>
        <time>2018-07-27T10:16:30Z</time>
      </trkpt>
      <trkpt lat="45.93707" lon="4.71792">
        <ele>176</ele>
        <time>2018-07-27T10:16:31Z</time>
      </trkpt>
      <trkpt lat="45.93703" lon="4.718">
        <ele>176</ele>
        <time>2018-07-27T10:16:54Z</time>
      </trkpt>
      <trkpt lat="45.93699" lon="4.7181">
        <ele>176</ele>
        <time>2018-07-27T10:16:55Z</time>
      </trkpt>
      <trkpt lat="45.93698" lon="4.71812">
        <ele>176</ele>
        <time>2018-07-27T10:16:56Z</time>
      </trkpt>
      <trkpt lat="45.93693" lon="4.71822">
        <ele>176</ele>
        <time>2018-07-27T10:16:57Z</time>
      </trkpt>
      <trkpt lat="45.93691" lon="4.71828">
        <ele>176</ele>
        <time>2018-07-27T10:16:58Z</time>
      </trkpt>
      <trkpt lat="45.93689" lon="4.71837">
        <ele>176</ele>
        <time>2018-07-27T10:16:59Z</time>
      </trkpt>
      <trkpt lat="45.93686" lon="4.71845">
        <ele>175</ele>
        <time>2018-07-27T10:17:00Z</time>
      </trkpt>
      <trkpt lat="45.93684" lon="4.71854">
        <ele>175</ele>
        <time>2018-07-27T10:17:01Z</time>
      </trkpt>
      <trkpt lat="45.93679" lon="4.71861">
        <ele>175</ele>
        <time>2018-07-27T10:17:03Z</time>
      </trkpt>
      <trkpt lat="45.93677" lon="4.71868">
        <ele>175</ele>
        <time>2018-07-27T10:17:04Z</time>
      </trkpt>
      <trkpt lat="45.93674" lon="4.71877">
        <ele>175</ele>
        <time>2018-07-27T10:17:05Z</time>
      </trkpt>
      <trkpt lat="45.93672" lon="4.71885">
        <ele>175</ele>
        <time>2018-07-27T10:17:06Z</time>
      </trkpt>
      <trkpt lat="45.93668" lon="4.71896">
        <ele>175</ele>
        <time>2018-07-27T10:17:07Z</time>
      </trkpt>
      <trkpt lat="45.93665" lon="4.71906">
        <ele>176</ele>
        <time>2018-07-27T10:17:08Z</time>
      </trkpt>
      <trkpt lat="45.93661" lon="4.71917">
        <ele>175</ele>
        <time>2018-07-27T10:17:09Z</time>
      </trkpt>
      <trkpt lat="45.93658" lon="4.71925">
        <ele>175</ele>
        <time>2018-07-27T10:17:10Z</time>
      </trkpt>
      <trkpt lat="45.93656" lon="4.71935">
        <ele>175</ele>
        <time>2018-07-27T10:17:11Z</time>
      </trkpt>
      <trkpt lat="45.93652" lon="4.71944">
        <ele>175</ele>
        <time>2018-07-27T10:17:12Z</time>
      </trkpt>
      <trkpt lat="45.93648" lon="4.71953">
        <ele>175</ele>
        <time>2018-07-27T10:17:13Z</time>
      </trkpt>
      <trkpt lat="45.93644" lon="4.71962">
        <ele>175</ele>
        <time>2018-07-27T10:17:14Z</time>
      </trkpt>
      <trkpt lat="45.93641" lon="4.71971">
        <ele>175</ele>
        <time>2018-07-27T10:17:15Z</time>
      </trkpt>
      <trkpt lat="45.93637" lon="4.71979">
        <ele>175</ele>
        <time>2018-07-27T10:17:16Z</time>
      </trkpt>
      <trkpt lat="45.93634" lon="4.71988">
        <ele>175</ele>
        <time>2018-07-27T10:17:17Z</time>
      </trkpt>
      <trkpt lat="45.93632" lon="4.71997">
        <ele>175</ele>
        <time>2018-07-27T10:17:18Z</time>
      </trkpt>
      <trkpt lat="45.93628" lon="4.72006">
        <ele>175</ele>
        <time>2018-07-27T10:17:19Z</time>
      </trkpt>
      <trkpt lat="45.93625" lon="4.72016">
        <ele>175</ele>
        <time>2018-07-27T10:17:20Z</time>
      </trkpt>
      <trkpt lat="45.93622" lon="4.72024">
        <ele>175</ele>
        <time>2018-07-27T10:17:21Z</time>
      </trkpt>
      <trkpt lat="45.9362" lon="4.72034">
        <ele>175</ele>
        <time>2018-07-27T10:17:22Z</time>
      </trkpt>
      <trkpt lat="45.93615" lon="4.72041">
        <ele>175</ele>
        <time>2018-07-27T10:17:23Z</time>
      </trkpt>
      <trkpt lat="45.93612" lon="4.7205">
        <ele>175</ele>
        <time>2018-07-27T10:17:24Z</time>
      </trkpt>
      <trkpt lat="45.9361" lon="4.72059">
        <ele>175</ele>
        <time>2018-07-27T10:17:25Z</time>
      </trkpt>
      <trkpt lat="45.93606" lon="4.72065">
        <ele>175</ele>
        <time>2018-07-27T10:17:26Z</time>
      </trkpt>
      <trkpt lat="45.93604" lon="4.72075">
        <ele>175</ele>
        <time>2018-07-27T10:17:27Z</time>
      </trkpt>
      <trkpt lat="45.93603" lon="4.72086">
        <ele>174</ele>
        <time>2018-07-27T10:17:28Z</time>
      </trkpt>
      <trkpt lat="45.93601" lon="4.72094">
        <ele>174</ele>
        <time>2018-07-27T10:17:29Z</time>
      </trkpt>
      <trkpt lat="45.93599" lon="4.72102">
        <ele>174</ele>
        <time>2018-07-27T10:17:30Z</time>
      </trkpt>
      <trkpt lat="45.93599" lon="4.72112">
        <ele>174</ele>
        <time>2018-07-27T10:17:31Z</time>
      </trkpt>
      <trkpt lat="45.93595" lon="4.72119">
        <ele>174</ele>
        <time>2018-07-27T10:17:32Z</time>
      </trkpt>
      <trkpt lat="45.93592" lon="4.72125">
        <ele>174</ele>
        <time>2018-07-27T10:17:33Z</time>
      </trkpt>
      <trkpt lat="45.93586" lon="4.7213">
        <ele>174</ele>
        <time>2018-07-27T10:17:34Z</time>
      </trkpt>
      <trkpt lat="45.93582" lon="4.72136">
        <ele>174</ele>
        <time>2018-07-27T10:17:35Z</time>
      </trkpt>
      <trkpt lat="45.93581" lon="4.72145">
        <ele>174</ele>
        <time>2018-07-27T10:17:36Z</time>
      </trkpt>
      <trkpt lat="45.93578" lon="4.72152">
        <ele>174</ele>
        <time>2018-07-27T10:17:37Z</time>
      </trkpt>
      <trkpt lat="45.93575" lon="4.72159">
        <ele>174</ele>
        <time>2018-07-27T10:17:38Z</time>
      </trkpt>
      <trkpt lat="45.93572" lon="4.72167">
        <ele>173</ele>
        <time>2018-07-27T10:17:39Z</time>
      </trkpt>
      <trkpt lat="45.93569" lon="4.72174">
        <ele>173</ele>
        <time>2018-07-27T10:17:40Z</time>
      </trkpt>
      <trkpt lat="45.93566" lon="4.72184">
        <ele>173</ele>
        <time>2018-07-27T10:17:41Z</time>
      </trkpt>
      <trkpt lat="45.93562" lon="4.72192">
        <ele>173</ele>
        <time>2018-07-27T10:17:42Z</time>
      </trkpt>
      <trkpt lat="45.93557" lon="4.72199">
        <ele>173</ele>
        <time>2018-07-27T10:17:43Z</time>
      </trkpt>
      <trkpt lat="45.93553" lon="4.72208">
        <ele>173</ele>
        <time>2018-07-27T10:17:44Z</time>
      </trkpt>
      <trkpt lat="45.9355" lon="4.72214">
        <ele>173</ele>
        <time>2018-07-27T10:17:45Z</time>
      </trkpt>
      <trkpt lat="45.93546" lon="4.72222">
        <ele>172</ele>
        <time>2018-07-27T10:17:46Z</time>
      </trkpt>
      <trkpt lat="45.93544" lon="4.72228">
        <ele>172</ele>
        <time>2018-07-27T10:17:47Z</time>
      </trkpt>
      <trkpt lat="45.93541" lon="4.72234">
        <ele>172</ele>
        <time>2018-07-27T10:17:48Z</time>
      </trkpt>
      <trkpt lat="45.93538" lon="4.72241">
        <ele>172</ele>
        <time>2018-07-27T10:17:49Z</time>
      </trkpt>
      <trkpt lat="45.93536" lon="4.72248">
        <ele>172</ele>
        <time>2018-07-27T10:17:50Z</time>
      </trkpt>
      <trkpt lat="45.93533" lon="4.72256">
        <ele>172</ele>
        <time>2018-07-27T10:17:51Z</time>
      </trkpt>
      <trkpt lat="45.93531" lon="4.72263">
        <ele>172</ele>
        <time>2018-07-27T10:17:52Z</time>
      </trkpt>
      <trkpt lat="45.93528" lon="4.7227">
        <ele>172</ele>
        <time>2018-07-27T10:17:53Z</time>
      </trkpt>
      <trkpt lat="45.93525" lon="4.72278">
        <ele>172</ele>
        <time>2018-07-27T10:17:54Z</time>
      </trkpt>
      <trkpt lat="45.93522" lon="4.72284">
        <ele>172</ele>
        <time>2018-07-27T10:17:55Z</time>
      </trkpt>
      <trkpt lat="45.93519" lon="4.72291">
        <ele>172</ele>
        <time>2018-07-27T10:17:56Z</time>
      </trkpt>
      <trkpt lat="45.93515" lon="4.72298">
        <ele>172</ele>
        <time>2018-07-27T10:17:57Z</time>
      </trkpt>
      <trkpt lat="45.9351" lon="4.72306">
        <ele>173</ele>
        <time>2018-07-27T10:17:58Z</time>
      </trkpt>
      <trkpt lat="45.93505" lon="4.72313">
        <ele>173</ele>
        <time>2018-07-27T10:17:59Z</time>
      </trkpt>
      <trkpt lat="45.93501" lon="4.72319">
        <ele>173</ele>
        <time>2018-07-27T10:18:00Z</time>
      </trkpt>
      <trkpt lat="45.93496" lon="4.72326">
        <ele>173</ele>
        <time>2018-07-27T10:18:01Z</time>
      </trkpt>
      <trkpt lat="45.93491" lon="4.7233">
        <ele>173</ele>
        <time>2018-07-27T10:18:02Z</time>
      </trkpt>
      <trkpt lat="45.93486" lon="4.72335">
        <ele>173</ele>
        <time>2018-07-27T10:18:03Z</time>
      </trkpt>
      <trkpt lat="45.93482" lon="4.72341">
        <ele>173</ele>
        <time>2018-07-27T10:18:04Z</time>
      </trkpt>
      <trkpt lat="45.93477" lon="4.72346">
        <ele>173</ele>
        <time>2018-07-27T10:18:05Z</time>
      </trkpt>
      <trkpt lat="45.93473" lon="4.72351">
        <ele>173</ele>
        <time>2018-07-27T10:18:06Z</time>
      </trkpt>
      <trkpt lat="45.93469" lon="4.72357">
        <ele>173</ele>
        <time>2018-07-27T10:18:07Z</time>
      </trkpt>
      <trkpt lat="45.93464" lon="4.72363">
        <ele>173</ele>
        <time>2018-07-27T10:18:08Z</time>
      </trkpt>
      <trkpt lat="45.93459" lon="4.72368">
        <ele>173</ele>
        <time>2018-07-27T10:18:09Z</time>
      </trkpt>
      <trkpt lat="45.93456" lon="4.72373">
        <ele>173</ele>
        <time>2018-07-27T10:18:10Z</time>
      </trkpt>
      <trkpt lat="45.93452" lon="4.72377">
        <ele>173</ele>
        <time>2018-07-27T10:18:11Z</time>
      </trkpt>
      <trkpt lat="45.93446" lon="4.72385">
        <ele>173</ele>
        <time>2018-07-27T10:18:12Z</time>
      </trkpt>
      <trkpt lat="45.9344" lon="4.72391">
        <ele>173</ele>
        <time>2018-07-27T10:18:13Z</time>
      </trkpt>
      <trkpt lat="45.93436" lon="4.72394">
        <ele>173</ele>
        <time>2018-07-27T10:18:14Z</time>
      </trkpt>
      <trkpt lat="45.9343" lon="4.72395">
        <ele>173</ele>
        <time>2018-07-27T10:18:15Z</time>
      </trkpt>
      <trkpt lat="45.93424" lon="4.72396">
        <ele>174</ele>
        <time>2018-07-27T10:18:16Z</time>
      </trkpt>
      <trkpt lat="45.93419" lon="4.724">
        <ele>174</ele>
        <time>2018-07-27T10:18:17Z</time>
      </trkpt>
      <trkpt lat="45.93415" lon="4.72402">
        <ele>174</ele>
        <time>2018-07-27T10:18:18Z</time>
      </trkpt>
      <trkpt lat="45.9341" lon="4.72403">
        <ele>174</ele>
        <time>2018-07-27T10:18:19Z</time>
      </trkpt>
      <trkpt lat="45.93406" lon="4.72401">
        <ele>174</ele>
        <time>2018-07-27T10:18:20Z</time>
      </trkpt>
      <trkpt lat="45.93401" lon="4.724">
        <ele>174</ele>
        <time>2018-07-27T10:18:21Z</time>
      </trkpt>
      <trkpt lat="45.93395" lon="4.72402">
        <ele>174</ele>
        <time>2018-07-27T10:18:22Z</time>
      </trkpt>
      <trkpt lat="45.9339" lon="4.72405">
        <ele>174</ele>
        <time>2018-07-27T10:18:23Z</time>
      </trkpt>
      <trkpt lat="45.93387" lon="4.72411">
        <ele>174</ele>
        <time>2018-07-27T10:18:24Z</time>
      </trkpt>
      <trkpt lat="45.93386" lon="4.72422">
        <ele>173</ele>
        <time>2018-07-27T10:18:26Z</time>
      </trkpt>
      <trkpt lat="45.93387" lon="4.72433">
        <ele>173</ele>
        <time>2018-07-27T10:18:27Z</time>
      </trkpt>
      <trkpt lat="45.9339" lon="4.7244">
        <ele>173</ele>
        <time>2018-07-27T10:18:28Z</time>
      </trkpt>
      <trkpt lat="45.93389" lon="4.7245">
        <ele>173</ele>
        <time>2018-07-27T10:18:29Z</time>
      </trkpt>
      <trkpt lat="45.93388" lon="4.72455">
        <ele>173</ele>
        <time>2018-07-27T10:18:30Z</time>
      </trkpt>
      <trkpt lat="45.93388" lon="4.72466">
        <ele>173</ele>
        <time>2018-07-27T10:18:31Z</time>
      </trkpt>
      <trkpt lat="45.93385" lon="4.72473">
        <ele>173</ele>
        <time>2018-07-27T10:18:32Z</time>
      </trkpt>
      <trkpt lat="45.9338" lon="4.72479">
        <ele>173</ele>
        <time>2018-07-27T10:18:33Z</time>
      </trkpt>
      <trkpt lat="45.93376" lon="4.72484">
        <ele>173</ele>
        <time>2018-07-27T10:18:34Z</time>
      </trkpt>
      <trkpt lat="45.93372" lon="4.7249">
        <ele>173</ele>
        <time>2018-07-27T10:18:35Z</time>
      </trkpt>
      <trkpt lat="45.93368" lon="4.72493">
        <ele>173</ele>
        <time>2018-07-27T10:18:36Z</time>
      </trkpt>
      <trkpt lat="45.93363" lon="4.72496">
        <ele>173</ele>
        <time>2018-07-27T10:18:37Z</time>
      </trkpt>
      <trkpt lat="45.93359" lon="4.72505">
        <ele>172</ele>
        <time>2018-07-27T10:18:38Z</time>
      </trkpt>
      <trkpt lat="45.93355" lon="4.72508">
        <ele>172</ele>
        <time>2018-07-27T10:18:39Z</time>
      </trkpt>
      <trkpt lat="45.9335" lon="4.72513">
        <ele>172</ele>
        <time>2018-07-27T10:18:40Z</time>
      </trkpt>
      <trkpt lat="45.93344" lon="4.72522">
        <ele>172</ele>
        <time>2018-07-27T10:18:41Z</time>
      </trkpt>
      <trkpt lat="45.93339" lon="4.72526">
        <ele>172</ele>
        <time>2018-07-27T10:18:42Z</time>
      </trkpt>
      <trkpt lat="45.93335" lon="4.7253">
        <ele>172</ele>
        <time>2018-07-27T10:18:43Z</time>
      </trkpt>
      <trkpt lat="45.93331" lon="4.72534">
        <ele>172</ele>
        <time>2018-07-27T10:18:44Z</time>
      </trkpt>
      <trkpt lat="45.93327" lon="4.72541">
        <ele>172</ele>
        <time>2018-07-27T10:18:45Z</time>
      </trkpt>
      <trkpt lat="45.93321" lon="4.72544">
        <ele>172</ele>
        <time>2018-07-27T10:18:46Z</time>
      </trkpt>
      <trkpt lat="45.93315" lon="4.72551">
        <ele>172</ele>
        <time>2018-07-27T10:18:47Z</time>
      </trkpt>
      <trkpt lat="45.9331" lon="4.72555">
        <ele>172</ele>
        <time>2018-07-27T10:18:48Z</time>
      </trkpt>
      <trkpt lat="45.93305" lon="4.72561">
        <ele>172</ele>
        <time>2018-07-27T10:18:49Z</time>
      </trkpt>
      <trkpt lat="45.933" lon="4.72567">
        <ele>172</ele>
        <time>2018-07-27T10:18:50Z</time>
      </trkpt>
      <trkpt lat="45.93295" lon="4.72572">
        <ele>171</ele>
        <time>2018-07-27T10:18:51Z</time>
      </trkpt>
      <trkpt lat="45.93289" lon="4.72577">
        <ele>171</ele>
        <time>2018-07-27T10:18:52Z</time>
      </trkpt>
      <trkpt lat="45.93286" lon="4.72583">
        <ele>170</ele>
        <time>2018-07-27T10:18:53Z</time>
      </trkpt>
      <trkpt lat="45.93281" lon="4.72585">
        <ele>170</ele>
        <time>2018-07-27T10:18:54Z</time>
      </trkpt>
      <trkpt lat="45.93278" lon="4.72592">
        <ele>170</ele>
        <time>2018-07-27T10:18:55Z</time>
      </trkpt>
      <trkpt lat="45.93273" lon="4.72597">
        <ele>170</ele>
        <time>2018-07-27T10:18:56Z</time>
      </trkpt>
      <trkpt lat="45.93269" lon="4.72603">
        <ele>170</ele>
        <time>2018-07-27T10:18:57Z</time>
      </trkpt>
      <trkpt lat="45.93265" lon="4.72608">
        <ele>170</ele>
        <time>2018-07-27T10:18:58Z</time>
      </trkpt>
      <trkpt lat="45.93261" lon="4.72611">
        <ele>170</ele>
        <time>2018-07-27T10:18:59Z</time>
      </trkpt>
      <trkpt lat="45.93257" lon="4.72615">
        <ele>170</ele>
        <time>2018-07-27T10:19:00Z</time>
      </trkpt>
      <trkpt lat="45.93253" lon="4.72624">
        <ele>170</ele>
        <time>2018-07-27T10:19:01Z</time>
      </trkpt>
      <trkpt lat="45.93249" lon="4.72627">
        <ele>170</ele>
        <time>2018-07-27T10:19:02Z</time>
      </trkpt>
      <trkpt lat="45.93244" lon="4.72632">
        <ele>170</ele>
        <time>2018-07-27T10:19:03Z</time>
      </trkpt>
      <trkpt lat="45.93237" lon="4.72639">
        <ele>170</ele>
        <time>2018-07-27T10:19:05Z</time>
      </trkpt>
      <trkpt lat="45.93233" lon="4.72644">
        <ele>170</ele>
        <time>2018-07-27T10:19:06Z</time>
      </trkpt>
      <trkpt lat="45.93229" lon="4.7265">
        <ele>170</ele>
        <time>2018-07-27T10:19:07Z</time>
      </trkpt>
      <trkpt lat="45.93224" lon="4.72656">
        <ele>170</ele>
        <time>2018-07-27T10:19:08Z</time>
      </trkpt>
      <trkpt lat="45.9322" lon="4.7266">
        <ele>170</ele>
        <time>2018-07-27T10:19:09Z</time>
      </trkpt>
      <trkpt lat="45.93216" lon="4.72666">
        <ele>170</ele>
        <time>2018-07-27T10:19:10Z</time>
      </trkpt>
      <trkpt lat="45.93211" lon="4.72671">
        <ele>169</ele>
        <time>2018-07-27T10:19:11Z</time>
      </trkpt>
      <trkpt lat="45.93207" lon="4.72676">
        <ele>169</ele>
        <time>2018-07-27T10:19:12Z</time>
      </trkpt>
      <trkpt lat="45.93201" lon="4.72683">
        <ele>169</ele>
        <time>2018-07-27T10:19:13Z</time>
      </trkpt>
      <trkpt lat="45.93196" lon="4.72688">
        <ele>169</ele>
        <time>2018-07-27T10:19:14Z</time>
      </trkpt>
      <trkpt lat="45.93192" lon="4.72694">
        <ele>169</ele>
        <time>2018-07-27T10:19:15Z</time>
      </trkpt>
      <trkpt lat="45.93186" lon="4.72699">
        <ele>169</ele>
        <time>2018-07-27T10:19:16Z</time>
      </trkpt>
      <trkpt lat="45.93181" lon="4.72707">
        <ele>169</ele>
        <time>2018-07-27T10:19:17Z</time>
      </trkpt>
      <trkpt lat="45.93176" lon="4.7271">
        <ele>169</ele>
        <time>2018-07-27T10:19:18Z</time>
      </trkpt>
      <trkpt lat="45.93172" lon="4.72716">
        <ele>170</ele>
        <time>2018-07-27T10:19:19Z</time>
      </trkpt>
      <trkpt lat="45.93169" lon="4.7272">
        <ele>170</ele>
        <time>2018-07-27T10:19:20Z</time>
      </trkpt>
      <trkpt lat="45.93164" lon="4.72725">
        <ele>170</ele>
        <time>2018-07-27T10:19:21Z</time>
      </trkpt>
      <trkpt lat="45.93159" lon="4.7273">
        <ele>170</ele>
        <time>2018-07-27T10:19:22Z</time>
      </trkpt>
      <trkpt lat="45.93154" lon="4.72735">
        <ele>170</ele>
        <time>2018-07-27T10:19:23Z</time>
      </trkpt>
      <trkpt lat="45.93149" lon="4.72741">
        <ele>170</ele>
        <time>2018-07-27T10:19:24Z</time>
      </trkpt>
      <trkpt lat="45.93144" lon="4.72747">
        <ele>170</ele>
        <time>2018-07-27T10:19:25Z</time>
      </trkpt>
      <trkpt lat="45.93139" lon="4.72754">
        <ele>171</ele>
        <time>2018-07-27T10:19:26Z</time>
      </trkpt>
      <trkpt lat="45.93135" lon="4.72759">
        <ele>171</ele>
        <time>2018-07-27T10:19:27Z</time>
      </trkpt>
      <trkpt lat="45.9313" lon="4.72765">
        <ele>171</ele>
        <time>2018-07-27T10:19:28Z</time>
      </trkpt>
      <trkpt lat="45.93125" lon="4.7277">
        <ele>171</ele>
        <time>2018-07-27T10:19:29Z</time>
      </trkpt>
      <trkpt lat="45.93121" lon="4.72776">
        <ele>171</ele>
        <time>2018-07-27T10:19:30Z</time>
      </trkpt>
      <trkpt lat="45.93117" lon="4.72782">
        <ele>171</ele>
        <time>2018-07-27T10:19:31Z</time>
      </trkpt>
      <trkpt lat="45.93113" lon="4.72788">
        <ele>171</ele>
        <time>2018-07-27T10:19:32Z</time>
      </trkpt>
      <trkpt lat="45.93106" lon="4.72792">
        <ele>171</ele>
        <time>2018-07-27T10:19:33Z</time>
      </trkpt>
      <trkpt lat="45.93101" lon="4.72796">
        <ele>171</ele>
        <time>2018-07-27T10:19:34Z</time>
      </trkpt>
      <trkpt lat="45.93095" lon="4.72801">
        <ele>171</ele>
        <time>2018-07-27T10:19:35Z</time>
      </trkpt>
      <trkpt lat="45.93089" lon="4.72807">
        <ele>172</ele>
        <time>2018-07-27T10:19:36Z</time>
      </trkpt>
      <trkpt lat="45.93084" lon="4.72812">
        <ele>172</ele>
        <time>2018-07-27T10:19:37Z</time>
      </trkpt>
      <trkpt lat="45.93042" lon="4.72859">
        <ele>172</ele>
        <time>2018-07-27T10:19:46Z</time>
      </trkpt>
      <trkpt lat="45.93036" lon="4.72866">
        <ele>172</ele>
        <time>2018-07-27T10:19:47Z</time>
      </trkpt>
      <trkpt lat="45.93029" lon="4.72875">
        <ele>172</ele>
        <time>2018-07-27T10:19:48Z</time>
      </trkpt>
      <trkpt lat="45.93025" lon="4.72885">
        <ele>172</ele>
        <time>2018-07-27T10:19:49Z</time>
      </trkpt>
      <trkpt lat="45.93021" lon="4.72889">
        <ele>172</ele>
        <time>2018-07-27T10:19:50Z</time>
      </trkpt>
      <trkpt lat="45.93017" lon="4.72895">
        <ele>172</ele>
        <time>2018-07-27T10:19:51Z</time>
      </trkpt>
      <trkpt lat="45.9301" lon="4.72902">
        <ele>172</ele>
        <time>2018-07-27T10:19:52Z</time>
      </trkpt>
      <trkpt lat="45.93006" lon="4.72905">
        <ele>171</ele>
        <time>2018-07-27T10:19:53Z</time>
      </trkpt>
      <trkpt lat="45.93001" lon="4.72912">
        <ele>171</ele>
        <time>2018-07-27T10:19:54Z</time>
      </trkpt>
      <trkpt lat="45.92996" lon="4.72921">
        <ele>171</ele>
        <time>2018-07-27T10:19:55Z</time>
      </trkpt>
      <trkpt lat="45.92991" lon="4.72927">
        <ele>171</ele>
        <time>2018-07-27T10:19:56Z</time>
      </trkpt>
      <trkpt lat="45.92986" lon="4.72932">
        <ele>171</ele>
        <time>2018-07-27T10:19:57Z</time>
      </trkpt>
      <trkpt lat="45.92981" lon="4.72938">
        <ele>171</ele>
        <time>2018-07-27T10:19:58Z</time>
      </trkpt>
      <trkpt lat="45.92976" lon="4.72945">
        <ele>171</ele>
        <time>2018-07-27T10:19:59Z</time>
      </trkpt>
      <trkpt lat="45.92972" lon="4.72948">
        <ele>171</ele>
        <time>2018-07-27T10:20:00Z</time>
      </trkpt>
      <trkpt lat="45.92967" lon="4.72955">
        <ele>171</ele>
        <time>2018-07-27T10:20:01Z</time>
      </trkpt>
      <trkpt lat="45.92963" lon="4.7296">
        <ele>171</ele>
        <time>2018-07-27T10:20:02Z</time>
      </trkpt>
      <trkpt lat="45.92959" lon="4.72967">
        <ele>171</ele>
        <time>2018-07-27T10:20:03Z</time>
      </trkpt>
      <trkpt lat="45.92955" lon="4.72973">
        <ele>171</ele>
        <time>2018-07-27T10:20:04Z</time>
      </trkpt>
      <trkpt lat="45.9295" lon="4.72979">
        <ele>171</ele>
        <time>2018-07-27T10:20:05Z</time>
      </trkpt>
      <trkpt lat="45.92945" lon="4.72985">
        <ele>171</ele>
        <time>2018-07-27T10:20:06Z</time>
      </trkpt>
      <trkpt lat="45.92939" lon="4.7299">
        <ele>171</ele>
        <time>2018-07-27T10:20:07Z</time>
      </trkpt>
      <trkpt lat="45.92935" lon="4.72994">
        <ele>172</ele>
        <time>2018-07-27T10:20:08Z</time>
      </trkpt>
      <trkpt lat="45.9293" lon="4.73">
        <ele>172</ele>
        <time>2018-07-27T10:20:09Z</time>
      </trkpt>
      <trkpt lat="45.92925" lon="4.73004">
        <ele>172</ele>
        <time>2018-07-27T10:20:10Z</time>
      </trkpt>
      <trkpt lat="45.9292" lon="4.73011">
        <ele>172</ele>
        <time>2018-07-27T10:20:11Z</time>
      </trkpt>
      <trkpt lat="45.92916" lon="4.7302">
        <ele>172</ele>
        <time>2018-07-27T10:20:12Z</time>
      </trkpt>
      <trkpt lat="45.92913" lon="4.73028">
        <ele>172</ele>
        <time>2018-07-27T10:20:13Z</time>
      </trkpt>
      <trkpt lat="45.9291" lon="4.73031">
        <ele>172</ele>
        <time>2018-07-27T10:20:14Z</time>
      </trkpt>
      <trkpt lat="45.92905" lon="4.73036">
        <ele>172</ele>
        <time>2018-07-27T10:20:15Z</time>
      </trkpt>
      <trkpt lat="45.92903" lon="4.7304">
        <ele>172</ele>
        <time>2018-07-27T10:20:16Z</time>
      </trkpt>
      <trkpt lat="45.929" lon="4.7305">
        <ele>172</ele>
        <time>2018-07-27T10:20:17Z</time>
      </trkpt>
      <trkpt lat="45.92897" lon="4.73057">
        <ele>172</ele>
        <time>2018-07-27T10:20:18Z</time>
      </trkpt>
      <trkpt lat="45.92894" lon="4.73065">
        <ele>172</ele>
        <time>2018-07-27T10:20:19Z</time>
      </trkpt>
      <trkpt lat="45.9289" lon="4.7307">
        <ele>172</ele>
        <time>2018-07-27T10:20:20Z</time>
      </trkpt>
      <trkpt lat="45.92886" lon="4.73075">
        <ele>172</ele>
        <time>2018-07-27T10:20:21Z</time>
      </trkpt>
      <trkpt lat="45.92882" lon="4.7308">
        <ele>172</ele>
        <time>2018-07-27T10:20:22Z</time>
      </trkpt>
      <trkpt lat="45.92877" lon="4.73085">
        <ele>172</ele>
        <time>2018-07-27T10:20:23Z</time>
      </trkpt>
      <trkpt lat="45.92872" lon="4.7309">
        <ele>172</ele>
        <time>2018-07-27T10:20:24Z</time>
      </trkpt>
      <trkpt lat="45.92868" lon="4.73095">
        <ele>172</ele>
        <time>2018-07-27T10:20:25Z</time>
      </trkpt>
      <trkpt lat="45.92865" lon="4.73101">
        <ele>171</ele>
        <time>2018-07-27T10:20:26Z</time>
      </trkpt>
      <trkpt lat="45.9286" lon="4.73103">
        <ele>171</ele>
        <time>2018-07-27T10:20:27Z</time>
      </trkpt>
      <trkpt lat="45.92854" lon="4.73102">
        <ele>171</ele>
        <time>2018-07-27T10:20:28Z</time>
      </trkpt>
      <trkpt lat="45.92848" lon="4.73093">
        <ele>171</ele>
        <time>2018-07-27T10:20:31Z</time>
      </trkpt>
      <trkpt lat="45.92847" lon="4.73085">
        <ele>171</ele>
        <time>2018-07-27T10:20:32Z</time>
      </trkpt>
      <trkpt lat="45.92847" lon="4.73078">
        <ele>171</ele>
        <time>2018-07-27T10:20:33Z</time>
      </trkpt>
      <trkpt lat="45.92846" lon="4.73071">
        <ele>171</ele>
        <time>2018-07-27T10:20:34Z</time>
      </trkpt>
      <trkpt lat="45.92842" lon="4.73063">
        <ele>171</ele>
        <time>2018-07-27T10:20:35Z</time>
      </trkpt>
      <trkpt lat="45.92841" lon="4.73055">
        <ele>171</ele>
        <time>2018-07-27T10:20:36Z</time>
      </trkpt>
      <trkpt lat="45.92839" lon="4.73049">
        <ele>171</ele>
        <time>2018-07-27T10:20:37Z</time>
      </trkpt>
      <trkpt lat="45.9284" lon="4.7304">
        <ele>171</ele>
        <time>2018-07-27T10:20:38Z</time>
      </trkpt>
      <trkpt lat="45.92841" lon="4.73031">
        <ele>171</ele>
        <time>2018-07-27T10:20:39Z</time>
      </trkpt>
      <trkpt lat="45.92837" lon="4.73023">
        <ele>171</ele>
        <time>2018-07-27T10:20:40Z</time>
      </trkpt>
      <trkpt lat="45.92836" lon="4.73015">
        <ele>171</ele>
        <time>2018-07-27T10:20:41Z</time>
      </trkpt>
      <trkpt lat="45.92835" lon="4.73007">
        <ele>170</ele>
        <time>2018-07-27T10:20:42Z</time>
      </trkpt>
      <trkpt lat="45.92833" lon="4.73">
        <ele>170</ele>
        <time>2018-07-27T10:20:43Z</time>
      </trkpt>
      <trkpt lat="45.92831" lon="4.72992">
        <ele>170</ele>
        <time>2018-07-27T10:20:44Z</time>
      </trkpt>
      <trkpt lat="45.92831" lon="4.72984">
        <ele>170</ele>
        <time>2018-07-27T10:20:45Z</time>
      </trkpt>
      <trkpt lat="45.92829" lon="4.72976">
        <ele>170</ele>
        <time>2018-07-27T10:20:46Z</time>
      </trkpt>
      <trkpt lat="45.92826" lon="4.72968">
        <ele>170</ele>
        <time>2018-07-27T10:20:47Z</time>
      </trkpt>
      <trkpt lat="45.92825" lon="4.72961">
        <ele>170</ele>
        <time>2018-07-27T10:20:48Z</time>
      </trkpt>
      <trkpt lat="45.92827" lon="4.72949">
        <ele>170</ele>
        <time>2018-07-27T10:20:50Z</time>
      </trkpt>
      <trkpt lat="45.92827" lon="4.72944">
        <ele>170</ele>
        <time>2018-07-27T10:20:51Z</time>
      </trkpt>
      <trkpt lat="45.92825" lon="4.72932">
        <ele>170</ele>
        <time>2018-07-27T10:20:53Z</time>
      </trkpt>
      <trkpt lat="45.92824" lon="4.72925">
        <ele>170</ele>
        <time>2018-07-27T10:20:54Z</time>
      </trkpt>
      <trkpt lat="45.92823" lon="4.72918">
        <ele>170</ele>
        <time>2018-07-27T10:20:55Z</time>
      </trkpt>
      <trkpt lat="45.92821" lon="4.72912">
        <ele>170</ele>
        <time>2018-07-27T10:20:56Z</time>
      </trkpt>
      <trkpt lat="45.92821" lon="4.72899">
        <ele>170</ele>
        <time>2018-07-27T10:20:58Z</time>
      </trkpt>
      <trkpt lat="45.9282" lon="4.72893">
        <ele>170</ele>
        <time>2018-07-27T10:20:59Z</time>
      </trkpt>
      <trkpt lat="45.92818" lon="4.72887">
        <ele>170</ele>
        <time>2018-07-27T10:21:00Z</time>
      </trkpt>
      <trkpt lat="45.92817" lon="4.7288">
        <ele>170</ele>
        <time>2018-07-27T10:21:01Z</time>
      </trkpt>
      <trkpt lat="45.92816" lon="4.72874">
        <ele>170</ele>
        <time>2018-07-27T10:21:02Z</time>
      </trkpt>
      <trkpt lat="45.92815" lon="4.72867">
        <ele>170</ele>
        <time>2018-07-27T10:21:03Z</time>
      </trkpt>
      <trkpt lat="45.92812" lon="4.7286">
        <ele>170</ele>
        <time>2018-07-27T10:21:04Z</time>
      </trkpt>
      <trkpt lat="45.92811" lon="4.72854">
        <ele>170</ele>
        <time>2018-07-27T10:21:05Z</time>
      </trkpt>
      <trkpt lat="45.9281" lon="4.72847">
        <ele>170</ele>
        <time>2018-07-27T10:21:06Z</time>
      </trkpt>
      <trkpt lat="45.9281" lon="4.7284">
        <ele>170</ele>
        <time>2018-07-27T10:21:07Z</time>
      </trkpt>
      <trkpt lat="45.92809" lon="4.72833">
        <ele>171</ele>
        <time>2018-07-27T10:21:08Z</time>
      </trkpt>
      <trkpt lat="45.92808" lon="4.72826">
        <ele>171</ele>
        <time>2018-07-27T10:21:09Z</time>
      </trkpt>
      <trkpt lat="45.92806" lon="4.72814">
        <ele>171</ele>
        <time>2018-07-27T10:21:11Z</time>
      </trkpt>
      <trkpt lat="45.92806" lon="4.72808">
        <ele>171</ele>
        <time>2018-07-27T10:21:12Z</time>
      </trkpt>
      <trkpt lat="45.92805" lon="4.72797">
        <ele>171</ele>
        <time>2018-07-27T10:21:14Z</time>
      </trkpt>
      <trkpt lat="45.92803" lon="4.72791">
        <ele>171</ele>
        <time>2018-07-27T10:21:15Z</time>
      </trkpt>
      <trkpt lat="45.92798" lon="4.72786">
        <ele>171</ele>
        <time>2018-07-27T10:21:17Z</time>
      </trkpt>
      <trkpt lat="45.92795" lon="4.72785">
        <ele>171</ele>
        <time>2018-07-27T10:21:18Z</time>
      </trkpt>
      <trkpt lat="45.92786" lon="4.72788">
        <ele>170</ele>
        <time>2018-07-27T10:21:20Z</time>
      </trkpt>
      <trkpt lat="45.92782" lon="4.72791">
        <ele>170</ele>
        <time>2018-07-27T10:21:21Z</time>
      </trkpt>
      <trkpt lat="45.92774" lon="4.72797">
        <ele>170</ele>
        <time>2018-07-27T10:21:23Z</time>
      </trkpt>
      <trkpt lat="45.9277" lon="4.72801">
        <ele>170</ele>
        <time>2018-07-27T10:21:24Z</time>
      </trkpt>
      <trkpt lat="45.92765" lon="4.72804">
        <ele>170</ele>
        <time>2018-07-27T10:21:25Z</time>
      </trkpt>
      <trkpt lat="45.92761" lon="4.72808">
        <ele>170</ele>
        <time>2018-07-27T10:21:26Z</time>
      </trkpt>
      <trkpt lat="45.92756" lon="4.72814">
        <ele>170</ele>
        <time>2018-07-27T10:21:27Z</time>
      </trkpt>
      <trkpt lat="45.92752" lon="4.72818">
        <ele>170</ele>
        <time>2018-07-27T10:21:28Z</time>
      </trkpt>
      <trkpt lat="45.92747" lon="4.7282">
        <ele>169</ele>
        <time>2018-07-27T10:21:29Z</time>
      </trkpt>
      <trkpt lat="45.92743" lon="4.72823">
        <ele>169</ele>
        <time>2018-07-27T10:21:30Z</time>
      </trkpt>
      <trkpt lat="45.92738" lon="4.72826">
        <ele>169</ele>
        <time>2018-07-27T10:21:31Z</time>
      </trkpt>
      <trkpt lat="45.92734" lon="4.7283">
        <ele>169</ele>
        <time>2018-07-27T10:21:32Z</time>
      </trkpt>
      <trkpt lat="45.92727" lon="4.72836">
        <ele>169</ele>
        <time>2018-07-27T10:21:34Z</time>
      </trkpt>
      <trkpt lat="45.92723" lon="4.72843">
        <ele>169</ele>
        <time>2018-07-27T10:21:35Z</time>
      </trkpt>
      <trkpt lat="45.92719" lon="4.72847">
        <ele>169</ele>
        <time>2018-07-27T10:21:36Z</time>
      </trkpt>
      <trkpt lat="45.92714" lon="4.72851">
        <ele>169</ele>
        <time>2018-07-27T10:21:37Z</time>
      </trkpt>
      <trkpt lat="45.9271" lon="4.72854">
        <ele>169</ele>
        <time>2018-07-27T10:21:38Z</time>
      </trkpt>
      <trkpt lat="45.92706" lon="4.72857">
        <ele>169</ele>
        <time>2018-07-27T10:21:39Z</time>
      </trkpt>
      <trkpt lat="45.927" lon="4.72865">
        <ele>169</ele>
        <time>2018-07-27T10:21:41Z</time>
      </trkpt>
      <trkpt lat="45.92695" lon="4.72867">
        <ele>169</ele>
        <time>2018-07-27T10:21:42Z</time>
      </trkpt>
      <trkpt lat="45.9269" lon="4.7287">
        <ele>169</ele>
        <time>2018-07-27T10:21:43Z</time>
      </trkpt>
      <trkpt lat="45.92685" lon="4.72874">
        <ele>169</ele>
        <time>2018-07-27T10:21:44Z</time>
      </trkpt>
      <trkpt lat="45.9268" lon="4.72878">
        <ele>170</ele>
        <time>2018-07-27T10:21:45Z</time>
      </trkpt>
      <trkpt lat="45.92674" lon="4.72881">
        <ele>170</ele>
        <time>2018-07-27T10:21:46Z</time>
      </trkpt>
      <trkpt lat="45.92668" lon="4.72885">
        <ele>170</ele>
        <time>2018-07-27T10:21:47Z</time>
      </trkpt>
      <trkpt lat="45.92663" lon="4.72889">
        <ele>169</ele>
        <time>2018-07-27T10:21:48Z</time>
      </trkpt>
      <trkpt lat="45.92657" lon="4.72894">
        <ele>170</ele>
        <time>2018-07-27T10:21:49Z</time>
      </trkpt>
      <trkpt lat="45.92651" lon="4.72899">
        <ele>170</ele>
        <time>2018-07-27T10:21:50Z</time>
      </trkpt>
      <trkpt lat="45.92646" lon="4.72902">
        <ele>170</ele>
        <time>2018-07-27T10:21:51Z</time>
      </trkpt>
      <trkpt lat="45.9264" lon="4.72909">
        <ele>169</ele>
        <time>2018-07-27T10:21:52Z</time>
      </trkpt>
      <trkpt lat="45.92634" lon="4.72911">
        <ele>169</ele>
        <time>2018-07-27T10:21:53Z</time>
      </trkpt>
      <trkpt lat="45.9263" lon="4.72917">
        <ele>169</ele>
        <time>2018-07-27T10:21:54Z</time>
      </trkpt>
      <trkpt lat="45.92625" lon="4.72919">
        <ele>170</ele>
        <time>2018-07-27T10:21:55Z</time>
      </trkpt>
      <trkpt lat="45.92621" lon="4.72923">
        <ele>169</ele>
        <time>2018-07-27T10:21:56Z</time>
      </trkpt>
      <trkpt lat="45.92616" lon="4.72927">
        <ele>169</ele>
        <time>2018-07-27T10:21:57Z</time>
      </trkpt>
      <trkpt lat="45.92611" lon="4.72928">
        <ele>169</ele>
        <time>2018-07-27T10:21:58Z</time>
      </trkpt>
      <trkpt lat="45.92605" lon="4.72935">
        <ele>169</ele>
        <time>2018-07-27T10:21:59Z</time>
      </trkpt>
      <trkpt lat="45.92599" lon="4.72941">
        <ele>169</ele>
        <time>2018-07-27T10:22:00Z</time>
      </trkpt>
      <trkpt lat="45.92593" lon="4.72948">
        <ele>169</ele>
        <time>2018-07-27T10:22:01Z</time>
      </trkpt>
      <trkpt lat="45.92588" lon="4.72956">
        <ele>169</ele>
        <time>2018-07-27T10:22:02Z</time>
      </trkpt>
      <trkpt lat="45.92582" lon="4.72961">
        <ele>169</ele>
        <time>2018-07-27T10:22:03Z</time>
      </trkpt>
      <trkpt lat="45.92577" lon="4.72968">
        <ele>169</ele>
        <time>2018-07-27T10:22:04Z</time>
      </trkpt>
      <trkpt lat="45.92571" lon="4.72974">
        <ele>169</ele>
        <time>2018-07-27T10:22:05Z</time>
      </trkpt>
      <trkpt lat="45.92566" lon="4.72978">
        <ele>169</ele>
        <time>2018-07-27T10:22:06Z</time>
      </trkpt>
      <trkpt lat="45.92562" lon="4.72984">
        <ele>169</ele>
        <time>2018-07-27T10:22:07Z</time>
      </trkpt>
      <trkpt lat="45.92557" lon="4.7299">
        <ele>169</ele>
        <time>2018-07-27T10:22:08Z</time>
      </trkpt>
      <trkpt lat="45.92552" lon="4.72995">
        <ele>169</ele>
        <time>2018-07-27T10:22:09Z</time>
      </trkpt>
      <trkpt lat="45.92547" lon="4.73">
        <ele>169</ele>
        <time>2018-07-27T10:22:10Z</time>
      </trkpt>
      <trkpt lat="45.92542" lon="4.73005">
        <ele>169</ele>
        <time>2018-07-27T10:22:11Z</time>
      </trkpt>
      <trkpt lat="45.92536" lon="4.73011">
        <ele>169</ele>
        <time>2018-07-27T10:22:12Z</time>
      </trkpt>
      <trkpt lat="45.92532" lon="4.73018">
        <ele>169</ele>
        <time>2018-07-27T10:22:13Z</time>
      </trkpt>
      <trkpt lat="45.92526" lon="4.73023">
        <ele>169</ele>
        <time>2018-07-27T10:22:14Z</time>
      </trkpt>
      <trkpt lat="45.92521" lon="4.73025">
        <ele>169</ele>
        <time>2018-07-27T10:22:15Z</time>
      </trkpt>
      <trkpt lat="45.92515" lon="4.73031">
        <ele>169</ele>
        <time>2018-07-27T10:22:16Z</time>
      </trkpt>
      <trkpt lat="45.92509" lon="4.73035">
        <ele>169</ele>
        <time>2018-07-27T10:22:17Z</time>
      </trkpt>
      <trkpt lat="45.92506" lon="4.73039">
        <ele>169</ele>
        <time>2018-07-27T10:22:18Z</time>
      </trkpt>
      <trkpt lat="45.92502" lon="4.73043">
        <ele>170</ele>
        <time>2018-07-27T10:22:19Z</time>
      </trkpt>
      <trkpt lat="45.92497" lon="4.73048">
        <ele>170</ele>
        <time>2018-07-27T10:22:20Z</time>
      </trkpt>
      <trkpt lat="45.92493" lon="4.73052">
        <ele>170</ele>
        <time>2018-07-27T10:22:21Z</time>
      </trkpt>
      <trkpt lat="45.92488" lon="4.73056">
        <ele>170</ele>
        <time>2018-07-27T10:22:22Z</time>
      </trkpt>
      <trkpt lat="45.92483" lon="4.73059">
        <ele>170</ele>
        <time>2018-07-27T10:22:23Z</time>
      </trkpt>
      <trkpt lat="45.92477" lon="4.73064">
        <ele>170</ele>
        <time>2018-07-27T10:22:24Z</time>
      </trkpt>
      <trkpt lat="45.92472" lon="4.73063">
        <ele>170</ele>
        <time>2018-07-27T10:22:25Z</time>
      </trkpt>
      <trkpt lat="45.92467" lon="4.73071">
        <ele>170</ele>
        <time>2018-07-27T10:22:26Z</time>
      </trkpt>
      <trkpt lat="45.92461" lon="4.73077">
        <ele>170</ele>
        <time>2018-07-27T10:22:27Z</time>
      </trkpt>
      <trkpt lat="45.92455" lon="4.7308">
        <ele>170</ele>
        <time>2018-07-27T10:22:28Z</time>
      </trkpt>
      <trkpt lat="45.9245" lon="4.73085">
        <ele>170</ele>
        <time>2018-07-27T10:22:29Z</time>
      </trkpt>
      <trkpt lat="45.92444" lon="4.73089">
        <ele>170</ele>
        <time>2018-07-27T10:22:30Z</time>
      </trkpt>
      <trkpt lat="45.92439" lon="4.73094">
        <ele>171</ele>
        <time>2018-07-27T10:22:31Z</time>
      </trkpt>
      <trkpt lat="45.92434" lon="4.73097">
        <ele>171</ele>
        <time>2018-07-27T10:22:32Z</time>
      </trkpt>
      <trkpt lat="45.92429" lon="4.73101">
        <ele>171</ele>
        <time>2018-07-27T10:22:33Z</time>
      </trkpt>
      <trkpt lat="45.92424" lon="4.73104">
        <ele>171</ele>
        <time>2018-07-27T10:22:34Z</time>
      </trkpt>
      <trkpt lat="45.92419" lon="4.73109">
        <ele>171</ele>
        <time>2018-07-27T10:22:35Z</time>
      </trkpt>
      <trkpt lat="45.92414" lon="4.73113">
        <ele>171</ele>
        <time>2018-07-27T10:22:36Z</time>
      </trkpt>
      <trkpt lat="45.9241" lon="4.73118">
        <ele>171</ele>
        <time>2018-07-27T10:22:37Z</time>
      </trkpt>
      <trkpt lat="45.92408" lon="4.73125">
        <ele>171</ele>
        <time>2018-07-27T10:22:38Z</time>
      </trkpt>
      <trkpt lat="45.92406" lon="4.73131">
        <ele>171</ele>
        <time>2018-07-27T10:22:39Z</time>
      </trkpt>
      <trkpt lat="45.92407" lon="4.73139">
        <ele>171</ele>
        <time>2018-07-27T10:22:40Z</time>
      </trkpt>
      <trkpt lat="45.92406" lon="4.73145">
        <ele>171</ele>
        <time>2018-07-27T10:22:41Z</time>
      </trkpt>
      <trkpt lat="45.92407" lon="4.73152">
        <ele>171</ele>
        <time>2018-07-27T10:22:42Z</time>
      </trkpt>
      <trkpt lat="45.92407" lon="4.7316">
        <ele>170</ele>
        <time>2018-07-27T10:22:43Z</time>
      </trkpt>
      <trkpt lat="45.92407" lon="4.73168">
        <ele>170</ele>
        <time>2018-07-27T10:22:44Z</time>
      </trkpt>
      <trkpt lat="45.92407" lon="4.73176">
        <ele>171</ele>
        <time>2018-07-27T10:22:45Z</time>
      </trkpt>
      <trkpt lat="45.92407" lon="4.73183">
        <ele>171</ele>
        <time>2018-07-27T10:22:46Z</time>
      </trkpt>
      <trkpt lat="45.92407" lon="4.7319">
        <ele>171</ele>
        <time>2018-07-27T10:22:47Z</time>
      </trkpt>
      <trkpt lat="45.92407" lon="4.73199">
        <ele>171</ele>
        <time>2018-07-27T10:22:48Z</time>
      </trkpt>
      <trkpt lat="45.92408" lon="4.73207">
        <ele>171</ele>
        <time>2018-07-27T10:22:49Z</time>
      </trkpt>
      <trkpt lat="45.92408" lon="4.73215">
        <ele>171</ele>
        <time>2018-07-27T10:22:50Z</time>
      </trkpt>
      <trkpt lat="45.92409" lon="4.73223">
        <ele>171</ele>
        <time>2018-07-27T10:22:51Z</time>
      </trkpt>
      <trkpt lat="45.92408" lon="4.73231">
        <ele>171</ele>
        <time>2018-07-27T10:22:52Z</time>
      </trkpt>
      <trkpt lat="45.92408" lon="4.73238">
        <ele>171</ele>
        <time>2018-07-27T10:22:53Z</time>
      </trkpt>
      <trkpt lat="45.92408" lon="4.73245">
        <ele>171</ele>
        <time>2018-07-27T10:22:54Z</time>
      </trkpt>
      <trkpt lat="45.9241" lon="4.73253">
        <ele>171</ele>
        <time>2018-07-27T10:22:55Z</time>
      </trkpt>
      <trkpt lat="45.92411" lon="4.73261">
        <ele>171</ele>
        <time>2018-07-27T10:22:56Z</time>
      </trkpt>
      <trkpt lat="45.92411" lon="4.73269">
        <ele>171</ele>
        <time>2018-07-27T10:22:57Z</time>
      </trkpt>
      <trkpt lat="45.92412" lon="4.73277">
        <ele>171</ele>
        <time>2018-07-27T10:22:58Z</time>
      </trkpt>
      <trkpt lat="45.92412" lon="4.73285">
        <ele>171</ele>
        <time>2018-07-27T10:22:59Z</time>
      </trkpt>
      <trkpt lat="45.92412" lon="4.73293">
        <ele>171</ele>
        <time>2018-07-27T10:23:00Z</time>
      </trkpt>
      <trkpt lat="45.92413" lon="4.733">
        <ele>171</ele>
        <time>2018-07-27T10:23:01Z</time>
      </trkpt>
      <trkpt lat="45.92413" lon="4.73307">
        <ele>171</ele>
        <time>2018-07-27T10:23:02Z</time>
      </trkpt>
      <trkpt lat="45.92413" lon="4.73314">
        <ele>171</ele>
        <time>2018-07-27T10:23:03Z</time>
      </trkpt>
      <trkpt lat="45.92413" lon="4.73321">
        <ele>171</ele>
        <time>2018-07-27T10:23:04Z</time>
      </trkpt>
      <trkpt lat="45.92414" lon="4.73333">
        <ele>171</ele>
        <time>2018-07-27T10:23:06Z</time>
      </trkpt>
      <trkpt lat="45.92414" lon="4.73341">
        <ele>171</ele>
        <time>2018-07-27T10:23:07Z</time>
      </trkpt>
      <trkpt lat="45.92416" lon="4.73348">
        <ele>171</ele>
        <time>2018-07-27T10:23:08Z</time>
      </trkpt>
      <trkpt lat="45.92417" lon="4.73355">
        <ele>171</ele>
        <time>2018-07-27T10:23:09Z</time>
      </trkpt>
      <trkpt lat="45.92418" lon="4.73363">
        <ele>172</ele>
        <time>2018-07-27T10:23:10Z</time>
      </trkpt>
      <trkpt lat="45.92419" lon="4.73371">
        <ele>172</ele>
        <time>2018-07-27T10:23:11Z</time>
      </trkpt>
      <trkpt lat="45.92421" lon="4.73379">
        <ele>172</ele>
        <time>2018-07-27T10:23:12Z</time>
      </trkpt>
      <trkpt lat="45.92423" lon="4.73387">
        <ele>172</ele>
        <time>2018-07-27T10:23:13Z</time>
      </trkpt>
      <trkpt lat="45.92425" lon="4.73395">
        <ele>172</ele>
        <time>2018-07-27T10:23:14Z</time>
      </trkpt>
      <trkpt lat="45.92429" lon="4.73401">
        <ele>172</ele>
        <time>2018-07-27T10:23:15Z</time>
      </trkpt>
      <trkpt lat="45.92434" lon="4.73406">
        <ele>172</ele>
        <time>2018-07-27T10:23:16Z</time>
      </trkpt>
      <trkpt lat="45.92438" lon="4.73411">
        <ele>172</ele>
        <time>2018-07-27T10:23:17Z</time>
      </trkpt>
      <trkpt lat="45.92443" lon="4.73415">
        <ele>172</ele>
        <time>2018-07-27T10:23:18Z</time>
      </trkpt>
      <trkpt lat="45.92448" lon="4.73418">
        <ele>173</ele>
        <time>2018-07-27T10:23:19Z</time>
      </trkpt>
      <trkpt lat="45.92452" lon="4.73421">
        <ele>173</ele>
        <time>2018-07-27T10:23:20Z</time>
      </trkpt>
      <trkpt lat="45.92457" lon="4.73427">
        <ele>173</ele>
        <time>2018-07-27T10:23:21Z</time>
      </trkpt>
      <trkpt lat="45.92461" lon="4.73432">
        <ele>173</ele>
        <time>2018-07-27T10:23:22Z</time>
      </trkpt>
      <trkpt lat="45.92464" lon="4.73438">
        <ele>173</ele>
        <time>2018-07-27T10:23:23Z</time>
      </trkpt>
      <trkpt lat="45.92466" lon="4.73445">
        <ele>173</ele>
        <time>2018-07-27T10:23:24Z</time>
      </trkpt>
      <trkpt lat="45.92469" lon="4.73452">
        <ele>173</ele>
        <time>2018-07-27T10:23:25Z</time>
      </trkpt>
      <trkpt lat="45.9247" lon="4.73459">
        <ele>173</ele>
        <time>2018-07-27T10:23:26Z</time>
      </trkpt>
      <trkpt lat="45.92471" lon="4.73468">
        <ele>173</ele>
        <time>2018-07-27T10:23:27Z</time>
      </trkpt>
      <trkpt lat="45.9247" lon="4.73476">
        <ele>173</ele>
        <time>2018-07-27T10:23:28Z</time>
      </trkpt>
      <trkpt lat="45.92468" lon="4.73482">
        <ele>173</ele>
        <time>2018-07-27T10:23:29Z</time>
      </trkpt>
      <trkpt lat="45.92466" lon="4.7349">
        <ele>173</ele>
        <time>2018-07-27T10:23:30Z</time>
      </trkpt>
      <trkpt lat="45.92465" lon="4.73497">
        <ele>173</ele>
        <time>2018-07-27T10:23:31Z</time>
      </trkpt>
      <trkpt lat="45.92465" lon="4.73505">
        <ele>174</ele>
        <time>2018-07-27T10:23:32Z</time>
      </trkpt>
      <trkpt lat="45.92465" lon="4.73512">
        <ele>174</ele>
        <time>2018-07-27T10:23:33Z</time>
      </trkpt>
      <trkpt lat="45.92464" lon="4.73524">
        <ele>174</ele>
        <time>2018-07-27T10:23:35Z</time>
      </trkpt>
      <trkpt lat="45.92464" lon="4.7353">
        <ele>174</ele>
        <time>2018-07-27T10:23:36Z</time>
      </trkpt>
      <trkpt lat="45.92464" lon="4.73537">
        <ele>174</ele>
        <time>2018-07-27T10:23:37Z</time>
      </trkpt>
      <trkpt lat="45.92463" lon="4.73543">
        <ele>173</ele>
        <time>2018-07-27T10:23:38Z</time>
      </trkpt>
      <trkpt lat="45.92463" lon="4.73551">
        <ele>173</ele>
        <time>2018-07-27T10:23:39Z</time>
      </trkpt>
      <trkpt lat="45.92463" lon="4.73558">
        <ele>173</ele>
        <time>2018-07-27T10:23:40Z</time>
      </trkpt>
      <trkpt lat="45.92463" lon="4.73566">
        <ele>173</ele>
        <time>2018-07-27T10:23:41Z</time>
      </trkpt>
      <trkpt lat="45.92463" lon="4.73574">
        <ele>173</ele>
        <time>2018-07-27T10:23:42Z</time>
      </trkpt>
      <trkpt lat="45.92464" lon="4.73584">
        <ele>174</ele>
        <time>2018-07-27T10:23:43Z</time>
      </trkpt>
      <trkpt lat="45.92465" lon="4.73593">
        <ele>174</ele>
        <time>2018-07-27T10:23:44Z</time>
      </trkpt>
      <trkpt lat="45.92466" lon="4.73601">
        <ele>174</ele>
        <time>2018-07-27T10:23:45Z</time>
      </trkpt>
      <trkpt lat="45.92467" lon="4.73613">
        <ele>174</ele>
        <time>2018-07-27T10:23:46Z</time>
      </trkpt>
      <trkpt lat="45.92467" lon="4.73621">
        <ele>174</ele>
        <time>2018-07-27T10:23:47Z</time>
      </trkpt>
      <trkpt lat="45.92468" lon="4.7363">
        <ele>174</ele>
        <time>2018-07-27T10:23:48Z</time>
      </trkpt>
      <trkpt lat="45.92468" lon="4.73638">
        <ele>174</ele>
        <time>2018-07-27T10:23:49Z</time>
      </trkpt>
      <trkpt lat="45.92468" lon="4.73646">
        <ele>174</ele>
        <time>2018-07-27T10:23:50Z</time>
      </trkpt>
      <trkpt lat="45.92467" lon="4.73652">
        <ele>174</ele>
        <time>2018-07-27T10:23:51Z</time>
      </trkpt>
      <trkpt lat="45.92467" lon="4.73659">
        <ele>174</ele>
        <time>2018-07-27T10:23:52Z</time>
      </trkpt>
      <trkpt lat="45.92468" lon="4.73666">
        <ele>174</ele>
        <time>2018-07-27T10:23:53Z</time>
      </trkpt>
      <trkpt lat="45.92468" lon="4.73672">
        <ele>174</ele>
        <time>2018-07-27T10:23:54Z</time>
      </trkpt>
      <trkpt lat="45.92467" lon="4.73681">
        <ele>174</ele>
        <time>2018-07-27T10:23:55Z</time>
      </trkpt>
      <trkpt lat="45.92468" lon="4.73689">
        <ele>174</ele>
        <time>2018-07-27T10:23:56Z</time>
      </trkpt>
      <trkpt lat="45.92465" lon="4.737">
        <ele>174</ele>
        <time>2018-07-27T10:23:59Z</time>
      </trkpt>
      <trkpt lat="45.92465" lon="4.73709">
        <ele>174</ele>
        <time>2018-07-27T10:24:00Z</time>
      </trkpt>
      <trkpt lat="45.92465" lon="4.73707">
        <ele>174</ele>
        <time>2018-07-27T10:24:06Z</time>
      </trkpt>
      <trkpt lat="45.92465" lon="4.73707">
        <ele>174</ele>
        <time>2018-07-27T10:24:07Z</time>
      </trkpt>
      <trkpt lat="45.92465" lon="4.73707">
        <ele>174</ele>
        <time>2018-07-27T10:24:08Z</time>
      </trkpt>
      <trkpt lat="45.92462" lon="4.73709">
        <ele>174</ele>
        <time>2018-07-27T10:24:18Z</time>
      </trkpt>
      <trkpt lat="45.92462" lon="4.73709">
        <ele>174</ele>
        <time>2018-07-27T10:24:19Z</time>
      </trkpt>
      <trkpt lat="45.92461" lon="4.7371">
        <ele>174</ele>
        <time>2018-07-27T10:24:22Z</time>
      </trkpt>
      <trkpt lat="45.92461" lon="4.7371">
        <ele>174</ele>
        <time>2018-07-27T10:24:23Z</time>
      </trkpt>
      <trkpt lat="45.92461" lon="4.73709">
        <ele>174</ele>
        <time>2018-07-27T10:24:25Z</time>
      </trkpt>
      <trkpt lat="45.92461" lon="4.73709">
        <ele>174</ele>
        <time>2018-07-27T10:24:26Z</time>
      </trkpt>
      <trkpt lat="45.92458" lon="4.73711">
        <ele>174</ele>
        <time>2018-07-27T10:24:37.623Z</time>
      </trkpt>
    </trkseg>
  </trk>
</gpx>